<?xml version='1.0' encoding='UTF-8'?><gpx version="1.1" creator="JPX - https://github.com/jenetics/jpx" xmlns="http://www.topografix.com/GPX/1/1"><trk><trkseg><trkpt lat="42.77275850560407" lon="-8.67680080482644"><ele>37.0</ele><time>2026-04-16T15:22:33.712Z</time></trkpt><trkpt lat="42.77278350004953" lon="-8.676914982811734"><ele>37.0</ele><time>2026-04-16T15:22:37.712Z</time></trkpt><trkpt lat="42.77272276811123" lon="-8.676966038220346"><ele>37.0</ele><time>2026-04-16T15:27:58.998Z</time></trkpt><trkpt lat="42.7726866265114" lon="-8.677050965066357"><ele>37.0</ele><time>2026-04-16T15:28:00.998Z</time></trkpt><trkpt lat="42.772631521459026" lon="-8.677095055199999"><ele>37.0</ele><time>2026-04-16T15:28:01.998Z</time></trkpt><trkpt lat="42.77256484759583" lon="-8.677153094356747"><ele>37.0</ele><time>2026-04-16T15:28:02.998Z</time></trkpt><trkpt lat="42.77246294919775" lon="-8.677212304402666"><ele>37.0</ele><time>2026-04-16T15:28:03.998Z</time></trkpt><trkpt lat="42.77235592689457" lon="-8.677272065599475"><ele>37.0</ele><time>2026-04-16T15:28:04.998Z</time></trkpt><trkpt lat="42.772270000532004" lon="-8.67732728695396"><ele>37.0</ele><time>2026-04-16T15:28:05.998Z</time></trkpt><trkpt lat="42.772042433461905" lon="-8.677496257662476"><ele>37.0</ele><time>2026-04-16T15:28:06.998Z</time></trkpt><trkpt lat="42.771911303742606" lon="-8.677589805963294"><ele>37.0</ele><time>2026-04-16T15:28:07.998Z</time></trkpt><trkpt lat="42.77179612952656" lon="-8.677681679502705"><ele>37.0</ele><time>2026-04-16T15:28:08.998Z</time></trkpt><trkpt lat="42.77168422974999" lon="-8.677778866036856"><ele>37.0</ele><time>2026-04-16T15:28:09.998Z</time></trkpt><trkpt lat="42.77161500023319" lon="-8.677961789173674"><ele>36.333333333333336</ele><time>2026-04-16T15:28:10.998Z</time></trkpt><trkpt lat="42.77156573306723" lon="-8.67819641539366"><ele>35.666666666666664</ele><time>2026-04-16T15:28:11.998Z</time></trkpt><trkpt lat="42.771531814175525" lon="-8.678439729907224"><ele>35.0</ele><time>2026-04-16T15:28:12.998Z</time></trkpt><trkpt lat="42.771513450411376" lon="-8.678703343627703"><ele>34.666666666666664</ele><time>2026-04-16T15:28:13.998Z</time></trkpt><trkpt lat="42.77150694990599" lon="-8.67896378692194"><ele>34.333333333333336</ele><time>2026-04-16T15:28:14.998Z</time></trkpt><trkpt lat="42.771508505446086" lon="-8.679234259305568"><ele>34.0</ele><time>2026-04-16T15:28:15.998Z</time></trkpt><trkpt lat="42.771509762597425" lon="-8.679504926729404"><ele>32.333333333333336</ele><time>2026-04-16T15:28:16.998Z</time></trkpt><trkpt lat="42.771558823102396" lon="-8.679758951811543"><ele>30.666666666666664</ele><time>2026-04-16T15:28:17.998Z</time></trkpt><trkpt lat="42.77154806522491" lon="-8.680003049764423"><ele>29.0</ele><time>2026-04-16T15:28:18.998Z</time></trkpt><trkpt lat="42.77152065157733" lon="-8.680256352005319"><ele>29.0</ele><time>2026-04-16T15:28:19.998Z</time></trkpt><trkpt lat="42.77146111422725" lon="-8.680500391170725"><ele>29.0</ele><time>2026-04-16T15:28:20.998Z</time></trkpt><trkpt lat="42.7714097970398" lon="-8.680745399435498"><ele>29.0</ele><time>2026-04-16T15:28:21.998Z</time></trkpt><trkpt lat="42.77136314882812" lon="-8.680986045708021"><ele>28.333333333333332</ele><time>2026-04-16T15:28:22.998Z</time></trkpt><trkpt lat="42.771306005568626" lon="-8.681214590545931"><ele>27.666666666666664</ele><time>2026-04-16T15:28:23.998Z</time></trkpt><trkpt lat="42.771237765397025" lon="-8.6814464013864"><ele>27.0</ele><time>2026-04-16T15:28:24.998Z</time></trkpt><trkpt lat="42.77110062858947" lon="-8.68165393712928"><ele>27.0</ele><time>2026-04-16T15:28:25.998Z</time></trkpt><trkpt lat="42.77095584603293" lon="-8.681842295841173"><ele>27.0</ele><time>2026-04-16T15:28:26.998Z</time></trkpt><trkpt lat="42.77082896606884" lon="-8.682012957294232"><ele>27.0</ele><time>2026-04-16T15:28:27.998Z</time></trkpt><trkpt lat="42.77071417700064" lon="-8.682179658739885"><ele>27.0</ele><time>2026-04-16T15:28:28.998Z</time></trkpt><trkpt lat="42.77060901742533" lon="-8.682360545631337"><ele>27.0</ele><time>2026-04-16T15:28:29.998Z</time></trkpt><trkpt lat="42.77056032041994" lon="-8.682574989227758"><ele>27.0</ele><time>2026-04-16T15:28:30.998Z</time></trkpt><trkpt lat="42.77052809046783" lon="-8.68278257002421"><ele>27.666666666666664</ele><time>2026-04-16T15:28:31.998Z</time></trkpt><trkpt lat="42.770503780903255" lon="-8.683018089874306"><ele>28.333333333333332</ele><time>2026-04-16T15:28:32.998Z</time></trkpt><trkpt lat="42.77048498050606" lon="-8.683241509011024"><ele>29.0</ele><time>2026-04-16T15:28:33.998Z</time></trkpt><trkpt lat="42.77045890093097" lon="-8.68355143204829"><ele>30.0</ele><time>2026-04-16T15:28:34.998Z</time></trkpt><trkpt lat="42.77043400051602" lon="-8.68384734222009"><ele>31.0</ele><time>2026-04-16T15:28:35.998Z</time></trkpt><trkpt lat="42.77040023017924" lon="-8.684170444707735"><ele>32.0</ele><time>2026-04-16T15:28:36.998Z</time></trkpt><trkpt lat="42.77034610758052" lon="-8.684472088352695"><ele>33.0</ele><time>2026-04-16T15:28:37.998Z</time></trkpt><trkpt lat="42.77028348889803" lon="-8.684767936567644"><ele>33.0</ele><time>2026-04-16T15:28:38.998Z</time></trkpt><trkpt lat="42.77021043746784" lon="-8.685064252461888"><ele>33.0</ele><time>2026-04-16T15:28:39.998Z</time></trkpt><trkpt lat="42.77014469674235" lon="-8.685347599256179"><ele>33.0</ele><time>2026-04-16T15:28:40.998Z</time></trkpt><trkpt lat="42.77007165016949" lon="-8.6856264568493"><ele>34.5</ele><time>2026-04-16T15:28:41.998Z</time></trkpt><trkpt lat="42.76996367033532" lon="-8.685898829851105"><ele>36.0</ele><time>2026-04-16T15:28:42.998Z</time></trkpt><trkpt lat="42.76988552780061" lon="-8.686198794819342"><ele>36.0</ele><time>2026-04-16T15:28:43.998Z</time></trkpt><trkpt lat="42.7697966193069" lon="-8.686482132980279"><ele>36.0</ele><time>2026-04-16T15:28:44.998Z</time></trkpt><trkpt lat="42.76970586895791" lon="-8.686733100817005"><ele>36.0</ele><time>2026-04-16T15:28:45.998Z</time></trkpt><trkpt lat="42.769647613651124" lon="-8.686975985981757"><ele>35.5</ele><time>2026-04-16T15:28:46.998Z</time></trkpt><trkpt lat="42.76959607509877" lon="-8.687196932332565"><ele>35.0</ele><time>2026-04-16T15:28:47.998Z</time></trkpt><trkpt lat="42.76954709415743" lon="-8.687382835898326"><ele>34.5</ele><time>2026-04-16T15:28:48.998Z</time></trkpt><trkpt lat="42.76951343036102" lon="-8.687538269029023"><ele>34.0</ele><time>2026-04-16T15:28:49.999Z</time></trkpt><trkpt lat="42.76947967993864" lon="-8.687662627176218"><ele>34.4</ele><time>2026-04-16T15:28:50.999Z</time></trkpt><trkpt lat="42.76945695164693" lon="-8.68777115626539"><ele>34.8</ele><time>2026-04-16T15:28:51.999Z</time></trkpt><trkpt lat="42.769439873251315" lon="-8.68790114004234"><ele>35.2</ele><time>2026-04-16T15:28:53.999Z</time></trkpt><trkpt lat="42.76940627273317" lon="-8.687991622806514"><ele>35.6</ele><time>2026-04-16T15:28:55.999Z</time></trkpt><trkpt lat="42.76931865267338" lon="-8.688120613834583"><ele>36.0</ele><time>2026-04-16T15:28:57.999Z</time></trkpt><trkpt lat="42.76925556163308" lon="-8.68822344104783"><ele>36.0</ele><time>2026-04-16T15:28:58.999Z</time></trkpt><trkpt lat="42.769188137283514" lon="-8.688339620805575"><ele>36.0</ele><time>2026-04-16T15:28:59.999Z</time></trkpt><trkpt lat="42.76911593631913" lon="-8.688467065008952"><ele>36.0</ele><time>2026-04-16T15:29:00.999Z</time></trkpt><trkpt lat="42.769028211905926" lon="-8.688611110096836"><ele>36.0</ele><time>2026-04-16T15:29:01.999Z</time></trkpt><trkpt lat="42.768929021872125" lon="-8.688788148212945"><ele>37.0</ele><time>2026-04-16T15:29:02.999Z</time></trkpt><trkpt lat="42.7688236415036" lon="-8.688957375647485"><ele>38.0</ele><time>2026-04-16T15:29:03.999Z</time></trkpt><trkpt lat="42.76871479746496" lon="-8.68912063007945"><ele>39.0</ele><time>2026-04-16T15:29:04.999Z</time></trkpt><trkpt lat="42.768590276743936" lon="-8.689285323419046"><ele>42.0</ele><time>2026-04-16T15:29:05.999Z</time></trkpt><trkpt lat="42.76845165069243" lon="-8.689453017644677"><ele>45.0</ele><time>2026-04-16T15:29:06.999Z</time></trkpt><trkpt lat="42.76830054739979" lon="-8.689622505526536"><ele>48.0</ele><time>2026-04-16T15:29:07.999Z</time></trkpt><trkpt lat="42.76813578699079" lon="-8.689787178999374"><ele>48.0</ele><time>2026-04-16T15:29:08.999Z</time></trkpt><trkpt lat="42.767973768472835" lon="-8.689935554561648"><ele>48.0</ele><time>2026-04-16T15:29:09.999Z</time></trkpt><trkpt lat="42.76780982904872" lon="-8.690082912714029"><ele>48.0</ele><time>2026-04-16T15:29:10.999Z</time></trkpt><trkpt lat="42.76764326871825" lon="-8.69023976199278"><ele>47.666666666666664</ele><time>2026-04-16T15:29:11.999Z</time></trkpt><trkpt lat="42.76746729832923" lon="-8.690394319354297"><ele>47.33333333333333</ele><time>2026-04-16T15:29:12.999Z</time></trkpt><trkpt lat="42.76728561460213" lon="-8.690545962998105"><ele>47.0</ele><time>2026-04-16T15:29:13.999Z</time></trkpt><trkpt lat="42.76708771525418" lon="-8.690679419203333"><ele>47.0</ele><time>2026-04-16T15:29:14.999Z</time></trkpt><trkpt lat="42.76689092620523" lon="-8.690775626978514"><ele>47.0</ele><time>2026-04-16T15:29:15.999Z</time></trkpt><trkpt lat="42.76669174374553" lon="-8.690836172869188"><ele>47.0</ele><time>2026-04-16T15:29:16.999Z</time></trkpt><trkpt lat="42.766520326914986" lon="-8.690884729631263"><ele>48.33333333333333</ele><time>2026-04-16T15:29:17.999Z</time></trkpt><trkpt lat="42.76636382997593" lon="-8.690939056019028"><ele>49.666666666666664</ele><time>2026-04-16T15:29:18.999Z</time></trkpt><trkpt lat="42.76621421467921" lon="-8.690990029158634"><ele>51.0</ele><time>2026-04-16T15:29:19.999Z</time></trkpt><trkpt lat="42.766079484723186" lon="-8.691032437754382"><ele>51.599999999999994</ele><time>2026-04-16T15:29:20.999Z</time></trkpt><trkpt lat="42.76595060142647" lon="-8.691069911398362"><ele>52.2</ele><time>2026-04-16T15:29:21.999Z</time></trkpt><trkpt lat="42.76583539829239" lon="-8.691103635450876"><ele>52.800000000000004</ele><time>2026-04-16T15:29:22.999Z</time></trkpt><trkpt lat="42.76572367133964" lon="-8.691138188763642"><ele>53.400000000000006</ele><time>2026-04-16T15:29:23.999Z</time></trkpt><trkpt lat="42.765642425907565" lon="-8.691171416481502"><ele>54.0</ele><time>2026-04-16T15:29:24.999Z</time></trkpt><trkpt lat="42.765567806536744" lon="-8.69119598070597"><ele>54.0</ele><time>2026-04-16T15:29:25.999Z</time></trkpt><trkpt lat="42.765499032600964" lon="-8.69121392002696"><ele>54.0</ele><time>2026-04-16T15:29:26.999Z</time></trkpt><trkpt lat="42.765431478155996" lon="-8.691233208459467"><ele>54.0</ele><time>2026-04-16T15:29:27.999Z</time></trkpt><trkpt lat="42.76535719944165" lon="-8.691248290648439"><ele>54.0</ele><time>2026-04-16T15:29:28.999Z</time></trkpt><trkpt lat="42.76527536108405" lon="-8.691241365647633"><ele>54.0</ele><time>2026-04-16T15:29:29.999Z</time></trkpt><trkpt lat="42.76519838525854" lon="-8.691217970539784"><ele>54.0</ele><time>2026-04-16T15:29:30.999Z</time></trkpt><trkpt lat="42.765138135831876" lon="-8.691185014154927"><ele>54.0</ele><time>2026-04-16T15:29:31.999Z</time></trkpt><trkpt lat="42.765042056768735" lon="-8.691137646895418"><ele>54.166666666666664</ele><time>2026-04-16T15:29:33.999Z</time></trkpt><trkpt lat="42.76497551911508" lon="-8.69112239818703"><ele>54.33333333333333</ele><time>2026-04-16T15:29:35.999Z</time></trkpt><trkpt lat="42.7649008033068" lon="-8.691114994586266"><ele>54.5</ele><time>2026-04-16T15:29:37.999Z</time></trkpt><trkpt lat="42.76480788378861" lon="-8.691102308282925"><ele>54.666666666666664</ele><time>2026-04-16T15:29:39.999Z</time></trkpt><trkpt lat="42.76469440574335" lon="-8.691127810000607"><ele>54.83333333333333</ele><time>2026-04-16T15:29:41.999Z</time></trkpt><trkpt lat="42.76462788877895" lon="-8.691154309692681"><ele>55.0</ele><time>2026-04-16T15:29:42.999Z</time></trkpt><trkpt lat="42.76455816418785" lon="-8.691170686948977"><ele>55.0</ele><time>2026-04-16T15:29:43.999Z</time></trkpt><trkpt lat="42.76449052810293" lon="-8.69119415526814"><ele>55.0</ele><time>2026-04-16T15:29:44.999Z</time></trkpt><trkpt lat="42.76441192390612" lon="-8.691217863996995"><ele>55.0</ele><time>2026-04-16T15:29:45.999Z</time></trkpt><trkpt lat="42.76431193239532" lon="-8.691239370101478"><ele>55.0</ele><time>2026-04-16T15:29:46.999Z</time></trkpt><trkpt lat="42.76419113355564" lon="-8.691267553561941"><ele>55.0</ele><time>2026-04-16T15:29:47.999Z</time></trkpt><trkpt lat="42.76405426353378" lon="-8.691305070898487"><ele>56.0</ele><time>2026-04-16T15:29:48.999Z</time></trkpt><trkpt lat="42.76391952904821" lon="-8.691340817312526"><ele>57.0</ele><time>2026-04-16T15:29:49.999Z</time></trkpt><trkpt lat="42.763791033820844" lon="-8.691375216335862"><ele>58.0</ele><time>2026-04-16T15:29:50.999Z</time></trkpt><trkpt lat="42.7636795203853" lon="-8.691408684555977"><ele>59.0</ele><time>2026-04-16T15:29:51.999Z</time></trkpt><trkpt lat="42.76358061386694" lon="-8.691453404444454"><ele>59.800000000000004</ele><time>2026-04-16T15:29:52.999Z</time></trkpt><trkpt lat="42.763481125338046" lon="-8.691510305388494"><ele>60.60000000000001</ele><time>2026-04-16T15:29:53.999Z</time></trkpt><trkpt lat="42.76337980074403" lon="-8.691581081987142"><ele>61.4</ele><time>2026-04-16T15:29:54.999Z</time></trkpt><trkpt lat="42.763290244972524" lon="-8.691638186378333"><ele>62.2</ele><time>2026-04-16T15:29:55.999Z</time></trkpt><trkpt lat="42.76322611975584" lon="-8.691672460459687"><ele>63.0</ele><time>2026-04-16T15:29:56.999Z</time></trkpt><trkpt lat="42.76315599832947" lon="-8.691719741628878"><ele>63.0</ele><time>2026-04-16T15:29:58.999Z</time></trkpt><trkpt lat="42.76312669378503" lon="-8.69180996642208"><ele>63.0</ele><time>2026-04-16T15:30:00.999Z</time></trkpt><trkpt lat="42.7630878510403" lon="-8.691930507210245"><ele>63.0</ele><time>2026-04-16T15:30:02.999Z</time></trkpt><trkpt lat="42.76302873614456" lon="-8.69205805842321"><ele>63.0</ele><time>2026-04-16T15:30:04.999Z</time></trkpt><trkpt lat="42.76295838212753" lon="-8.692201891647722"><ele>63.0</ele><time>2026-04-16T15:30:06.999Z</time></trkpt><trkpt lat="42.76289311697763" lon="-8.692231732873132"><ele>62.666666666666664</ele><time>2026-04-16T15:30:07.999Z</time></trkpt><trkpt lat="42.7628259998621" lon="-8.692274105122111"><ele>62.33333333333333</ele><time>2026-04-16T15:30:08.999Z</time></trkpt><trkpt lat="42.762743925266456" lon="-8.692317507653868"><ele>62.0</ele><time>2026-04-16T15:30:09.999Z</time></trkpt><trkpt lat="42.76266815841804" lon="-8.69236928126704"><ele>61.666666666666664</ele><time>2026-04-16T15:30:10.999Z</time></trkpt><trkpt lat="42.762607423555416" lon="-8.692413953703975"><ele>61.33333333333333</ele><time>2026-04-16T15:30:11.999Z</time></trkpt><trkpt lat="42.762496988366536" lon="-8.69248009089729"><ele>61.0</ele><time>2026-04-16T15:30:13.999Z</time></trkpt><trkpt lat="42.76243777595641" lon="-8.692548503127515"><ele>61.0</ele><time>2026-04-16T15:30:42.998Z</time></trkpt><trkpt lat="42.76246439072718" lon="-8.69272500379582"><ele>61.0</ele><time>2026-04-16T15:30:44.998Z</time></trkpt><trkpt lat="42.762473795660625" lon="-8.692878551187107"><ele>61.0</ele><time>2026-04-16T15:30:45.998Z</time></trkpt><trkpt lat="42.76242994044725" lon="-8.69303705901519"><ele>61.0</ele><time>2026-04-16T15:30:46.998Z</time></trkpt><trkpt lat="42.76234702988" lon="-8.69318809078186"><ele>58.666666666666664</ele><time>2026-04-16T15:30:47.998Z</time></trkpt><trkpt lat="42.7622429674525" lon="-8.693340525627251"><ele>56.33333333333333</ele><time>2026-04-16T15:30:48.998Z</time></trkpt><trkpt lat="42.76213453801176" lon="-8.693493339823736"><ele>54.0</ele><time>2026-04-16T15:30:49.998Z</time></trkpt><trkpt lat="42.76203179515487" lon="-8.693640863302125"><ele>54.0</ele><time>2026-04-16T15:30:50.998Z</time></trkpt><trkpt lat="42.76192783959919" lon="-8.693793184598102"><ele>54.0</ele><time>2026-04-16T15:30:51.998Z</time></trkpt><trkpt lat="42.76181668470641" lon="-8.693958462975482"><ele>54.0</ele><time>2026-04-16T15:30:52.998Z</time></trkpt><trkpt lat="42.761708397318856" lon="-8.694117474886525"><ele>54.0</ele><time>2026-04-16T15:30:53.998Z</time></trkpt><trkpt lat="42.76160713912127" lon="-8.69426610510609"><ele>54.0</ele><time>2026-04-16T15:30:54.998Z</time></trkpt><trkpt lat="42.7615177635078" lon="-8.694409387893531"><ele>54.0</ele><time>2026-04-16T15:30:56Z</time></trkpt><trkpt lat="42.76144113074315" lon="-8.69457039819582"><ele>54.0</ele><time>2026-04-16T15:30:57Z</time></trkpt><trkpt lat="42.76137955781262" lon="-8.694758082323075"><ele>53.0</ele><time>2026-04-16T15:30:58Z</time></trkpt><trkpt lat="42.761326006457516" lon="-8.694958599902124"><ele>52.0</ele><time>2026-04-16T15:30:59Z</time></trkpt><trkpt lat="42.76126855358197" lon="-8.695156663578661"><ele>51.0</ele><time>2026-04-16T15:31:00Z</time></trkpt><trkpt lat="42.76120631494518" lon="-8.695359214285736"><ele>50.0</ele><time>2026-04-16T15:31:01Z</time></trkpt><trkpt lat="42.761135173984535" lon="-8.695564339610637"><ele>49.0</ele><time>2026-04-16T15:31:02Z</time></trkpt><trkpt lat="42.76105800402075" lon="-8.695775038262463"><ele>48.0</ele><time>2026-04-16T15:31:03Z</time></trkpt><trkpt lat="42.76098108291446" lon="-8.695989714589764"><ele>50.33333333333333</ele><time>2026-04-16T15:31:04Z</time></trkpt><trkpt lat="42.760906392840795" lon="-8.696214013631087"><ele>52.666666666666664</ele><time>2026-04-16T15:31:05Z</time></trkpt><trkpt lat="42.76083441805261" lon="-8.696444271276007"><ele>55.0</ele><time>2026-04-16T15:31:06Z</time></trkpt><trkpt lat="42.76077299267544" lon="-8.696679591393195"><ele>53.0</ele><time>2026-04-16T15:31:07Z</time></trkpt><trkpt lat="42.76072881504982" lon="-8.696922659571298"><ele>51.0</ele><time>2026-04-16T15:31:08Z</time></trkpt><trkpt lat="42.76069284801346" lon="-8.697169404100018"><ele>49.0</ele><time>2026-04-16T15:31:09Z</time></trkpt><trkpt lat="42.760655763073196" lon="-8.697416028770688"><ele>49.0</ele><time>2026-04-16T15:31:10Z</time></trkpt><trkpt lat="42.76061509563333" lon="-8.697661301352886"><ele>49.0</ele><time>2026-04-16T15:31:11Z</time></trkpt><trkpt lat="42.760572021327896" lon="-8.69790373163545"><ele>49.0</ele><time>2026-04-16T15:31:12Z</time></trkpt><trkpt lat="42.76053172823684" lon="-8.69814257889871"><ele>49.33333333333333</ele><time>2026-04-16T15:31:13Z</time></trkpt><trkpt lat="42.760505829660794" lon="-8.698377632111246"><ele>49.66666666666667</ele><time>2026-04-16T15:31:14Z</time></trkpt><trkpt lat="42.76050544632395" lon="-8.698611855060413"><ele>50.0</ele><time>2026-04-16T15:31:15Z</time></trkpt><trkpt lat="42.76052192689184" lon="-8.698834939952414"><ele>50.0</ele><time>2026-04-16T15:31:16Z</time></trkpt><trkpt lat="42.760507598051746" lon="-8.699050971830111"><ele>50.0</ele><time>2026-04-16T15:31:17Z</time></trkpt><trkpt lat="42.76046588530448" lon="-8.699264558820511"><ele>50.0</ele><time>2026-04-16T15:31:18Z</time></trkpt><trkpt lat="42.76039845304573" lon="-8.699472690487923"><ele>51.0</ele><time>2026-04-16T15:31:19Z</time></trkpt><trkpt lat="42.7603238766726" lon="-8.6996796249842"><ele>52.0</ele><time>2026-04-16T15:31:20Z</time></trkpt><trkpt lat="42.76025108446808" lon="-8.69989449185943"><ele>53.0</ele><time>2026-04-16T15:31:21Z</time></trkpt><trkpt lat="42.76017694192231" lon="-8.70011684357969"><ele>54.0</ele><time>2026-04-16T15:31:22Z</time></trkpt><trkpt lat="42.760104029520114" lon="-8.700327996281576"><ele>55.0</ele><time>2026-04-16T15:31:23Z</time></trkpt><trkpt lat="42.760034611984715" lon="-8.70051779791611"><ele>56.0</ele><time>2026-04-16T15:31:24Z</time></trkpt><trkpt lat="42.759966670624365" lon="-8.700684315655478"><ele>56.0</ele><time>2026-04-16T15:31:25Z</time></trkpt><trkpt lat="42.759892517599894" lon="-8.7008256583823"><ele>56.0</ele><time>2026-04-16T15:31:26Z</time></trkpt><trkpt lat="42.75981912529272" lon="-8.700948882390513"><ele>56.0</ele><time>2026-04-16T15:31:27Z</time></trkpt><trkpt lat="42.759762343037636" lon="-8.701077574590013"><ele>56.0</ele><time>2026-04-16T15:31:27.999Z</time></trkpt><trkpt lat="42.75973886723668" lon="-8.701221577747077"><ele>55.75</ele><time>2026-04-16T15:31:28.999Z</time></trkpt><trkpt lat="42.759762074337075" lon="-8.701378427308942"><ele>55.5</ele><time>2026-04-16T15:31:29.999Z</time></trkpt><trkpt lat="42.75982255049517" lon="-8.701527982575005"><ele>55.25</ele><time>2026-04-16T15:31:30.999Z</time></trkpt><trkpt lat="42.759896657758674" lon="-8.701702242902682"><ele>55.0</ele><time>2026-04-16T15:31:31.999Z</time></trkpt><trkpt lat="42.75997377677103" lon="-8.701879113002889"><ele>58.0</ele><time>2026-04-16T15:31:32.999Z</time></trkpt><trkpt lat="42.76004195858809" lon="-8.70204300399247"><ele>61.0</ele><time>2026-04-16T15:31:33.999Z</time></trkpt><trkpt lat="42.76011152079675" lon="-8.702179670167922"><ele>64.0</ele><time>2026-04-16T15:31:34.999Z</time></trkpt><trkpt lat="42.76020967938954" lon="-8.70228134700963"><ele>67.0</ele><time>2026-04-16T15:31:35.999Z</time></trkpt><trkpt lat="42.76033571634565" lon="-8.702357301109348"><ele>67.0</ele><time>2026-04-16T15:31:36.999Z</time></trkpt><trkpt lat="42.76047479229731" lon="-8.702424994994411"><ele>67.0</ele><time>2026-04-16T15:31:37.999Z</time></trkpt><trkpt lat="42.76061262490954" lon="-8.702488634568589"><ele>67.0</ele><time>2026-04-16T15:31:38.999Z</time></trkpt><trkpt lat="42.760729629251635" lon="-8.702554575359505"><ele>67.0</ele><time>2026-04-16T15:31:39.999Z</time></trkpt><trkpt lat="42.76081747312269" lon="-8.702653204304344"><ele>68.5</ele><time>2026-04-16T15:31:40.999Z</time></trkpt><trkpt lat="42.76088043590444" lon="-8.702783941877938"><ele>70.0</ele><time>2026-04-16T15:31:41.999Z</time></trkpt><trkpt lat="42.760932755568454" lon="-8.702945547178897"><ele>71.5</ele><time>2026-04-16T15:31:42.999Z</time></trkpt><trkpt lat="42.760971837551885" lon="-8.70313592983239"><ele>73.0</ele><time>2026-04-16T15:31:43.999Z</time></trkpt><trkpt lat="42.76100249705854" lon="-8.703341888976524"><ele>72.0</ele><time>2026-04-16T15:31:44.999Z</time></trkpt><trkpt lat="42.76103496710435" lon="-8.70356498732177"><ele>71.0</ele><time>2026-04-16T15:31:45.999Z</time></trkpt><trkpt lat="42.76106728409037" lon="-8.703798031822783"><ele>70.0</ele><time>2026-04-16T15:31:46.999Z</time></trkpt><trkpt lat="42.76110046632064" lon="-8.70404796114374"><ele>70.0</ele><time>2026-04-16T15:31:47.999Z</time></trkpt><trkpt lat="42.761131649777624" lon="-8.704293045875977"><ele>70.0</ele><time>2026-04-16T15:31:48.999Z</time></trkpt><trkpt lat="42.761161658929915" lon="-8.704527636883869"><ele>70.0</ele><time>2026-04-16T15:31:49.999Z</time></trkpt><trkpt lat="42.761197609036444" lon="-8.704760771357684"><ele>72.66666666666666</ele><time>2026-04-16T15:31:50.999Z</time></trkpt><trkpt lat="42.761262407456535" lon="-8.704988860884395"><ele>75.33333333333333</ele><time>2026-04-16T15:31:51.999Z</time></trkpt><trkpt lat="42.76136349909446" lon="-8.70520568843974"><ele>78.0</ele><time>2026-04-16T15:31:52.999Z</time></trkpt><trkpt lat="42.76146570550278" lon="-8.705409630833152"><ele>81.33333333333333</ele><time>2026-04-16T15:31:53.999Z</time></trkpt><trkpt lat="42.76154800735081" lon="-8.70561588183839"><ele>84.66666666666666</ele><time>2026-04-16T15:31:54.999Z</time></trkpt><trkpt lat="42.76161311314242" lon="-8.70582446470189"><ele>88.0</ele><time>2026-04-16T15:31:55.999Z</time></trkpt><trkpt lat="42.76167895953085" lon="-8.706023843922987"><ele>88.75</ele><time>2026-04-16T15:31:56.999Z</time></trkpt><trkpt lat="42.76175537141277" lon="-8.706188090977582"><ele>89.5</ele><time>2026-04-16T15:31:57.999Z</time></trkpt><trkpt lat="42.76185516834007" lon="-8.706307018652899"><ele>90.25</ele><time>2026-04-16T15:31:58.999Z</time></trkpt><trkpt lat="42.76198582419502" lon="-8.706388759087114"><ele>91.0</ele><time>2026-04-16T15:31:59.999Z</time></trkpt><trkpt lat="42.76213511116895" lon="-8.706426671504117"><ele>91.66666666666666</ele><time>2026-04-16T15:32:00.999Z</time></trkpt><trkpt lat="42.762288395823596" lon="-8.706420774549628"><ele>92.33333333333333</ele><time>2026-04-16T15:32:01.999Z</time></trkpt><trkpt lat="42.76245072907302" lon="-8.706408448014196"><ele>93.0</ele><time>2026-04-16T15:32:02.999Z</time></trkpt><trkpt lat="42.76262408838002" lon="-8.706396574045796"><ele>95.66666666666666</ele><time>2026-04-16T15:32:03.999Z</time></trkpt><trkpt lat="42.76280862222985" lon="-8.706371556894979"><ele>98.33333333333333</ele><time>2026-04-16T15:32:04.999Z</time></trkpt><trkpt lat="42.76300622174922" lon="-8.706353164851532"><ele>101.0</ele><time>2026-04-16T15:32:05.999Z</time></trkpt><trkpt lat="42.763218149564125" lon="-8.706334231203714"><ele>101.0</ele><time>2026-04-16T15:32:06.999Z</time></trkpt><trkpt lat="42.76343916903966" lon="-8.706315813387999"><ele>101.0</ele><time>2026-04-16T15:32:07.999Z</time></trkpt><trkpt lat="42.76366193847209" lon="-8.706294055578184"><ele>101.0</ele><time>2026-04-16T15:32:08.999Z</time></trkpt><trkpt lat="42.76385645845491" lon="-8.706270420968588"><ele>104.33333333333333</ele><time>2026-04-16T15:32:09.999Z</time></trkpt><trkpt lat="42.764032807193765" lon="-8.706245714835262"><ele>107.66666666666666</ele><time>2026-04-16T15:32:10.999Z</time></trkpt><trkpt lat="42.76419313599616" lon="-8.706213800262908"><ele>111.0</ele><time>2026-04-16T15:32:11.999Z</time></trkpt><trkpt lat="42.764343401988285" lon="-8.706138066133539"><ele>113.0</ele><time>2026-04-16T15:32:12.999Z</time></trkpt><trkpt lat="42.76448407111439" lon="-8.706026015349783"><ele>115.0</ele><time>2026-04-16T15:32:13.999Z</time></trkpt><trkpt lat="42.76461238152584" lon="-8.705874560760297"><ele>117.0</ele><time>2026-04-16T15:32:14.999Z</time></trkpt><trkpt lat="42.764721284160096" lon="-8.705680355196343"><ele>117.0</ele><time>2026-04-16T15:32:15.999Z</time></trkpt><trkpt lat="42.76480862490981" lon="-8.705487206425161"><ele>117.0</ele><time>2026-04-16T15:32:16.999Z</time></trkpt><trkpt lat="42.76488334122839" lon="-8.70532587190517"><ele>117.0</ele><time>2026-04-16T15:32:17.999Z</time></trkpt><trkpt lat="42.76497281312922" lon="-8.705192881021885"><ele>117.0</ele><time>2026-04-16T15:32:18.999Z</time></trkpt><trkpt lat="42.76508567688987" lon="-8.705105067361526"><ele>118.75</ele><time>2026-04-16T15:32:19.999Z</time></trkpt><trkpt lat="42.76521213371412" lon="-8.705087206129887"><ele>120.5</ele><time>2026-04-16T15:32:20.999Z</time></trkpt><trkpt lat="42.76533166492603" lon="-8.705127138529948"><ele>122.25</ele><time>2026-04-16T15:32:21.999Z</time></trkpt><trkpt lat="42.76543408374298" lon="-8.70522322598306"><ele>124.0</ele><time>2026-04-16T15:32:22.999Z</time></trkpt><trkpt lat="42.76552628269025" lon="-8.70536566314778"><ele>124.0</ele><time>2026-04-16T15:32:23.999Z</time></trkpt><trkpt lat="42.76561493903142" lon="-8.705528999851701"><ele>124.0</ele><time>2026-04-16T15:32:24.999Z</time></trkpt><trkpt lat="42.76572153504211" lon="-8.70568232731785"><ele>124.0</ele><time>2026-04-16T15:32:25.999Z</time></trkpt><trkpt lat="42.765858233561616" lon="-8.705796208415208"><ele>124.0</ele><time>2026-04-16T15:32:26.999Z</time></trkpt><trkpt lat="42.76603111742716" lon="-8.705859020682883"><ele>124.0</ele><time>2026-04-16T15:32:27.999Z</time></trkpt><trkpt lat="42.76621534449367" lon="-8.705903903958108"><ele>124.0</ele><time>2026-04-16T15:32:28.999Z</time></trkpt><trkpt lat="42.766391980551894" lon="-8.705950489814935"><ele>124.0</ele><time>2026-04-16T15:32:29.999Z</time></trkpt><trkpt lat="42.766544050696105" lon="-8.706004331701518"><ele>124.0</ele><time>2026-04-16T15:32:30.999Z</time></trkpt><trkpt lat="42.76668756021157" lon="-8.706083080764703"><ele>124.0</ele><time>2026-04-16T15:32:31.999Z</time></trkpt><trkpt lat="42.76681099064069" lon="-8.706206692519086"><ele>128.66666666666669</ele><time>2026-04-16T15:32:32.999Z</time></trkpt><trkpt lat="42.76690592112089" lon="-8.706372590193665"><ele>133.33333333333334</ele><time>2026-04-16T15:32:33.999Z</time></trkpt><trkpt lat="42.766966517230394" lon="-8.706575301729899"><ele>138.0</ele><time>2026-04-16T15:32:34.999Z</time></trkpt><trkpt lat="42.76700713593018" lon="-8.70680614330455"><ele>136.0</ele><time>2026-04-16T15:32:35.999Z</time></trkpt><trkpt lat="42.76703820532293" lon="-8.707052258801399"><ele>134.0</ele><time>2026-04-16T15:32:36.999Z</time></trkpt><trkpt lat="42.76704326317318" lon="-8.70731820476575"><ele>132.0</ele><time>2026-04-16T15:32:37.999Z</time></trkpt><trkpt lat="42.767023293394445" lon="-8.7075818241881"><ele>133.33333333333334</ele><time>2026-04-16T15:32:38.999Z</time></trkpt><trkpt lat="42.76699741411107" lon="-8.707834619863295"><ele>134.66666666666669</ele><time>2026-04-16T15:32:39.999Z</time></trkpt><trkpt lat="42.766992677945666" lon="-8.708093096921106"><ele>136.0</ele><time>2026-04-16T15:32:40.998Z</time></trkpt><trkpt lat="42.76701973834536" lon="-8.708356700003113"><ele>139.66666666666669</ele><time>2026-04-16T15:32:41.998Z</time></trkpt><trkpt lat="42.767066314350764" lon="-8.708610945179313"><ele>143.33333333333334</ele><time>2026-04-16T15:32:42.998Z</time></trkpt><trkpt lat="42.767119575803164" lon="-8.70883099687728"><ele>147.0</ele><time>2026-04-16T15:32:43.998Z</time></trkpt><trkpt lat="42.767170579152996" lon="-8.709024107577399"><ele>147.0</ele><time>2026-04-16T15:32:44.998Z</time></trkpt><trkpt lat="42.76723770948053" lon="-8.709203042562532"><ele>147.0</ele><time>2026-04-16T15:32:45.998Z</time></trkpt><trkpt lat="42.767339167793516" lon="-8.709357108080042"><ele>147.0</ele><time>2026-04-16T15:32:46.998Z</time></trkpt><trkpt lat="42.76747165315081" lon="-8.709480741971316"><ele>150.0</ele><time>2026-04-16T15:32:47.998Z</time></trkpt><trkpt lat="42.767624600516925" lon="-8.709580406573847"><ele>153.0</ele><time>2026-04-16T15:32:48.998Z</time></trkpt><trkpt lat="42.76779389718554" lon="-8.70967495770496"><ele>156.0</ele><time>2026-04-16T15:32:49.998Z</time></trkpt><trkpt lat="42.7679628197244" lon="-8.709782031769226"><ele>156.0</ele><time>2026-04-16T15:32:50.998Z</time></trkpt><trkpt lat="42.76813579056383" lon="-8.70990991087121"><ele>156.0</ele><time>2026-04-16T15:32:51.998Z</time></trkpt><trkpt lat="42.76829983296591" lon="-8.710072532544832"><ele>156.0</ele><time>2026-04-16T15:32:52.998Z</time></trkpt><trkpt lat="42.76845652070633" lon="-8.710268198300495"><ele>156.5</ele><time>2026-04-16T15:32:53.998Z</time></trkpt><trkpt lat="42.7686174927281" lon="-8.710476529057262"><ele>157.0</ele><time>2026-04-16T15:32:54.998Z</time></trkpt><trkpt lat="42.768786489262396" lon="-8.710690448118138"><ele>157.0</ele><time>2026-04-16T15:32:55.998Z</time></trkpt><trkpt lat="42.76895974406057" lon="-8.710909037806092"><ele>157.0</ele><time>2026-04-16T15:32:56.998Z</time></trkpt><trkpt lat="42.76912592890841" lon="-8.711120108480761"><ele>156.66666666666669</ele><time>2026-04-16T15:32:57.998Z</time></trkpt><trkpt lat="42.769274320433745" lon="-8.711306247051432"><ele>156.33333333333334</ele><time>2026-04-16T15:32:58.998Z</time></trkpt><trkpt lat="42.7694077586693" lon="-8.711476162858872"><ele>156.0</ele><time>2026-04-16T15:32:59.998Z</time></trkpt><trkpt lat="42.769530233976354" lon="-8.711643153019246"><ele>156.0</ele><time>2026-04-16T15:33:00.998Z</time></trkpt><trkpt lat="42.76963867164564" lon="-8.71181587041144"><ele>156.0</ele><time>2026-04-16T15:33:02Z</time></trkpt><trkpt lat="42.769723385142576" lon="-8.712017355468099"><ele>156.0</ele><time>2026-04-16T15:33:03Z</time></trkpt><trkpt lat="42.769781197826916" lon="-8.712253257501665"><ele>158.66666666666666</ele><time>2026-04-16T15:33:04Z</time></trkpt><trkpt lat="42.76982295908395" lon="-8.712505965988342"><ele>161.33333333333331</ele><time>2026-04-16T15:33:05Z</time></trkpt><trkpt lat="42.76986302925928" lon="-8.71276380099516"><ele>164.0</ele><time>2026-04-16T15:33:06Z</time></trkpt><trkpt lat="42.76990353434304" lon="-8.712991754031304"><ele>167.25</ele><time>2026-04-16T15:33:07Z</time></trkpt><trkpt lat="42.76994476083142" lon="-8.7131867339008"><ele>170.5</ele><time>2026-04-16T15:33:08Z</time></trkpt><trkpt lat="42.7700037750809" lon="-8.713354224477149"><ele>173.75</ele><time>2026-04-16T15:33:09Z</time></trkpt><trkpt lat="42.77009012837386" lon="-8.713476211830333"><ele>177.0</ele><time>2026-04-16T15:33:10Z</time></trkpt><trkpt lat="42.77020025310143" lon="-8.713553516927817"><ele>177.0</ele><time>2026-04-16T15:33:11Z</time></trkpt><trkpt lat="42.770332669375364" lon="-8.713596282147392"><ele>177.0</ele><time>2026-04-16T15:33:12Z</time></trkpt><trkpt lat="42.77048370736668" lon="-8.713581063523526"><ele>177.0</ele><time>2026-04-16T15:33:13Z</time></trkpt><trkpt lat="42.77064583808419" lon="-8.713533137880175"><ele>177.0</ele><time>2026-04-16T15:33:14Z</time></trkpt><trkpt lat="42.770825186372846" lon="-8.713491206735524"><ele>177.0</ele><time>2026-04-16T15:33:15Z</time></trkpt><trkpt lat="42.77102085114976" lon="-8.713451489544937"><ele>177.0</ele><time>2026-04-16T15:33:16Z</time></trkpt><trkpt lat="42.77122177908813" lon="-8.713418755439026"><ele>180.0</ele><time>2026-04-16T15:33:17Z</time></trkpt><trkpt lat="42.771420739120444" lon="-8.713405220495572"><ele>183.0</ele><time>2026-04-16T15:33:18Z</time></trkpt><trkpt lat="42.77160800635641" lon="-8.71343337078415"><ele>186.0</ele><time>2026-04-16T15:33:19Z</time></trkpt><trkpt lat="42.771791816709246" lon="-8.713499117667077"><ele>186.66666666666666</ele><time>2026-04-16T15:33:20Z</time></trkpt><trkpt lat="42.7719781799708" lon="-8.713592698033732"><ele>187.33333333333331</ele><time>2026-04-16T15:33:21Z</time></trkpt><trkpt lat="42.77216693617768" lon="-8.713706614735667"><ele>188.0</ele><time>2026-04-16T15:33:22Z</time></trkpt><trkpt lat="42.772352105261014" lon="-8.713834102991894"><ele>188.0</ele><time>2026-04-16T15:33:23Z</time></trkpt><trkpt lat="42.772519547838954" lon="-8.713981959192802"><ele>188.0</ele><time>2026-04-16T15:33:24Z</time></trkpt><trkpt lat="42.77267744929211" lon="-8.714165411343172"><ele>188.0</ele><time>2026-04-16T15:33:25Z</time></trkpt><trkpt lat="42.77282416914644" lon="-8.714383798710957"><ele>187.0</ele><time>2026-04-16T15:33:26Z</time></trkpt><trkpt lat="42.772965944774406" lon="-8.714622591413512"><ele>186.0</ele><time>2026-04-16T15:33:27Z</time></trkpt><trkpt lat="42.773110304922966" lon="-8.71487425855173"><ele>186.0</ele><time>2026-04-16T15:33:28Z</time></trkpt><trkpt lat="42.77326677882393" lon="-8.715133241715208"><ele>186.0</ele><time>2026-04-16T15:33:29Z</time></trkpt><trkpt lat="42.77343264049747" lon="-8.715389326234042"><ele>189.0</ele><time>2026-04-16T15:33:30Z</time></trkpt><trkpt lat="42.77360412123495" lon="-8.715636358790253"><ele>192.0</ele><time>2026-04-16T15:33:31Z</time></trkpt><trkpt lat="42.773796427944475" lon="-8.715883228650423"><ele>203.5</ele><time>2026-04-16T15:33:32Z</time></trkpt><trkpt lat="42.77398199169874" lon="-8.716098382600086"><ele>215.0</ele><time>2026-04-16T15:33:33Z</time></trkpt><trkpt lat="42.77415557801114" lon="-8.716293501886446"><ele>215.0</ele><time>2026-04-16T15:33:34Z</time></trkpt><trkpt lat="42.77432826585482" lon="-8.716483989842427"><ele>215.0</ele><time>2026-04-16T15:33:35Z</time></trkpt><trkpt lat="42.77450141104801" lon="-8.71666795612175"><ele>215.0</ele><time>2026-04-16T15:33:36Z</time></trkpt><trkpt lat="42.77468634114156" lon="-8.716848024298795"><ele>218.5</ele><time>2026-04-16T15:33:37Z</time></trkpt><trkpt lat="42.774881387703715" lon="-8.717014349708093"><ele>222.0</ele><time>2026-04-16T15:33:38Z</time></trkpt><trkpt lat="42.77508751708699" lon="-8.717173669498129"><ele>217.5</ele><time>2026-04-16T15:33:39Z</time></trkpt><trkpt lat="42.77530069079524" lon="-8.717332532021404"><ele>213.0</ele><time>2026-04-16T15:33:40Z</time></trkpt><trkpt lat="42.77552124250618" lon="-8.717498268376383"><ele>213.0</ele><time>2026-04-16T15:33:41Z</time></trkpt><trkpt lat="42.77571765876764" lon="-8.717645109553533"><ele>213.0</ele><time>2026-04-16T15:33:42Z</time></trkpt><trkpt lat="42.77590128810096" lon="-8.717787653158206"><ele>213.0</ele><time>2026-04-16T15:33:42.999Z</time></trkpt><trkpt lat="42.776087328052945" lon="-8.71792446362216"><ele>213.33333333333331</ele><time>2026-04-16T15:33:43.999Z</time></trkpt><trkpt lat="42.77627087517668" lon="-8.718057186331254"><ele>213.66666666666666</ele><time>2026-04-16T15:33:44.999Z</time></trkpt><trkpt lat="42.77643324431743" lon="-8.718177114567936"><ele>214.0</ele><time>2026-04-16T15:33:45.999Z</time></trkpt><trkpt lat="42.77657919224605" lon="-8.718287997837075"><ele>214.0</ele><time>2026-04-16T15:33:46.999Z</time></trkpt><trkpt lat="42.77670773354449" lon="-8.718413000657364"><ele>214.0</ele><time>2026-04-16T15:33:47.999Z</time></trkpt><trkpt lat="42.7768174378208" lon="-8.718574007313487"><ele>214.0</ele><time>2026-04-16T15:33:48.999Z</time></trkpt><trkpt lat="42.77690701862428" lon="-8.718777450719783"><ele>216.33333333333331</ele><time>2026-04-16T15:33:49.999Z</time></trkpt><trkpt lat="42.77698954958109" lon="-8.719005389818342"><ele>218.66666666666669</ele><time>2026-04-16T15:33:50.999Z</time></trkpt><trkpt lat="42.777073150488825" lon="-8.719190747093752"><ele>221.0</ele><time>2026-04-16T15:33:51.999Z</time></trkpt><trkpt lat="42.777179223663154" lon="-8.719341841456265"><ele>224.66666666666669</ele><time>2026-04-16T15:33:52.999Z</time></trkpt><trkpt lat="42.777319950131044" lon="-8.7194499099283"><ele>228.33333333333331</ele><time>2026-04-16T15:33:53.999Z</time></trkpt><trkpt lat="42.777490109336256" lon="-8.719495240920837"><ele>232.0</ele><time>2026-04-16T15:33:54.999Z</time></trkpt><trkpt lat="42.77766919347411" lon="-8.719556340462765"><ele>230.0</ele><time>2026-04-16T15:33:55.999Z</time></trkpt><trkpt lat="42.77785753254853" lon="-8.71960423814256"><ele>228.0</ele><time>2026-04-16T15:33:56.999Z</time></trkpt><trkpt lat="42.778023528606724" lon="-8.719670174914613"><ele>226.0</ele><time>2026-04-16T15:33:57.999Z</time></trkpt><trkpt lat="42.77818223921546" lon="-8.719753586708311"><ele>226.0</ele><time>2026-04-16T15:33:58.999Z</time></trkpt><trkpt lat="42.778319056609725" lon="-8.719883060182843"><ele>226.0</ele><time>2026-04-16T15:33:59.999Z</time></trkpt><trkpt lat="42.77842335043727" lon="-8.720057204158765"><ele>226.0</ele><time>2026-04-16T15:34:00.999Z</time></trkpt><trkpt lat="42.77850090506956" lon="-8.720271680656857"><ele>226.0</ele><time>2026-04-16T15:34:01.999Z</time></trkpt><trkpt lat="42.778550411650976" lon="-8.720522208754456"><ele>226.0</ele><time>2026-04-16T15:34:02.999Z</time></trkpt><trkpt lat="42.778575755454376" lon="-8.720791150015893"><ele>226.0</ele><time>2026-04-16T15:34:03.999Z</time></trkpt><trkpt lat="42.778600441656835" lon="-8.721041829631574"><ele>226.66666666666666</ele><time>2026-04-16T15:34:04.999Z</time></trkpt><trkpt lat="42.778630760156275" lon="-8.721261832822481"><ele>227.33333333333331</ele><time>2026-04-16T15:34:05.999Z</time></trkpt><trkpt lat="42.77868429515814" lon="-8.721451555195232"><ele>228.0</ele><time>2026-04-16T15:34:06.999Z</time></trkpt><trkpt lat="42.7787648575422" lon="-8.721623953370234"><ele>228.0</ele><time>2026-04-16T15:34:07.999Z</time></trkpt><trkpt lat="42.77886902594113" lon="-8.72176932258024"><ele>228.0</ele><time>2026-04-16T15:34:08.999Z</time></trkpt><trkpt lat="42.77891260870229" lon="-8.72193987116128"><ele>228.0</ele><time>2026-04-16T15:34:09.999Z</time></trkpt><trkpt lat="42.77915957738256" lon="-8.721929524364034"><ele>229.66666666666669</ele><time>2026-04-16T15:34:10.999Z</time></trkpt><trkpt lat="42.779330194236955" lon="-8.721939595291545"><ele>231.33333333333334</ele><time>2026-04-16T15:34:11.999Z</time></trkpt><trkpt lat="42.77951967705819" lon="-8.721903996321027"><ele>233.0</ele><time>2026-04-16T15:34:12.999Z</time></trkpt><trkpt lat="42.77971168803029" lon="-8.721850635317008"><ele>233.0</ele><time>2026-04-16T15:34:13.999Z</time></trkpt><trkpt lat="42.77989914452696" lon="-8.721802744327116"><ele>233.0</ele><time>2026-04-16T15:34:14.999Z</time></trkpt><trkpt lat="42.78007324448366" lon="-8.721809736648286"><ele>233.0</ele><time>2026-04-16T15:34:15.999Z</time></trkpt><trkpt lat="42.7802452998243" lon="-8.721867580666867"><ele>237.0</ele><time>2026-04-16T15:34:16.999Z</time></trkpt><trkpt lat="42.780418996374365" lon="-8.721966531567231"><ele>241.0</ele><time>2026-04-16T15:34:17.999Z</time></trkpt><trkpt lat="42.78059687967459" lon="-8.722076066729404"><ele>245.0</ele><time>2026-04-16T15:34:18.999Z</time></trkpt><trkpt lat="42.78075193698159" lon="-8.722186950253171"><ele>245.0</ele><time>2026-04-16T15:34:19.999Z</time></trkpt><trkpt lat="42.78089147198851" lon="-8.722311662150632"><ele>245.0</ele><time>2026-04-16T15:34:20.999Z</time></trkpt><trkpt lat="42.78102866612765" lon="-8.722457598731326"><ele>245.0</ele><time>2026-04-16T15:34:21.999Z</time></trkpt><trkpt lat="42.781155287498315" lon="-8.722638779434536"><ele>244.0</ele><time>2026-04-16T15:34:22.999Z</time></trkpt><trkpt lat="42.78127125201229" lon="-8.722852431225242"><ele>243.0</ele><time>2026-04-16T15:34:23.999Z</time></trkpt><trkpt lat="42.78137104746693" lon="-8.72305620827735"><ele>242.0</ele><time>2026-04-16T15:34:24.999Z</time></trkpt><trkpt lat="42.78145151662139" lon="-8.723249666324895"><ele>242.0</ele><time>2026-04-16T15:34:25.999Z</time></trkpt><trkpt lat="42.781512504916094" lon="-8.723448646643103"><ele>242.0</ele><time>2026-04-16T15:34:26.999Z</time></trkpt><trkpt lat="42.7815356743718" lon="-8.72365699783229"><ele>242.0</ele><time>2026-04-16T15:34:27.999Z</time></trkpt><trkpt lat="42.781528355402116" lon="-8.723861916883711"><ele>243.33333333333334</ele><time>2026-04-16T15:34:28.999Z</time></trkpt><trkpt lat="42.78148303671261" lon="-8.724056691640797"><ele>244.66666666666669</ele><time>2026-04-16T15:34:29.999Z</time></trkpt><trkpt lat="42.781401036980604" lon="-8.724245398348428"><ele>246.0</ele><time>2026-04-16T15:34:30.999Z</time></trkpt><trkpt lat="42.78128432948225" lon="-8.724436848044412"><ele>246.66666666666669</ele><time>2026-04-16T15:34:31.999Z</time></trkpt><trkpt lat="42.78114302268443" lon="-8.724639725210022"><ele>247.33333333333334</ele><time>2026-04-16T15:34:32.999Z</time></trkpt><trkpt lat="42.781000775575535" lon="-8.724838563786962"><ele>248.0</ele><time>2026-04-16T15:34:33.999Z</time></trkpt><trkpt lat="42.780880597642145" lon="-8.725002617132962"><ele>251.75</ele><time>2026-04-16T15:34:34.999Z</time></trkpt><trkpt lat="42.780783127857916" lon="-8.725150807977693"><ele>255.5</ele><time>2026-04-16T15:34:35.999Z</time></trkpt><trkpt lat="42.780707096799716" lon="-8.725303892974882"><ele>259.25</ele><time>2026-04-16T15:34:36.999Z</time></trkpt><trkpt lat="42.78066127568357" lon="-8.725462745568109"><ele>263.0</ele><time>2026-04-16T15:34:37.999Z</time></trkpt><trkpt lat="42.780646639595155" lon="-8.725636142386884"><ele>264.75</ele><time>2026-04-16T15:34:38.999Z</time></trkpt><trkpt lat="42.78067255607875" lon="-8.725804271839362"><ele>266.5</ele><time>2026-04-16T15:34:39.999Z</time></trkpt><trkpt lat="42.780735828470654" lon="-8.725960329857712"><ele>268.25</ele><time>2026-04-16T15:34:40.999Z</time></trkpt><trkpt lat="42.78083171418765" lon="-8.726104329621771"><ele>270.0</ele><time>2026-04-16T15:34:41.999Z</time></trkpt><trkpt lat="42.78095270309152" lon="-8.72625772646571"><ele>268.0</ele><time>2026-04-16T15:34:42.999Z</time></trkpt><trkpt lat="42.781084999771224" lon="-8.726418374931116"><ele>266.0</ele><time>2026-04-16T15:34:43.999Z</time></trkpt><trkpt lat="42.78122696300902" lon="-8.72659599012033"><ele>264.0</ele><time>2026-04-16T15:34:44.999Z</time></trkpt><trkpt lat="42.78137735406296" lon="-8.726781667965335"><ele>267.6666666666667</ele><time>2026-04-16T15:34:45.999Z</time></trkpt><trkpt lat="42.78150639587866" lon="-8.726940727843576"><ele>271.33333333333337</ele><time>2026-04-16T15:34:46.999Z</time></trkpt><trkpt lat="42.78162561366936" lon="-8.727083030229622"><ele>275.0</ele><time>2026-04-16T15:34:47.999Z</time></trkpt><trkpt lat="42.78174079170138" lon="-8.727195459824088"><ele>277.0</ele><time>2026-04-16T15:34:48.999Z</time></trkpt><trkpt lat="42.781871038906715" lon="-8.727272307749312"><ele>279.0</ele><time>2026-04-16T15:34:49.999Z</time></trkpt><trkpt lat="42.7820206881048" lon="-8.727311726682549"><ele>281.0</ele><time>2026-04-16T15:34:50.999Z</time></trkpt><trkpt lat="42.78218615840049" lon="-8.72730066745109"><ele>281.0</ele><time>2026-04-16T15:34:51.999Z</time></trkpt><trkpt lat="42.782362860574636" lon="-8.727247949591698"><ele>281.0</ele><time>2026-04-16T15:34:52.999Z</time></trkpt><trkpt lat="42.782557150864314" lon="-8.727185159022786"><ele>281.0</ele><time>2026-04-16T15:34:53.999Z</time></trkpt><trkpt lat="42.782763294636915" lon="-8.727129649822169"><ele>284.0</ele><time>2026-04-16T15:34:54.999Z</time></trkpt><trkpt lat="42.78296128096663" lon="-8.7270748130329"><ele>287.0</ele><time>2026-04-16T15:34:55.999Z</time></trkpt><trkpt lat="42.783168732644675" lon="-8.72701725535528"><ele>290.0</ele><time>2026-04-16T15:34:56.999Z</time></trkpt><trkpt lat="42.78337825619293" lon="-8.726963236134722"><ele>287.6666666666667</ele><time>2026-04-16T15:34:57.998Z</time></trkpt><trkpt lat="42.783558864599314" lon="-8.72691080217953"><ele>285.3333333333333</ele><time>2026-04-16T15:34:58.998Z</time></trkpt><trkpt lat="42.783728961151304" lon="-8.726874163541794"><ele>283.0</ele><time>2026-04-16T15:34:59.998Z</time></trkpt><trkpt lat="42.783888218383616" lon="-8.72686500870613"><ele>283.0</ele><time>2026-04-16T15:35:00.998Z</time></trkpt><trkpt lat="42.78403415195356" lon="-8.726888535753384"><ele>283.0</ele><time>2026-04-16T15:35:01.998Z</time></trkpt><trkpt lat="42.78415939537231" lon="-8.726930745068604"><ele>283.0</ele><time>2026-04-16T15:35:02.998Z</time></trkpt><trkpt lat="42.78427198405753" lon="-8.72699454530888"><ele>283.0</ele><time>2026-04-16T15:35:03.998Z</time></trkpt><trkpt lat="42.78436537955642" lon="-8.72709258596138"><ele>281.5</ele><time>2026-04-16T15:35:04.998Z</time></trkpt><trkpt lat="42.78443620299486" lon="-8.727227680314915"><ele>280.0</ele><time>2026-04-16T15:35:05.998Z</time></trkpt><trkpt lat="42.78447062317411" lon="-8.727389709768426"><ele>278.5</ele><time>2026-04-16T15:35:06.998Z</time></trkpt><trkpt lat="42.784463129843466" lon="-8.727560066328179"><ele>277.0</ele><time>2026-04-16T15:35:08Z</time></trkpt><trkpt lat="42.78446089629831" lon="-8.727738672709709"><ele>276.75</ele><time>2026-04-16T15:35:09Z</time></trkpt><trkpt lat="42.784347603949705" lon="-8.727889570351097"><ele>276.5</ele><time>2026-04-16T15:35:10Z</time></trkpt><trkpt lat="42.78426198077168" lon="-8.728042035138973"><ele>276.25</ele><time>2026-04-16T15:35:11Z</time></trkpt><trkpt lat="42.7841877451199" lon="-8.728178021653397"><ele>276.0</ele><time>2026-04-16T15:35:12Z</time></trkpt><trkpt lat="42.78414327071381" lon="-8.728319955443945"><ele>277.5</ele><time>2026-04-16T15:35:13Z</time></trkpt><trkpt lat="42.784134965008306" lon="-8.728475241451521"><ele>279.0</ele><time>2026-04-16T15:35:14Z</time></trkpt><trkpt lat="42.78417136863777" lon="-8.728625854139898"><ele>280.5</ele><time>2026-04-16T15:35:15Z</time></trkpt><trkpt lat="42.784248593154594" lon="-8.728763702497066"><ele>282.0</ele><time>2026-04-16T15:35:16Z</time></trkpt><trkpt lat="42.784362734542256" lon="-8.72888272284895"><ele>282.0</ele><time>2026-04-16T15:35:17Z</time></trkpt><trkpt lat="42.78449348675501" lon="-8.728974937762864"><ele>282.0</ele><time>2026-04-16T15:35:18Z</time></trkpt><trkpt lat="42.78458767135905" lon="-8.729079026627485"><ele>282.0</ele><time>2026-04-16T15:35:19Z</time></trkpt><trkpt lat="42.78464945010648" lon="-8.729220515071441"><ele>282.0</ele><time>2026-04-16T15:35:20Z</time></trkpt><trkpt lat="42.78466913839691" lon="-8.729390023834315"><ele>283.0</ele><time>2026-04-16T15:35:21Z</time></trkpt><trkpt lat="42.78464848204244" lon="-8.729576147160124"><ele>284.0</ele><time>2026-04-16T15:35:22Z</time></trkpt><trkpt lat="42.7845935745615" lon="-8.729767695116282"><ele>285.0</ele><time>2026-04-16T15:35:23Z</time></trkpt><trkpt lat="42.784530352709695" lon="-8.72995605141053"><ele>286.0</ele><time>2026-04-16T15:35:24Z</time></trkpt><trkpt lat="42.78449196422123" lon="-8.73014828793049"><ele>290.5</ele><time>2026-04-16T15:35:25Z</time></trkpt><trkpt lat="42.78449727419377" lon="-8.73034399640884"><ele>295.0</ele><time>2026-04-16T15:35:26Z</time></trkpt><trkpt lat="42.78454608227188" lon="-8.73052175866108"><ele>299.5</ele><time>2026-04-16T15:35:27Z</time></trkpt><trkpt lat="42.78463489876925" lon="-8.730668654601665"><ele>304.0</ele><time>2026-04-16T15:35:28Z</time></trkpt><trkpt lat="42.784756462958065" lon="-8.730779580713131"><ele>304.0</ele><time>2026-04-16T15:35:29Z</time></trkpt><trkpt lat="42.78491517647012" lon="-8.730883330534965"><ele>304.0</ele><time>2026-04-16T15:35:30Z</time></trkpt><trkpt lat="42.78508785916734" lon="-8.730969735182228"><ele>304.0</ele><time>2026-04-16T15:35:31Z</time></trkpt><trkpt lat="42.78526802069498" lon="-8.731066747205368"><ele>308.3333333333333</ele><time>2026-04-16T15:35:32Z</time></trkpt><trkpt lat="42.78543822895114" lon="-8.731160803563723"><ele>312.6666666666667</ele><time>2026-04-16T15:35:33Z</time></trkpt><trkpt lat="42.785606636359034" lon="-8.731261856473402"><ele>317.0</ele><time>2026-04-16T15:35:34Z</time></trkpt><trkpt lat="42.78577269445582" lon="-8.731371419105947"><ele>317.0</ele><time>2026-04-16T15:35:35Z</time></trkpt><trkpt lat="42.78592405252039" lon="-8.731512042771326"><ele>317.0</ele><time>2026-04-16T15:35:36Z</time></trkpt><trkpt lat="42.7860470719767" lon="-8.731698948452594"><ele>317.0</ele><time>2026-04-16T15:35:37Z</time></trkpt><trkpt lat="42.786148697624185" lon="-8.731926730174312"><ele>316.0</ele><time>2026-04-16T15:35:38Z</time></trkpt><trkpt lat="42.78623554900336" lon="-8.732181565926824"><ele>315.0</ele><time>2026-04-16T15:35:39Z</time></trkpt><trkpt lat="42.786321196274145" lon="-8.732448186321491"><ele>314.0</ele><time>2026-04-16T15:35:40Z</time></trkpt><trkpt lat="42.78641275886298" lon="-8.732729358448365"><ele>317.33333333333337</ele><time>2026-04-16T15:35:41Z</time></trkpt><trkpt lat="42.78650570256618" lon="-8.732994787786007"><ele>320.6666666666667</ele><time>2026-04-16T15:35:42Z</time></trkpt><trkpt lat="42.786589660527596" lon="-8.733227709837772"><ele>324.0</ele><time>2026-04-16T15:35:43Z</time></trkpt><trkpt lat="42.78666477267214" lon="-8.733440354935903"><ele>326.0</ele><time>2026-04-16T15:35:44Z</time></trkpt><trkpt lat="42.78673673009087" lon="-8.733621625817785"><ele>328.0</ele><time>2026-04-16T15:35:45Z</time></trkpt><trkpt lat="42.7868309878089" lon="-8.733749283476808"><ele>330.0</ele><time>2026-04-16T15:35:46Z</time></trkpt><trkpt lat="42.78694710101226" lon="-8.733824551271397"><ele>332.0</ele><time>2026-04-16T15:35:47Z</time></trkpt><trkpt lat="42.78709294755699" lon="-8.733866551940219"><ele>332.0</ele><time>2026-04-16T15:35:48Z</time></trkpt><trkpt lat="42.78724831349172" lon="-8.73385162667136"><ele>332.0</ele><time>2026-04-16T15:35:49Z</time></trkpt><trkpt lat="42.78740671994326" lon="-8.73381241824784"><ele>332.0</ele><time>2026-04-16T15:35:50Z</time></trkpt><trkpt lat="42.78758481802799" lon="-8.733770992851273"><ele>332.6666666666667</ele><time>2026-04-16T15:35:51Z</time></trkpt><trkpt lat="42.787778537482325" lon="-8.733732891982635"><ele>333.3333333333333</ele><time>2026-04-16T15:35:52Z</time></trkpt><trkpt lat="42.787973340938706" lon="-8.733703877285823"><ele>334.0</ele><time>2026-04-16T15:35:53Z</time></trkpt><trkpt lat="42.788164747777415" lon="-8.733708575471285"><ele>334.0</ele><time>2026-04-16T15:35:54Z</time></trkpt><trkpt lat="42.788365409826085" lon="-8.733753884147443"><ele>334.0</ele><time>2026-04-16T15:35:55Z</time></trkpt><trkpt lat="42.7885726561833" lon="-8.733832505601729"><ele>334.0</ele><time>2026-04-16T15:35:56Z</time></trkpt><trkpt lat="42.78878656714398" lon="-8.733936704561453"><ele>333.5</ele><time>2026-04-16T15:35:57Z</time></trkpt><trkpt lat="42.78901539661919" lon="-8.734051336396579"><ele>333.0</ele><time>2026-04-16T15:35:57.999Z</time></trkpt><trkpt lat="42.78924102662762" lon="-8.73415799675975"><ele>331.0</ele><time>2026-04-16T15:35:58.999Z</time></trkpt><trkpt lat="42.78943841857185" lon="-8.734245730305677"><ele>329.0</ele><time>2026-04-16T15:35:59.999Z</time></trkpt><trkpt lat="42.78961345220242" lon="-8.734326085182468"><ele>327.0</ele><time>2026-04-16T15:36:00.999Z</time></trkpt><trkpt lat="42.789762012048996" lon="-8.734400511855556"><ele>331.25</ele><time>2026-04-16T15:36:01.999Z</time></trkpt><trkpt lat="42.78988749150882" lon="-8.734474298351994"><ele>335.5</ele><time>2026-04-16T15:36:02.999Z</time></trkpt><trkpt lat="42.78999087900653" lon="-8.734558677103896"><ele>339.75</ele><time>2026-04-16T15:36:03.999Z</time></trkpt><trkpt lat="42.79006563770321" lon="-8.734663583161815"><ele>344.0</ele><time>2026-04-16T15:36:04.999Z</time></trkpt><trkpt lat="42.790115424953264" lon="-8.734775627822385"><ele>344.0</ele><time>2026-04-16T15:36:05.999Z</time></trkpt><trkpt lat="42.79015041891847" lon="-8.734889474472054"><ele>344.0</ele><time>2026-04-16T15:36:06.999Z</time></trkpt><trkpt lat="42.79017287823073" lon="-8.735017272040137"><ele>344.0</ele><time>2026-04-16T15:36:07.999Z</time></trkpt><trkpt lat="42.79017313788209" lon="-8.7351546695637"><ele>344.0</ele><time>2026-04-16T15:36:08.999Z</time></trkpt><trkpt lat="42.79015263564971" lon="-8.735283810466866"><ele>344.0</ele><time>2026-04-16T15:36:09.999Z</time></trkpt><trkpt lat="42.79011358858324" lon="-8.735431098286721"><ele>346.75</ele><time>2026-04-16T15:36:10.999Z</time></trkpt><trkpt lat="42.790067520405835" lon="-8.735590228389515"><ele>349.5</ele><time>2026-04-16T15:36:11.999Z</time></trkpt><trkpt lat="42.79001742002868" lon="-8.735759629009257"><ele>352.25</ele><time>2026-04-16T15:36:12.999Z</time></trkpt><trkpt lat="42.789963824982706" lon="-8.735930701776653"><ele>355.0</ele><time>2026-04-16T15:36:13.999Z</time></trkpt><trkpt lat="42.78993251483484" lon="-8.736099351923121"><ele>359.25</ele><time>2026-04-16T15:36:14.999Z</time></trkpt><trkpt lat="42.78993473580057" lon="-8.736269117293181"><ele>363.5</ele><time>2026-04-16T15:36:15.999Z</time></trkpt><trkpt lat="42.789969049906674" lon="-8.736421353018214"><ele>367.75</ele><time>2026-04-16T15:36:16.999Z</time></trkpt><trkpt lat="42.79003345526711" lon="-8.736536480327263"><ele>372.0</ele><time>2026-04-16T15:36:17.999Z</time></trkpt><trkpt lat="42.79012006620287" lon="-8.73664047208678"><ele>371.75</ele><time>2026-04-16T15:36:18.999Z</time></trkpt><trkpt lat="42.79023084586632" lon="-8.73671990250333"><ele>371.5</ele><time>2026-04-16T15:36:19.999Z</time></trkpt><trkpt lat="42.790359427046944" lon="-8.736752541469206"><ele>371.25</ele><time>2026-04-16T15:36:20.999Z</time></trkpt><trkpt lat="42.790493150757776" lon="-8.736740521445412"><ele>371.0</ele><time>2026-04-16T15:36:21.999Z</time></trkpt><trkpt lat="42.79063188390938" lon="-8.73669440416772"><ele>371.0</ele><time>2026-04-16T15:36:22.999Z</time></trkpt><trkpt lat="42.790757641520315" lon="-8.736633608446155"><ele>371.0</ele><time>2026-04-16T15:36:23.999Z</time></trkpt><trkpt lat="42.79089420493674" lon="-8.736585277284435"><ele>371.0</ele><time>2026-04-16T15:36:24.999Z</time></trkpt><trkpt lat="42.79103777103913" lon="-8.736542030479246"><ele>371.0</ele><time>2026-04-16T15:36:25.999Z</time></trkpt><trkpt lat="42.79116350000722" lon="-8.736488505443035"><ele>371.5</ele><time>2026-04-16T15:36:26.999Z</time></trkpt><trkpt lat="42.79129511124958" lon="-8.736432062153355"><ele>372.0</ele><time>2026-04-16T15:36:27.999Z</time></trkpt><trkpt lat="42.79144003300098" lon="-8.736394315516502"><ele>372.5</ele><time>2026-04-16T15:36:28.999Z</time></trkpt><trkpt lat="42.79158079887693" lon="-8.736346637819583"><ele>373.0</ele><time>2026-04-16T15:36:29.999Z</time></trkpt><trkpt lat="42.791723440243075" lon="-8.736303872954654"><ele>372.75</ele><time>2026-04-16T15:36:30.999Z</time></trkpt><trkpt lat="42.79186232967869" lon="-8.736268888193335"><ele>372.5</ele><time>2026-04-16T15:36:31.999Z</time></trkpt><trkpt lat="42.79200593900764" lon="-8.736261476456857"><ele>372.25</ele><time>2026-04-16T15:36:32.999Z</time></trkpt><trkpt lat="42.7921477265925" lon="-8.736280980742633"><ele>372.0</ele><time>2026-04-16T15:36:33.999Z</time></trkpt><trkpt lat="42.79228418362196" lon="-8.736338448500188"><ele>372.0</ele><time>2026-04-16T15:36:34.999Z</time></trkpt><trkpt lat="42.79241122070314" lon="-8.736428848261772"><ele>372.0</ele><time>2026-04-16T15:36:35.999Z</time></trkpt><trkpt lat="42.79252526227302" lon="-8.736542059696495"><ele>372.0</ele><time>2026-04-16T15:36:36.999Z</time></trkpt><trkpt lat="42.79263931127413" lon="-8.736663090347875"><ele>372.0</ele><time>2026-04-16T15:36:37.999Z</time></trkpt><trkpt lat="42.79271541556935" lon="-8.736838407349936"><ele>372.25</ele><time>2026-04-16T15:36:38.999Z</time></trkpt><trkpt lat="42.79278732576286" lon="-8.737009537570353"><ele>372.5</ele><time>2026-04-16T15:36:39.999Z</time></trkpt><trkpt lat="42.7928653737391" lon="-8.737146059648353"><ele>372.75</ele><time>2026-04-16T15:36:40.999Z</time></trkpt><trkpt lat="42.79292967630845" lon="-8.737283484238574"><ele>373.0</ele><time>2026-04-16T15:36:41.999Z</time></trkpt><trkpt lat="42.79303774943967" lon="-8.737390274802827"><ele>373.0</ele><time>2026-04-16T15:36:42.999Z</time></trkpt><trkpt lat="42.79316296939929" lon="-8.73748455860906"><ele>373.0</ele><time>2026-04-16T15:36:43.999Z</time></trkpt><trkpt lat="42.79328512468773" lon="-8.73759047030318"><ele>373.0</ele><time>2026-04-16T15:36:44.999Z</time></trkpt><trkpt lat="42.793392223697154" lon="-8.737713971877634"><ele>373.0</ele><time>2026-04-16T15:36:45.999Z</time></trkpt><trkpt lat="42.79348405718701" lon="-8.73785118092664"><ele>374.0</ele><time>2026-04-16T15:36:46.999Z</time></trkpt><trkpt lat="42.79357535194428" lon="-8.737987898441741"><ele>375.0</ele><time>2026-04-16T15:36:47.999Z</time></trkpt><trkpt lat="42.7936695896832" lon="-8.738121321000541"><ele>376.0</ele><time>2026-04-16T15:36:48.999Z</time></trkpt><trkpt lat="42.79376445840886" lon="-8.738253276512033"><ele>377.0</ele><time>2026-04-16T15:36:49.999Z</time></trkpt><trkpt lat="42.79385631920554" lon="-8.738384683081886"><ele>377.0</ele><time>2026-04-16T15:36:50.999Z</time></trkpt><trkpt lat="42.79394491352535" lon="-8.73851206443824"><ele>377.0</ele><time>2026-04-16T15:36:51.999Z</time></trkpt><trkpt lat="42.79402829737533" lon="-8.738644685765388"><ele>377.0</ele><time>2026-04-16T15:36:52.999Z</time></trkpt><trkpt lat="42.794109924126474" lon="-8.738776094680011"><ele>377.0</ele><time>2026-04-16T15:36:53.999Z</time></trkpt><trkpt lat="42.79419509554169" lon="-8.738910436198594"><ele>378.5</ele><time>2026-04-16T15:36:54.999Z</time></trkpt><trkpt lat="42.794287378074664" lon="-8.739051562398535"><ele>380.0</ele><time>2026-04-16T15:36:55.999Z</time></trkpt><trkpt lat="42.79437994243642" lon="-8.739198086469658"><ele>381.5</ele><time>2026-04-16T15:36:56.999Z</time></trkpt><trkpt lat="42.79446228946547" lon="-8.739335926390789"><ele>383.0</ele><time>2026-04-16T15:36:57.999Z</time></trkpt><trkpt lat="42.79453447758186" lon="-8.739464141688435"><ele>383.4</ele><time>2026-04-16T15:36:58.999Z</time></trkpt><trkpt lat="42.79460137494081" lon="-8.739582887750743"><ele>383.79999999999995</ele><time>2026-04-16T15:36:59.999Z</time></trkpt><trkpt lat="42.79466394087114" lon="-8.739698274015877"><ele>384.2</ele><time>2026-04-16T15:37:00.999Z</time></trkpt><trkpt lat="42.79471599075361" lon="-8.739799858184188"><ele>384.6</ele><time>2026-04-16T15:37:01.999Z</time></trkpt><trkpt lat="42.794765185435786" lon="-8.739875312312147"><ele>385.0</ele><time>2026-04-16T15:37:02.999Z</time></trkpt><trkpt lat="42.794851341623" lon="-8.739959950783769"><ele>385.0</ele><time>2026-04-16T15:37:04.999Z</time></trkpt><trkpt lat="42.794955909951064" lon="-8.739951529917276"><ele>385.0</ele><time>2026-04-16T15:37:05.999Z</time></trkpt><trkpt lat="42.795039792824376" lon="-8.739948275981979"><ele>385.0</ele><time>2026-04-16T15:37:06.999Z</time></trkpt><trkpt lat="42.795130938484654" lon="-8.739935934327688"><ele>385.0</ele><time>2026-04-16T15:37:07.999Z</time></trkpt><trkpt lat="42.79522640710222" lon="-8.7399219049913"><ele>385.0</ele><time>2026-04-16T15:37:08.999Z</time></trkpt><trkpt lat="42.795332356543184" lon="-8.739908722146648"><ele>386.0</ele><time>2026-04-16T15:37:09.998Z</time></trkpt><trkpt lat="42.795450144251454" lon="-8.739893510301249"><ele>387.0</ele><time>2026-04-16T15:37:10.998Z</time></trkpt><trkpt lat="42.79557628278929" lon="-8.739881977349212"><ele>388.0</ele><time>2026-04-16T15:37:11.998Z</time></trkpt><trkpt lat="42.79570471443715" lon="-8.739878911688136"><ele>389.0</ele><time>2026-04-16T15:37:12.998Z</time></trkpt><trkpt lat="42.795836937770936" lon="-8.739890712395576"><ele>389.0</ele><time>2026-04-16T15:37:14Z</time></trkpt><trkpt lat="42.79596963244787" lon="-8.73989737677866"><ele>389.0</ele><time>2026-04-16T15:37:15Z</time></trkpt><trkpt lat="42.79610619555936" lon="-8.739948271927958"><ele>389.0</ele><time>2026-04-16T15:37:16Z</time></trkpt><trkpt lat="42.79624138678427" lon="-8.740027489187321"><ele>389.0</ele><time>2026-04-16T15:37:17Z</time></trkpt><trkpt lat="42.796364779856106" lon="-8.740141617095695"><ele>387.3333333333333</ele><time>2026-04-16T15:37:18Z</time></trkpt><trkpt lat="42.7964990604422" lon="-8.740244657408496"><ele>385.66666666666663</ele><time>2026-04-16T15:37:19Z</time></trkpt><trkpt lat="42.79663478071674" lon="-8.74035544098329"><ele>384.0</ele><time>2026-04-16T15:37:20Z</time></trkpt><trkpt lat="42.79676479409675" lon="-8.740462150178475"><ele>384.0</ele><time>2026-04-16T15:37:21Z</time></trkpt><trkpt lat="42.796889220521436" lon="-8.740568033164216"><ele>384.0</ele><time>2026-04-16T15:37:22Z</time></trkpt><trkpt lat="42.79701722961094" lon="-8.740672081486865"><ele>384.0</ele><time>2026-04-16T15:37:23Z</time></trkpt><trkpt lat="42.79714946454215" lon="-8.740777111030605"><ele>384.0</ele><time>2026-04-16T15:37:24Z</time></trkpt><trkpt lat="42.79728480299731" lon="-8.740888974843783"><ele>384.0</ele><time>2026-04-16T15:37:25Z</time></trkpt><trkpt lat="42.79742237312609" lon="-8.741002158974853"><ele>384.0</ele><time>2026-04-16T15:37:26Z</time></trkpt><trkpt lat="42.797560914036175" lon="-8.741115020998631"><ele>384.0</ele><time>2026-04-16T15:37:27Z</time></trkpt><trkpt lat="42.797698002078654" lon="-8.741227370071222"><ele>385.33333333333337</ele><time>2026-04-16T15:37:28Z</time></trkpt><trkpt lat="42.79783484383653" lon="-8.741341166863073"><ele>386.6666666666667</ele><time>2026-04-16T15:37:29Z</time></trkpt><trkpt lat="42.797969581648104" lon="-8.7414538303526"><ele>388.0</ele><time>2026-04-16T15:37:30Z</time></trkpt><trkpt lat="42.79810827248239" lon="-8.741564693085712"><ele>388.0</ele><time>2026-04-16T15:37:31Z</time></trkpt><trkpt lat="42.7982500602024" lon="-8.7416789718715"><ele>388.0</ele><time>2026-04-16T15:37:32Z</time></trkpt><trkpt lat="42.79839735286718" lon="-8.741798397488095"><ele>388.0</ele><time>2026-04-16T15:37:33Z</time></trkpt><trkpt lat="42.7985446296378" lon="-8.741919246457297"><ele>388.6666666666667</ele><time>2026-04-16T15:37:34Z</time></trkpt><trkpt lat="42.798694392199934" lon="-8.74204412376644"><ele>389.33333333333337</ele><time>2026-04-16T15:37:35Z</time></trkpt><trkpt lat="42.79884839777477" lon="-8.742172155735895"><ele>390.0</ele><time>2026-04-16T15:37:36Z</time></trkpt><trkpt lat="42.799003010547395" lon="-8.74229994450023"><ele>390.0</ele><time>2026-04-16T15:37:37Z</time></trkpt><trkpt lat="42.79915046620856" lon="-8.742422554573865"><ele>390.0</ele><time>2026-04-16T15:37:38Z</time></trkpt><trkpt lat="42.79928931140456" lon="-8.742533469435658"><ele>390.0</ele><time>2026-04-16T15:37:39Z</time></trkpt><trkpt lat="42.7994277176096" lon="-8.742644346371174"><ele>389.66666666666663</ele><time>2026-04-16T15:37:40Z</time></trkpt><trkpt lat="42.79956574657159" lon="-8.742757562061481"><ele>389.3333333333333</ele><time>2026-04-16T15:37:41Z</time></trkpt><trkpt lat="42.79970382962207" lon="-8.742871764552403"><ele>389.0</ele><time>2026-04-16T15:37:42Z</time></trkpt><trkpt lat="42.79984704661174" lon="-8.742988048076665"><ele>389.0</ele><time>2026-04-16T15:37:43Z</time></trkpt><trkpt lat="42.799997882579724" lon="-8.74310938667319"><ele>389.0</ele><time>2026-04-16T15:37:44Z</time></trkpt><trkpt lat="42.80015089049614" lon="-8.74323438696004"><ele>389.0</ele><time>2026-04-16T15:37:45Z</time></trkpt><trkpt lat="42.800303405436935" lon="-8.743358037796146"><ele>389.66666666666663</ele><time>2026-04-16T15:37:46Z</time></trkpt><trkpt lat="42.800454385482176" lon="-8.743481557366563"><ele>390.33333333333337</ele><time>2026-04-16T15:37:47Z</time></trkpt><trkpt lat="42.8006026695761" lon="-8.743606924935722"><ele>391.0</ele><time>2026-04-16T15:37:48Z</time></trkpt><trkpt lat="42.80075096195734" lon="-8.743730915020015"><ele>391.0</ele><time>2026-04-16T15:37:49Z</time></trkpt><trkpt lat="42.80089929577311" lon="-8.743852964898707"><ele>391.0</ele><time>2026-04-16T15:37:50Z</time></trkpt><trkpt lat="42.80104880490935" lon="-8.743974674051438"><ele>391.0</ele><time>2026-04-16T15:37:51Z</time></trkpt><trkpt lat="42.80119999042517" lon="-8.744096064034519"><ele>391.0</ele><time>2026-04-16T15:37:52Z</time></trkpt><trkpt lat="42.80135002157433" lon="-8.744217809488996"><ele>391.0</ele><time>2026-04-16T15:37:53Z</time></trkpt><trkpt lat="42.80150105005037" lon="-8.744340115275413"><ele>391.0</ele><time>2026-04-16T15:37:54Z</time></trkpt><trkpt lat="42.801653024791065" lon="-8.74446519163914"><ele>391.0</ele><time>2026-04-16T15:37:55Z</time></trkpt><trkpt lat="42.80180822136766" lon="-8.744592383124546"><ele>391.0</ele><time>2026-04-16T15:37:56Z</time></trkpt><trkpt lat="42.80196085161402" lon="-8.744721409748697"><ele>391.0</ele><time>2026-04-16T15:37:56.999Z</time></trkpt><trkpt lat="42.80211410237211" lon="-8.744850194827922"><ele>392.6666666666667</ele><time>2026-04-16T15:37:57.999Z</time></trkpt><trkpt lat="42.80225828465002" lon="-8.744969751688"><ele>394.33333333333337</ele><time>2026-04-16T15:37:58.999Z</time></trkpt><trkpt lat="42.80239642942638" lon="-8.745083331945251"><ele>396.0</ele><time>2026-04-16T15:37:59.999Z</time></trkpt><trkpt lat="42.80253465730616" lon="-8.745195202971821"><ele>396.0</ele><time>2026-04-16T15:38:00.999Z</time></trkpt><trkpt lat="42.802671377280625" lon="-8.745311538700557"><ele>396.0</ele><time>2026-04-16T15:38:01.999Z</time></trkpt><trkpt lat="42.802811951535425" lon="-8.745431187639248"><ele>396.0</ele><time>2026-04-16T15:38:02.999Z</time></trkpt><trkpt lat="42.80294732962294" lon="-8.745545848823225"><ele>396.0</ele><time>2026-04-16T15:38:03.999Z</time></trkpt><trkpt lat="42.80308337689537" lon="-8.7456521615546"><ele>396.0</ele><time>2026-04-16T15:38:04.999Z</time></trkpt><trkpt lat="42.8032268410003" lon="-8.745742721973548"><ele>396.0</ele><time>2026-04-16T15:38:05.999Z</time></trkpt><trkpt lat="42.803378765721895" lon="-8.745816037831462"><ele>397.0</ele><time>2026-04-16T15:38:06.999Z</time></trkpt><trkpt lat="42.803539825003675" lon="-8.745866245955293"><ele>398.0</ele><time>2026-04-16T15:38:07.999Z</time></trkpt><trkpt lat="42.80370372178143" lon="-8.745891180989966"><ele>399.0</ele><time>2026-04-16T15:38:08.999Z</time></trkpt><trkpt lat="42.8038707633439" lon="-8.745899945287357"><ele>399.0</ele><time>2026-04-16T15:38:09.999Z</time></trkpt><trkpt lat="42.80404167952507" lon="-8.745911750033368"><ele>399.0</ele><time>2026-04-16T15:38:10.999Z</time></trkpt><trkpt lat="42.80421344454605" lon="-8.745913974428891"><ele>399.0</ele><time>2026-04-16T15:38:11.999Z</time></trkpt><trkpt lat="42.80438323589293" lon="-8.745922371578187"><ele>399.66666666666663</ele><time>2026-04-16T15:38:12.999Z</time></trkpt><trkpt lat="42.804547919288396" lon="-8.74592906824194"><ele>400.3333333333333</ele><time>2026-04-16T15:38:13.999Z</time></trkpt><trkpt lat="42.80471404294622" lon="-8.745931673958323"><ele>401.0</ele><time>2026-04-16T15:38:14.999Z</time></trkpt><trkpt lat="42.80487952999805" lon="-8.745930507317267"><ele>401.0</ele><time>2026-04-16T15:38:15.999Z</time></trkpt><trkpt lat="42.80504548183377" lon="-8.7459343205218"><ele>401.0</ele><time>2026-04-16T15:38:16.999Z</time></trkpt><trkpt lat="42.80521602967432" lon="-8.74593789791286"><ele>401.0</ele><time>2026-04-16T15:38:17.999Z</time></trkpt><trkpt lat="42.80539288075075" lon="-8.745941217108207"><ele>400.66666666666663</ele><time>2026-04-16T15:38:18.999Z</time></trkpt><trkpt lat="42.80557491961629" lon="-8.745945170542276"><ele>400.33333333333337</ele><time>2026-04-16T15:38:19.999Z</time></trkpt><trkpt lat="42.80575785801222" lon="-8.74595179161476"><ele>400.0</ele><time>2026-04-16T15:38:20.999Z</time></trkpt><trkpt lat="42.80593105149733" lon="-8.74595579455958"><ele>401.0</ele><time>2026-04-16T15:38:21.999Z</time></trkpt><trkpt lat="42.80609707387643" lon="-8.745958454364635"><ele>402.0</ele><time>2026-04-16T15:38:22.999Z</time></trkpt><trkpt lat="42.8062642651799" lon="-8.745956927455184"><ele>403.0</ele><time>2026-04-16T15:38:23.999Z</time></trkpt><trkpt lat="42.80642961316885" lon="-8.745962028972436"><ele>403.0</ele><time>2026-04-16T15:38:24.999Z</time></trkpt><trkpt lat="42.80659303037856" lon="-8.745985529401924"><ele>403.0</ele><time>2026-04-16T15:38:25.999Z</time></trkpt><trkpt lat="42.80674949829245" lon="-8.746033481997575"><ele>403.0</ele><time>2026-04-16T15:38:26.999Z</time></trkpt><trkpt lat="42.80690228213465" lon="-8.746094884916973"><ele>403.6666666666667</ele><time>2026-04-16T15:38:27.999Z</time></trkpt><trkpt lat="42.80705394140262" lon="-8.746159821035448"><ele>404.33333333333337</ele><time>2026-04-16T15:38:28.999Z</time></trkpt><trkpt lat="42.80720844863017" lon="-8.746225349630597"><ele>405.0</ele><time>2026-04-16T15:38:29.999Z</time></trkpt><trkpt lat="42.80736301589466" lon="-8.746290357958207"><ele>405.0</ele><time>2026-04-16T15:38:30.999Z</time></trkpt><trkpt lat="42.80751717438333" lon="-8.746356069482081"><ele>405.0</ele><time>2026-04-16T15:38:31.999Z</time></trkpt><trkpt lat="42.80766587183475" lon="-8.746423026967236"><ele>405.0</ele><time>2026-04-16T15:38:32.999Z</time></trkpt><trkpt lat="42.807797662987156" lon="-8.74647949016652"><ele>406.0</ele><time>2026-04-16T15:38:33.999Z</time></trkpt><trkpt lat="42.80791902074722" lon="-8.746529300340063"><ele>407.0</ele><time>2026-04-16T15:38:34.999Z</time></trkpt><trkpt lat="42.80801529286827" lon="-8.74656626036219"><ele>408.0</ele><time>2026-04-16T15:38:35.999Z</time></trkpt><trkpt lat="42.80808472448648" lon="-8.746592310345637"><ele>409.0</ele><time>2026-04-16T15:38:36.999Z</time></trkpt><trkpt lat="42.808148227058744" lon="-8.746613028314734"><ele>410.0</ele><time>2026-04-16T15:38:37.999Z</time></trkpt><trkpt lat="42.80824822420928" lon="-8.746665834634776"><ele>410.0</ele><time>2026-04-16T15:38:39.999Z</time></trkpt><trkpt lat="42.80831588405035" lon="-8.746697968416038"><ele>410.0</ele><time>2026-04-16T15:38:40.999Z</time></trkpt><trkpt lat="42.80838940412063" lon="-8.746731392591624"><ele>410.0</ele><time>2026-04-16T15:38:41.999Z</time></trkpt><trkpt lat="42.80847275001818" lon="-8.746768579553263"><ele>410.0</ele><time>2026-04-16T15:38:42.999Z</time></trkpt><trkpt lat="42.808569529164764" lon="-8.746819712785843"><ele>410.0</ele><time>2026-04-16T15:38:43.999Z</time></trkpt><trkpt lat="42.80867189690083" lon="-8.746895048936517"><ele>412.75</ele><time>2026-04-16T15:38:44.999Z</time></trkpt><trkpt lat="42.80876671932315" lon="-8.746986963687133"><ele>415.5</ele><time>2026-04-16T15:38:45.999Z</time></trkpt><trkpt lat="42.80886455215456" lon="-8.747082377173848"><ele>418.25</ele><time>2026-04-16T15:38:46.999Z</time></trkpt><trkpt lat="42.80893937310413" lon="-8.747214407693269"><ele>421.0</ele><time>2026-04-16T15:38:47.999Z</time></trkpt><trkpt lat="42.80900953012641" lon="-8.74734430146665"><ele>421.0</ele><time>2026-04-16T15:38:48.999Z</time></trkpt><trkpt lat="42.809078854627856" lon="-8.74747313085129"><ele>421.0</ele><time>2026-04-16T15:38:49.999Z</time></trkpt><trkpt lat="42.80914683836422" lon="-8.747603064400792"><ele>421.0</ele><time>2026-04-16T15:38:50.999Z</time></trkpt><trkpt lat="42.80921978958245" lon="-8.747724109092392"><ele>421.0</ele><time>2026-04-16T15:38:51.999Z</time></trkpt><trkpt lat="42.80930464899594" lon="-8.747829407780923"><ele>422.75</ele><time>2026-04-16T15:38:52.999Z</time></trkpt><trkpt lat="42.80940282489537" lon="-8.747906717850654"><ele>424.5</ele><time>2026-04-16T15:38:53.999Z</time></trkpt><trkpt lat="42.80952162683505" lon="-8.747967714808912"><ele>426.25</ele><time>2026-04-16T15:38:54.999Z</time></trkpt><trkpt lat="42.809645955126115" lon="-8.748015383055348"><ele>428.0</ele><time>2026-04-16T15:38:55.999Z</time></trkpt><trkpt lat="42.80976572952604" lon="-8.748063070811781"><ele>428.0</ele><time>2026-04-16T15:38:56.999Z</time></trkpt><trkpt lat="42.80987788010534" lon="-8.748119996609383"><ele>428.0</ele><time>2026-04-16T15:38:57.999Z</time></trkpt><trkpt lat="42.80996725788142" lon="-8.748221474768584"><ele>428.0</ele><time>2026-04-16T15:38:58.999Z</time></trkpt><trkpt lat="42.81005564700853" lon="-8.748320981917301"><ele>428.0</ele><time>2026-04-16T15:38:59.999Z</time></trkpt><trkpt lat="42.810121243878584" lon="-8.748460334779821"><ele>428.5</ele><time>2026-04-16T15:39:00.999Z</time></trkpt><trkpt lat="42.810156425660075" lon="-8.748631485478112"><ele>429.0</ele><time>2026-04-16T15:39:01.999Z</time></trkpt><trkpt lat="42.81016514682535" lon="-8.748812531221583"><ele>429.5</ele><time>2026-04-16T15:39:02.999Z</time></trkpt><trkpt lat="42.81016018326727" lon="-8.748994788142607"><ele>430.0</ele><time>2026-04-16T15:39:03.999Z</time></trkpt><trkpt lat="42.81015097483659" lon="-8.749176059140456"><ele>430.0</ele><time>2026-04-16T15:39:04.999Z</time></trkpt><trkpt lat="42.81014137781643" lon="-8.749355775509201"><ele>430.0</ele><time>2026-04-16T15:39:05.999Z</time></trkpt><trkpt lat="42.81013149873335" lon="-8.749541051770702"><ele>430.0</ele><time>2026-04-16T15:39:06.999Z</time></trkpt><trkpt lat="42.81012107010622" lon="-8.749732790729018"><ele>430.0</ele><time>2026-04-16T15:39:07.998Z</time></trkpt><trkpt lat="42.81011098836002" lon="-8.749930185560796"><ele>433.25</ele><time>2026-04-16T15:39:08.998Z</time></trkpt><trkpt lat="42.81010107333116" lon="-8.750120372612736"><ele>436.5</ele><time>2026-04-16T15:39:09.998Z</time></trkpt><trkpt lat="42.810091265254385" lon="-8.75029344511984"><ele>439.75</ele><time>2026-04-16T15:39:10.998Z</time></trkpt><trkpt lat="42.8100846924506" lon="-8.750448243727673"><ele>443.0</ele><time>2026-04-16T15:39:11.998Z</time></trkpt><trkpt lat="42.810078577009186" lon="-8.750603269210504"><ele>443.0</ele><time>2026-04-16T15:39:12.998Z</time></trkpt><trkpt lat="42.81007070150378" lon="-8.750756143596135"><ele>442.99999999999994</ele><time>2026-04-16T15:39:13.998Z</time></trkpt><trkpt lat="42.81007387383917" lon="-8.750916103164103"><ele>442.99999999999994</ele><time>2026-04-16T15:39:14.998Z</time></trkpt><trkpt lat="42.81008971843321" lon="-8.751053875682144"><ele>443.0</ele><time>2026-04-16T15:39:15.998Z</time></trkpt><trkpt lat="42.81011118068814" lon="-8.75118081918417"><ele>443.0</ele><time>2026-04-16T15:39:16.998Z</time></trkpt><trkpt lat="42.81014414728003" lon="-8.75130577402809"><ele>443.25</ele><time>2026-04-16T15:39:17.998Z</time></trkpt><trkpt lat="42.81018871429155" lon="-8.751431565561104"><ele>443.5</ele><time>2026-04-16T15:39:18.998Z</time></trkpt><trkpt lat="42.81024334709377" lon="-8.751559951605023"><ele>443.75</ele><time>2026-04-16T15:39:20Z</time></trkpt><trkpt lat="42.81032318464961" lon="-8.751677836173311"><ele>444.0</ele><time>2026-04-16T15:39:21Z</time></trkpt><trkpt lat="42.81040357510776" lon="-8.751821273437884"><ele>443.5</ele><time>2026-04-16T15:39:22Z</time></trkpt><trkpt lat="42.81047398713244" lon="-8.751981199201174"><ele>443.0</ele><time>2026-04-16T15:39:23Z</time></trkpt><trkpt lat="42.810564879393716" lon="-8.752127357950734"><ele>442.5</ele><time>2026-04-16T15:39:24Z</time></trkpt><trkpt lat="42.810657063323795" lon="-8.75227479590041"><ele>442.0</ele><time>2026-04-16T15:39:25Z</time></trkpt><trkpt lat="42.81074896165804" lon="-8.752425878263473"><ele>442.0</ele><time>2026-04-16T15:39:26Z</time></trkpt><trkpt lat="42.81083817150384" lon="-8.752576923177406"><ele>442.0</ele><time>2026-04-16T15:39:27Z</time></trkpt><trkpt lat="42.81092328352132" lon="-8.752724411766295"><ele>442.0</ele><time>2026-04-16T15:39:28Z</time></trkpt><trkpt lat="42.81100947453779" lon="-8.752873044989434"><ele>442.0</ele><time>2026-04-16T15:39:29Z</time></trkpt><trkpt lat="42.81109602901159" lon="-8.753029109922338"><ele>441.6666666666667</ele><time>2026-04-16T15:39:30Z</time></trkpt><trkpt lat="42.81118638512461" lon="-8.75318743320042"><ele>441.33333333333337</ele><time>2026-04-16T15:39:31Z</time></trkpt><trkpt lat="42.81127955029694" lon="-8.753350186501724"><ele>441.0</ele><time>2026-04-16T15:39:32Z</time></trkpt><trkpt lat="42.81137587254033" lon="-8.753515809521383"><ele>442.0</ele><time>2026-04-16T15:39:33Z</time></trkpt><trkpt lat="42.811476510561235" lon="-8.753686196064862"><ele>443.0</ele><time>2026-04-16T15:39:34Z</time></trkpt><trkpt lat="42.811577182687614" lon="-8.753859158929608"><ele>444.0</ele><time>2026-04-16T15:39:35Z</time></trkpt><trkpt lat="42.81167955225157" lon="-8.754037357345236"><ele>444.0</ele><time>2026-04-16T15:39:36Z</time></trkpt><trkpt lat="42.8117820122122" lon="-8.754217752131051"><ele>444.0</ele><time>2026-04-16T15:39:37Z</time></trkpt><trkpt lat="42.811877878099274" lon="-8.75438261661507"><ele>444.0</ele><time>2026-04-16T15:39:38Z</time></trkpt><trkpt lat="42.81198343150551" lon="-8.754524710162062"><ele>445.5</ele><time>2026-04-16T15:39:39Z</time></trkpt><trkpt lat="42.812058295502254" lon="-8.754691709170489"><ele>447.0</ele><time>2026-04-16T15:39:40Z</time></trkpt><trkpt lat="42.81214626916363" lon="-8.754842860952822"><ele>448.5</ele><time>2026-04-16T15:39:41Z</time></trkpt><trkpt lat="42.81223629322571" lon="-8.75499612057558"><ele>450.0</ele><time>2026-04-16T15:39:42Z</time></trkpt><trkpt lat="42.81232906672094" lon="-8.75515058638443"><ele>449.75</ele><time>2026-04-16T15:39:43Z</time></trkpt><trkpt lat="42.81241479071661" lon="-8.755296531153041"><ele>449.5</ele><time>2026-04-16T15:39:44Z</time></trkpt><trkpt lat="42.81249335514602" lon="-8.75542670847952"><ele>449.25</ele><time>2026-04-16T15:39:45Z</time></trkpt><trkpt lat="42.81256543649129" lon="-8.755545367470551"><ele>449.0</ele><time>2026-04-16T15:39:46Z</time></trkpt><trkpt lat="42.8126345488602" lon="-8.755641634621638"><ele>449.16666666666663</ele><time>2026-04-16T15:39:47Z</time></trkpt><trkpt lat="42.81270110495146" lon="-8.755712381858945"><ele>449.3333333333333</ele><time>2026-04-16T15:39:48Z</time></trkpt><trkpt lat="42.812757855759315" lon="-8.755751357679904"><ele>449.5</ele><time>2026-04-16T15:39:49Z</time></trkpt><trkpt lat="42.8128713986342" lon="-8.755789735539873"><ele>449.66666666666663</ele><time>2026-04-16T15:39:51Z</time></trkpt><trkpt lat="42.81294299301655" lon="-8.755797910717959"><ele>449.8333333333333</ele><time>2026-04-16T15:39:52Z</time></trkpt><trkpt lat="42.8130089441034" lon="-8.755822626812527"><ele>450.0</ele><time>2026-04-16T15:39:53Z</time></trkpt><trkpt lat="42.81306334008363" lon="-8.755873892835142"><ele>450.0</ele><time>2026-04-16T15:39:54Z</time></trkpt><trkpt lat="42.8131057534897" lon="-8.755950009436589"><ele>450.0</ele><time>2026-04-16T15:39:55Z</time></trkpt><trkpt lat="42.81311167973835" lon="-8.756055390283407"><ele>450.0</ele><time>2026-04-16T15:39:56Z</time></trkpt><trkpt lat="42.81308185121568" lon="-8.756166002850973"><ele>450.0</ele><time>2026-04-16T15:39:57Z</time></trkpt><trkpt lat="42.81302530449251" lon="-8.756252762173766"><ele>450.0</ele><time>2026-04-16T15:39:58Z</time></trkpt><trkpt lat="42.81292510578447" lon="-8.756297185766757"><ele>450.0</ele><time>2026-04-16T15:39:59Z</time></trkpt><trkpt lat="42.812857352925064" lon="-8.756402760281597"><ele>450.0</ele><time>2026-04-16T15:40:00Z</time></trkpt><trkpt lat="42.812800220335404" lon="-8.756545606936655"><ele>450.0</ele><time>2026-04-16T15:40:01Z</time></trkpt><trkpt lat="42.81275036929383" lon="-8.756745151119507"><ele>450.0</ele><time>2026-04-16T15:40:02Z</time></trkpt><trkpt lat="42.812713015717264" lon="-8.756960271743068"><ele>450.0</ele><time>2026-04-16T15:40:03Z</time></trkpt><trkpt lat="42.81268754643899" lon="-8.757183777258385"><ele>451.0</ele><time>2026-04-16T15:40:04Z</time></trkpt><trkpt lat="42.81266914184601" lon="-8.757407701666693"><ele>452.0</ele><time>2026-04-16T15:40:05Z</time></trkpt><trkpt lat="42.81265898828444" lon="-8.757628251189024"><ele>453.0</ele><time>2026-04-16T15:40:06Z</time></trkpt><trkpt lat="42.812656868161206" lon="-8.7578382226922"><ele>453.33333333333337</ele><time>2026-04-16T15:40:07Z</time></trkpt><trkpt lat="42.81266310510595" lon="-8.758051271203453"><ele>453.6666666666667</ele><time>2026-04-16T15:40:08Z</time></trkpt><trkpt lat="42.81267116974246" lon="-8.75826483611705"><ele>454.0</ele><time>2026-04-16T15:40:09Z</time></trkpt><trkpt lat="42.8126816101402" lon="-8.758481099003685"><ele>454.0</ele><time>2026-04-16T15:40:10Z</time></trkpt><trkpt lat="42.8126934198275" lon="-8.758699748214713"><ele>454.0</ele><time>2026-04-16T15:40:11Z</time></trkpt><trkpt lat="42.81270538636005" lon="-8.758917952066687"><ele>454.0</ele><time>2026-04-16T15:40:12Z</time></trkpt><trkpt lat="42.81271800319991" lon="-8.759139205272405"><ele>454.0</ele><time>2026-04-16T15:40:13Z</time></trkpt><trkpt lat="42.812729835302854" lon="-8.759364093888383"><ele>454.0</ele><time>2026-04-16T15:40:14Z</time></trkpt><trkpt lat="42.81274127932947" lon="-8.759591880616055"><ele>454.0</ele><time>2026-04-16T15:40:15Z</time></trkpt><trkpt lat="42.812743642032785" lon="-8.759820305833276"><ele>454.0</ele><time>2026-04-16T15:40:16Z</time></trkpt><trkpt lat="42.81273394439972" lon="-8.760051820219067"><ele>454.0</ele><time>2026-04-16T15:40:17Z</time></trkpt><trkpt lat="42.81271502237864" lon="-8.760284102023157"><ele>454.0</ele><time>2026-04-16T15:40:18Z</time></trkpt><trkpt lat="42.81269728427342" lon="-8.760518866281075"><ele>453.33333333333337</ele><time>2026-04-16T15:40:19Z</time></trkpt><trkpt lat="42.81267926483614" lon="-8.76075546328307"><ele>452.66666666666663</ele><time>2026-04-16T15:40:20Z</time></trkpt><trkpt lat="42.812660561862884" lon="-8.760983509777464"><ele>452.0</ele><time>2026-04-16T15:40:21Z</time></trkpt><trkpt lat="42.81264354598351" lon="-8.761201176589271"><ele>449.66666666666663</ele><time>2026-04-16T15:40:22Z</time></trkpt><trkpt lat="42.81262810391256" lon="-8.761423164600203"><ele>447.33333333333337</ele><time>2026-04-16T15:40:23Z</time></trkpt><trkpt lat="42.81261830992063" lon="-8.761648520776628"><ele>445.0</ele><time>2026-04-16T15:40:24Z</time></trkpt><trkpt lat="42.812611127757215" lon="-8.761881814839064"><ele>443.6666666666667</ele><time>2026-04-16T15:40:25Z</time></trkpt><trkpt lat="42.8126077955891" lon="-8.76211855528398"><ele>442.33333333333337</ele><time>2026-04-16T15:40:26Z</time></trkpt><trkpt lat="42.81260426355077" lon="-8.762371551794093"><ele>441.0</ele><time>2026-04-16T15:40:26.999Z</time></trkpt><trkpt lat="42.81260268086605" lon="-8.762637161494435"><ele>440.33333333333337</ele><time>2026-04-16T15:40:27.999Z</time></trkpt><trkpt lat="42.812600398413416" lon="-8.762911784738693"><ele>439.6666666666667</ele><time>2026-04-16T15:40:28.999Z</time></trkpt><trkpt lat="42.81259277080076" lon="-8.763187224292091"><ele>439.0</ele><time>2026-04-16T15:40:29.999Z</time></trkpt><trkpt lat="42.812579959908504" lon="-8.763461370216483"><ele>439.0</ele><time>2026-04-16T15:40:30.999Z</time></trkpt><trkpt lat="42.812554438516344" lon="-8.763730319945008"><ele>439.0</ele><time>2026-04-16T15:40:31.999Z</time></trkpt><trkpt lat="42.812517839789145" lon="-8.763975800994412"><ele>439.0</ele><time>2026-04-16T15:40:32.999Z</time></trkpt><trkpt lat="42.812480299019334" lon="-8.764218016276656"><ele>439.0</ele><time>2026-04-16T15:40:33.999Z</time></trkpt><trkpt lat="42.812447261159726" lon="-8.764461689011672"><ele>439.0</ele><time>2026-04-16T15:40:34.999Z</time></trkpt><trkpt lat="42.81242336792919" lon="-8.764706605112305"><ele>439.0</ele><time>2026-04-16T15:40:35.999Z</time></trkpt><trkpt lat="42.812413639365495" lon="-8.764956144223458"><ele>438.0</ele><time>2026-04-16T15:40:36.999Z</time></trkpt><trkpt lat="42.81242080706498" lon="-8.765205129650294"><ele>437.0</ele><time>2026-04-16T15:40:37.999Z</time></trkpt><trkpt lat="42.812446021397115" lon="-8.76545771623654"><ele>436.0</ele><time>2026-04-16T15:40:38.999Z</time></trkpt><trkpt lat="42.81249358822519" lon="-8.765730786757272"><ele>436.0</ele><time>2026-04-16T15:40:39.999Z</time></trkpt><trkpt lat="42.81256342398414" lon="-8.766024938655915"><ele>436.0</ele><time>2026-04-16T15:40:40.999Z</time></trkpt><trkpt lat="42.81264115041283" lon="-8.766291790950083"><ele>436.0</ele><time>2026-04-16T15:40:41.999Z</time></trkpt><trkpt lat="42.81271984366018" lon="-8.766551919522446"><ele>436.33333333333337</ele><time>2026-04-16T15:40:42.999Z</time></trkpt><trkpt lat="42.8127956445359" lon="-8.766804264174711"><ele>436.66666666666663</ele><time>2026-04-16T15:40:43.999Z</time></trkpt><trkpt lat="42.81286562556098" lon="-8.767058304482063"><ele>437.0</ele><time>2026-04-16T15:40:44.999Z</time></trkpt><trkpt lat="42.812928858230805" lon="-8.767320807759956"><ele>436.0</ele><time>2026-04-16T15:40:45.999Z</time></trkpt><trkpt lat="42.81297934271926" lon="-8.767596549091921"><ele>435.0</ele><time>2026-04-16T15:40:46.999Z</time></trkpt><trkpt lat="42.813013013244245" lon="-8.767877884514224"><ele>434.0</ele><time>2026-04-16T15:40:47.999Z</time></trkpt><trkpt lat="42.81302312091771" lon="-8.768163254537287"><ele>434.0</ele><time>2026-04-16T15:40:48.999Z</time></trkpt><trkpt lat="42.8130129263396" lon="-8.768452603004983"><ele>434.0</ele><time>2026-04-16T15:40:49.999Z</time></trkpt><trkpt lat="42.81298035634021" lon="-8.768738892611102"><ele>434.0</ele><time>2026-04-16T15:40:50.999Z</time></trkpt><trkpt lat="42.81293536947177" lon="-8.769022014250483"><ele>438.3333333333333</ele><time>2026-04-16T15:40:51.999Z</time></trkpt><trkpt lat="42.81288429868714" lon="-8.769299145396634"><ele>442.66666666666663</ele><time>2026-04-16T15:40:52.999Z</time></trkpt><trkpt lat="42.81283268238884" lon="-8.769570379162374"><ele>447.0</ele><time>2026-04-16T15:40:53.999Z</time></trkpt><trkpt lat="42.812778887683315" lon="-8.769824332390762"><ele>446.33333333333337</ele><time>2026-04-16T15:40:54.999Z</time></trkpt><trkpt lat="42.812726489591" lon="-8.770061014637314"><ele>445.6666666666667</ele><time>2026-04-16T15:40:55.999Z</time></trkpt><trkpt lat="42.812673837005626" lon="-8.770297728139683"><ele>445.0</ele><time>2026-04-16T15:40:56.999Z</time></trkpt><trkpt lat="42.812621691120995" lon="-8.770540203915461"><ele>445.0</ele><time>2026-04-16T15:40:57.999Z</time></trkpt><trkpt lat="42.81257206096385" lon="-8.770782470712904"><ele>445.0</ele><time>2026-04-16T15:40:58.999Z</time></trkpt><trkpt lat="42.81252684848518" lon="-8.771015951031643"><ele>445.0</ele><time>2026-04-16T15:40:59.999Z</time></trkpt><trkpt lat="42.81249108113023" lon="-8.77124876959275"><ele>445.0</ele><time>2026-04-16T15:41:00.999Z</time></trkpt><trkpt lat="42.812473544906624" lon="-8.771486756613106"><ele>445.0</ele><time>2026-04-16T15:41:01.999Z</time></trkpt><trkpt lat="42.812467806162154" lon="-8.771729977622352"><ele>445.0</ele><time>2026-04-16T15:41:02.999Z</time></trkpt><trkpt lat="42.81247687577387" lon="-8.77197326037089"><ele>445.0</ele><time>2026-04-16T15:41:03.999Z</time></trkpt><trkpt lat="42.812498913431696" lon="-8.772210543102107"><ele>445.0</ele><time>2026-04-16T15:41:04.999Z</time></trkpt><trkpt lat="42.81252768744616" lon="-8.772426918757391"><ele>445.0</ele><time>2026-04-16T15:41:05.999Z</time></trkpt><trkpt lat="42.812562120385586" lon="-8.77263311067229"><ele>445.6666666666667</ele><time>2026-04-16T15:41:06.999Z</time></trkpt><trkpt lat="42.812605951604915" lon="-8.772844770949924"><ele>446.33333333333337</ele><time>2026-04-16T15:41:07.999Z</time></trkpt><trkpt lat="42.812658118744395" lon="-8.773059115057093"><ele>447.0</ele><time>2026-04-16T15:41:08.999Z</time></trkpt><trkpt lat="42.81270990303675" lon="-8.7732879312258"><ele>444.33333333333337</ele><time>2026-04-16T15:41:09.999Z</time></trkpt><trkpt lat="42.8127577150137" lon="-8.773533376722975"><ele>441.6666666666667</ele><time>2026-04-16T15:41:10.999Z</time></trkpt><trkpt lat="42.81279775801103" lon="-8.773786662122601"><ele>439.0</ele><time>2026-04-16T15:41:11.999Z</time></trkpt><trkpt lat="42.812825325694725" lon="-8.774027378155425"><ele>439.0</ele><time>2026-04-16T15:41:12.999Z</time></trkpt><trkpt lat="42.81284602035025" lon="-8.77427538270755"><ele>439.0</ele><time>2026-04-16T15:41:13.999Z</time></trkpt><trkpt lat="42.812859701334" lon="-8.774529754033546"><ele>439.0</ele><time>2026-04-16T15:41:14.999Z</time></trkpt><trkpt lat="42.812865820709085" lon="-8.774791434027179"><ele>438.33333333333337</ele><time>2026-04-16T15:41:15.999Z</time></trkpt><trkpt lat="42.81286580298006" lon="-8.77503869525181"><ele>437.66666666666663</ele><time>2026-04-16T15:41:16.999Z</time></trkpt><trkpt lat="42.812860187288805" lon="-8.77527288675085"><ele>437.0</ele><time>2026-04-16T15:41:17.999Z</time></trkpt><trkpt lat="42.81285252857147" lon="-8.775491864792352"><ele>437.0</ele><time>2026-04-16T15:41:18.999Z</time></trkpt><trkpt lat="42.812846674889975" lon="-8.775693068335896"><ele>437.0</ele><time>2026-04-16T15:41:19.999Z</time></trkpt><trkpt lat="42.81283985548464" lon="-8.77587414048572"><ele>437.0</ele><time>2026-04-16T15:41:20.999Z</time></trkpt><trkpt lat="42.812835111269244" lon="-8.776030400678348"><ele>437.0</ele><time>2026-04-16T15:41:21.999Z</time></trkpt><trkpt lat="42.81283002551746" lon="-8.7761584699106"><ele>437.0</ele><time>2026-04-16T15:41:22.999Z</time></trkpt><trkpt lat="42.81282558019747" lon="-8.776265755875043"><ele>437.00000000000006</ele><time>2026-04-16T15:41:23.999Z</time></trkpt><trkpt lat="42.8128098132272" lon="-8.776410051583435"><ele>437.00000000000006</ele><time>2026-04-16T15:41:26.001Z</time></trkpt><trkpt lat="42.81269967126614" lon="-8.776394333547366"><ele>437.0</ele><time>2026-04-16T15:41:27.001Z</time></trkpt><trkpt lat="42.81260561709657" lon="-8.77638949503399"><ele>437.0</ele><time>2026-04-16T15:41:29.001Z</time></trkpt><trkpt lat="42.81254246566071" lon="-8.776372250926176"><ele>436.4285714285714</ele><time>2026-04-16T15:41:31.001Z</time></trkpt><trkpt lat="42.8124980550325" lon="-8.776279123390477"><ele>435.8571428571429</ele><time>2026-04-16T15:41:34Z</time></trkpt><trkpt lat="42.81248631852304" lon="-8.776179672654003"><ele>435.2857142857143</ele><time>2026-04-16T15:41:37Z</time></trkpt><trkpt lat="42.81246698477723" lon="-8.776095297489345"><ele>434.71428571428567</ele><time>2026-04-16T15:42:47.999Z</time></trkpt><trkpt lat="42.81253552064352" lon="-8.776047275958328"><ele>434.1428571428571</ele><time>2026-04-16T15:42:53.999Z</time></trkpt><trkpt lat="42.812530881503164" lon="-8.775949761562488"><ele>433.57142857142856</ele><time>2026-04-16T15:43:42Z</time></trkpt><trkpt lat="42.812594103289385" lon="-8.77590850069866"><ele>433.0</ele><time>2026-04-16T15:43:46Z</time></trkpt><trkpt lat="42.8125383457708" lon="-8.776035134698533"><ele>433.00000000000006</ele><time>2026-04-16T15:43:48Z</time></trkpt><trkpt lat="42.812497496226776" lon="-8.776104966064043"><ele>433.0</ele><time>2026-04-16T15:43:52Z</time></trkpt><trkpt lat="42.812552084140485" lon="-8.776003509868985"><ele>433.0</ele><time>2026-04-16T15:44:43.999Z</time></trkpt><trkpt lat="42.81260377553069" lon="-8.775930862610403"><ele>433.0</ele><time>2026-04-16T15:44:44.999Z</time></trkpt><trkpt lat="42.81265924777575" lon="-8.775858033828145"><ele>433.00000000000006</ele><time>2026-04-16T15:44:45.999Z</time></trkpt><trkpt lat="42.81270798641898" lon="-8.77578814183162"><ele>433.0</ele><time>2026-04-16T15:44:46.999Z</time></trkpt><trkpt lat="42.81279028513519" lon="-8.775586101605745"><ele>433.5</ele><time>2026-04-16T15:44:48.999Z</time></trkpt><trkpt lat="42.812798551128246" lon="-8.775438132025812"><ele>434.0</ele><time>2026-04-16T15:44:49.999Z</time></trkpt><trkpt lat="42.812801315309905" lon="-8.775256061980002"><ele>434.5</ele><time>2026-04-16T15:44:50.999Z</time></trkpt><trkpt lat="42.812803494024116" lon="-8.775067088485708"><ele>435.0</ele><time>2026-04-16T15:44:51.999Z</time></trkpt><trkpt lat="42.81280643190306" lon="-8.774861713126057"><ele>435.0</ele><time>2026-04-16T15:44:52.999Z</time></trkpt><trkpt lat="42.81280857962447" lon="-8.77462385523854"><ele>435.0</ele><time>2026-04-16T15:44:53.999Z</time></trkpt><trkpt lat="42.81279882967269" lon="-8.774362639438504"><ele>435.0</ele><time>2026-04-16T15:44:54.999Z</time></trkpt><trkpt lat="42.81277971192152" lon="-8.774102197127537"><ele>436.33333333333337</ele><time>2026-04-16T15:44:55.999Z</time></trkpt><trkpt lat="42.81275000128641" lon="-8.773839137943158"><ele>437.6666666666667</ele><time>2026-04-16T15:44:56.999Z</time></trkpt><trkpt lat="42.81271174809453" lon="-8.773585900236679"><ele>439.0</ele><time>2026-04-16T15:44:57.999Z</time></trkpt><trkpt lat="42.81266987283083" lon="-8.773358389079755"><ele>439.25</ele><time>2026-04-16T15:44:58.999Z</time></trkpt><trkpt lat="42.812630097977824" lon="-8.77315509958584"><ele>439.5</ele><time>2026-04-16T15:44:59.999Z</time></trkpt><trkpt lat="42.81259120916896" lon="-8.772973191100142"><ele>439.75</ele><time>2026-04-16T15:45:00.999Z</time></trkpt><trkpt lat="42.81255132373334" lon="-8.77279300398041"><ele>440.0</ele><time>2026-04-16T15:45:01.999Z</time></trkpt><trkpt lat="42.81251009887477" lon="-8.772596918719115"><ele>441.66666666666663</ele><time>2026-04-16T15:45:02.999Z</time></trkpt><trkpt lat="42.81247549565052" lon="-8.772378814454353"><ele>443.33333333333337</ele><time>2026-04-16T15:45:03.999Z</time></trkpt><trkpt lat="42.812445927593174" lon="-8.77214129422064"><ele>445.0</ele><time>2026-04-16T15:45:04.999Z</time></trkpt><trkpt lat="42.81242353783693" lon="-8.771878590719412"><ele>445.0</ele><time>2026-04-16T15:45:05.999Z</time></trkpt><trkpt lat="42.812417006625864" lon="-8.771596582390403"><ele>445.0</ele><time>2026-04-16T15:45:06.999Z</time></trkpt><trkpt lat="42.812437651010185" lon="-8.771296721289104"><ele>445.0</ele><time>2026-04-16T15:45:07.999Z</time></trkpt><trkpt lat="42.812478608555324" lon="-8.770996408316778"><ele>445.0</ele><time>2026-04-16T15:45:08.999Z</time></trkpt><trkpt lat="42.81253400567067" lon="-8.770686416065939"><ele>445.0</ele><time>2026-04-16T15:45:09.999Z</time></trkpt><trkpt lat="42.81260092603477" lon="-8.770362378957632"><ele>448.5</ele><time>2026-04-16T15:45:10.999Z</time></trkpt><trkpt lat="42.812679474548695" lon="-8.770026821671959"><ele>452.0</ele><time>2026-04-16T15:45:11.999Z</time></trkpt><trkpt lat="42.8127614546116" lon="-8.76968968819266"><ele>452.0</ele><time>2026-04-16T15:45:12.999Z</time></trkpt><trkpt lat="42.81282998249616" lon="-8.769376572503964"><ele>452.0</ele><time>2026-04-16T15:45:13.999Z</time></trkpt><trkpt lat="42.81288815550002" lon="-8.769075801545807"><ele>449.5</ele><time>2026-04-16T15:45:14.999Z</time></trkpt><trkpt lat="42.81293564309281" lon="-8.768769322033616"><ele>447.0</ele><time>2026-04-16T15:45:15.999Z</time></trkpt><trkpt lat="42.81296453857225" lon="-8.768450727838193"><ele>440.5</ele><time>2026-04-16T15:45:16.999Z</time></trkpt><trkpt lat="42.81297492303525" lon="-8.768115649562672"><ele>434.0</ele><time>2026-04-16T15:45:17.999Z</time></trkpt><trkpt lat="42.81295547677526" lon="-8.7677669892659"><ele>433.5</ele><time>2026-04-16T15:45:18.999Z</time></trkpt><trkpt lat="42.81290389097659" lon="-8.767423772490417"><ele>433.0</ele><time>2026-04-16T15:45:19.999Z</time></trkpt><trkpt lat="42.81282695399784" lon="-8.767099672345516"><ele>432.0</ele><time>2026-04-16T15:45:20.999Z</time></trkpt><trkpt lat="42.812744007446184" lon="-8.766808247404326"><ele>431.0</ele><time>2026-04-16T15:45:21.999Z</time></trkpt><trkpt lat="42.812663243788876" lon="-8.766535343022381"><ele>430.0</ele><time>2026-04-16T15:45:22.999Z</time></trkpt><trkpt lat="42.812582581577736" lon="-8.766285458245852"><ele>430.0</ele><time>2026-04-16T15:45:23.999Z</time></trkpt><trkpt lat="42.81250342748784" lon="-8.766040802426936"><ele>430.0</ele><time>2026-04-16T15:45:24.999Z</time></trkpt><trkpt lat="42.812441482845756" lon="-8.765784279212147"><ele>430.0</ele><time>2026-04-16T15:45:25.999Z</time></trkpt><trkpt lat="42.812397226202265" lon="-8.765506208252253"><ele>432.0</ele><time>2026-04-16T15:45:26.999Z</time></trkpt><trkpt lat="42.812371706093266" lon="-8.765216120812465"><ele>434.0</ele><time>2026-04-16T15:45:27.999Z</time></trkpt><trkpt lat="42.81236659412879" lon="-8.764942147317798"><ele>436.0</ele><time>2026-04-16T15:45:28.999Z</time></trkpt><trkpt lat="42.81238017704107" lon="-8.764699774414298"><ele>437.0</ele><time>2026-04-16T15:45:29.999Z</time></trkpt><trkpt lat="42.81240492602007" lon="-8.764481450017884"><ele>438.0</ele><time>2026-04-16T15:45:30.999Z</time></trkpt><trkpt lat="42.81242838193113" lon="-8.764274472010474"><ele>439.0</ele><time>2026-04-16T15:45:31.999Z</time></trkpt><trkpt lat="42.81245117536478" lon="-8.764079329486407"><ele>439.0</ele><time>2026-04-16T15:45:32.999Z</time></trkpt><trkpt lat="42.81248091868622" lon="-8.763877626733724"><ele>439.0</ele><time>2026-04-16T15:45:33.999Z</time></trkpt><trkpt lat="42.812513673898636" lon="-8.76366570418023"><ele>439.0</ele><time>2026-04-16T15:45:34.999Z</time></trkpt><trkpt lat="42.812541525632916" lon="-8.763438686514885"><ele>439.0</ele><time>2026-04-16T15:45:36Z</time></trkpt><trkpt lat="42.812547709479446" lon="-8.763174254259699"><ele>439.0</ele><time>2026-04-16T15:45:37Z</time></trkpt><trkpt lat="42.812553010852426" lon="-8.762871493039489"><ele>439.0</ele><time>2026-04-16T15:45:38Z</time></trkpt><trkpt lat="42.81255493410529" lon="-8.762535396916043"><ele>440.0</ele><time>2026-04-16T15:45:39Z</time></trkpt><trkpt lat="42.812565595752915" lon="-8.762191919286971"><ele>441.0</ele><time>2026-04-16T15:45:40Z</time></trkpt><trkpt lat="42.81255775543177" lon="-8.761877726146828"><ele>442.33333333333337</ele><time>2026-04-16T15:45:41Z</time></trkpt><trkpt lat="42.81256762607855" lon="-8.761581589563159"><ele>443.6666666666667</ele><time>2026-04-16T15:45:42Z</time></trkpt><trkpt lat="42.812586497151884" lon="-8.761287772472746"><ele>445.0</ele><time>2026-04-16T15:45:43Z</time></trkpt><trkpt lat="42.812610166593046" lon="-8.76099781294629"><ele>445.6666666666667</ele><time>2026-04-16T15:45:44Z</time></trkpt><trkpt lat="42.81263466444395" lon="-8.760709047814416"><ele>446.33333333333337</ele><time>2026-04-16T15:45:45Z</time></trkpt><trkpt lat="42.81265823435082" lon="-8.760417953678258"><ele>447.0</ele><time>2026-04-16T15:45:46Z</time></trkpt><trkpt lat="42.81267523019778" lon="-8.760136637863196"><ele>449.33333333333337</ele><time>2026-04-16T15:45:47Z</time></trkpt><trkpt lat="42.81268366730993" lon="-8.759862439382818"><ele>451.6666666666667</ele><time>2026-04-16T15:45:48Z</time></trkpt><trkpt lat="42.8126851757679" lon="-8.759608841287214"><ele>454.0</ele><time>2026-04-16T15:45:49Z</time></trkpt><trkpt lat="42.81267952422962" lon="-8.759367061823347"><ele>454.0</ele><time>2026-04-16T15:45:50Z</time></trkpt><trkpt lat="42.81266708640509" lon="-8.759123254225559"><ele>454.0</ele><time>2026-04-16T15:45:51Z</time></trkpt><trkpt lat="42.81265268384697" lon="-8.758870713802352"><ele>454.0</ele><time>2026-04-16T15:45:52Z</time></trkpt><trkpt lat="42.81264274665153" lon="-8.758607570701175"><ele>451.0</ele><time>2026-04-16T15:45:53Z</time></trkpt><trkpt lat="42.81263370512286" lon="-8.7583371679057"><ele>448.0</ele><time>2026-04-16T15:45:54Z</time></trkpt><trkpt lat="42.81262630575371" lon="-8.758067314453362"><ele>445.0</ele><time>2026-04-16T15:45:55Z</time></trkpt><trkpt lat="42.81262030839881" lon="-8.757810151495962"><ele>445.0</ele><time>2026-04-16T15:45:56Z</time></trkpt><trkpt lat="42.81261727340871" lon="-8.757567547227382"><ele>445.0</ele><time>2026-04-16T15:45:57Z</time></trkpt><trkpt lat="42.81262055360779" lon="-8.757339768742101"><ele>445.0</ele><time>2026-04-16T15:45:58Z</time></trkpt><trkpt lat="42.81263256491839" lon="-8.757120510772852"><ele>446.6666666666667</ele><time>2026-04-16T15:45:59Z</time></trkpt><trkpt lat="42.812656779964534" lon="-8.756894560642115"><ele>448.33333333333337</ele><time>2026-04-16T15:46:00Z</time></trkpt><trkpt lat="42.81269537589236" lon="-8.75667694758029"><ele>450.0</ele><time>2026-04-16T15:46:01Z</time></trkpt><trkpt lat="42.81273576070375" lon="-8.75647743793304"><ele>450.0</ele><time>2026-04-16T15:46:02Z</time></trkpt><trkpt lat="42.81277311796707" lon="-8.756304142844957"><ele>450.0</ele><time>2026-04-16T15:46:03Z</time></trkpt><trkpt lat="42.81279360256603" lon="-8.756146118851305"><ele>450.0</ele><time>2026-04-16T15:46:04Z</time></trkpt><trkpt lat="42.81282230079237" lon="-8.756009126237187"><ele>450.0</ele><time>2026-04-16T15:46:05Z</time></trkpt><trkpt lat="42.81285183019233" lon="-8.755872703480932"><ele>450.0</ele><time>2026-04-16T15:46:06Z</time></trkpt><trkpt lat="42.81296048734899" lon="-8.755780576921921"><ele>450.0</ele><time>2026-04-16T15:46:07Z</time></trkpt><trkpt lat="42.813063932767996" lon="-8.755663593999005"><ele>450.0</ele><time>2026-04-16T15:46:08Z</time></trkpt><trkpt lat="42.813186530551576" lon="-8.755522224020215"><ele>450.0</ele><time>2026-04-16T15:46:09Z</time></trkpt><trkpt lat="42.813320282767606" lon="-8.755363231828802"><ele>449.66666666666663</ele><time>2026-04-16T15:46:10Z</time></trkpt><trkpt lat="42.813478013449334" lon="-8.75519090589563"><ele>449.3333333333333</ele><time>2026-04-16T15:46:11Z</time></trkpt><trkpt lat="42.81365898825386" lon="-8.755010647716748"><ele>449.0</ele><time>2026-04-16T15:46:12Z</time></trkpt><trkpt lat="42.81384619319752" lon="-8.754833066216166"><ele>449.0</ele><time>2026-04-16T15:46:13Z</time></trkpt><trkpt lat="42.81404375938322" lon="-8.754654605999862"><ele>449.0</ele><time>2026-04-16T15:46:14Z</time></trkpt><trkpt lat="42.814252999370204" lon="-8.75449177224314"><ele>448.66666666666663</ele><time>2026-04-16T15:46:15Z</time></trkpt><trkpt lat="42.8144532014184" lon="-8.754353710957188"><ele>448.33333333333337</ele><time>2026-04-16T15:46:16Z</time></trkpt><trkpt lat="42.814645743327674" lon="-8.754229095949485"><ele>448.0</ele><time>2026-04-16T15:46:17Z</time></trkpt><trkpt lat="42.81483142565253" lon="-8.754115584079537"><ele>448.0</ele><time>2026-04-16T15:46:18Z</time></trkpt><trkpt lat="42.815012900327" lon="-8.754013169539386"><ele>448.0</ele><time>2026-04-16T15:46:19Z</time></trkpt><trkpt lat="42.81518978227174" lon="-8.753922524438158"><ele>448.0</ele><time>2026-04-16T15:46:20Z</time></trkpt><trkpt lat="42.815365011634555" lon="-8.75383951838183"><ele>445.6666666666667</ele><time>2026-04-16T15:46:21Z</time></trkpt><trkpt lat="42.8155448478882" lon="-8.753763438578698"><ele>443.33333333333337</ele><time>2026-04-16T15:46:22Z</time></trkpt><trkpt lat="42.81573356727427" lon="-8.753692369164359"><ele>441.0</ele><time>2026-04-16T15:46:23Z</time></trkpt><trkpt lat="42.81592962863898" lon="-8.753620877482124"><ele>439.33333333333337</ele><time>2026-04-16T15:46:24Z</time></trkpt><trkpt lat="42.816128631503744" lon="-8.753553625479832"><ele>437.6666666666667</ele><time>2026-04-16T15:46:25Z</time></trkpt><trkpt lat="42.816319672416554" lon="-8.753492760796679"><ele>436.0</ele><time>2026-04-16T15:46:26Z</time></trkpt><trkpt lat="42.81650315088329" lon="-8.753438448872933"><ele>435.33333333333337</ele><time>2026-04-16T15:46:27Z</time></trkpt><trkpt lat="42.816681735952365" lon="-8.75338479142722"><ele>434.66666666666663</ele><time>2026-04-16T15:46:28Z</time></trkpt><trkpt lat="42.81685455594652" lon="-8.753334747138505"><ele>434.0</ele><time>2026-04-16T15:46:29Z</time></trkpt><trkpt lat="42.81702312569093" lon="-8.75328672669319"><ele>434.0</ele><time>2026-04-16T15:46:30Z</time></trkpt><trkpt lat="42.81719228703172" lon="-8.753240172374552"><ele>434.0</ele><time>2026-04-16T15:46:31Z</time></trkpt><trkpt lat="42.81735662517028" lon="-8.753193511161953"><ele>434.0</ele><time>2026-04-16T15:46:32Z</time></trkpt><trkpt lat="42.81751240941077" lon="-8.753149080357595"><ele>435.25</ele><time>2026-04-16T15:46:33Z</time></trkpt><trkpt lat="42.81765306188326" lon="-8.753106800007785"><ele>436.5</ele><time>2026-04-16T15:46:34Z</time></trkpt><trkpt lat="42.8177894419654" lon="-8.753064941502267"><ele>437.75</ele><time>2026-04-16T15:46:35Z</time></trkpt><trkpt lat="42.81791479412228" lon="-8.753027435419842"><ele>439.0</ele><time>2026-04-16T15:46:36Z</time></trkpt><trkpt lat="42.81803149268625" lon="-8.75299193752149"><ele>439.0</ele><time>2026-04-16T15:46:37Z</time></trkpt><trkpt lat="42.81814511071644" lon="-8.752960845119068"><ele>439.0</ele><time>2026-04-16T15:46:38Z</time></trkpt><trkpt lat="42.818260608839616" lon="-8.752933587567592"><ele>439.0</ele><time>2026-04-16T15:46:39Z</time></trkpt><trkpt lat="42.81838268224947" lon="-8.752906934644276"><ele>439.0</ele><time>2026-04-16T15:46:40Z</time></trkpt><trkpt lat="42.818515535329475" lon="-8.75287810957029"><ele>440.33333333333337</ele><time>2026-04-16T15:46:41Z</time></trkpt><trkpt lat="42.818659271061065" lon="-8.752841932984833"><ele>441.66666666666663</ele><time>2026-04-16T15:46:42Z</time></trkpt><trkpt lat="42.818807529371156" lon="-8.752790521504691"><ele>443.0</ele><time>2026-04-16T15:46:43Z</time></trkpt><trkpt lat="42.81895053491244" lon="-8.752717599792593"><ele>438.3333333333333</ele><time>2026-04-16T15:46:43.999Z</time></trkpt><trkpt lat="42.81908559281296" lon="-8.752630156338089"><ele>433.66666666666663</ele><time>2026-04-16T15:46:44.999Z</time></trkpt><trkpt lat="42.81922227849914" lon="-8.752534346198674"><ele>429.0</ele><time>2026-04-16T15:46:45.999Z</time></trkpt><trkpt lat="42.81936408035693" lon="-8.75243543543753"><ele>429.0</ele><time>2026-04-16T15:46:46.999Z</time></trkpt><trkpt lat="42.81951063454544" lon="-8.75233227459475"><ele>429.0</ele><time>2026-04-16T15:46:47.999Z</time></trkpt><trkpt lat="42.81966504457715" lon="-8.752229322202794"><ele>429.0</ele><time>2026-04-16T15:46:48.999Z</time></trkpt><trkpt lat="42.819827867198526" lon="-8.752139218413355"><ele>429.0</ele><time>2026-04-16T15:46:49.999Z</time></trkpt><trkpt lat="42.81999280375261" lon="-8.75207001375503"><ele>429.0</ele><time>2026-04-16T15:46:50.999Z</time></trkpt><trkpt lat="42.82015744523194" lon="-8.752022773539293"><ele>429.0</ele><time>2026-04-16T15:46:51.999Z</time></trkpt><trkpt lat="42.820319822129505" lon="-8.751986235849074"><ele>429.0</ele><time>2026-04-16T15:46:52.999Z</time></trkpt><trkpt lat="42.82048385501566" lon="-8.75195558329435"><ele>429.0</ele><time>2026-04-16T15:46:53.999Z</time></trkpt><trkpt lat="42.82065194228188" lon="-8.751926805814493"><ele>429.0</ele><time>2026-04-16T15:46:54.999Z</time></trkpt><trkpt lat="42.82082200768576" lon="-8.75189406473229"><ele>423.33333333333337</ele><time>2026-04-16T15:46:55.999Z</time></trkpt><trkpt lat="42.820995333586104" lon="-8.751856835822844"><ele>417.6666666666667</ele><time>2026-04-16T15:46:56.999Z</time></trkpt><trkpt lat="42.82117066195628" lon="-8.75180916565002"><ele>412.0</ele><time>2026-04-16T15:46:57.999Z</time></trkpt><trkpt lat="42.821338097991216" lon="-8.751750047935396"><ele>412.0</ele><time>2026-04-16T15:46:58.999Z</time></trkpt><trkpt lat="42.821503917614024" lon="-8.751679425162436"><ele>412.0</ele><time>2026-04-16T15:46:59.999Z</time></trkpt><trkpt lat="42.82166838148812" lon="-8.751591835229695"><ele>412.0</ele><time>2026-04-16T15:47:00.999Z</time></trkpt><trkpt lat="42.821833798500535" lon="-8.75149364981082"><ele>416.6666666666667</ele><time>2026-04-16T15:47:01.999Z</time></trkpt><trkpt lat="42.822001117391835" lon="-8.751396035172775"><ele>421.33333333333337</ele><time>2026-04-16T15:47:02.999Z</time></trkpt><trkpt lat="42.82216600447" lon="-8.751313909464585"><ele>426.0</ele><time>2026-04-16T15:47:03.999Z</time></trkpt><trkpt lat="42.822330551428756" lon="-8.751250189012785"><ele>426.0</ele><time>2026-04-16T15:47:04.999Z</time></trkpt><trkpt lat="42.82249404819581" lon="-8.75121405644047"><ele>426.0</ele><time>2026-04-16T15:47:05.999Z</time></trkpt><trkpt lat="42.82265584261901" lon="-8.751194729339712"><ele>426.0</ele><time>2026-04-16T15:47:06.999Z</time></trkpt><trkpt lat="42.82281547997042" lon="-8.751181732179115"><ele>424.66666666666663</ele><time>2026-04-16T15:47:07.999Z</time></trkpt><trkpt lat="42.82297305023336" lon="-8.75117355274679"><ele>423.3333333333333</ele><time>2026-04-16T15:47:08.999Z</time></trkpt><trkpt lat="42.823135510175305" lon="-8.75116993326434"><ele>422.0</ele><time>2026-04-16T15:47:09.999Z</time></trkpt><trkpt lat="42.82329808271869" lon="-8.751148076935689"><ele>422.0</ele><time>2026-04-16T15:47:10.999Z</time></trkpt><trkpt lat="42.82346199365267" lon="-8.751089347216764"><ele>422.0</ele><time>2026-04-16T15:47:11.999Z</time></trkpt><trkpt lat="42.8236200819383" lon="-8.750989786558632"><ele>422.0</ele><time>2026-04-16T15:47:12.999Z</time></trkpt><trkpt lat="42.82377400120572" lon="-8.750860567343802"><ele>416.66666666666663</ele><time>2026-04-16T15:47:13.999Z</time></trkpt><trkpt lat="42.82392575333761" lon="-8.75072496281014"><ele>411.33333333333337</ele><time>2026-04-16T15:47:14.999Z</time></trkpt><trkpt lat="42.824070290202485" lon="-8.750590761346587"><ele>406.0</ele><time>2026-04-16T15:47:15.999Z</time></trkpt><trkpt lat="42.824216799711095" lon="-8.750472082784329"><ele>407.6666666666667</ele><time>2026-04-16T15:47:16.999Z</time></trkpt><trkpt lat="42.82436551036911" lon="-8.75036725996694"><ele>409.33333333333337</ele><time>2026-04-16T15:47:17.999Z</time></trkpt><trkpt lat="42.82451680088186" lon="-8.750283934965111"><ele>411.0</ele><time>2026-04-16T15:47:18.999Z</time></trkpt><trkpt lat="42.824667495301114" lon="-8.75020331656199"><ele>404.0</ele><time>2026-04-16T15:47:19.999Z</time></trkpt><trkpt lat="42.824817004783384" lon="-8.750120222249512"><ele>397.0</ele><time>2026-04-16T15:47:20.999Z</time></trkpt><trkpt lat="42.82496515198951" lon="-8.750035762129913"><ele>390.0</ele><time>2026-04-16T15:47:21.999Z</time></trkpt><trkpt lat="42.82511404110746" lon="-8.749954041038912"><ele>389.66666666666663</ele><time>2026-04-16T15:47:22.999Z</time></trkpt><trkpt lat="42.825264596190024" lon="-8.749873670501856"><ele>389.3333333333333</ele><time>2026-04-16T15:47:23.999Z</time></trkpt><trkpt lat="42.825415942655084" lon="-8.749788863351256"><ele>389.0</ele><time>2026-04-16T15:47:24.999Z</time></trkpt><trkpt lat="42.82556800697873" lon="-8.749701214571285"><ele>389.0</ele><time>2026-04-16T15:47:25.999Z</time></trkpt><trkpt lat="42.82572029509665" lon="-8.749610768617147"><ele>389.0</ele><time>2026-04-16T15:47:26.999Z</time></trkpt><trkpt lat="42.82586906611394" lon="-8.749510733415812"><ele>389.0</ele><time>2026-04-16T15:47:27.999Z</time></trkpt><trkpt lat="42.82600558009008" lon="-8.749393606923519"><ele>383.0</ele><time>2026-04-16T15:47:28.999Z</time></trkpt><trkpt lat="42.826130970517326" lon="-8.749263120347656"><ele>377.0</ele><time>2026-04-16T15:47:29.999Z</time></trkpt><trkpt lat="42.826244970999824" lon="-8.749118055589967"><ele>371.0</ele><time>2026-04-16T15:47:30.999Z</time></trkpt><trkpt lat="42.82634638362362" lon="-8.748954284133044"><ele>371.0</ele><time>2026-04-16T15:47:31.999Z</time></trkpt><trkpt lat="42.82642587650495" lon="-8.748766186423792"><ele>371.0</ele><time>2026-04-16T15:47:32.999Z</time></trkpt><trkpt lat="42.82648806250908" lon="-8.748565535679178"><ele>371.0</ele><time>2026-04-16T15:47:33.999Z</time></trkpt><trkpt lat="42.82653164592522" lon="-8.748348055530597"><ele>371.0</ele><time>2026-04-16T15:47:34.999Z</time></trkpt><trkpt lat="42.82655645691728" lon="-8.748120248719644"><ele>371.0</ele><time>2026-04-16T15:47:35.999Z</time></trkpt><trkpt lat="42.826553867151446" lon="-8.747886295340786"><ele>371.0</ele><time>2026-04-16T15:47:36.999Z</time></trkpt><trkpt lat="42.82652566632214" lon="-8.747654874227372"><ele>372.33333333333337</ele><time>2026-04-16T15:47:37.999Z</time></trkpt><trkpt lat="42.82647399784639" lon="-8.747433626905195"><ele>373.6666666666667</ele><time>2026-04-16T15:47:38.999Z</time></trkpt><trkpt lat="42.826414698441276" lon="-8.747217858976583"><ele>375.0</ele><time>2026-04-16T15:47:39.999Z</time></trkpt><trkpt lat="42.82634683593342" lon="-8.747001979307171"><ele>375.0</ele><time>2026-04-16T15:47:41Z</time></trkpt><trkpt lat="42.826272028999654" lon="-8.746802262690839"><ele>375.0</ele><time>2026-04-16T15:47:42Z</time></trkpt><trkpt lat="42.82620504339348" lon="-8.74659891883461"><ele>375.0</ele><time>2026-04-16T15:47:43Z</time></trkpt><trkpt lat="42.82613934719408" lon="-8.746401032010146"><ele>375.0</ele><time>2026-04-16T15:47:44Z</time></trkpt><trkpt lat="42.826085178469135" lon="-8.74619796910686"><ele>375.0</ele><time>2026-04-16T15:47:45Z</time></trkpt><trkpt lat="42.82603417292881" lon="-8.745997992964528"><ele>375.0</ele><time>2026-04-16T15:47:46Z</time></trkpt><trkpt lat="42.825995200025105" lon="-8.745796126090259"><ele>373.0</ele><time>2026-04-16T15:47:47Z</time></trkpt><trkpt lat="42.82596736140018" lon="-8.745591371720115"><ele>371.0</ele><time>2026-04-16T15:47:48Z</time></trkpt><trkpt lat="42.82595028141322" lon="-8.745385023087096"><ele>369.0</ele><time>2026-04-16T15:47:49Z</time></trkpt><trkpt lat="42.82593816249925" lon="-8.745171392305645"><ele>367.6666666666667</ele><time>2026-04-16T15:47:50Z</time></trkpt><trkpt lat="42.82592414223995" lon="-8.744944010982103"><ele>366.33333333333337</ele><time>2026-04-16T15:47:51Z</time></trkpt><trkpt lat="42.82590703392559" lon="-8.74470283627317"><ele>365.0</ele><time>2026-04-16T15:47:52Z</time></trkpt><trkpt lat="42.82588908854746" lon="-8.744445452341676"><ele>364.0</ele><time>2026-04-16T15:47:53Z</time></trkpt><trkpt lat="42.825873468727885" lon="-8.744176604157628"><ele>363.0</ele><time>2026-04-16T15:47:54Z</time></trkpt><trkpt lat="42.825860088721846" lon="-8.743896600832738"><ele>362.0</ele><time>2026-04-16T15:47:55Z</time></trkpt><trkpt lat="42.82584879079344" lon="-8.743610800731282"><ele>362.0</ele><time>2026-04-16T15:47:56Z</time></trkpt><trkpt lat="42.82583967319576" lon="-8.743338072063562"><ele>362.0</ele><time>2026-04-16T15:47:57Z</time></trkpt><trkpt lat="42.82583329675191" lon="-8.74307332823246"><ele>362.0</ele><time>2026-04-16T15:47:58Z</time></trkpt><trkpt lat="42.82583120406252" lon="-8.742812070236708"><ele>361.0</ele><time>2026-04-16T15:47:59Z</time></trkpt><trkpt lat="42.82583907143773" lon="-8.742547715123166"><ele>360.0</ele><time>2026-04-16T15:48:00Z</time></trkpt><trkpt lat="42.825861326226764" lon="-8.742276006158566"><ele>359.0</ele><time>2026-04-16T15:48:01Z</time></trkpt><trkpt lat="42.825894409508216" lon="-8.742000323189853"><ele>356.6666666666667</ele><time>2026-04-16T15:48:02Z</time></trkpt><trkpt lat="42.825931879814846" lon="-8.741735487779225"><ele>354.3333333333333</ele><time>2026-04-16T15:48:03Z</time></trkpt><trkpt lat="42.82597251149256" lon="-8.741476890109046"><ele>352.0</ele><time>2026-04-16T15:48:04Z</time></trkpt><trkpt lat="42.82601421753179" lon="-8.741216250016155"><ele>354.3333333333333</ele><time>2026-04-16T15:48:05Z</time></trkpt><trkpt lat="42.82605857671792" lon="-8.740952236712118"><ele>356.6666666666667</ele><time>2026-04-16T15:48:06Z</time></trkpt><trkpt lat="42.826106460970564" lon="-8.740699023400447"><ele>359.0</ele><time>2026-04-16T15:48:07Z</time></trkpt><trkpt lat="42.826157479772284" lon="-8.74045336749865"><ele>359.0</ele><time>2026-04-16T15:48:08Z</time></trkpt><trkpt lat="42.82622512327571" lon="-8.740218874797344"><ele>359.0</ele><time>2026-04-16T15:48:09Z</time></trkpt><trkpt lat="42.82630682474889" lon="-8.739988609975335"><ele>359.0</ele><time>2026-04-16T15:48:10Z</time></trkpt><trkpt lat="42.82641586889584" lon="-8.739766993709326"><ele>354.6666666666667</ele><time>2026-04-16T15:48:11Z</time></trkpt><trkpt lat="42.82655229814268" lon="-8.739553724904846"><ele>350.3333333333333</ele><time>2026-04-16T15:48:12Z</time></trkpt><trkpt lat="42.82669855406414" lon="-8.739355012156421"><ele>346.0</ele><time>2026-04-16T15:48:13Z</time></trkpt><trkpt lat="42.82684442117281" lon="-8.739180006012392"><ele>343.0</ele><time>2026-04-16T15:48:14Z</time></trkpt><trkpt lat="42.826985879788346" lon="-8.73901272527961"><ele>340.0</ele><time>2026-04-16T15:48:15Z</time></trkpt><trkpt lat="42.82712232227457" lon="-8.738850863089972"><ele>337.0</ele><time>2026-04-16T15:48:16Z</time></trkpt><trkpt lat="42.827250568398725" lon="-8.738696808955376"><ele>337.0</ele><time>2026-04-16T15:48:17Z</time></trkpt><trkpt lat="42.82736964413739" lon="-8.73855806218965"><ele>337.0</ele><time>2026-04-16T15:48:18Z</time></trkpt><trkpt lat="42.82748707113169" lon="-8.738418410618532"><ele>337.0</ele><time>2026-04-16T15:48:19Z</time></trkpt><trkpt lat="42.82760825007302" lon="-8.738284624631511"><ele>336.3333333333333</ele><time>2026-04-16T15:48:20Z</time></trkpt><trkpt lat="42.82773323825136" lon="-8.738144762441772"><ele>335.6666666666667</ele><time>2026-04-16T15:48:21Z</time></trkpt><trkpt lat="42.82786100232925" lon="-8.737991929945121"><ele>335.0</ele><time>2026-04-16T15:48:22Z</time></trkpt><trkpt lat="42.82799259427677" lon="-8.73782724709194"><ele>333.6666666666667</ele><time>2026-04-16T15:48:23Z</time></trkpt><trkpt lat="42.828131022545634" lon="-8.737660743709034"><ele>332.3333333333333</ele><time>2026-04-16T15:48:24Z</time></trkpt><trkpt lat="42.82827364055698" lon="-8.737490939434942"><ele>331.0</ele><time>2026-04-16T15:48:25Z</time></trkpt><trkpt lat="42.8284203460762" lon="-8.737318417726366"><ele>330.3333333333333</ele><time>2026-04-16T15:48:26Z</time></trkpt><trkpt lat="42.82857265979343" lon="-8.737144584048078"><ele>329.6666666666667</ele><time>2026-04-16T15:48:27Z</time></trkpt><trkpt lat="42.82873012410432" lon="-8.73696689855527"><ele>329.0</ele><time>2026-04-16T15:48:28Z</time></trkpt><trkpt lat="42.828891218148954" lon="-8.736783969209167"><ele>329.33333333333337</ele><time>2026-04-16T15:48:29Z</time></trkpt><trkpt lat="42.82905140559582" lon="-8.736590433582064"><ele>329.6666666666667</ele><time>2026-04-16T15:48:30Z</time></trkpt><trkpt lat="42.82920980494587" lon="-8.73639692971159"><ele>330.0</ele><time>2026-04-16T15:48:31Z</time></trkpt><trkpt lat="42.82936366770247" lon="-8.736217332901038"><ele>326.6666666666667</ele><time>2026-04-16T15:48:32Z</time></trkpt><trkpt lat="42.82950902476079" lon="-8.736042139597988"><ele>323.33333333333337</ele><time>2026-04-16T15:48:33Z</time></trkpt><trkpt lat="42.829642057380795" lon="-8.73586829754297"><ele>320.0</ele><time>2026-04-16T15:48:34Z</time></trkpt><trkpt lat="42.82976528527709" lon="-8.735693826784571"><ele>320.0</ele><time>2026-04-16T15:48:35Z</time></trkpt><trkpt lat="42.829886023158906" lon="-8.735511672955715"><ele>320.0</ele><time>2026-04-16T15:48:36Z</time></trkpt><trkpt lat="42.829999459698605" lon="-8.735321416431447"><ele>320.0</ele><time>2026-04-16T15:48:37Z</time></trkpt><trkpt lat="42.83010976441225" lon="-8.735125154856012"><ele>318.6666666666667</ele><time>2026-04-16T15:48:38Z</time></trkpt><trkpt lat="42.830216947569575" lon="-8.73492972941027"><ele>317.3333333333333</ele><time>2026-04-16T15:48:39Z</time></trkpt><trkpt lat="42.83032940012973" lon="-8.734752520323806"><ele>316.0</ele><time>2026-04-16T15:48:40Z</time></trkpt><trkpt lat="42.83045322705013" lon="-8.734598311135363"><ele>316.0</ele><time>2026-04-16T15:48:41Z</time></trkpt><trkpt lat="42.83058998479287" lon="-8.73446650633062"><ele>316.0</ele><time>2026-04-16T15:48:42Z</time></trkpt><trkpt lat="42.83074066631879" lon="-8.734356458965129"><ele>316.0</ele><time>2026-04-16T15:48:43Z</time></trkpt><trkpt lat="42.83090928843709" lon="-8.734268183269615"><ele>313.0</ele><time>2026-04-16T15:48:44Z</time></trkpt><trkpt lat="42.8310738343611" lon="-8.73419206821342"><ele>310.0</ele><time>2026-04-16T15:48:45Z</time></trkpt><trkpt lat="42.83123476631203" lon="-8.734121750465935"><ele>307.0</ele><time>2026-04-16T15:48:46Z</time></trkpt><trkpt lat="42.831386564000255" lon="-8.734051478324234"><ele>307.0</ele><time>2026-04-16T15:48:47Z</time></trkpt><trkpt lat="42.83152950045659" lon="-8.733983595555847"><ele>307.0</ele><time>2026-04-16T15:48:48Z</time></trkpt><trkpt lat="42.831647767716476" lon="-8.73392495459402"><ele>307.0</ele><time>2026-04-16T15:48:49Z</time></trkpt><trkpt lat="42.83175385660532" lon="-8.733871993113437"><ele>307.0</ele><time>2026-04-16T15:48:50Z</time></trkpt><trkpt lat="42.831845666891915" lon="-8.733828692729805"><ele>307.4</ele><time>2026-04-16T15:48:51Z</time></trkpt><trkpt lat="42.83192703883682" lon="-8.733791763081163"><ele>307.79999999999995</ele><time>2026-04-16T15:48:52Z</time></trkpt><trkpt lat="42.83199733134338" lon="-8.73374515270899"><ele>308.2</ele><time>2026-04-16T15:48:53Z</time></trkpt><trkpt lat="42.83209690614745" lon="-8.733759418374412"><ele>308.59999999999997</ele><time>2026-04-16T15:48:54Z</time></trkpt><trkpt lat="42.83219211958322" lon="-8.733823169165902"><ele>309.0</ele><time>2026-04-16T15:48:55Z</time></trkpt><trkpt lat="42.83230737825436" lon="-8.733875943002499"><ele>309.0</ele><time>2026-04-16T15:48:55.999Z</time></trkpt><trkpt lat="42.83238904547041" lon="-8.733913575529227"><ele>309.0</ele><time>2026-04-16T15:48:56.999Z</time></trkpt><trkpt lat="42.832467663957374" lon="-8.733947110153059"><ele>309.0</ele><time>2026-04-16T15:48:57.999Z</time></trkpt><trkpt lat="42.832563492407125" lon="-8.73396643105063"><ele>309.0</ele><time>2026-04-16T15:48:58.999Z</time></trkpt><trkpt lat="42.83267693864028" lon="-8.733960872185511"><ele>309.0</ele><time>2026-04-16T15:48:59.999Z</time></trkpt><trkpt lat="42.83277677632616" lon="-8.733982319966215"><ele>310.5</ele><time>2026-04-16T15:49:00.999Z</time></trkpt><trkpt lat="42.832853941017675" lon="-8.734035582655114"><ele>312.0</ele><time>2026-04-16T15:49:01.999Z</time></trkpt><trkpt lat="42.83293121168995" lon="-8.734127380954"><ele>313.5</ele><time>2026-04-16T15:49:02.999Z</time></trkpt><trkpt lat="42.83301059670437" lon="-8.73425557519349"><ele>315.0</ele><time>2026-04-16T15:49:03.999Z</time></trkpt><trkpt lat="42.83309917598316" lon="-8.734418290446058"><ele>315.0</ele><time>2026-04-16T15:49:04.999Z</time></trkpt><trkpt lat="42.83321341160716" lon="-8.73461507525694"><ele>315.0</ele><time>2026-04-16T15:49:05.999Z</time></trkpt><trkpt lat="42.83331515675734" lon="-8.734787689508835"><ele>315.0</ele><time>2026-04-16T15:49:06.999Z</time></trkpt><trkpt lat="42.8334076783446" lon="-8.734935887375217"><ele>313.0</ele><time>2026-04-16T15:49:07.999Z</time></trkpt><trkpt lat="42.83349600386916" lon="-8.735069694337124"><ele>311.0</ele><time>2026-04-16T15:49:08.999Z</time></trkpt><trkpt lat="42.8335752257909" lon="-8.735188994739056"><ele>309.0</ele><time>2026-04-16T15:49:09.999Z</time></trkpt><trkpt lat="42.83363433268324" lon="-8.735302749912405"><ele>307.0</ele><time>2026-04-16T15:49:10.999Z</time></trkpt><trkpt lat="42.83367128180116" lon="-8.735424339446805"><ele>305.0</ele><time>2026-04-16T15:49:11.999Z</time></trkpt><trkpt lat="42.833680034678956" lon="-8.735565312188264"><ele>305.0</ele><time>2026-04-16T15:49:12.999Z</time></trkpt><trkpt lat="42.83366460093044" lon="-8.735725319667862"><ele>305.0</ele><time>2026-04-16T15:49:13.999Z</time></trkpt><trkpt lat="42.83363180557208" lon="-8.735904205764182"><ele>305.0</ele><time>2026-04-16T15:49:14.999Z</time></trkpt><trkpt lat="42.8336079855866" lon="-8.736089719971167"><ele>305.0</ele><time>2026-04-16T15:49:15.999Z</time></trkpt><trkpt lat="42.83357077211102" lon="-8.73624875650897"><ele>305.4</ele><time>2026-04-16T15:49:16.999Z</time></trkpt><trkpt lat="42.83351984842251" lon="-8.736384029373285"><ele>305.8</ele><time>2026-04-16T15:49:17.999Z</time></trkpt><trkpt lat="42.83348732242972" lon="-8.736512420659293"><ele>306.2</ele><time>2026-04-16T15:49:18.999Z</time></trkpt><trkpt lat="42.833460620056115" lon="-8.736635282501014"><ele>306.6</ele><time>2026-04-16T15:49:19.999Z</time></trkpt><trkpt lat="42.833460552722926" lon="-8.73675278340972"><ele>307.0</ele><time>2026-04-16T15:49:20.999Z</time></trkpt><trkpt lat="42.83349858684048" lon="-8.736859124899757"><ele>306.2</ele><time>2026-04-16T15:49:21.999Z</time></trkpt><trkpt lat="42.83355843064844" lon="-8.736952688948476"><ele>305.4</ele><time>2026-04-16T15:49:22.999Z</time></trkpt><trkpt lat="42.83363050745869" lon="-8.737054599081263"><ele>304.6</ele><time>2026-04-16T15:49:23.999Z</time></trkpt><trkpt lat="42.83370639209618" lon="-8.737164879794385"><ele>303.8</ele><time>2026-04-16T15:49:24.999Z</time></trkpt><trkpt lat="42.83378637950223" lon="-8.737289320384752"><ele>303.0</ele><time>2026-04-16T15:49:25.999Z</time></trkpt><trkpt lat="42.83386109102637" lon="-8.7374161597063"><ele>303.0</ele><time>2026-04-16T15:49:26.999Z</time></trkpt><trkpt lat="42.83393428800256" lon="-8.737542400834572"><ele>303.0</ele><time>2026-04-16T15:49:27.999Z</time></trkpt><trkpt lat="42.83400155973671" lon="-8.737675036602694"><ele>303.0</ele><time>2026-04-16T15:49:28.999Z</time></trkpt><trkpt lat="42.83406692237281" lon="-8.737810352440897"><ele>303.0</ele><time>2026-04-16T15:49:29.999Z</time></trkpt><trkpt lat="42.83413305927399" lon="-8.737946225652214"><ele>301.75</ele><time>2026-04-16T15:49:30.999Z</time></trkpt><trkpt lat="42.83420160556676" lon="-8.738081344306554"><ele>300.5</ele><time>2026-04-16T15:49:31.999Z</time></trkpt><trkpt lat="42.83427512264239" lon="-8.738211857492708"><ele>299.25</ele><time>2026-04-16T15:49:32.999Z</time></trkpt><trkpt lat="42.83434978829022" lon="-8.738342308773962"><ele>298.0</ele><time>2026-04-16T15:49:33.999Z</time></trkpt><trkpt lat="42.834425155491374" lon="-8.738449625131969"><ele>297.6</ele><time>2026-04-16T15:49:34.999Z</time></trkpt><trkpt lat="42.834504317931284" lon="-8.738538801409318"><ele>297.20000000000005</ele><time>2026-04-16T15:49:35.999Z</time></trkpt><trkpt lat="42.83458934017464" lon="-8.738624598820842"><ele>296.8</ele><time>2026-04-16T15:49:36.999Z</time></trkpt><trkpt lat="42.83466985193243" lon="-8.738732124379824"><ele>296.40000000000003</ele><time>2026-04-16T15:49:37.999Z</time></trkpt><trkpt lat="42.83475361338449" lon="-8.73884486289329"><ele>296.0</ele><time>2026-04-16T15:49:38.999Z</time></trkpt><trkpt lat="42.834836402842186" lon="-8.73893457720714"><ele>294.40000000000003</ele><time>2026-04-16T15:49:39.999Z</time></trkpt><trkpt lat="42.83492046905206" lon="-8.73901481385874"><ele>292.8</ele><time>2026-04-16T15:49:40.999Z</time></trkpt><trkpt lat="42.835006160721264" lon="-8.739099135603425"><ele>291.20000000000005</ele><time>2026-04-16T15:49:41.999Z</time></trkpt><trkpt lat="42.835090856990796" lon="-8.739184360524925"><ele>289.6</ele><time>2026-04-16T15:49:42.999Z</time></trkpt><trkpt lat="42.83517553740815" lon="-8.739263621323849"><ele>288.0</ele><time>2026-04-16T15:49:43.999Z</time></trkpt><trkpt lat="42.83526203352707" lon="-8.739345887924621"><ele>285.8</ele><time>2026-04-16T15:49:44.999Z</time></trkpt><trkpt lat="42.835348190057516" lon="-8.739428196548177"><ele>283.6</ele><time>2026-04-16T15:49:45.999Z</time></trkpt><trkpt lat="42.83543544502633" lon="-8.739509674136425"><ele>281.4</ele><time>2026-04-16T15:49:47.001Z</time></trkpt><trkpt lat="42.83552290272052" lon="-8.739590261799394"><ele>279.2</ele><time>2026-04-16T15:49:48.001Z</time></trkpt><trkpt lat="42.83560989332888" lon="-8.739671437457439"><ele>277.0</ele><time>2026-04-16T15:49:49.001Z</time></trkpt><trkpt lat="42.83569653649703" lon="-8.739753169307159"><ele>277.0</ele><time>2026-04-16T15:49:50.001Z</time></trkpt><trkpt lat="42.83578076839575" lon="-8.73983326301892"><ele>277.0</ele><time>2026-04-16T15:49:51.001Z</time></trkpt><trkpt lat="42.8358659084743" lon="-8.73991874495673"><ele>277.0</ele><time>2026-04-16T15:49:52.001Z</time></trkpt><trkpt lat="42.83595141024661" lon="-8.74000335616616"><ele>277.0</ele><time>2026-04-16T15:49:53.001Z</time></trkpt><trkpt lat="42.836033932421635" lon="-8.740085407828651"><ele>277.0</ele><time>2026-04-16T15:49:54.001Z</time></trkpt><trkpt lat="42.83610961243263" lon="-8.740159730108939"><ele>276.8333333333333</ele><time>2026-04-16T15:49:55.001Z</time></trkpt><trkpt lat="42.83617105455753" lon="-8.74021909350468"><ele>276.66666666666663</ele><time>2026-04-16T15:49:56.001Z</time></trkpt><trkpt lat="42.83622410236819" lon="-8.740271061427288"><ele>276.5</ele><time>2026-04-16T15:49:57.001Z</time></trkpt><trkpt lat="42.83629411572054" lon="-8.740343603075921"><ele>276.3333333333333</ele><time>2026-04-16T15:49:59.001Z</time></trkpt><trkpt lat="42.83635973440074" lon="-8.74040813995845"><ele>276.1666666666667</ele><time>2026-04-16T15:50:02.001Z</time></trkpt><trkpt lat="42.836427022909724" lon="-8.740469794370076"><ele>276.0</ele><time>2026-04-16T15:50:05.001Z</time></trkpt><trkpt lat="42.83647897155423" lon="-8.740521310305443"><ele>276.0</ele><time>2026-04-16T15:50:07Z</time></trkpt><trkpt lat="42.83659277777913" lon="-8.740620812056415"><ele>276.0</ele><time>2026-04-16T15:50:09Z</time></trkpt><trkpt lat="42.8366650136536" lon="-8.740686464103415"><ele>276.0</ele><time>2026-04-16T15:50:10Z</time></trkpt><trkpt lat="42.83672726180901" lon="-8.74074604352932"><ele>276.0</ele><time>2026-04-16T15:50:11Z</time></trkpt><trkpt lat="42.83678539458677" lon="-8.740801150439513"><ele>276.0</ele><time>2026-04-16T15:50:12Z</time></trkpt><trkpt lat="42.836849081196384" lon="-8.740860368616387"><ele>276.0</ele><time>2026-04-16T15:50:13Z</time></trkpt><trkpt lat="42.836918581851265" lon="-8.740921017224801"><ele>275.2</ele><time>2026-04-16T15:50:14Z</time></trkpt><trkpt lat="42.83699545973491" lon="-8.740991841874937"><ele>274.40000000000003</ele><time>2026-04-16T15:50:15Z</time></trkpt><trkpt lat="42.83708311949967" lon="-8.741074870669465"><ele>273.6</ele><time>2026-04-16T15:50:16Z</time></trkpt><trkpt lat="42.837183857065384" lon="-8.741169204040313"><ele>272.8</ele><time>2026-04-16T15:50:17Z</time></trkpt><trkpt lat="42.837282830857184" lon="-8.741264252236405"><ele>272.0</ele><time>2026-04-16T15:50:18Z</time></trkpt><trkpt lat="42.837388251591335" lon="-8.741365117359253"><ele>271.75</ele><time>2026-04-16T15:50:19Z</time></trkpt><trkpt lat="42.837498756506946" lon="-8.741469285525023"><ele>271.5</ele><time>2026-04-16T15:50:20Z</time></trkpt><trkpt lat="42.83760965509843" lon="-8.741569661672946"><ele>271.25</ele><time>2026-04-16T15:50:21Z</time></trkpt><trkpt lat="42.837716931625145" lon="-8.741667373066516"><ele>271.0</ele><time>2026-04-16T15:50:22Z</time></trkpt><trkpt lat="42.83782734887449" lon="-8.741770731700907"><ele>270.75</ele><time>2026-04-16T15:50:23Z</time></trkpt><trkpt lat="42.83793648322248" lon="-8.741872629457212"><ele>270.5</ele><time>2026-04-16T15:50:24Z</time></trkpt><trkpt lat="42.83804666837857" lon="-8.741971764937"><ele>270.25</ele><time>2026-04-16T15:50:25Z</time></trkpt><trkpt lat="42.838149558181115" lon="-8.742069688541363"><ele>270.0</ele><time>2026-04-16T15:50:26Z</time></trkpt><trkpt lat="42.83824116311727" lon="-8.742154428164616"><ele>270.0</ele><time>2026-04-16T15:50:27Z</time></trkpt><trkpt lat="42.83831706277095" lon="-8.742225507279935"><ele>270.0</ele><time>2026-04-16T15:50:28Z</time></trkpt><trkpt lat="42.838377667739074" lon="-8.74228768491538"><ele>270.0</ele><time>2026-04-16T15:50:29Z</time></trkpt><trkpt lat="42.838439867476815" lon="-8.742321541525842"><ele>270.0</ele><time>2026-04-16T15:50:30Z</time></trkpt><trkpt lat="42.838445924598155" lon="-8.742438919172518"><ele>270.0</ele><time>2026-04-16T15:50:31Z</time></trkpt><trkpt lat="42.838451764259524" lon="-8.742562417929095"><ele>270.0</ele><time>2026-04-16T15:50:33Z</time></trkpt><trkpt lat="42.83844527181976" lon="-8.742686680667637"><ele>270.4</ele><time>2026-04-16T15:50:35Z</time></trkpt><trkpt lat="42.83844382857217" lon="-8.742831117976113"><ele>270.8</ele><time>2026-04-16T15:50:37Z</time></trkpt><trkpt lat="42.83844406855374" lon="-8.742926447280086"><ele>271.2</ele><time>2026-04-16T15:50:38Z</time></trkpt><trkpt lat="42.838445992749236" lon="-8.74304032683744"><ele>271.6</ele><time>2026-04-16T15:50:39Z</time></trkpt><trkpt lat="42.83844165688166" lon="-8.743184943924966"><ele>272.0</ele><time>2026-04-16T15:50:40Z</time></trkpt><trkpt lat="42.83843840295149" lon="-8.743323770491676"><ele>272.0</ele><time>2026-04-16T15:50:41Z</time></trkpt><trkpt lat="42.83843614997671" lon="-8.743472660389722"><ele>272.0</ele><time>2026-04-16T15:50:42Z</time></trkpt><trkpt lat="42.838434077677526" lon="-8.743627073977112"><ele>272.0</ele><time>2026-04-16T15:50:43Z</time></trkpt><trkpt lat="42.838431010411" lon="-8.743785886700778"><ele>272.0</ele><time>2026-04-16T15:50:44Z</time></trkpt><trkpt lat="42.83842577609443" lon="-8.743956820099223"><ele>272.5</ele><time>2026-04-16T15:50:45Z</time></trkpt><trkpt lat="42.83842220783468" lon="-8.744120523719786"><ele>273.0</ele><time>2026-04-16T15:50:46Z</time></trkpt><trkpt lat="42.83841726737541" lon="-8.74429145984967"><ele>273.5</ele><time>2026-04-16T15:50:47Z</time></trkpt><trkpt lat="42.83841460075555" lon="-8.744463999545012"><ele>274.0</ele><time>2026-04-16T15:50:48Z</time></trkpt><trkpt lat="42.8384100370694" lon="-8.744617787270997"><ele>274.4</ele><time>2026-04-16T15:50:49Z</time></trkpt><trkpt lat="42.83840736060957" lon="-8.744753518562158"><ele>274.79999999999995</ele><time>2026-04-16T15:50:50Z</time></trkpt><trkpt lat="42.83840822764022" lon="-8.74487668655088"><ele>275.20000000000005</ele><time>2026-04-16T15:50:51Z</time></trkpt><trkpt lat="42.83841863126543" lon="-8.74499689506598"><ele>275.6</ele><time>2026-04-16T15:50:52Z</time></trkpt><trkpt lat="42.838448509748545" lon="-8.745114967872118"><ele>276.0</ele><time>2026-04-16T15:50:53Z</time></trkpt><trkpt lat="42.83850747627365" lon="-8.74523328963556"><ele>277.5</ele><time>2026-04-16T15:50:54Z</time></trkpt><trkpt lat="42.838584630266396" lon="-8.745356980942734"><ele>279.0</ele><time>2026-04-16T15:50:55Z</time></trkpt><trkpt lat="42.83867381708242" lon="-8.745501762994131"><ele>280.5</ele><time>2026-04-16T15:50:56Z</time></trkpt><trkpt lat="42.8387551800903" lon="-8.745651817780976"><ele>282.0</ele><time>2026-04-16T15:50:57Z</time></trkpt><trkpt lat="42.83886060272582" lon="-8.745818965210955"><ele>282.0</ele><time>2026-04-16T15:50:58Z</time></trkpt><trkpt lat="42.83896071125986" lon="-8.745982679306758"><ele>282.0</ele><time>2026-04-16T15:50:59Z</time></trkpt><trkpt lat="42.839067035639914" lon="-8.74615744630311"><ele>282.0</ele><time>2026-04-16T15:51:00Z</time></trkpt><trkpt lat="42.83917425833672" lon="-8.74632739400119"><ele>283.6666666666667</ele><time>2026-04-16T15:51:01Z</time></trkpt><trkpt lat="42.839274318587776" lon="-8.746489706888163"><ele>285.33333333333337</ele><time>2026-04-16T15:51:02Z</time></trkpt><trkpt lat="42.839371242129936" lon="-8.746654856113004"><ele>287.0</ele><time>2026-04-16T15:51:03Z</time></trkpt><trkpt lat="42.83946929348408" lon="-8.746817649542791"><ele>287.6666666666667</ele><time>2026-04-16T15:51:04Z</time></trkpt><trkpt lat="42.839568384973035" lon="-8.746978088054407"><ele>288.3333333333333</ele><time>2026-04-16T15:51:05Z</time></trkpt><trkpt lat="42.83966106659896" lon="-8.747144810930555"><ele>289.0</ele><time>2026-04-16T15:51:06Z</time></trkpt><trkpt lat="42.839761076987784" lon="-8.747297959008248"><ele>289.0</ele><time>2026-04-16T15:51:07Z</time></trkpt><trkpt lat="42.83986289440608" lon="-8.747455681061071"><ele>289.0</ele><time>2026-04-16T15:51:08Z</time></trkpt><trkpt lat="42.83996148649134" lon="-8.747614452629055"><ele>289.0</ele><time>2026-04-16T15:51:09Z</time></trkpt><trkpt lat="42.84005715163468" lon="-8.747778432050488"><ele>290.75</ele><time>2026-04-16T15:51:09.999Z</time></trkpt><trkpt lat="42.840151582096624" lon="-8.747936397339876"><ele>292.5</ele><time>2026-04-16T15:51:10.999Z</time></trkpt><trkpt lat="42.84024934100865" lon="-8.748092211277207"><ele>294.25</ele><time>2026-04-16T15:51:11.999Z</time></trkpt><trkpt lat="42.840346076700776" lon="-8.74824651122005"><ele>296.0</ele><time>2026-04-16T15:51:12.999Z</time></trkpt><trkpt lat="42.84044392897363" lon="-8.748403529148062"><ele>298.75</ele><time>2026-04-16T15:51:13.999Z</time></trkpt><trkpt lat="42.84053523079833" lon="-8.74855355456313"><ele>301.5</ele><time>2026-04-16T15:51:14.999Z</time></trkpt><trkpt lat="42.840609799561214" lon="-8.74867886043428"><ele>304.25</ele><time>2026-04-16T15:51:15.999Z</time></trkpt><trkpt lat="42.84067514467286" lon="-8.748786614113925"><ele>307.0</ele><time>2026-04-16T15:51:16.999Z</time></trkpt><trkpt lat="42.84072454119601" lon="-8.748884770898924"><ele>307.0</ele><time>2026-04-16T15:51:17.999Z</time></trkpt><trkpt lat="42.84074932340156" lon="-8.748991497197977"><ele>307.0</ele><time>2026-04-16T15:51:18.999Z</time></trkpt><trkpt lat="42.840746552618604" lon="-8.749118116056117"><ele>307.0</ele><time>2026-04-16T15:51:19.999Z</time></trkpt><trkpt lat="42.840725420632005" lon="-8.74926286046598"><ele>307.0</ele><time>2026-04-16T15:51:20.999Z</time></trkpt><trkpt lat="42.840700697786495" lon="-8.74942025835447"><ele>307.0</ele><time>2026-04-16T15:51:21.999Z</time></trkpt><trkpt lat="42.84067464197231" lon="-8.749598150055403"><ele>307.3333333333333</ele><time>2026-04-16T15:51:22.999Z</time></trkpt><trkpt lat="42.84064355668241" lon="-8.74979440399831"><ele>307.6666666666667</ele><time>2026-04-16T15:51:23.999Z</time></trkpt><trkpt lat="42.84060802537556" lon="-8.750009595293283"><ele>308.0</ele><time>2026-04-16T15:51:24.999Z</time></trkpt><trkpt lat="42.84056755723389" lon="-8.750232161140364"><ele>304.0</ele><time>2026-04-16T15:51:25.999Z</time></trkpt><trkpt lat="42.84051976322035" lon="-8.750437173873632"><ele>300.0</ele><time>2026-04-16T15:51:26.999Z</time></trkpt><trkpt lat="42.84046458184267" lon="-8.75064562600671"><ele>296.0</ele><time>2026-04-16T15:51:27.999Z</time></trkpt><trkpt lat="42.84040161665855" lon="-8.750853877111727"><ele>292.33333333333337</ele><time>2026-04-16T15:51:28.999Z</time></trkpt><trkpt lat="42.84033592862759" lon="-8.751058337500462"><ele>288.6666666666667</ele><time>2026-04-16T15:51:29.999Z</time></trkpt><trkpt lat="42.84027373627767" lon="-8.751267070728545"><ele>285.0</ele><time>2026-04-16T15:51:30.999Z</time></trkpt><trkpt lat="42.84021077496967" lon="-8.751475535446094"><ele>285.0</ele><time>2026-04-16T15:51:31.999Z</time></trkpt><trkpt lat="42.84015001750588" lon="-8.751694806405538"><ele>285.0</ele><time>2026-04-16T15:51:32.999Z</time></trkpt><trkpt lat="42.84009344347666" lon="-8.751925458145793"><ele>285.0</ele><time>2026-04-16T15:51:33.999Z</time></trkpt><trkpt lat="42.84005038006545" lon="-8.752150276683448"><ele>291.5</ele><time>2026-04-16T15:51:34.999Z</time></trkpt><trkpt lat="42.840008275704015" lon="-8.752353623140074"><ele>298.0</ele><time>2026-04-16T15:51:35.999Z</time></trkpt><trkpt lat="42.83997061534183" lon="-8.752553421905448"><ele>304.5</ele><time>2026-04-16T15:51:36.999Z</time></trkpt><trkpt lat="42.83995033550259" lon="-8.752741920813506"><ele>311.0</ele><time>2026-04-16T15:51:37.999Z</time></trkpt><trkpt lat="42.839904885967385" lon="-8.752931563388358"><ele>311.0</ele><time>2026-04-16T15:51:38.999Z</time></trkpt><trkpt lat="42.83983090077239" lon="-8.753118833902732"><ele>311.0</ele><time>2026-04-16T15:51:39.999Z</time></trkpt><trkpt lat="42.83973227733289" lon="-8.753294186078476"><ele>311.0</ele><time>2026-04-16T15:51:40.999Z</time></trkpt><trkpt lat="42.839630559538755" lon="-8.75346799007674"><ele>309.6666666666667</ele><time>2026-04-16T15:51:41.999Z</time></trkpt><trkpt lat="42.83952387847376" lon="-8.753644908114515"><ele>308.3333333333333</ele><time>2026-04-16T15:51:42.999Z</time></trkpt><trkpt lat="42.83941620457885" lon="-8.753826946969966"><ele>307.0</ele><time>2026-04-16T15:51:43.999Z</time></trkpt><trkpt lat="42.83931136282705" lon="-8.754007994298645"><ele>312.25</ele><time>2026-04-16T15:51:44.999Z</time></trkpt><trkpt lat="42.83921439870069" lon="-8.754168908984932"><ele>317.5</ele><time>2026-04-16T15:51:45.999Z</time></trkpt><trkpt lat="42.83913272748744" lon="-8.754303856709278"><ele>322.75</ele><time>2026-04-16T15:51:46.999Z</time></trkpt><trkpt lat="42.839047012926926" lon="-8.754444149424204"><ele>328.0</ele><time>2026-04-16T15:51:47.999Z</time></trkpt><trkpt lat="42.8389547730601" lon="-8.754595362883745"><ele>328.0</ele><time>2026-04-16T15:51:48.999Z</time></trkpt><trkpt lat="42.8388574056062" lon="-8.754755492580891"><ele>328.0</ele><time>2026-04-16T15:51:49.999Z</time></trkpt><trkpt lat="42.838759570291074" lon="-8.754918656764751"><ele>328.0</ele><time>2026-04-16T15:51:50.999Z</time></trkpt><trkpt lat="42.83866639786038" lon="-8.755089023484558"><ele>326.0</ele><time>2026-04-16T15:51:52.001Z</time></trkpt><trkpt lat="42.83857796536271" lon="-8.755270377852659"><ele>324.0</ele><time>2026-04-16T15:51:53.001Z</time></trkpt><trkpt lat="42.83849876701754" lon="-8.755467987208279"><ele>322.0</ele><time>2026-04-16T15:51:54.001Z</time></trkpt><trkpt lat="42.83842183893825" lon="-8.755676312863182"><ele>325.0</ele><time>2026-04-16T15:51:55.001Z</time></trkpt><trkpt lat="42.8383450009947" lon="-8.755878060777242"><ele>328.0</ele><time>2026-04-16T15:51:56.001Z</time></trkpt><trkpt lat="42.83826204103769" lon="-8.756059248505174"><ele>331.0</ele><time>2026-04-16T15:51:57.001Z</time></trkpt><trkpt lat="42.83817571530106" lon="-8.756231803958885"><ele>331.0</ele><time>2026-04-16T15:51:58.001Z</time></trkpt><trkpt lat="42.838097381159265" lon="-8.756409412869152"><ele>331.0</ele><time>2026-04-16T15:51:59.001Z</time></trkpt><trkpt lat="42.838025709011916" lon="-8.756592785895068"><ele>331.0</ele><time>2026-04-16T15:52:00.001Z</time></trkpt><trkpt lat="42.83796208669634" lon="-8.756773561795125"><ele>331.5</ele><time>2026-04-16T15:52:01.001Z</time></trkpt><trkpt lat="42.83790179793609" lon="-8.756951307188084"><ele>332.0</ele><time>2026-04-16T15:52:02.001Z</time></trkpt><trkpt lat="42.83784888346718" lon="-8.757115146991246"><ele>332.5</ele><time>2026-04-16T15:52:03.001Z</time></trkpt><trkpt lat="42.83780497926197" lon="-8.757267112448044"><ele>333.0</ele><time>2026-04-16T15:52:04.001Z</time></trkpt><trkpt lat="42.837758528673504" lon="-8.757414893114703"><ele>333.0</ele><time>2026-04-16T15:52:05.001Z</time></trkpt><trkpt lat="42.83773180272542" lon="-8.757565346182117"><ele>333.0</ele><time>2026-04-16T15:52:06.001Z</time></trkpt><trkpt lat="42.8377127025607" lon="-8.757715799154528"><ele>333.0</ele><time>2026-04-16T15:52:07.001Z</time></trkpt><trkpt lat="42.837710648949724" lon="-8.757864745448735"><ele>333.0</ele><time>2026-04-16T15:52:08.001Z</time></trkpt><trkpt lat="42.83769052208327" lon="-8.75801124561798"><ele>333.0</ele><time>2026-04-16T15:52:09.001Z</time></trkpt><trkpt lat="42.83766632686704" lon="-8.758173556347328"><ele>332.75</ele><time>2026-04-16T15:52:10.001Z</time></trkpt><trkpt lat="42.83763596612278" lon="-8.758341748692699"><ele>332.5</ele><time>2026-04-16T15:52:11.001Z</time></trkpt><trkpt lat="42.8375926545027" lon="-8.758511827534218"><ele>332.25</ele><time>2026-04-16T15:52:12.001Z</time></trkpt><trkpt lat="42.837558456486555" lon="-8.758690985208553"><ele>332.0</ele><time>2026-04-16T15:52:13.001Z</time></trkpt><trkpt lat="42.83752796411619" lon="-8.758859851873185"><ele>337.8</ele><time>2026-04-16T15:52:14.001Z</time></trkpt><trkpt lat="42.83749852394347" lon="-8.7590151702385"><ele>343.6</ele><time>2026-04-16T15:52:15.001Z</time></trkpt><trkpt lat="42.83747665821255" lon="-8.759162539178757"><ele>349.40000000000003</ele><time>2026-04-16T15:52:16.001Z</time></trkpt><trkpt lat="42.83746143950253" lon="-8.759312776947102"><ele>355.20000000000005</ele><time>2026-04-16T15:52:17Z</time></trkpt><trkpt lat="42.83745913559346" lon="-8.759462237498232"><ele>361.0</ele><time>2026-04-16T15:52:18Z</time></trkpt><trkpt lat="42.83747057697279" lon="-8.759617124776774"><ele>361.0</ele><time>2026-04-16T15:52:19Z</time></trkpt><trkpt lat="42.83748429500599" lon="-8.7597721481933"><ele>361.0</ele><time>2026-04-16T15:52:20Z</time></trkpt><trkpt lat="42.837497238402726" lon="-8.759936668752701"><ele>361.0</ele><time>2026-04-16T15:52:21Z</time></trkpt><trkpt lat="42.83750741664254" lon="-8.760088224368957"><ele>361.0</ele><time>2026-04-16T15:52:22Z</time></trkpt><trkpt lat="42.837514980576536" lon="-8.760224882653798"><ele>361.0</ele><time>2026-04-16T15:52:23Z</time></trkpt><trkpt lat="42.83750240677341" lon="-8.76036797047432"><ele>359.75</ele><time>2026-04-16T15:52:24Z</time></trkpt><trkpt lat="42.83749666251467" lon="-8.760517756229186"><ele>358.5</ele><time>2026-04-16T15:52:25Z</time></trkpt><trkpt lat="42.837466465138924" lon="-8.760679805400917"><ele>357.25</ele><time>2026-04-16T15:52:26Z</time></trkpt><trkpt lat="42.837411227563116" lon="-8.760833972592676"><ele>356.0</ele><time>2026-04-16T15:52:27Z</time></trkpt><trkpt lat="42.837345254477235" lon="-8.76098145334752"><ele>352.75</ele><time>2026-04-16T15:52:28Z</time></trkpt><trkpt lat="42.83727425545699" lon="-8.761117731599805"><ele>349.5</ele><time>2026-04-16T15:52:29Z</time></trkpt><trkpt lat="42.83720068865356" lon="-8.76124807328982"><ele>346.25</ele><time>2026-04-16T15:52:30Z</time></trkpt><trkpt lat="42.837126924442764" lon="-8.761368124780239"><ele>343.0</ele><time>2026-04-16T15:52:31Z</time></trkpt><trkpt lat="42.8370482412315" lon="-8.761485842510053"><ele>343.0</ele><time>2026-04-16T15:52:32Z</time></trkpt><trkpt lat="42.836977089838086" lon="-8.761622072937143"><ele>343.0</ele><time>2026-04-16T15:52:33Z</time></trkpt><trkpt lat="42.83690430953913" lon="-8.761751683434914"><ele>343.0</ele><time>2026-04-16T15:52:34Z</time></trkpt><trkpt lat="42.83684097904243" lon="-8.761865744367915"><ele>343.0</ele><time>2026-04-16T15:52:35Z</time></trkpt><trkpt lat="42.83679003112033" lon="-8.761967879387345"><ele>343.0</ele><time>2026-04-16T15:52:36Z</time></trkpt><trkpt lat="42.83674516208339" lon="-8.762072078155828"><ele>342.8333333333333</ele><time>2026-04-16T15:52:37Z</time></trkpt><trkpt lat="42.836762552331344" lon="-8.762180393108919"><ele>342.66666666666663</ele><time>2026-04-16T15:52:38Z</time></trkpt><trkpt lat="42.83678054189074" lon="-8.762276243110643"><ele>342.5</ele><time>2026-04-16T15:52:39Z</time></trkpt><trkpt lat="42.83682887746074" lon="-8.762369305848292"><ele>342.3333333333333</ele><time>2026-04-16T15:52:40Z</time></trkpt><trkpt lat="42.83689715270597" lon="-8.762443774832976"><ele>342.1666666666667</ele><time>2026-04-16T15:52:41Z</time></trkpt><trkpt lat="42.836999871210885" lon="-8.762524389688835"><ele>342.0</ele><time>2026-04-16T15:52:42Z</time></trkpt><trkpt lat="42.837113309043595" lon="-8.762616688691223"><ele>342.25</ele><time>2026-04-16T15:52:43Z</time></trkpt><trkpt lat="42.837229567592" lon="-8.762721807775655"><ele>342.5</ele><time>2026-04-16T15:52:44Z</time></trkpt><trkpt lat="42.83733504862444" lon="-8.762835442139698"><ele>342.75</ele><time>2026-04-16T15:52:45Z</time></trkpt><trkpt lat="42.83743309852131" lon="-8.762934349596017"><ele>343.0</ele><time>2026-04-16T15:52:46Z</time></trkpt><trkpt lat="42.837524105221334" lon="-8.763029887512193"><ele>343.0</ele><time>2026-04-16T15:52:47Z</time></trkpt><trkpt lat="42.8376110028314" lon="-8.763103357921771"><ele>343.0</ele><time>2026-04-16T15:52:48Z</time></trkpt><trkpt lat="42.83770831146655" lon="-8.763146205554092"><ele>343.0</ele><time>2026-04-16T15:52:49Z</time></trkpt><trkpt lat="42.83781161465044" lon="-8.763132826350338"><ele>343.0</ele><time>2026-04-16T15:52:49.999Z</time></trkpt><trkpt lat="42.83792668849909" lon="-8.763083508824913"><ele>343.0</ele><time>2026-04-16T15:52:50.999Z</time></trkpt><trkpt lat="42.83806684930393" lon="-8.763054390030304"><ele>342.3333333333333</ele><time>2026-04-16T15:52:51.999Z</time></trkpt><trkpt lat="42.83820858943834" lon="-8.763002152763061"><ele>341.6666666666667</ele><time>2026-04-16T15:52:52.999Z</time></trkpt><trkpt lat="42.838358387498566" lon="-8.762951308089896"><ele>341.0</ele><time>2026-04-16T15:52:53.999Z</time></trkpt><trkpt lat="42.83850383290014" lon="-8.762907345471827"><ele>343.75</ele><time>2026-04-16T15:52:54.999Z</time></trkpt><trkpt lat="42.83864369028625" lon="-8.762863445269376"><ele>346.5</ele><time>2026-04-16T15:52:55.999Z</time></trkpt><trkpt lat="42.838772529463" lon="-8.762824932775308"><ele>349.25</ele><time>2026-04-16T15:52:56.999Z</time></trkpt><trkpt lat="42.8389021611932" lon="-8.762787814021198"><ele>352.0</ele><time>2026-04-16T15:52:57.999Z</time></trkpt><trkpt lat="42.83903185955341" lon="-8.762755224656729"><ele>352.0</ele><time>2026-04-16T15:52:58.999Z</time></trkpt><trkpt lat="42.839145923227555" lon="-8.76273581560877"><ele>352.0</ele><time>2026-04-16T15:52:59.999Z</time></trkpt><trkpt lat="42.83924615311148" lon="-8.762740595426907"><ele>352.0</ele><time>2026-04-16T15:53:00.999Z</time></trkpt><trkpt lat="42.8393448502439" lon="-8.762780873038741"><ele>352.0</ele><time>2026-04-16T15:53:01.999Z</time></trkpt><trkpt lat="42.83944782115504" lon="-8.762840831542134"><ele>352.0</ele><time>2026-04-16T15:53:02.999Z</time></trkpt><trkpt lat="42.83955569406788" lon="-8.762907585252666"><ele>354.25</ele><time>2026-04-16T15:53:03.999Z</time></trkpt><trkpt lat="42.83966746384456" lon="-8.76298763247982"><ele>356.5</ele><time>2026-04-16T15:53:04.999Z</time></trkpt><trkpt lat="42.83978131315559" lon="-8.763069382699985"><ele>358.75</ele><time>2026-04-16T15:53:05.999Z</time></trkpt><trkpt lat="42.83989591329279" lon="-8.763152281153861"><ele>361.0</ele><time>2026-04-16T15:53:06.999Z</time></trkpt><trkpt lat="42.840005642421126" lon="-8.7632283890681"><ele>361.0</ele><time>2026-04-16T15:53:07.999Z</time></trkpt><trkpt lat="42.84010293945704" lon="-8.763288059465154"><ele>361.0</ele><time>2026-04-16T15:53:08.999Z</time></trkpt><trkpt lat="42.84019079541309" lon="-8.763325990913112"><ele>361.0</ele><time>2026-04-16T15:53:09.999Z</time></trkpt><trkpt lat="42.84028557606616" lon="-8.763340278683192"><ele>361.0</ele><time>2026-04-16T15:53:10.999Z</time></trkpt><trkpt lat="42.840379545931626" lon="-8.763311263717073"><ele>361.0</ele><time>2026-04-16T15:53:11.999Z</time></trkpt><trkpt lat="42.84046794939687" lon="-8.763250019495505"><ele>364.25</ele><time>2026-04-16T15:53:12.999Z</time></trkpt><trkpt lat="42.840554815041195" lon="-8.763161602229195"><ele>367.5</ele><time>2026-04-16T15:53:13.999Z</time></trkpt><trkpt lat="42.84064599017319" lon="-8.763056350628066"><ele>370.75</ele><time>2026-04-16T15:53:14.999Z</time></trkpt><trkpt lat="42.84074235401543" lon="-8.762931994637432"><ele>374.0</ele><time>2026-04-16T15:53:15.999Z</time></trkpt><trkpt lat="42.840841725542624" lon="-8.762803388366622"><ele>374.0</ele><time>2026-04-16T15:53:16.999Z</time></trkpt><trkpt lat="42.84093085819948" lon="-8.762700498476413"><ele>374.0</ele><time>2026-04-16T15:53:17.998Z</time></trkpt><trkpt lat="42.840999611343676" lon="-8.76259526280976"><ele>374.0</ele><time>2026-04-16T15:53:18.998Z</time></trkpt><trkpt lat="42.84105753899153" lon="-8.762467833580676"><ele>374.0</ele><time>2026-04-16T15:53:19.998Z</time></trkpt><trkpt lat="42.84110553920045" lon="-8.762319973627953"><ele>374.0</ele><time>2026-04-16T15:53:20.998Z</time></trkpt><trkpt lat="42.84115767317578" lon="-8.762149991968771"><ele>374.5</ele><time>2026-04-16T15:53:21.998Z</time></trkpt><trkpt lat="42.84121522559297" lon="-8.761969460974838"><ele>375.0</ele><time>2026-04-16T15:53:22.998Z</time></trkpt><trkpt lat="42.84127200714585" lon="-8.761807838204048"><ele>375.5</ele><time>2026-04-16T15:53:23.998Z</time></trkpt><trkpt lat="42.84132750257889" lon="-8.761662550712936"><ele>376.0</ele><time>2026-04-16T15:53:24.998Z</time></trkpt><trkpt lat="42.84139023253415" lon="-8.761536955623503"><ele>376.0</ele><time>2026-04-16T15:53:25.998Z</time></trkpt><trkpt lat="42.84146584735268" lon="-8.761425087718818"><ele>376.0</ele><time>2026-04-16T15:53:26.998Z</time></trkpt><trkpt lat="42.841557928815426" lon="-8.761324149323842"><ele>376.0</ele><time>2026-04-16T15:53:27.998Z</time></trkpt><trkpt lat="42.84166786928927" lon="-8.761223716330859"><ele>376.0</ele><time>2026-04-16T15:53:28.998Z</time></trkpt><trkpt lat="42.84178663229442" lon="-8.76111340865513"><ele>377.0</ele><time>2026-04-16T15:53:29.998Z</time></trkpt><trkpt lat="42.84189659301295" lon="-8.761028903745906"><ele>378.0</ele><time>2026-04-16T15:53:30.998Z</time></trkpt><trkpt lat="42.841985234569165" lon="-8.760959354364967"><ele>379.0</ele><time>2026-04-16T15:53:31.998Z</time></trkpt><trkpt lat="42.84206237452844" lon="-8.760897698124355"><ele>380.0</ele><time>2026-04-16T15:53:32.998Z</time></trkpt><trkpt lat="42.84215149217982" lon="-8.760842066005083"><ele>381.0</ele><time>2026-04-16T15:53:33.998Z</time></trkpt><trkpt lat="42.84225209873603" lon="-8.760767884009061"><ele>381.0</ele><time>2026-04-16T15:53:34.998Z</time></trkpt><trkpt lat="42.8423650061978" lon="-8.760679345452226"><ele>381.0</ele><time>2026-04-16T15:53:35.998Z</time></trkpt><trkpt lat="42.84248754569933" lon="-8.760583718661987"><ele>381.0</ele><time>2026-04-16T15:53:36.998Z</time></trkpt><trkpt lat="42.842596955302284" lon="-8.760504404459379"><ele>381.0</ele><time>2026-04-16T15:53:37.998Z</time></trkpt><trkpt lat="42.842700776826234" lon="-8.760428156736236"><ele>382.25</ele><time>2026-04-16T15:53:38.998Z</time></trkpt><trkpt lat="42.84280564368863" lon="-8.76033980540573"><ele>383.5</ele><time>2026-04-16T15:53:39.998Z</time></trkpt><trkpt lat="42.84291278492447" lon="-8.76024749326319"><ele>384.75</ele><time>2026-04-16T15:53:40.998Z</time></trkpt><trkpt lat="42.84301513898907" lon="-8.760158361268719"><ele>386.0</ele><time>2026-04-16T15:53:41.998Z</time></trkpt><trkpt lat="42.843119305896785" lon="-8.760079228904777"><ele>383.25</ele><time>2026-04-16T15:53:42.998Z</time></trkpt><trkpt lat="42.843231285449285" lon="-8.760005026592463"><ele>380.5</ele><time>2026-04-16T15:53:43.998Z</time></trkpt><trkpt lat="42.84335499911643" lon="-8.759954089554093"><ele>377.75</ele><time>2026-04-16T15:53:44.998Z</time></trkpt><trkpt lat="42.843490129408885" lon="-8.759919098591613"><ele>375.0</ele><time>2026-04-16T15:53:45.998Z</time></trkpt><trkpt lat="42.84362593421538" lon="-8.759892252577814"><ele>375.0</ele><time>2026-04-16T15:53:46.998Z</time></trkpt><trkpt lat="42.84376070222363" lon="-8.759864345622862"><ele>375.0</ele><time>2026-04-16T15:53:47.998Z</time></trkpt><trkpt lat="42.843880263276006" lon="-8.759846694441501"><ele>375.0</ele><time>2026-04-16T15:53:48.998Z</time></trkpt><trkpt lat="42.843990590206765" lon="-8.759834419432936"><ele>375.0</ele><time>2026-04-16T15:53:49.998Z</time></trkpt><trkpt lat="42.84409659971445" lon="-8.759852500681815"><ele>375.0</ele><time>2026-04-16T15:53:50.998Z</time></trkpt><trkpt lat="42.844203204319406" lon="-8.759906663243907"><ele>375.0</ele><time>2026-04-16T15:53:51.998Z</time></trkpt><trkpt lat="42.84430828575297" lon="-8.759988639692185"><ele>375.0</ele><time>2026-04-16T15:53:52.998Z</time></trkpt><trkpt lat="42.844412590101065" lon="-8.760078369464713"><ele>375.0</ele><time>2026-04-16T15:53:53.998Z</time></trkpt><trkpt lat="42.84452126153537" lon="-8.760171968432054"><ele>375.2</ele><time>2026-04-16T15:53:54.998Z</time></trkpt><trkpt lat="42.84461939655894" lon="-8.760267806563673"><ele>375.4</ele><time>2026-04-16T15:53:55.998Z</time></trkpt><trkpt lat="42.8446906223189" lon="-8.760367478892642"><ele>375.6</ele><time>2026-04-16T15:53:56.998Z</time></trkpt><trkpt lat="42.84474892236182" lon="-8.760484527108165"><ele>375.8</ele><time>2026-04-16T15:53:58Z</time></trkpt><trkpt lat="42.84478027181161" lon="-8.760622546002038"><ele>376.0</ele><time>2026-04-16T15:53:59Z</time></trkpt><trkpt lat="42.844785133620164" lon="-8.760773577491676"><ele>376.0</ele><time>2026-04-16T15:54:00Z</time></trkpt><trkpt lat="42.84477835803125" lon="-8.760931348401874"><ele>376.0</ele><time>2026-04-16T15:54:01Z</time></trkpt><trkpt lat="42.844769985443236" lon="-8.761113896788096"><ele>376.0</ele><time>2026-04-16T15:54:02Z</time></trkpt><trkpt lat="42.84475993226239" lon="-8.761306895794725"><ele>376.0</ele><time>2026-04-16T15:54:03Z</time></trkpt><trkpt lat="42.844748364855974" lon="-8.761506848379362"><ele>375.75</ele><time>2026-04-16T15:54:04Z</time></trkpt><trkpt lat="42.84475496693802" lon="-8.761714917892178"><ele>375.5</ele><time>2026-04-16T15:54:05Z</time></trkpt><trkpt lat="42.84473950460481" lon="-8.76191517897468"><ele>375.25</ele><time>2026-04-16T15:54:06Z</time></trkpt><trkpt lat="42.8447344129131" lon="-8.762097487891454"><ele>375.0</ele><time>2026-04-16T15:54:07Z</time></trkpt><trkpt lat="42.844716900048375" lon="-8.762268016681078"><ele>374.75</ele><time>2026-04-16T15:54:08Z</time></trkpt><trkpt lat="42.84470722911335" lon="-8.762433751706276"><ele>374.5</ele><time>2026-04-16T15:54:09Z</time></trkpt><trkpt lat="42.84470151300631" lon="-8.762593377761803"><ele>374.25</ele><time>2026-04-16T15:54:10Z</time></trkpt><trkpt lat="42.844710456582725" lon="-8.762738091518221"><ele>374.0</ele><time>2026-04-16T15:54:11Z</time></trkpt><trkpt lat="42.84474001029754" lon="-8.76288340137267"><ele>374.0</ele><time>2026-04-16T15:54:12Z</time></trkpt><trkpt lat="42.84478845907351" lon="-8.763006356540457"><ele>374.0</ele><time>2026-04-16T15:54:13Z</time></trkpt><trkpt lat="42.844857748615496" lon="-8.763096437276536"><ele>374.0</ele><time>2026-04-16T15:54:14Z</time></trkpt><trkpt lat="42.84493861860358" lon="-8.763195359419544"><ele>374.0</ele><time>2026-04-16T15:54:15Z</time></trkpt><trkpt lat="42.84498683443403" lon="-8.763384896593598"><ele>374.0</ele><time>2026-04-16T15:54:16Z</time></trkpt><trkpt lat="42.84507487461167" lon="-8.763528624802445"><ele>374.0</ele><time>2026-04-16T15:54:17Z</time></trkpt><trkpt lat="42.84516649998216" lon="-8.763671567647986"><ele>374.0</ele><time>2026-04-16T15:54:18Z</time></trkpt><trkpt lat="42.845257864735906" lon="-8.763791456462876"><ele>374.0</ele><time>2026-04-16T15:54:19Z</time></trkpt><trkpt lat="42.84536681318143" lon="-8.763896958596135"><ele>373.5</ele><time>2026-04-16T15:54:20Z</time></trkpt><trkpt lat="42.845493391311095" lon="-8.763987176491675"><ele>373.0</ele><time>2026-04-16T15:54:21Z</time></trkpt><trkpt lat="42.84562417062733" lon="-8.764062175806153"><ele>372.5</ele><time>2026-04-16T15:54:22Z</time></trkpt><trkpt lat="42.8457389332978" lon="-8.764124788874483"><ele>372.0</ele><time>2026-04-16T15:54:23Z</time></trkpt><trkpt lat="42.84583820484228" lon="-8.76419243041884"><ele>372.0</ele><time>2026-04-16T15:54:23.999Z</time></trkpt><trkpt lat="42.845932841968434" lon="-8.76426483420692"><ele>372.0</ele><time>2026-04-16T15:54:24.999Z</time></trkpt><trkpt lat="42.84601433353536" lon="-8.764354102907205"><ele>372.0</ele><time>2026-04-16T15:54:25.999Z</time></trkpt><trkpt lat="42.84608231714473" lon="-8.764483005519727"><ele>372.0</ele><time>2026-04-16T15:54:26.999Z</time></trkpt><trkpt lat="42.84614070996942" lon="-8.764634043848346"><ele>367.25</ele><time>2026-04-16T15:54:27.999Z</time></trkpt><trkpt lat="42.84620324247373" lon="-8.764802692179408"><ele>362.5</ele><time>2026-04-16T15:54:28.999Z</time></trkpt><trkpt lat="42.84626817761285" lon="-8.764972870604689"><ele>357.75</ele><time>2026-04-16T15:54:29.999Z</time></trkpt><trkpt lat="42.84632928572499" lon="-8.765138597052552"><ele>353.0</ele><time>2026-04-16T15:54:30.999Z</time></trkpt><trkpt lat="42.846391143607" lon="-8.765302745177602"><ele>353.0</ele><time>2026-04-16T15:54:31.999Z</time></trkpt><trkpt lat="42.84645119206094" lon="-8.765460324185801"><ele>353.0</ele><time>2026-04-16T15:54:32.999Z</time></trkpt><trkpt lat="42.84651335472961" lon="-8.765604834650485"><ele>353.0</ele><time>2026-04-16T15:54:33.999Z</time></trkpt><trkpt lat="42.84658605542462" lon="-8.76573465530846"><ele>353.0</ele><time>2026-04-16T15:54:34.999Z</time></trkpt><trkpt lat="42.84667037829065" lon="-8.765846911921681"><ele>353.0</ele><time>2026-04-16T15:54:35.999Z</time></trkpt><trkpt lat="42.84674963279992" lon="-8.76594278454036"><ele>353.0</ele><time>2026-04-16T15:54:36.999Z</time></trkpt><trkpt lat="42.84682067429578" lon="-8.766018674966993"><ele>353.0</ele><time>2026-04-16T15:54:37.999Z</time></trkpt><trkpt lat="42.84687836737323" lon="-8.766074492482218"><ele>353.0</ele><time>2026-04-16T15:54:38.999Z</time></trkpt><trkpt lat="42.846940019595124" lon="-8.766145490007094"><ele>353.0</ele><time>2026-04-16T15:54:40.999Z</time></trkpt><trkpt lat="42.84701736507102" lon="-8.76619673070906"><ele>353.0</ele><time>2026-04-16T15:54:45.999Z</time></trkpt><trkpt lat="42.84696355276523" lon="-8.76637419440163"><ele>351.79999999999995</ele><time>2026-04-16T15:54:46.999Z</time></trkpt><trkpt lat="42.84695018278743" lon="-8.766483312190129"><ele>350.6</ele><time>2026-04-16T15:54:47.999Z</time></trkpt><trkpt lat="42.84694671345577" lon="-8.766619263588703"><ele>349.4</ele><time>2026-04-16T15:54:48.999Z</time></trkpt><trkpt lat="42.84694577875033" lon="-8.766760019932555"><ele>348.20000000000005</ele><time>2026-04-16T15:54:49.999Z</time></trkpt><trkpt lat="42.84694475981831" lon="-8.766912787077528"><ele>347.0</ele><time>2026-04-16T15:54:50.999Z</time></trkpt><trkpt lat="42.84694548446301" lon="-8.767076358380244"><ele>346.25</ele><time>2026-04-16T15:54:51.999Z</time></trkpt><trkpt lat="42.84695695583164" lon="-8.767252723517387"><ele>345.5</ele><time>2026-04-16T15:54:52.999Z</time></trkpt><trkpt lat="42.84698818093251" lon="-8.767453191949029"><ele>344.75</ele><time>2026-04-16T15:54:53.999Z</time></trkpt><trkpt lat="42.84701997871533" lon="-8.76767738961635"><ele>344.0</ele><time>2026-04-16T15:54:54.999Z</time></trkpt><trkpt lat="42.84705243541205" lon="-8.767903369316285"><ele>343.0</ele><time>2026-04-16T15:54:55.999Z</time></trkpt><trkpt lat="42.84708844140933" lon="-8.76814977743755"><ele>342.0</ele><time>2026-04-16T15:54:56.999Z</time></trkpt><trkpt lat="42.84712487606365" lon="-8.768401344094997"><ele>341.0</ele><time>2026-04-16T15:54:57.999Z</time></trkpt><trkpt lat="42.8471626743594" lon="-8.768667411484094"><ele>340.6666666666667</ele><time>2026-04-16T15:54:58.999Z</time></trkpt><trkpt lat="42.84720716886923" lon="-8.768970758349122"><ele>340.3333333333333</ele><time>2026-04-16T15:54:59.999Z</time></trkpt><trkpt lat="42.84724961346885" lon="-8.769263372051686"><ele>340.0</ele><time>2026-04-16T15:55:00.999Z</time></trkpt><trkpt lat="42.84728732976797" lon="-8.769535235154551"><ele>339.3333333333333</ele><time>2026-04-16T15:55:01.999Z</time></trkpt><trkpt lat="42.84732298666535" lon="-8.76980285771309"><ele>338.6666666666667</ele><time>2026-04-16T15:55:02.999Z</time></trkpt><trkpt lat="42.84736302539243" lon="-8.770072955547844"><ele>338.0</ele><time>2026-04-16T15:55:03.999Z</time></trkpt><trkpt lat="42.84740395320806" lon="-8.770342784149763"><ele>335.33333333333337</ele><time>2026-04-16T15:55:04.999Z</time></trkpt><trkpt lat="42.84745958906738" lon="-8.770597682456732"><ele>332.6666666666667</ele><time>2026-04-16T15:55:05.999Z</time></trkpt><trkpt lat="42.84749863782348" lon="-8.770837886204065"><ele>330.0</ele><time>2026-04-16T15:55:06.999Z</time></trkpt><trkpt lat="42.847531510135774" lon="-8.771040096317252"><ele>328.3333333333333</ele><time>2026-04-16T15:55:07.999Z</time></trkpt><trkpt lat="42.847550858338856" lon="-8.771249592700787"><ele>326.66666666666663</ele><time>2026-04-16T15:55:08.999Z</time></trkpt><trkpt lat="42.84761017369366" lon="-8.771442975796953"><ele>325.0</ele><time>2026-04-16T15:55:09.999Z</time></trkpt><trkpt lat="42.84772143961002" lon="-8.77159463227153"><ele>325.0</ele><time>2026-04-16T15:55:10.999Z</time></trkpt><trkpt lat="42.84783734885107" lon="-8.771748892080746"><ele>325.0</ele><time>2026-04-16T15:55:11.999Z</time></trkpt><trkpt lat="42.84793734906222" lon="-8.771908757292811"><ele>325.0</ele><time>2026-04-16T15:55:12.999Z</time></trkpt><trkpt lat="42.848046842862246" lon="-8.772050627681098"><ele>323.25</ele><time>2026-04-16T15:55:13.999Z</time></trkpt><trkpt lat="42.848152955453756" lon="-8.772188208668712"><ele>321.5</ele><time>2026-04-16T15:55:14.999Z</time></trkpt><trkpt lat="42.84825933191575" lon="-8.77232605064543"><ele>319.75</ele><time>2026-04-16T15:55:15.999Z</time></trkpt><trkpt lat="42.84836770254391" lon="-8.772468695613847"><ele>318.0</ele><time>2026-04-16T15:55:16.999Z</time></trkpt><trkpt lat="42.84847763122946" lon="-8.772617583154977"><ele>315.3333333333333</ele><time>2026-04-16T15:55:17.999Z</time></trkpt><trkpt lat="42.848590273464644" lon="-8.772769687879878"><ele>312.66666666666663</ele><time>2026-04-16T15:55:18.999Z</time></trkpt><trkpt lat="42.848709656813014" lon="-8.772922197222881"><ele>310.0</ele><time>2026-04-16T15:55:19.999Z</time></trkpt><trkpt lat="42.84882217574737" lon="-8.773068815609044"><ele>310.0</ele><time>2026-04-16T15:55:20.999Z</time></trkpt><trkpt lat="42.84892966073864" lon="-8.773211266060787"><ele>310.0</ele><time>2026-04-16T15:55:21.998Z</time></trkpt><trkpt lat="42.849031184881255" lon="-8.773347207881702"><ele>310.0</ele><time>2026-04-16T15:55:22.998Z</time></trkpt><trkpt lat="42.84912951691193" lon="-8.773477235344965"><ele>310.0</ele><time>2026-04-16T15:55:23.998Z</time></trkpt><trkpt lat="42.849225383919276" lon="-8.773604529179998"><ele>310.0</ele><time>2026-04-16T15:55:24.998Z</time></trkpt><trkpt lat="42.84932143264373" lon="-8.77373274877255"><ele>310.0</ele><time>2026-04-16T15:55:25.998Z</time></trkpt><trkpt lat="42.849423906633035" lon="-8.7738700250116"><ele>310.0</ele><time>2026-04-16T15:55:26.998Z</time></trkpt><trkpt lat="42.84953291876367" lon="-8.774013817406098"><ele>310.0</ele><time>2026-04-16T15:55:27.998Z</time></trkpt><trkpt lat="42.84964675177634" lon="-8.774163039798651"><ele>310.0</ele><time>2026-04-16T15:55:28.998Z</time></trkpt><trkpt lat="42.8497498887403" lon="-8.774303251329172"><ele>310.0</ele><time>2026-04-16T15:55:29.998Z</time></trkpt><trkpt lat="42.849847913069496" lon="-8.774433744011453"><ele>310.0</ele><time>2026-04-16T15:55:30.998Z</time></trkpt><trkpt lat="42.84992924008045" lon="-8.774568915510363"><ele>310.0</ele><time>2026-04-16T15:55:31.998Z</time></trkpt><trkpt lat="42.84998800167611" lon="-8.77471508055788"><ele>310.0</ele><time>2026-04-16T15:55:32.998Z</time></trkpt><trkpt lat="42.8500115803946" lon="-8.774875371576556"><ele>310.0</ele><time>2026-04-16T15:55:33.998Z</time></trkpt><trkpt lat="42.85000665132545" lon="-8.775055023448852"><ele>310.0</ele><time>2026-04-16T15:55:34.998Z</time></trkpt><trkpt lat="42.84999812703019" lon="-8.775248594134103"><ele>310.0</ele><time>2026-04-16T15:55:35.998Z</time></trkpt><trkpt lat="42.84999353242787" lon="-8.775460577093497"><ele>308.0</ele><time>2026-04-16T15:55:36.998Z</time></trkpt><trkpt lat="42.849990880104066" lon="-8.775682439486362"><ele>306.0</ele><time>2026-04-16T15:55:37.998Z</time></trkpt><trkpt lat="42.84998550020218" lon="-8.775916781661392"><ele>304.0</ele><time>2026-04-16T15:55:38.998Z</time></trkpt><trkpt lat="42.84998004007923" lon="-8.776160460579282"><ele>301.0</ele><time>2026-04-16T15:55:39.998Z</time></trkpt><trkpt lat="42.849972856300354" lon="-8.776412765078357"><ele>298.0</ele><time>2026-04-16T15:55:40.998Z</time></trkpt><trkpt lat="42.849966472445416" lon="-8.77667210936669"><ele>295.0</ele><time>2026-04-16T15:55:41.998Z</time></trkpt><trkpt lat="42.84996135370984" lon="-8.776925296098607"><ele>292.66666666666663</ele><time>2026-04-16T15:55:42.998Z</time></trkpt><trkpt lat="42.84995569501992" lon="-8.777172468708365"><ele>290.3333333333333</ele><time>2026-04-16T15:55:43.998Z</time></trkpt><trkpt lat="42.84995058923389" lon="-8.777418523269866"><ele>288.0</ele><time>2026-04-16T15:55:44.998Z</time></trkpt><trkpt lat="42.84994303700274" lon="-8.77766974756076"><ele>286.3333333333333</ele><time>2026-04-16T15:55:45.998Z</time></trkpt><trkpt lat="42.849937772863754" lon="-8.777926040474593"><ele>284.66666666666663</ele><time>2026-04-16T15:55:46.998Z</time></trkpt><trkpt lat="42.84993345095379" lon="-8.77818549275491"><ele>283.0</ele><time>2026-04-16T15:55:47.998Z</time></trkpt><trkpt lat="42.84992847775995" lon="-8.778452130318147"><ele>284.66666666666663</ele><time>2026-04-16T15:55:48.998Z</time></trkpt><trkpt lat="42.84992325507441" lon="-8.778734582179638"><ele>286.3333333333333</ele><time>2026-04-16T15:55:49.998Z</time></trkpt><trkpt lat="42.84991368734532" lon="-8.779034271668534"><ele>288.0</ele><time>2026-04-16T15:55:50.998Z</time></trkpt><trkpt lat="42.84990500603433" lon="-8.77933882467894"><ele>288.0</ele><time>2026-04-16T15:55:51.998Z</time></trkpt><trkpt lat="42.84989857378706" lon="-8.77964447546281"><ele>288.0</ele><time>2026-04-16T15:55:52.998Z</time></trkpt><trkpt lat="42.849892204278795" lon="-8.779946689344895"><ele>288.0</ele><time>2026-04-16T15:55:53.998Z</time></trkpt><trkpt lat="42.84988544182096" lon="-8.780258394787936"><ele>288.0</ele><time>2026-04-16T15:55:54.998Z</time></trkpt><trkpt lat="42.849879445193594" lon="-8.780558673904672"><ele>288.0</ele><time>2026-04-16T15:55:55.998Z</time></trkpt><trkpt lat="42.849873860138786" lon="-8.780830833224051"><ele>288.0</ele><time>2026-04-16T15:55:56.998Z</time></trkpt><trkpt lat="42.849870146178425" lon="-8.781066051033031"><ele>288.0</ele><time>2026-04-16T15:55:57.998Z</time></trkpt><trkpt lat="42.84986750695856" lon="-8.78126885972125"><ele>288.0</ele><time>2026-04-16T15:55:58.998Z</time></trkpt><trkpt lat="42.84986445118937" lon="-8.781428627979091"><ele>288.0</ele><time>2026-04-16T15:55:59.998Z</time></trkpt><trkpt lat="42.84986195575924" lon="-8.781557665053832"><ele>288.0</ele><time>2026-04-16T15:56:00.998Z</time></trkpt><trkpt lat="42.84985266299702" lon="-8.78166421621178"><ele>288.0</ele><time>2026-04-16T15:56:01.998Z</time></trkpt><trkpt lat="42.84981983824593" lon="-8.781764570371376"><ele>288.2</ele><time>2026-04-16T15:56:03Z</time></trkpt><trkpt lat="42.849770107956964" lon="-8.781851648031635"><ele>288.4</ele><time>2026-04-16T15:56:04Z</time></trkpt><trkpt lat="42.849711428872105" lon="-8.781951980728605"><ele>288.59999999999997</ele><time>2026-04-16T15:56:05Z</time></trkpt><trkpt lat="42.84964456508305" lon="-8.782069061617577"><ele>288.8</ele><time>2026-04-16T15:56:06Z</time></trkpt><trkpt lat="42.84956509974713" lon="-8.782206811861254"><ele>289.0</ele><time>2026-04-16T15:56:07Z</time></trkpt><trkpt lat="42.849475496964935" lon="-8.782356273860016"><ele>289.0</ele><time>2026-04-16T15:56:08Z</time></trkpt><trkpt lat="42.84937359408798" lon="-8.78252294157284"><ele>289.0</ele><time>2026-04-16T15:56:09Z</time></trkpt><trkpt lat="42.849268382348434" lon="-8.782699623006021"><ele>289.0</ele><time>2026-04-16T15:56:10Z</time></trkpt><trkpt lat="42.84916577531561" lon="-8.782875748083972"><ele>289.66666666666663</ele><time>2026-04-16T15:56:11Z</time></trkpt><trkpt lat="42.84906297998591" lon="-8.783050323976443"><ele>290.3333333333333</ele><time>2026-04-16T15:56:12Z</time></trkpt><trkpt lat="42.84896307726307" lon="-8.783217613464275"><ele>291.0</ele><time>2026-04-16T15:56:13Z</time></trkpt><trkpt lat="42.84886471775665" lon="-8.783385037431628"><ele>290.0</ele><time>2026-04-16T15:56:14Z</time></trkpt><trkpt lat="42.848774651923634" lon="-8.783537343844667"><ele>289.0</ele><time>2026-04-16T15:56:15Z</time></trkpt><trkpt lat="42.8486891721496" lon="-8.783682351917296"><ele>288.0</ele><time>2026-04-16T15:56:16Z</time></trkpt><trkpt lat="42.848609150265744" lon="-8.783819767640201"><ele>287.0</ele><time>2026-04-16T15:56:17Z</time></trkpt><trkpt lat="42.84853345484572" lon="-8.783953538942525"><ele>287.0</ele><time>2026-04-16T15:56:18Z</time></trkpt><trkpt lat="42.848463685225454" lon="-8.784069814619594"><ele>287.0</ele><time>2026-04-16T15:56:19Z</time></trkpt><trkpt lat="42.84838744781052" lon="-8.784163363170599"><ele>287.0</ele><time>2026-04-16T15:56:20Z</time></trkpt><trkpt lat="42.848298925579016" lon="-8.784242798342138"><ele>287.0</ele><time>2026-04-16T15:56:21Z</time></trkpt><trkpt lat="42.84817047198942" lon="-8.784260016167956"><ele>287.0</ele><time>2026-04-16T15:56:22Z</time></trkpt><trkpt lat="42.848028979167864" lon="-8.784250422590809"><ele>289.33333333333337</ele><time>2026-04-16T15:56:23Z</time></trkpt><trkpt lat="42.84787453256398" lon="-8.784232470829595"><ele>291.6666666666667</ele><time>2026-04-16T15:56:24Z</time></trkpt><trkpt lat="42.84771154617574" lon="-8.784224684711193"><ele>294.0</ele><time>2026-04-16T15:56:25Z</time></trkpt><trkpt lat="42.84756925320402" lon="-8.784218475088078"><ele>294.4</ele><time>2026-04-16T15:56:26Z</time></trkpt><trkpt lat="42.84745217459363" lon="-8.784208076940292"><ele>294.79999999999995</ele><time>2026-04-16T15:56:27Z</time></trkpt><trkpt lat="42.847346794464016" lon="-8.784193473359283"><ele>295.20000000000005</ele><time>2026-04-16T15:56:28Z</time></trkpt><trkpt lat="42.84724856353648" lon="-8.784248814227697"><ele>295.6</ele><time>2026-04-16T15:56:29Z</time></trkpt><trkpt lat="42.847158932132864" lon="-8.784355229553778"><ele>296.0</ele><time>2026-04-16T15:56:30Z</time></trkpt><trkpt lat="42.84707805370266" lon="-8.784506860065491"><ele>292.0</ele><time>2026-04-16T15:56:31Z</time></trkpt><trkpt lat="42.84699505533575" lon="-8.784679228094381"><ele>288.0</ele><time>2026-04-16T15:56:32Z</time></trkpt><trkpt lat="42.846904826513764" lon="-8.784871270549068"><ele>284.0</ele><time>2026-04-16T15:56:33Z</time></trkpt><trkpt lat="42.8468005709754" lon="-8.785063384841118"><ele>285.6666666666667</ele><time>2026-04-16T15:56:33.999Z</time></trkpt><trkpt lat="42.84669715957006" lon="-8.785243594466476"><ele>287.3333333333333</ele><time>2026-04-16T15:56:34.999Z</time></trkpt><trkpt lat="42.84661062401796" lon="-8.78540751064282"><ele>289.0</ele><time>2026-04-16T15:56:35.999Z</time></trkpt><trkpt lat="42.846527158905324" lon="-8.785552544499538"><ele>289.0</ele><time>2026-04-16T15:56:36.999Z</time></trkpt><trkpt lat="42.84645003080772" lon="-8.785672120186993"><ele>289.0</ele><time>2026-04-16T15:56:37.999Z</time></trkpt><trkpt lat="42.8463558823275" lon="-8.78576956271039"><ele>289.0</ele><time>2026-04-16T15:56:38.999Z</time></trkpt><trkpt lat="42.84623082740845" lon="-8.785833076711556"><ele>289.0</ele><time>2026-04-16T15:56:39.999Z</time></trkpt><trkpt lat="42.84609868477105" lon="-8.785907769343517"><ele>289.5</ele><time>2026-04-16T15:56:40.999Z</time></trkpt><trkpt lat="42.84595019144894" lon="-8.785941679560722"><ele>290.0</ele><time>2026-04-16T15:56:41.999Z</time></trkpt><trkpt lat="42.84581602919103" lon="-8.78598926851173"><ele>290.5</ele><time>2026-04-16T15:56:42.999Z</time></trkpt><trkpt lat="42.84568790060104" lon="-8.785997108235934"><ele>291.0</ele><time>2026-04-16T15:56:43.999Z</time></trkpt><trkpt lat="42.84556809046747" lon="-8.786006370095452"><ele>288.2</ele><time>2026-04-16T15:56:44.999Z</time></trkpt><trkpt lat="42.84546574260888" lon="-8.786014316754882"><ele>285.40000000000003</ele><time>2026-04-16T15:56:45.999Z</time></trkpt><trkpt lat="42.84537183550368" lon="-8.78602310662108"><ele>282.6</ele><time>2026-04-16T15:56:46.999Z</time></trkpt><trkpt lat="42.845302950395464" lon="-8.786106907079358"><ele>279.8</ele><time>2026-04-16T15:56:47.999Z</time></trkpt><trkpt lat="42.84527662700855" lon="-8.7862272139513"><ele>277.0</ele><time>2026-04-16T15:56:48.999Z</time></trkpt><trkpt lat="42.84528211822685" lon="-8.78636740813223"><ele>277.0</ele><time>2026-04-16T15:56:49.999Z</time></trkpt><trkpt lat="42.845295062354744" lon="-8.786506844212916"><ele>277.0</ele><time>2026-04-16T15:56:50.999Z</time></trkpt><trkpt lat="42.84529895880006" lon="-8.786660493887151"><ele>277.0</ele><time>2026-04-16T15:56:51.999Z</time></trkpt><trkpt lat="42.845280265740406" lon="-8.786807301522398"><ele>277.0</ele><time>2026-04-16T15:56:52.999Z</time></trkpt><trkpt lat="42.84520788728707" lon="-8.78694434117654"><ele>277.0</ele><time>2026-04-16T15:56:53.999Z</time></trkpt><trkpt lat="42.8451116911436" lon="-8.787067606498745"><ele>278.0</ele><time>2026-04-16T15:56:54.999Z</time></trkpt><trkpt lat="42.845015880237995" lon="-8.78719841386307"><ele>279.0</ele><time>2026-04-16T15:56:55.999Z</time></trkpt><trkpt lat="42.84491615395326" lon="-8.787340704397321"><ele>280.0</ele><time>2026-04-16T15:56:56.999Z</time></trkpt><trkpt lat="42.844806456941" lon="-8.787490353240964"><ele>281.0</ele><time>2026-04-16T15:56:57.999Z</time></trkpt><trkpt lat="42.84469640676604" lon="-8.787643971293434"><ele>281.0</ele><time>2026-04-16T15:56:58.999Z</time></trkpt><trkpt lat="42.8446023830302" lon="-8.787778161840418"><ele>281.0</ele><time>2026-04-16T15:56:59.999Z</time></trkpt><trkpt lat="42.84451374499759" lon="-8.78789908296688"><ele>281.0</ele><time>2026-04-16T15:57:00.999Z</time></trkpt><trkpt lat="42.84445234435096" lon="-8.788026082554177"><ele>281.0</ele><time>2026-04-16T15:57:01.999Z</time></trkpt><trkpt lat="42.84437562308082" lon="-8.7881309016652"><ele>281.0</ele><time>2026-04-16T15:57:02.999Z</time></trkpt><trkpt lat="42.84434755022445" lon="-8.7882726369381"><ele>281.0</ele><time>2026-04-16T15:57:03.999Z</time></trkpt><trkpt lat="42.844351691564896" lon="-8.788418756481962"><ele>281.0</ele><time>2026-04-16T15:57:04.999Z</time></trkpt><trkpt lat="42.84438498370522" lon="-8.788545608302863"><ele>281.0</ele><time>2026-04-16T15:57:05.999Z</time></trkpt><trkpt lat="42.844457736884266" lon="-8.788647520389688"><ele>281.0</ele><time>2026-04-16T15:57:06.999Z</time></trkpt><trkpt lat="42.844544220732956" lon="-8.788733524406785"><ele>283.6666666666667</ele><time>2026-04-16T15:57:07.999Z</time></trkpt><trkpt lat="42.84466756440657" lon="-8.788830170933142"><ele>286.3333333333333</ele><time>2026-04-16T15:57:08.999Z</time></trkpt><trkpt lat="42.84480104635048" lon="-8.78893096571759"><ele>289.0</ele><time>2026-04-16T15:57:09.999Z</time></trkpt><trkpt lat="42.844945328605384" lon="-8.789039702470616"><ele>289.0</ele><time>2026-04-16T15:57:10.999Z</time></trkpt><trkpt lat="42.84510353060634" lon="-8.789146105086376"><ele>289.0</ele><time>2026-04-16T15:57:11.999Z</time></trkpt><trkpt lat="42.84526959091695" lon="-8.789251998257065"><ele>289.0</ele><time>2026-04-16T15:57:12.999Z</time></trkpt><trkpt lat="42.84542828925682" lon="-8.789356944481183"><ele>289.66666666666663</ele><time>2026-04-16T15:57:13.999Z</time></trkpt><trkpt lat="42.84557290945569" lon="-8.7894521271359"><ele>290.3333333333333</ele><time>2026-04-16T15:57:14.999Z</time></trkpt><trkpt lat="42.84571543922697" lon="-8.78955558808206"><ele>291.0</ele><time>2026-04-16T15:57:15.999Z</time></trkpt><trkpt lat="42.84584725592802" lon="-8.789674664415935"><ele>288.0</ele><time>2026-04-16T15:57:16.999Z</time></trkpt><trkpt lat="42.8459667260503" lon="-8.789817897278676"><ele>285.0</ele><time>2026-04-16T15:57:17.999Z</time></trkpt><trkpt lat="42.846078011344765" lon="-8.789978988507748"><ele>282.0</ele><time>2026-04-16T15:57:18.999Z</time></trkpt><trkpt lat="42.84619446865798" lon="-8.790135499748821"><ele>284.0</ele><time>2026-04-16T15:57:19.999Z</time></trkpt><trkpt lat="42.846315154095414" lon="-8.790275060554595"><ele>286.0</ele><time>2026-04-16T15:57:20.999Z</time></trkpt><trkpt lat="42.846442278826814" lon="-8.790390482513265"><ele>288.0</ele><time>2026-04-16T15:57:21.999Z</time></trkpt><trkpt lat="42.846590678392054" lon="-8.790468353513937"><ele>288.0</ele><time>2026-04-16T15:57:22.999Z</time></trkpt><trkpt lat="42.84675594810772" lon="-8.790534000583262"><ele>288.0</ele><time>2026-04-16T15:57:23.999Z</time></trkpt><trkpt lat="42.84693726599897" lon="-8.790594433134261"><ele>288.0</ele><time>2026-04-16T15:57:24.999Z</time></trkpt><trkpt lat="42.8471186553117" lon="-8.790665354474744"><ele>283.6666666666667</ele><time>2026-04-16T15:57:25.999Z</time></trkpt><trkpt lat="42.847298832352735" lon="-8.79074170697172"><ele>279.33333333333337</ele><time>2026-04-16T15:57:26.999Z</time></trkpt><trkpt lat="42.84747035695763" lon="-8.790809741368468"><ele>275.0</ele><time>2026-04-16T15:57:27.999Z</time></trkpt><trkpt lat="42.84763442647013" lon="-8.79087046648581"><ele>277.0</ele><time>2026-04-16T15:57:28.999Z</time></trkpt><trkpt lat="42.84779810119145" lon="-8.790934601476836"><ele>279.0</ele><time>2026-04-16T15:57:29.999Z</time></trkpt><trkpt lat="42.84796974815116" lon="-8.791010848894553"><ele>281.0</ele><time>2026-04-16T15:57:30.999Z</time></trkpt><trkpt lat="42.848152914299554" lon="-8.791083921222787"><ele>281.0</ele><time>2026-04-16T15:57:31.999Z</time></trkpt><trkpt lat="42.84834056710135" lon="-8.791136499072852"><ele>281.0</ele><time>2026-04-16T15:57:32.999Z</time></trkpt><trkpt lat="42.848523220498805" lon="-8.79118021262896"><ele>281.0</ele><time>2026-04-16T15:57:33.999Z</time></trkpt><trkpt lat="42.84869498697486" lon="-8.791222226865914"><ele>278.6666666666667</ele><time>2026-04-16T15:57:34.998Z</time></trkpt><trkpt lat="42.84885798798989" lon="-8.791268355234642"><ele>276.3333333333333</ele><time>2026-04-16T15:57:35.998Z</time></trkpt><trkpt lat="42.84901657099056" lon="-8.791312149678811"><ele>274.0</ele><time>2026-04-16T15:57:36.998Z</time></trkpt><trkpt lat="42.84917110389064" lon="-8.791350380456946"><ele>271.66666666666663</ele><time>2026-04-16T15:57:37.998Z</time></trkpt><trkpt lat="42.84932212479272" lon="-8.791386618428426"><ele>269.3333333333333</ele><time>2026-04-16T15:57:38.998Z</time></trkpt><trkpt lat="42.84947128360355" lon="-8.791422976749365"><ele>267.0</ele><time>2026-04-16T15:57:39.998Z</time></trkpt><trkpt lat="42.84962023996624" lon="-8.791451221590735"><ele>267.0</ele><time>2026-04-16T15:57:40.998Z</time></trkpt><trkpt lat="42.84977541417056" lon="-8.791462422215982"><ele>267.0</ele><time>2026-04-16T15:57:41.998Z</time></trkpt><trkpt lat="42.849942111913926" lon="-8.791464401544028"><ele>267.0</ele><time>2026-04-16T15:57:42.998Z</time></trkpt><trkpt lat="42.850116103920996" lon="-8.791453029751798"><ele>266.3333333333333</ele><time>2026-04-16T15:57:43.998Z</time></trkpt><trkpt lat="42.85030061454133" lon="-8.79143662343838"><ele>265.66666666666663</ele><time>2026-04-16T15:57:44.998Z</time></trkpt><trkpt lat="42.85049038700963" lon="-8.791420225466677"><ele>265.0</ele><time>2026-04-16T15:57:45.998Z</time></trkpt><trkpt lat="42.850683056870245" lon="-8.791403313471166"><ele>265.0</ele><time>2026-04-16T15:57:46.998Z</time></trkpt><trkpt lat="42.85087072131343" lon="-8.791388984773475"><ele>265.0</ele><time>2026-04-16T15:57:47.998Z</time></trkpt><trkpt lat="42.85105136131997" lon="-8.791379983944156"><ele>265.0</ele><time>2026-04-16T15:57:48.998Z</time></trkpt><trkpt lat="42.85123692962473" lon="-8.791367872496895"><ele>264.66666666666663</ele><time>2026-04-16T15:57:49.998Z</time></trkpt><trkpt lat="42.85142519552729" lon="-8.791352751024188"><ele>264.3333333333333</ele><time>2026-04-16T15:57:50.998Z</time></trkpt><trkpt lat="42.85161804046712" lon="-8.791338009923713"><ele>264.0</ele><time>2026-04-16T15:57:51.998Z</time></trkpt><trkpt lat="42.85181318410696" lon="-8.791320294429816"><ele>264.0</ele><time>2026-04-16T15:57:52.998Z</time></trkpt><trkpt lat="42.852009262063554" lon="-8.791301666877214"><ele>264.0</ele><time>2026-04-16T15:57:53.998Z</time></trkpt><trkpt lat="42.85220466028049" lon="-8.791283889645158"><ele>264.0</ele><time>2026-04-16T15:57:54.998Z</time></trkpt><trkpt lat="42.85240121594836" lon="-8.791268795309207"><ele>264.0</ele><time>2026-04-16T15:57:55.998Z</time></trkpt><trkpt lat="42.85259818434078" lon="-8.791253869792836"><ele>264.0</ele><time>2026-04-16T15:57:56.998Z</time></trkpt><trkpt lat="42.852799842495166" lon="-8.791236260123032"><ele>264.0</ele><time>2026-04-16T15:57:57.998Z</time></trkpt><trkpt lat="42.85300949398065" lon="-8.791217544537911"><ele>264.0</ele><time>2026-04-16T15:57:58.998Z</time></trkpt><trkpt lat="42.85321606269711" lon="-8.791198631682391"><ele>264.0</ele><time>2026-04-16T15:57:59.998Z</time></trkpt><trkpt lat="42.85340820639979" lon="-8.791180518008074"><ele>264.0</ele><time>2026-04-16T15:58:00.998Z</time></trkpt><trkpt lat="42.85358785842839" lon="-8.791162514059407"><ele>262.25</ele><time>2026-04-16T15:58:01.998Z</time></trkpt><trkpt lat="42.85375720732778" lon="-8.791143841182073"><ele>260.5</ele><time>2026-04-16T15:58:02.998Z</time></trkpt><trkpt lat="42.85390155885188" lon="-8.791131830114052"><ele>258.75</ele><time>2026-04-16T15:58:03.998Z</time></trkpt><trkpt lat="42.85402273409251" lon="-8.791125456345693"><ele>257.0</ele><time>2026-04-16T15:58:04.998Z</time></trkpt><trkpt lat="42.854122044200935" lon="-8.791130671851702"><ele>257.0</ele><time>2026-04-16T15:58:05.998Z</time></trkpt><trkpt lat="42.85420911449746" lon="-8.791162647470937"><ele>257.0</ele><time>2026-04-16T15:58:06.998Z</time></trkpt><trkpt lat="42.854289565055524" lon="-8.791230927288293"><ele>257.0</ele><time>2026-04-16T15:58:07.998Z</time></trkpt><trkpt lat="42.854370792794974" lon="-8.791335534197914"><ele>257.0</ele><time>2026-04-16T15:58:09Z</time></trkpt><trkpt lat="42.85445803239523" lon="-8.791458410655782"><ele>257.0</ele><time>2026-04-16T15:58:10Z</time></trkpt><trkpt lat="42.85455218853227" lon="-8.791564701622269"><ele>256.25</ele><time>2026-04-16T15:58:11Z</time></trkpt><trkpt lat="42.85463942415129" lon="-8.791656682095029"><ele>255.5</ele><time>2026-04-16T15:58:12Z</time></trkpt><trkpt lat="42.85473048698385" lon="-8.791740650147037"><ele>254.75</ele><time>2026-04-16T15:58:13Z</time></trkpt><trkpt lat="42.85483086590317" lon="-8.791827037608476"><ele>254.0</ele><time>2026-04-16T15:58:14Z</time></trkpt><trkpt lat="42.85494851976991" lon="-8.79191768750569"><ele>254.0</ele><time>2026-04-16T15:58:15Z</time></trkpt><trkpt lat="42.85508212406156" lon="-8.792015599685474"><ele>254.0</ele><time>2026-04-16T15:58:16Z</time></trkpt><trkpt lat="42.8552260197839" lon="-8.7921212162566"><ele>254.0</ele><time>2026-04-16T15:58:17Z</time></trkpt><trkpt lat="42.85536327283541" lon="-8.792223324453643"><ele>249.33333333333334</ele><time>2026-04-16T15:58:18Z</time></trkpt><trkpt lat="42.85550095747804" lon="-8.792326038370428"><ele>244.66666666666669</ele><time>2026-04-16T15:58:19Z</time></trkpt><trkpt lat="42.85563824362098" lon="-8.792423190349126"><ele>240.0</ele><time>2026-04-16T15:58:20Z</time></trkpt><trkpt lat="42.85577574173106" lon="-8.792514661205908"><ele>240.0</ele><time>2026-04-16T15:58:21Z</time></trkpt><trkpt lat="42.855915635049875" lon="-8.792590940044681"><ele>240.0</ele><time>2026-04-16T15:58:22Z</time></trkpt><trkpt lat="42.85606577724324" lon="-8.792648318613091"><ele>240.0</ele><time>2026-04-16T15:58:23Z</time></trkpt><trkpt lat="42.85622546902809" lon="-8.792700460986064"><ele>243.66666666666669</ele><time>2026-04-16T15:58:24Z</time></trkpt><trkpt lat="42.85638365657412" lon="-8.792772553223585"><ele>247.33333333333334</ele><time>2026-04-16T15:58:25Z</time></trkpt><trkpt lat="42.85652748447449" lon="-8.792857649127743"><ele>251.0</ele><time>2026-04-16T15:58:26Z</time></trkpt><trkpt lat="42.85667131516496" lon="-8.792943373051344"><ele>241.66666666666669</ele><time>2026-04-16T15:58:27Z</time></trkpt><trkpt lat="42.856814272790075" lon="-8.793028731324792"><ele>232.33333333333331</ele><time>2026-04-16T15:58:28Z</time></trkpt><trkpt lat="42.856954802064884" lon="-8.7931094040763"><ele>223.0</ele><time>2026-04-16T15:58:29Z</time></trkpt><trkpt lat="42.857084768699984" lon="-8.79319341672688"><ele>223.0</ele><time>2026-04-16T15:58:30Z</time></trkpt><trkpt lat="42.857209499524046" lon="-8.79326856442772"><ele>223.0</ele><time>2026-04-16T15:58:31Z</time></trkpt><trkpt lat="42.85732627783489" lon="-8.793339751443128"><ele>223.0</ele><time>2026-04-16T15:58:32Z</time></trkpt><trkpt lat="42.857432473719015" lon="-8.793407988851829"><ele>223.0</ele><time>2026-04-16T15:58:33Z</time></trkpt><trkpt lat="42.85752813670827" lon="-8.79349579016453"><ele>225.49999999999997</ele><time>2026-04-16T15:58:34Z</time></trkpt><trkpt lat="42.85761587453445" lon="-8.793580262237182"><ele>228.0</ele><time>2026-04-16T15:58:35Z</time></trkpt><trkpt lat="42.857685142253814" lon="-8.793675494821207"><ele>230.5</ele><time>2026-04-16T15:58:36Z</time></trkpt><trkpt lat="42.857728339758445" lon="-8.793758659943473"><ele>233.0</ele><time>2026-04-16T15:58:37Z</time></trkpt><trkpt lat="42.85780421694126" lon="-8.793784235699938"><ele>235.49999999999997</ele><time>2026-04-16T15:58:38Z</time></trkpt><trkpt lat="42.85788077464358" lon="-8.793738297555533"><ele>238.0</ele><time>2026-04-16T15:58:39Z</time></trkpt><trkpt lat="42.85797967152546" lon="-8.793707690999948"><ele>238.0</ele><time>2026-04-16T15:58:40Z</time></trkpt><trkpt lat="42.858087499841815" lon="-8.79364816491945"><ele>238.0</ele><time>2026-04-16T15:58:41Z</time></trkpt><trkpt lat="42.85821664671464" lon="-8.793590583095215"><ele>238.0</ele><time>2026-04-16T15:58:41.999Z</time></trkpt><trkpt lat="42.85836041729584" lon="-8.793526907460402"><ele>238.0</ele><time>2026-04-16T15:58:42.999Z</time></trkpt><trkpt lat="42.85849171052566" lon="-8.793468992264918"><ele>232.25</ele><time>2026-04-16T15:58:43.999Z</time></trkpt><trkpt lat="42.85861362259994" lon="-8.793429066553577"><ele>226.5</ele><time>2026-04-16T15:58:44.999Z</time></trkpt><trkpt lat="42.85874252549147" lon="-8.793411152836667"><ele>220.75</ele><time>2026-04-16T15:58:45.999Z</time></trkpt><trkpt lat="42.85888290779557" lon="-8.79340872888994"><ele>215.0</ele><time>2026-04-16T15:58:46.999Z</time></trkpt><trkpt lat="42.859032043136644" lon="-8.793425171879278"><ele>215.0</ele><time>2026-04-16T15:58:47.999Z</time></trkpt><trkpt lat="42.85918709512524" lon="-8.79343895179647"><ele>215.0</ele><time>2026-04-16T15:58:48.999Z</time></trkpt><trkpt lat="42.85933257889228" lon="-8.793435967048028"><ele>215.0</ele><time>2026-04-16T15:58:49.999Z</time></trkpt><trkpt lat="42.85947107744043" lon="-8.793428365621986"><ele>215.0</ele><time>2026-04-16T15:58:50.999Z</time></trkpt><trkpt lat="42.859587486083974" lon="-8.7934111338048"><ele>214.33333333333334</ele><time>2026-04-16T15:58:51.999Z</time></trkpt><trkpt lat="42.85966290796465" lon="-8.793354746139393"><ele>213.66666666666669</ele><time>2026-04-16T15:58:52.999Z</time></trkpt><trkpt lat="42.859736318363645" lon="-8.793316421464853"><ele>213.0</ele><time>2026-04-16T15:58:54.999Z</time></trkpt><trkpt lat="42.85980728853547" lon="-8.793279370446609"><ele>212.33333333333331</ele><time>2026-04-16T15:58:56.999Z</time></trkpt><trkpt lat="42.859871348656156" lon="-8.793265900887272"><ele>211.66666666666666</ele><time>2026-04-16T15:58:57.999Z</time></trkpt><trkpt lat="42.85995479875579" lon="-8.79325887000887"><ele>211.0</ele><time>2026-04-16T15:58:58.999Z</time></trkpt><trkpt lat="42.860055248784946" lon="-8.793301604617515"><ele>214.0</ele><time>2026-04-16T15:58:59.999Z</time></trkpt><trkpt lat="42.86016508530161" lon="-8.793353515628553"><ele>217.0</ele><time>2026-04-16T15:59:00.999Z</time></trkpt><trkpt lat="42.86029181700165" lon="-8.793408402840004"><ele>220.0</ele><time>2026-04-16T15:59:01.999Z</time></trkpt><trkpt lat="42.86042708500119" lon="-8.793472061566142"><ele>223.0</ele><time>2026-04-16T15:59:02.999Z</time></trkpt><trkpt lat="42.860557969101286" lon="-8.793526368603091"><ele>223.0</ele><time>2026-04-16T15:59:03.999Z</time></trkpt><trkpt lat="42.86069208006732" lon="-8.793564094523342"><ele>223.0</ele><time>2026-04-16T15:59:04.999Z</time></trkpt><trkpt lat="42.86082254024705" lon="-8.793591630488192"><ele>223.0</ele><time>2026-04-16T15:59:05.999Z</time></trkpt><trkpt lat="42.86095529889006" lon="-8.793618962778883"><ele>223.0</ele><time>2026-04-16T15:59:06.999Z</time></trkpt><trkpt lat="42.86108449232883" lon="-8.793628532080076"><ele>220.0</ele><time>2026-04-16T15:59:07.999Z</time></trkpt><trkpt lat="42.86120352474517" lon="-8.793640633013204"><ele>217.0</ele><time>2026-04-16T15:59:08.999Z</time></trkpt><trkpt lat="42.86131572925441" lon="-8.793649454122122"><ele>214.0</ele><time>2026-04-16T15:59:09.999Z</time></trkpt><trkpt lat="42.861418058358005" lon="-8.793655992718747"><ele>211.0</ele><time>2026-04-16T15:59:10.999Z</time></trkpt><trkpt lat="42.86151547414895" lon="-8.793660999541867"><ele>208.0</ele><time>2026-04-16T15:59:11.999Z</time></trkpt><trkpt lat="42.861616752981114" lon="-8.793664877073196"><ele>208.0</ele><time>2026-04-16T15:59:12.999Z</time></trkpt><trkpt lat="42.86171338827012" lon="-8.793668576821508"><ele>208.0</ele><time>2026-04-16T15:59:13.999Z</time></trkpt><trkpt lat="42.86181202079482" lon="-8.793672353036985"><ele>208.0</ele><time>2026-04-16T15:59:14.999Z</time></trkpt><trkpt lat="42.86190990883228" lon="-8.793673644632548"><ele>208.0</ele><time>2026-04-16T15:59:15.999Z</time></trkpt><trkpt lat="42.86200186010512" lon="-8.793673170733276"><ele>208.0</ele><time>2026-04-16T15:59:16.999Z</time></trkpt><trkpt lat="42.862092286661124" lon="-8.793693509357492"><ele>206.83333333333331</ele><time>2026-04-16T15:59:17.999Z</time></trkpt><trkpt lat="42.86217737696809" lon="-8.793690160851657"><ele>205.66666666666666</ele><time>2026-04-16T15:59:18.999Z</time></trkpt><trkpt lat="42.862262286817554" lon="-8.793685090977862"><ele>204.5</ele><time>2026-04-16T15:59:19.999Z</time></trkpt><trkpt lat="42.86234489471205" lon="-8.793682221174045"><ele>203.33333333333331</ele><time>2026-04-16T15:59:20.999Z</time></trkpt><trkpt lat="42.862424444645775" lon="-8.79367592945002"><ele>202.16666666666666</ele><time>2026-04-16T15:59:21.999Z</time></trkpt><trkpt lat="42.86250163070025" lon="-8.793674060343932"><ele>201.0</ele><time>2026-04-16T15:59:22.999Z</time></trkpt><trkpt lat="42.86257522342389" lon="-8.793673278241888"><ele>198.0</ele><time>2026-04-16T15:59:23.999Z</time></trkpt><trkpt lat="42.8626475963068" lon="-8.793677562901918"><ele>195.0</ele><time>2026-04-16T15:59:24.999Z</time></trkpt><trkpt lat="42.86271512719599" lon="-8.793675641883212"><ele>192.0</ele><time>2026-04-16T15:59:25.999Z</time></trkpt><trkpt lat="42.86278112210671" lon="-8.793677879833423"><ele>189.0</ele><time>2026-04-16T15:59:26.999Z</time></trkpt><trkpt lat="42.862910804545244" lon="-8.793709877062675"><ele>186.0</ele><time>2026-04-16T15:59:28.999Z</time></trkpt><trkpt lat="42.862980908331785" lon="-8.793749267337411"><ele>183.0</ele><time>2026-04-16T15:59:29.999Z</time></trkpt><trkpt lat="42.86304457530176" lon="-8.793791001893341"><ele>183.0</ele><time>2026-04-16T15:59:30.999Z</time></trkpt><trkpt lat="42.8631034024392" lon="-8.79384101462676"><ele>183.0</ele><time>2026-04-16T15:59:31.999Z</time></trkpt><trkpt lat="42.86317108565027" lon="-8.793858735129715"><ele>183.0</ele><time>2026-04-16T15:59:32.999Z</time></trkpt><trkpt lat="42.86322905173579" lon="-8.79389523704299"><ele>183.0</ele><time>2026-04-16T15:59:33.999Z</time></trkpt><trkpt lat="42.863348830996536" lon="-8.793951862643357"><ele>183.0</ele><time>2026-04-16T15:59:35.999Z</time></trkpt><trkpt lat="42.86341302661173" lon="-8.793937482305433"><ele>183.0</ele><time>2026-04-16T15:59:36.999Z</time></trkpt><trkpt lat="42.86347842143919" lon="-8.793955161760532"><ele>180.0</ele><time>2026-04-16T15:59:37.999Z</time></trkpt><trkpt lat="42.86359825041065" lon="-8.793980089081197"><ele>177.0</ele><time>2026-04-16T15:59:39.998Z</time></trkpt><trkpt lat="42.863715599024104" lon="-8.79402359822066"><ele>174.0</ele><time>2026-04-16T15:59:41.998Z</time></trkpt><trkpt lat="42.86383795411484" lon="-8.794084143967822"><ele>171.0</ele><time>2026-04-16T15:59:43.998Z</time></trkpt><trkpt lat="42.86391011477634" lon="-8.794111710683056"><ele>168.0</ele><time>2026-04-16T15:59:44.998Z</time></trkpt><trkpt lat="42.8639916893459" lon="-8.794128896368598"><ele>168.0</ele><time>2026-04-16T15:59:45.998Z</time></trkpt><trkpt lat="42.86407451132543" lon="-8.794145242744287"><ele>168.0</ele><time>2026-04-16T15:59:46.998Z</time></trkpt><trkpt lat="42.86415518268483" lon="-8.794160163095368"><ele>168.0</ele><time>2026-04-16T15:59:47.998Z</time></trkpt><trkpt lat="42.86423204927606" lon="-8.794168433491015"><ele>168.0</ele><time>2026-04-16T15:59:48.998Z</time></trkpt><trkpt lat="42.86430546643085" lon="-8.794169049651023"><ele>168.0</ele><time>2026-04-16T15:59:49.998Z</time></trkpt><trkpt lat="42.864376656204556" lon="-8.79416572255705"><ele>168.0</ele><time>2026-04-16T15:59:50.998Z</time></trkpt><trkpt lat="42.8644476887983" lon="-8.794162456492774"><ele>165.0</ele><time>2026-04-16T15:59:51.998Z</time></trkpt><trkpt lat="42.86452008825871" lon="-8.794160256139833"><ele>162.0</ele><time>2026-04-16T15:59:52.998Z</time></trkpt><trkpt lat="42.864589486016236" lon="-8.794161516582067"><ele>159.0</ele><time>2026-04-16T15:59:53.998Z</time></trkpt><trkpt lat="42.864657255015885" lon="-8.794164486160147"><ele>156.0</ele><time>2026-04-16T15:59:54.998Z</time></trkpt><trkpt lat="42.86476451696905" lon="-8.794169928407536"><ele>153.0</ele><time>2026-04-16T15:59:56.998Z</time></trkpt><trkpt lat="42.86485753069246" lon="-8.794159229180163"><ele>150.0</ele><time>2026-04-16T15:59:58.998Z</time></trkpt><trkpt lat="42.86492229815035" lon="-8.79415358126731"><ele>150.0</ele><time>2026-04-16T16:00:00.998Z</time></trkpt><trkpt lat="42.86497459775747" lon="-8.794219722246861"><ele>150.0</ele><time>2026-04-16T16:00:04.998Z</time></trkpt><trkpt lat="42.865007002498864" lon="-8.7943460175423"><ele>150.0</ele><time>2026-04-16T16:00:07.998Z</time></trkpt><trkpt lat="42.86498896779094" lon="-8.794452006752149"><ele>150.0</ele><time>2026-04-16T16:00:08.998Z</time></trkpt><trkpt lat="42.86496866826396" lon="-8.794554191674958"><ele>150.0</ele><time>2026-04-16T16:00:09.998Z</time></trkpt><trkpt lat="42.864937745770185" lon="-8.794643929928405"><ele>150.0</ele><time>2026-04-16T16:00:10.998Z</time></trkpt><trkpt lat="42.86491149097743" lon="-8.794731996583716"><ele>150.16666666666666</ele><time>2026-04-16T16:00:11.998Z</time></trkpt><trkpt lat="42.8648792951375" lon="-8.794829029721944"><ele>150.33333333333334</ele><time>2026-04-16T16:00:12.998Z</time></trkpt><trkpt lat="42.8648507810392" lon="-8.794941771558358"><ele>150.5</ele><time>2026-04-16T16:00:13.998Z</time></trkpt><trkpt lat="42.864819423347036" lon="-8.795055135982766"><ele>150.66666666666669</ele><time>2026-04-16T16:00:15Z</time></trkpt><trkpt lat="42.8647934706387" lon="-8.79515770029165"><ele>150.83333333333334</ele><time>2026-04-16T16:00:16Z</time></trkpt><trkpt lat="42.86476790973648" lon="-8.795270530950654"><ele>151.0</ele><time>2026-04-16T16:00:17Z</time></trkpt><trkpt lat="42.86474663374169" lon="-8.795369382479581"><ele>149.85714285714286</ele><time>2026-04-16T16:00:18Z</time></trkpt><trkpt lat="42.864728140304514" lon="-8.795468024291942"><ele>148.71428571428572</ele><time>2026-04-16T16:00:19Z</time></trkpt><trkpt lat="42.86472058995097" lon="-8.795567756458171"><ele>147.57142857142856</ele><time>2026-04-16T16:00:20Z</time></trkpt><trkpt lat="42.864717966059615" lon="-8.795666441537927"><ele>146.42857142857144</ele><time>2026-04-16T16:00:21Z</time></trkpt><trkpt lat="42.86472446454957" lon="-8.79576596537975"><ele>145.28571428571428</ele><time>2026-04-16T16:00:22Z</time></trkpt><trkpt lat="42.86473821856918" lon="-8.795863990012288"><ele>144.14285714285714</ele><time>2026-04-16T16:00:23Z</time></trkpt><trkpt lat="42.864742495914875" lon="-8.795960846059248"><ele>143.0</ele><time>2026-04-16T16:00:24Z</time></trkpt><trkpt lat="42.86473547530902" lon="-8.796059164009764"><ele>141.83333333333331</ele><time>2026-04-16T16:00:25Z</time></trkpt><trkpt lat="42.864742443617885" lon="-8.796154456022965"><ele>140.66666666666666</ele><time>2026-04-16T16:00:26Z</time></trkpt><trkpt lat="42.864721519830205" lon="-8.79624546276558"><ele>139.5</ele><time>2026-04-16T16:00:27Z</time></trkpt><trkpt lat="42.86468894537463" lon="-8.796328487938386"><ele>138.33333333333334</ele><time>2026-04-16T16:00:28Z</time></trkpt><trkpt lat="42.864614476587775" lon="-8.796447948664829"><ele>137.16666666666669</ele><time>2026-04-16T16:00:30Z</time></trkpt><trkpt lat="42.864559975683825" lon="-8.796536779547425"><ele>136.0</ele><time>2026-04-16T16:00:32Z</time></trkpt><trkpt lat="42.86466697009453" lon="-8.796733338211487"><ele>136.0</ele><time>2026-04-16T16:01:53.998Z</time></trkpt><trkpt lat="42.864620280549936" lon="-8.796675483424316"><ele>136.0</ele><time>2026-04-16T16:02:39.999Z</time></trkpt><trkpt lat="42.86457081051813" lon="-8.79661470952126"><ele>136.0</ele><time>2026-04-16T16:02:44.999Z</time></trkpt><trkpt lat="42.86465922209182" lon="-8.79671570157321"><ele>136.0</ele><time>2026-04-16T16:03:14.999Z</time></trkpt><trkpt lat="42.86472306055287" lon="-8.796790474613005"><ele>136.0</ele><time>2026-04-16T16:03:15.999Z</time></trkpt><trkpt lat="42.864785606243" lon="-8.796863043172232"><ele>136.0</ele><time>2026-04-16T16:03:16.999Z</time></trkpt><trkpt lat="42.86484961468035" lon="-8.796933096140297"><ele>138.4</ele><time>2026-04-16T16:03:17.999Z</time></trkpt><trkpt lat="42.86491064482932" lon="-8.797001444498425"><ele>140.8</ele><time>2026-04-16T16:03:18.999Z</time></trkpt><trkpt lat="42.8649628579636" lon="-8.797058598715576"><ele>143.20000000000002</ele><time>2026-04-16T16:03:19.999Z</time></trkpt><trkpt lat="42.86504981384222" lon="-8.797155836202103"><ele>145.6</ele><time>2026-04-16T16:03:21.999Z</time></trkpt><trkpt lat="42.86512346726202" lon="-8.797240911557967"><ele>148.0</ele><time>2026-04-16T16:03:23.999Z</time></trkpt><trkpt lat="42.865197225870084" lon="-8.797324219703063"><ele>148.0</ele><time>2026-04-16T16:03:25.999Z</time></trkpt><trkpt lat="42.86525993144555" lon="-8.79740377342919"><ele>148.0</ele><time>2026-04-16T16:03:27.998Z</time></trkpt><trkpt lat="42.86533574991038" lon="-8.797483580504398"><ele>148.0</ele><time>2026-04-16T16:03:29.998Z</time></trkpt><trkpt lat="42.86541590107784" lon="-8.797570699479067"><ele>148.0</ele><time>2026-04-16T16:03:31.998Z</time></trkpt><trkpt lat="42.865491386012515" lon="-8.797662015053076"><ele>148.0</ele><time>2026-04-16T16:03:33.998Z</time></trkpt><trkpt lat="42.86555587447751" lon="-8.797600387919445"><ele>148.0</ele><time>2026-04-16T16:03:36.998Z</time></trkpt><trkpt lat="42.86561603044993" lon="-8.797507728232983"><ele>148.0</ele><time>2026-04-16T16:03:38.998Z</time></trkpt><trkpt lat="42.865673668306755" lon="-8.797446095426583"><ele>148.0</ele><time>2026-04-16T16:03:39.998Z</time></trkpt><trkpt lat="42.865724327229515" lon="-8.797363303051618"><ele>148.0</ele><time>2026-04-16T16:03:40.998Z</time></trkpt><trkpt lat="42.86577981623033" lon="-8.797271731570673"><ele>148.0</ele><time>2026-04-16T16:03:41.998Z</time></trkpt><trkpt lat="42.865829775485196" lon="-8.797187046027528"><ele>148.0</ele><time>2026-04-16T16:03:42.998Z</time></trkpt><trkpt lat="42.86587130609264" lon="-8.797112846806247"><ele>148.0</ele><time>2026-04-16T16:03:43.998Z</time></trkpt><trkpt lat="42.865916576462574" lon="-8.797032989536651"><ele>148.0</ele><time>2026-04-16T16:03:44.998Z</time></trkpt><trkpt lat="42.86596092338513" lon="-8.79694975075388"><ele>148.0</ele><time>2026-04-16T16:03:45.998Z</time></trkpt><trkpt lat="42.86600439360126" lon="-8.796868450506015"><ele>148.0</ele><time>2026-04-16T16:03:46.998Z</time></trkpt><trkpt lat="42.866040907108484" lon="-8.796791090752253"><ele>148.0</ele><time>2026-04-16T16:03:47.998Z</time></trkpt><trkpt lat="42.8661041871593" lon="-8.796661174703887"><ele>148.0</ele><time>2026-04-16T16:03:49.998Z</time></trkpt><trkpt lat="42.86615761713252" lon="-8.796510297854335"><ele>149.4</ele><time>2026-04-16T16:03:51.998Z</time></trkpt><trkpt lat="42.86619875185294" lon="-8.796424253438726"><ele>150.8</ele><time>2026-04-16T16:03:52.998Z</time></trkpt><trkpt lat="42.86624580270782" lon="-8.7963258337387"><ele>152.2</ele><time>2026-04-16T16:03:53.998Z</time></trkpt><trkpt lat="42.866315038769564" lon="-8.796219300287285"><ele>153.6</ele><time>2026-04-16T16:03:54.998Z</time></trkpt><trkpt lat="42.86637564519774" lon="-8.796082716306762"><ele>155.0</ele><time>2026-04-16T16:03:55.998Z</time></trkpt><trkpt lat="42.866440899687795" lon="-8.79595392763822"><ele>155.0</ele><time>2026-04-16T16:03:56.998Z</time></trkpt><trkpt lat="42.86651146836112" lon="-8.79584567382684"><ele>155.0</ele><time>2026-04-16T16:03:57.998Z</time></trkpt><trkpt lat="42.86657975282141" lon="-8.795743211111242"><ele>155.0</ele><time>2026-04-16T16:03:58.998Z</time></trkpt><trkpt lat="42.866647078164505" lon="-8.79563274513232"><ele>155.0</ele><time>2026-04-16T16:03:59.998Z</time></trkpt><trkpt lat="42.86670259770698" lon="-8.795508202643296"><ele>155.0</ele><time>2026-04-16T16:04:00.998Z</time></trkpt><trkpt lat="42.86673930971857" lon="-8.795368459439892"><ele>155.0</ele><time>2026-04-16T16:04:01.998Z</time></trkpt><trkpt lat="42.86675998212586" lon="-8.795217868963777"><ele>155.0</ele><time>2026-04-16T16:04:02.998Z</time></trkpt><trkpt lat="42.8667642513425" lon="-8.795051865614601"><ele>155.0</ele><time>2026-04-16T16:04:03.998Z</time></trkpt><trkpt lat="42.86676881234098" lon="-8.79491077368764"><ele>155.0</ele><time>2026-04-16T16:04:04.998Z</time></trkpt><trkpt lat="42.86678070619032" lon="-8.794783928506408"><ele>155.0</ele><time>2026-04-16T16:04:05.998Z</time></trkpt><trkpt lat="42.866788869041606" lon="-8.794662101531799"><ele>156.83333333333331</ele><time>2026-04-16T16:04:06.998Z</time></trkpt><trkpt lat="42.8667960563238" lon="-8.794545370256262"><ele>158.66666666666666</ele><time>2026-04-16T16:04:07.998Z</time></trkpt><trkpt lat="42.86681619758506" lon="-8.794435316329174"><ele>160.5</ele><time>2026-04-16T16:04:08.998Z</time></trkpt><trkpt lat="42.86684840185789" lon="-8.794334192164348"><ele>162.33333333333334</ele><time>2026-04-16T16:04:09.998Z</time></trkpt><trkpt lat="42.86689406643604" lon="-8.794243562038336"><ele>164.16666666666669</ele><time>2026-04-16T16:04:10.998Z</time></trkpt><trkpt lat="42.86695432049762" lon="-8.794158005514515"><ele>166.0</ele><time>2026-04-16T16:04:11.998Z</time></trkpt><trkpt lat="42.86703008424824" lon="-8.794075695374687"><ele>166.0</ele><time>2026-04-16T16:04:12.998Z</time></trkpt><trkpt lat="42.8671210699567" lon="-8.79398520380877"><ele>166.0</ele><time>2026-04-16T16:04:13.998Z</time></trkpt><trkpt lat="42.86722248118256" lon="-8.793880761539079"><ele>166.0</ele><time>2026-04-16T16:04:14.998Z</time></trkpt><trkpt lat="42.86733652068119" lon="-8.79376942518155"><ele>166.0</ele><time>2026-04-16T16:04:15.998Z</time></trkpt><trkpt lat="42.86745838041618" lon="-8.793668064465539"><ele>166.0</ele><time>2026-04-16T16:04:16.998Z</time></trkpt><trkpt lat="42.8675954587088" lon="-8.793570484826922"><ele>166.0</ele><time>2026-04-16T16:04:17.998Z</time></trkpt><trkpt lat="42.867744374405326" lon="-8.793466772455105"><ele>166.0</ele><time>2026-04-16T16:04:18.998Z</time></trkpt><trkpt lat="42.86790038232397" lon="-8.793359157664248"><ele>163.0</ele><time>2026-04-16T16:04:19.998Z</time></trkpt><trkpt lat="42.868052050207126" lon="-8.793261169708137"><ele>160.0</ele><time>2026-04-16T16:04:20.998Z</time></trkpt><trkpt lat="42.86819140481147" lon="-8.793171241869818"><ele>157.0</ele><time>2026-04-16T16:04:21.998Z</time></trkpt><trkpt lat="42.86832187293604" lon="-8.793088317502988"><ele>159.25</ele><time>2026-04-16T16:04:22.998Z</time></trkpt><trkpt lat="42.86844455841735" lon="-8.793014614694892"><ele>161.5</ele><time>2026-04-16T16:04:23.998Z</time></trkpt><trkpt lat="42.868577981832566" lon="-8.792957724136429"><ele>163.75</ele><time>2026-04-16T16:04:24.999Z</time></trkpt><trkpt lat="42.86872662699031" lon="-8.792923172622158"><ele>166.0</ele><time>2026-04-16T16:04:25.999Z</time></trkpt><trkpt lat="42.86888495627522" lon="-8.792885135414362"><ele>166.0</ele><time>2026-04-16T16:04:26.999Z</time></trkpt><trkpt lat="42.8690489333025" lon="-8.792845224996652"><ele>166.0</ele><time>2026-04-16T16:04:27.999Z</time></trkpt><trkpt lat="42.869200293035405" lon="-8.792806198192315"><ele>166.0</ele><time>2026-04-16T16:04:28.999Z</time></trkpt><trkpt lat="42.869339207739124" lon="-8.792763582656201"><ele>167.0</ele><time>2026-04-16T16:04:29.999Z</time></trkpt><trkpt lat="42.86945997676002" lon="-8.792727982743795"><ele>168.0</ele><time>2026-04-16T16:04:30.999Z</time></trkpt><trkpt lat="42.869567778589214" lon="-8.792702904038709"><ele>169.0</ele><time>2026-04-16T16:04:31.999Z</time></trkpt><trkpt lat="42.86967025143308" lon="-8.792687266440899"><ele>170.0</ele><time>2026-04-16T16:04:32.999Z</time></trkpt><trkpt lat="42.86977091983362" lon="-8.792709083597437"><ele>171.0</ele><time>2026-04-16T16:04:33.999Z</time></trkpt><trkpt lat="42.86987491677069" lon="-8.792757250366904"><ele>171.0</ele><time>2026-04-16T16:04:34.999Z</time></trkpt><trkpt lat="42.869981998006146" lon="-8.792834402996418"><ele>171.0</ele><time>2026-04-16T16:04:35.999Z</time></trkpt><trkpt lat="42.87007541645485" lon="-8.79290513458745"><ele>171.0</ele><time>2026-04-16T16:04:36.999Z</time></trkpt><trkpt lat="42.87016206990936" lon="-8.79297862500094"><ele>171.0</ele><time>2026-04-16T16:04:37.999Z</time></trkpt><trkpt lat="42.870243699274745" lon="-8.793050107959463"><ele>171.0</ele><time>2026-04-16T16:04:38.999Z</time></trkpt><trkpt lat="42.870321679751754" lon="-8.793111485377896"><ele>170.0</ele><time>2026-04-16T16:04:39.999Z</time></trkpt><trkpt lat="42.87039351901908" lon="-8.793172462272606"><ele>169.0</ele><time>2026-04-16T16:04:40.999Z</time></trkpt><trkpt lat="42.870464359019415" lon="-8.79320576670492"><ele>168.0</ele><time>2026-04-16T16:04:41.999Z</time></trkpt><trkpt lat="42.87053370439766" lon="-8.79324541783189"><ele>167.0</ele><time>2026-04-16T16:04:42.999Z</time></trkpt><trkpt lat="42.870609024902855" lon="-8.793274746792292"><ele>166.0</ele><time>2026-04-16T16:04:43.999Z</time></trkpt><trkpt lat="42.870681753834646" lon="-8.793294545546441"><ele>165.0</ele><time>2026-04-16T16:04:44.999Z</time></trkpt><trkpt lat="42.870746078198536" lon="-8.79328252496107"><ele>165.0</ele><time>2026-04-16T16:04:45.999Z</time></trkpt><trkpt lat="42.87080448394476" lon="-8.793175291752977"><ele>165.0</ele><time>2026-04-16T16:04:47.999Z</time></trkpt><trkpt lat="42.870791338209465" lon="-8.793062525385594"><ele>165.0</ele><time>2026-04-16T16:04:48.999Z</time></trkpt><trkpt lat="42.87076154201104" lon="-8.792926642788798"><ele>165.0</ele><time>2026-04-16T16:04:49.999Z</time></trkpt><trkpt lat="42.87073277015781" lon="-8.792755277749794"><ele>165.0</ele><time>2026-04-16T16:04:51.999Z</time></trkpt><trkpt lat="42.870702952142835" lon="-8.79262811461815"><ele>163.83333333333334</ele><time>2026-04-16T16:04:52.999Z</time></trkpt><trkpt lat="42.87069444822765" lon="-8.7925156685437"><ele>162.66666666666666</ele><time>2026-04-16T16:04:53.999Z</time></trkpt><trkpt lat="42.8706935042701" lon="-8.792414016499345"><ele>161.5</ele><time>2026-04-16T16:04:54.999Z</time></trkpt><trkpt lat="42.870712948252304" lon="-8.792304029855892"><ele>160.33333333333331</ele><time>2026-04-16T16:04:55.999Z</time></trkpt><trkpt lat="42.87072411290769" lon="-8.792184823235122"><ele>159.16666666666666</ele><time>2026-04-16T16:04:56.999Z</time></trkpt><trkpt lat="42.87075304142413" lon="-8.792064311189195"><ele>158.0</ele><time>2026-04-16T16:04:57.999Z</time></trkpt><trkpt lat="42.87078400978422" lon="-8.791942012576378"><ele>157.8</ele><time>2026-04-16T16:04:58.999Z</time></trkpt><trkpt lat="42.870813937013914" lon="-8.79181464853272"><ele>157.60000000000002</ele><time>2026-04-16T16:04:59.999Z</time></trkpt><trkpt lat="42.870835734478966" lon="-8.791684219923907"><ele>157.39999999999998</ele><time>2026-04-16T16:05:00.999Z</time></trkpt><trkpt lat="42.87085187972401" lon="-8.791547886472891"><ele>157.2</ele><time>2026-04-16T16:05:01.999Z</time></trkpt><trkpt lat="42.870874872497005" lon="-8.791410832685818"><ele>157.0</ele><time>2026-04-16T16:05:02.999Z</time></trkpt><trkpt lat="42.87087265201056" lon="-8.791263152305133"><ele>157.0</ele><time>2026-04-16T16:05:03.999Z</time></trkpt><trkpt lat="42.87088147418932" lon="-8.791123327107265"><ele>157.0</ele><time>2026-04-16T16:05:04.999Z</time></trkpt><trkpt lat="42.87090140642107" lon="-8.790972984515694"><ele>157.0</ele><time>2026-04-16T16:05:05.999Z</time></trkpt><trkpt lat="42.870903702709185" lon="-8.79082453244342"><ele>157.0</ele><time>2026-04-16T16:05:06.999Z</time></trkpt><trkpt lat="42.87091809535363" lon="-8.790678421015008"><ele>157.0</ele><time>2026-04-16T16:05:07.999Z</time></trkpt><trkpt lat="42.87094070154812" lon="-8.79053599316142"><ele>159.33333333333334</ele><time>2026-04-16T16:05:08.999Z</time></trkpt><trkpt lat="42.87096078574922" lon="-8.790400594357338"><ele>161.66666666666669</ele><time>2026-04-16T16:05:09.999Z</time></trkpt><trkpt lat="42.870982441961395" lon="-8.790278680405157"><ele>164.0</ele><time>2026-04-16T16:05:10.999Z</time></trkpt><trkpt lat="42.87101461628748" lon="-8.790168142503969"><ele>166.33333333333334</ele><time>2026-04-16T16:05:11.999Z</time></trkpt><trkpt lat="42.87107069924297" lon="-8.790081996829882"><ele>168.66666666666666</ele><time>2026-04-16T16:05:12.999Z</time></trkpt><trkpt lat="42.871145419120346" lon="-8.790027690198965"><ele>171.0</ele><time>2026-04-16T16:05:13.999Z</time></trkpt><trkpt lat="42.87123434252669" lon="-8.789983712330429"><ele>171.8</ele><time>2026-04-16T16:05:14.999Z</time></trkpt><trkpt lat="42.871332370818465" lon="-8.789988216051567"><ele>172.60000000000002</ele><time>2026-04-16T16:05:15.999Z</time></trkpt><trkpt lat="42.871427458042334" lon="-8.790002838243081"><ele>173.4</ele><time>2026-04-16T16:05:16.999Z</time></trkpt><trkpt lat="42.87151810188916" lon="-8.789990771227664"><ele>174.2</ele><time>2026-04-16T16:05:17.999Z</time></trkpt><trkpt lat="42.871606566304" lon="-8.789960640577734"><ele>175.0</ele><time>2026-04-16T16:05:18.999Z</time></trkpt><trkpt lat="42.87169888681759" lon="-8.789912748055228"><ele>177.0</ele><time>2026-04-16T16:05:19.999Z</time></trkpt><trkpt lat="42.87178648440013" lon="-8.789855688602414"><ele>179.0</ele><time>2026-04-16T16:05:20.999Z</time></trkpt><trkpt lat="42.87188625362869" lon="-8.789789397949887"><ele>181.0</ele><time>2026-04-16T16:05:21.999Z</time></trkpt><trkpt lat="42.87198131685093" lon="-8.78970331671491"><ele>183.0</ele><time>2026-04-16T16:05:22.999Z</time></trkpt><trkpt lat="42.872085719867655" lon="-8.78963024833982"><ele>185.0</ele><time>2026-04-16T16:05:23.999Z</time></trkpt><trkpt lat="42.872190427845496" lon="-8.789556966751842"><ele>185.0</ele><time>2026-04-16T16:05:24.999Z</time></trkpt><trkpt lat="42.87229334712564" lon="-8.789484508508977"><ele>185.0</ele><time>2026-04-16T16:05:25.999Z</time></trkpt><trkpt lat="42.87240035354902" lon="-8.789408131413358"><ele>185.0</ele><time>2026-04-16T16:05:26.999Z</time></trkpt><trkpt lat="42.87250791931874" lon="-8.789331355142712"><ele>185.0</ele><time>2026-04-16T16:05:27.999Z</time></trkpt><trkpt lat="42.87262095602962" lon="-8.789270213314124"><ele>186.0</ele><time>2026-04-16T16:05:28.999Z</time></trkpt><trkpt lat="42.872722931191184" lon="-8.789193494781879"><ele>187.0</ele><time>2026-04-16T16:05:29.999Z</time></trkpt><trkpt lat="42.87282630070464" lon="-8.789132363789557"><ele>188.0</ele><time>2026-04-16T16:05:30.999Z</time></trkpt><trkpt lat="42.872928319831715" lon="-8.78907536112222"><ele>189.0</ele><time>2026-04-16T16:05:31.999Z</time></trkpt><trkpt lat="42.87303060039676" lon="-8.789021046937362"><ele>190.0</ele><time>2026-04-16T16:05:32.999Z</time></trkpt><trkpt lat="42.87313273470223" lon="-8.78896745479932"><ele>190.0</ele><time>2026-04-16T16:05:33.999Z</time></trkpt><trkpt lat="42.873233761476165" lon="-8.78890720114475"><ele>190.0</ele><time>2026-04-16T16:05:34.998Z</time></trkpt><trkpt lat="42.87331695570254" lon="-8.788857726809878"><ele>190.0</ele><time>2026-04-16T16:05:35.998Z</time></trkpt><trkpt lat="42.87338742924269" lon="-8.788823183151964"><ele>190.0</ele><time>2026-04-16T16:05:36.998Z</time></trkpt><trkpt lat="42.87349911656475" lon="-8.78880236225092"><ele>190.0</ele><time>2026-04-16T16:05:38.998Z</time></trkpt><trkpt lat="42.87359116445911" lon="-8.78889393794763"><ele>191.0</ele><time>2026-04-16T16:05:40.998Z</time></trkpt><trkpt lat="42.87360591619362" lon="-8.788992938144267"><ele>192.0</ele><time>2026-04-16T16:05:41.998Z</time></trkpt><trkpt lat="42.87359802715175" lon="-8.789113354497157"><ele>193.0</ele><time>2026-04-16T16:05:42.998Z</time></trkpt><trkpt lat="42.873608503548944" lon="-8.789261127377042"><ele>194.0</ele><time>2026-04-16T16:05:43.998Z</time></trkpt><trkpt lat="42.87360107920307" lon="-8.7894287807505"><ele>195.0</ele><time>2026-04-16T16:05:44.998Z</time></trkpt><trkpt lat="42.87359322629683" lon="-8.789596974193605"><ele>196.0</ele><time>2026-04-16T16:05:45.998Z</time></trkpt><trkpt lat="42.87359261576421" lon="-8.789761271104718"><ele>197.0</ele><time>2026-04-16T16:05:46.998Z</time></trkpt><trkpt lat="42.87361669708374" lon="-8.789919857450705"><ele>198.0</ele><time>2026-04-16T16:05:47.998Z</time></trkpt><trkpt lat="42.87361213370548" lon="-8.790094370554021"><ele>199.0</ele><time>2026-04-16T16:05:48.998Z</time></trkpt><trkpt lat="42.87362919636645" lon="-8.790261902518827"><ele>200.39999999999998</ele><time>2026-04-16T16:05:49.998Z</time></trkpt><trkpt lat="42.87364131464561" lon="-8.790411023527094"><ele>201.8</ele><time>2026-04-16T16:05:50.998Z</time></trkpt><trkpt lat="42.87365204025293" lon="-8.790543037737326"><ele>203.2</ele><time>2026-04-16T16:05:51.998Z</time></trkpt><trkpt lat="42.87367892432413" lon="-8.790657880942613"><ele>204.60000000000002</ele><time>2026-04-16T16:05:52.998Z</time></trkpt><trkpt lat="42.873726246327216" lon="-8.790766145717882"><ele>206.0</ele><time>2026-04-16T16:05:53.998Z</time></trkpt><trkpt lat="42.873794678177504" lon="-8.790859142364448"><ele>206.0</ele><time>2026-04-16T16:05:54.998Z</time></trkpt><trkpt lat="42.87388271580997" lon="-8.790922076184753"><ele>206.0</ele><time>2026-04-16T16:05:55.998Z</time></trkpt><trkpt lat="42.87398310686787" lon="-8.790953509227768"><ele>206.0</ele><time>2026-04-16T16:05:56.998Z</time></trkpt><trkpt lat="42.874088244544595" lon="-8.790953371286655"><ele>206.0</ele><time>2026-04-16T16:05:57.998Z</time></trkpt><trkpt lat="42.8741981300436" lon="-8.79093273992725"><ele>206.0</ele><time>2026-04-16T16:05:58.998Z</time></trkpt><trkpt lat="42.87432271153334" lon="-8.790894409211148"><ele>207.8</ele><time>2026-04-16T16:05:59.998Z</time></trkpt><trkpt lat="42.87445174646857" lon="-8.790851068113225"><ele>209.60000000000002</ele><time>2026-04-16T16:06:00.998Z</time></trkpt><trkpt lat="42.87455871958564" lon="-8.790805550617122"><ele>211.4</ele><time>2026-04-16T16:06:01.998Z</time></trkpt><trkpt lat="42.87465685797391" lon="-8.790763877961538"><ele>213.2</ele><time>2026-04-16T16:06:02.998Z</time></trkpt><trkpt lat="42.874745727296805" lon="-8.79072312730645"><ele>215.0</ele><time>2026-04-16T16:06:03.998Z</time></trkpt><trkpt lat="42.874829044626495" lon="-8.790683722225788"><ele>215.00000000000003</ele><time>2026-04-16T16:06:04.998Z</time></trkpt><trkpt lat="42.87490661223612" lon="-8.790648048104634"><ele>215.0</ele><time>2026-04-16T16:06:05.998Z</time></trkpt><trkpt lat="42.874962438088296" lon="-8.790594650402507"><ele>215.0</ele><time>2026-04-16T16:06:06.998Z</time></trkpt><trkpt lat="42.87505257309911" lon="-8.79056288431447"><ele>215.0</ele><time>2026-04-16T16:06:08.998Z</time></trkpt><trkpt lat="42.875120069996925" lon="-8.7905191921021"><ele>215.00000000000003</ele><time>2026-04-16T16:06:10.998Z</time></trkpt><trkpt lat="42.87520245596859" lon="-8.79045464724845"><ele>215.0</ele><time>2026-04-16T16:06:12.998Z</time></trkpt><trkpt lat="42.875286203442975" lon="-8.790484288623484"><ele>216.4</ele><time>2026-04-16T16:06:13.998Z</time></trkpt><trkpt lat="42.87537187427358" lon="-8.79048571582716"><ele>217.8</ele><time>2026-04-16T16:06:14.998Z</time></trkpt><trkpt lat="42.8754631108667" lon="-8.790478164332164"><ele>219.2</ele><time>2026-04-16T16:06:15.998Z</time></trkpt><trkpt lat="42.87555564161716" lon="-8.790474310009907"><ele>220.6</ele><time>2026-04-16T16:06:16.998Z</time></trkpt><trkpt lat="42.87566055687229" lon="-8.790464853178053"><ele>222.0</ele><time>2026-04-16T16:06:17.998Z</time></trkpt><trkpt lat="42.875776594436736" lon="-8.790456142063663"><ele>222.0</ele><time>2026-04-16T16:06:18.998Z</time></trkpt><trkpt lat="42.87588638759536" lon="-8.79044958018164"><ele>222.0</ele><time>2026-04-16T16:06:19.998Z</time></trkpt><trkpt lat="42.875972665747014" lon="-8.790450729382885"><ele>222.0</ele><time>2026-04-16T16:06:20.998Z</time></trkpt><trkpt lat="42.87604184840928" lon="-8.79044808545108"><ele>222.0</ele><time>2026-04-16T16:06:21.998Z</time></trkpt><trkpt lat="42.87612723615851" lon="-8.790451962493805"><ele>222.0</ele><time>2026-04-16T16:06:23.998Z</time></trkpt><trkpt lat="42.87621430154796" lon="-8.790447269922815"><ele>222.0</ele><time>2026-04-16T16:06:26.998Z</time></trkpt><trkpt lat="42.876307706665656" lon="-8.790429340829789"><ele>223.2</ele><time>2026-04-16T16:06:28.998Z</time></trkpt><trkpt lat="42.8763796746252" lon="-8.790411952963698"><ele>224.39999999999998</ele><time>2026-04-16T16:06:29.998Z</time></trkpt><trkpt lat="42.876467668946624" lon="-8.79036835040829"><ele>225.60000000000002</ele><time>2026-04-16T16:06:30.999Z</time></trkpt><trkpt lat="42.87656284955634" lon="-8.79031503412321"><ele>226.8</ele><time>2026-04-16T16:06:31.999Z</time></trkpt><trkpt lat="42.876669822019906" lon="-8.790255138335235"><ele>228.0</ele><time>2026-04-16T16:06:32.999Z</time></trkpt><trkpt lat="42.876787381941206" lon="-8.790193873317598"><ele>224.75</ele><time>2026-04-16T16:06:33.999Z</time></trkpt><trkpt lat="42.87691080815803" lon="-8.79013321470482"><ele>221.5</ele><time>2026-04-16T16:06:34.999Z</time></trkpt><trkpt lat="42.877038258238095" lon="-8.790067857253531"><ele>218.25</ele><time>2026-04-16T16:06:35.999Z</time></trkpt><trkpt lat="42.87715946961538" lon="-8.789997861316754"><ele>215.0</ele><time>2026-04-16T16:06:36.999Z</time></trkpt><trkpt lat="42.87727846830075" lon="-8.789907383865472"><ele>215.0</ele><time>2026-04-16T16:06:37.999Z</time></trkpt><trkpt lat="42.87739829213156" lon="-8.78980421341219"><ele>215.0</ele><time>2026-04-16T16:06:38.999Z</time></trkpt><trkpt lat="42.877520244489666" lon="-8.789712180664194"><ele>215.0</ele><time>2026-04-16T16:06:39.999Z</time></trkpt><trkpt lat="42.877651861373444" lon="-8.789639658221784"><ele>215.0</ele><time>2026-04-16T16:06:40.999Z</time></trkpt><trkpt lat="42.877794381854024" lon="-8.789589500569479"><ele>218.0</ele><time>2026-04-16T16:06:41.999Z</time></trkpt><trkpt lat="42.87793867318757" lon="-8.789542911900863"><ele>221.0</ele><time>2026-04-16T16:06:42.999Z</time></trkpt><trkpt lat="42.87809229944705" lon="-8.789500793249035"><ele>224.0</ele><time>2026-04-16T16:06:43.999Z</time></trkpt><trkpt lat="42.87824259209344" lon="-8.789464967280615"><ele>224.0</ele><time>2026-04-16T16:06:44.999Z</time></trkpt><trkpt lat="42.87840490561675" lon="-8.789415071740114"><ele>224.0</ele><time>2026-04-16T16:06:45.999Z</time></trkpt><trkpt lat="42.87855705930366" lon="-8.789363326233007"><ele>224.0</ele><time>2026-04-16T16:06:46.999Z</time></trkpt><trkpt lat="42.87868744983112" lon="-8.789314195246082"><ele>221.5</ele><time>2026-04-16T16:06:47.999Z</time></trkpt><trkpt lat="42.878821811648294" lon="-8.789267901897837"><ele>219.0</ele><time>2026-04-16T16:06:48.999Z</time></trkpt><trkpt lat="42.8789604065652" lon="-8.789222135000244"><ele>216.5</ele><time>2026-04-16T16:06:49.999Z</time></trkpt><trkpt lat="42.87910895885449" lon="-8.789162340592023"><ele>214.0</ele><time>2026-04-16T16:06:50.999Z</time></trkpt><trkpt lat="42.87924344277109" lon="-8.789099772200176"><ele>215.39999999999998</ele><time>2026-04-16T16:06:51.999Z</time></trkpt><trkpt lat="42.879352649156345" lon="-8.789039124292582"><ele>216.79999999999998</ele><time>2026-04-16T16:06:52.999Z</time></trkpt><trkpt lat="42.87944073705655" lon="-8.788983619533338"><ele>218.20000000000002</ele><time>2026-04-16T16:06:53.999Z</time></trkpt><trkpt lat="42.87950797011474" lon="-8.788938525503866"><ele>219.60000000000002</ele><time>2026-04-16T16:06:54.999Z</time></trkpt><trkpt lat="42.8796013912391" lon="-8.788878838755478"><ele>221.0</ele><time>2026-04-16T16:06:56.999Z</time></trkpt><trkpt lat="42.87958854892442" lon="-8.789050282323638"><ele>221.0</ele><time>2026-04-16T16:07:06.999Z</time></trkpt><trkpt lat="42.87950743736485" lon="-8.789136461325695"><ele>221.0</ele><time>2026-04-16T16:07:07.999Z</time></trkpt><trkpt lat="42.87941202637876" lon="-8.789218926158592"><ele>221.0</ele><time>2026-04-16T16:07:08.999Z</time></trkpt><trkpt lat="42.879310305866305" lon="-8.789298283493267"><ele>221.0</ele><time>2026-04-16T16:07:09.999Z</time></trkpt><trkpt lat="42.879190139276176" lon="-8.789398270154905"><ele>224.66666666666669</ele><time>2026-04-16T16:07:10.999Z</time></trkpt><trkpt lat="42.87906209483641" lon="-8.789504417908166"><ele>228.33333333333331</ele><time>2026-04-16T16:07:11.999Z</time></trkpt><trkpt lat="42.87893621258652" lon="-8.789607058850855"><ele>232.0</ele><time>2026-04-16T16:07:12.999Z</time></trkpt><trkpt lat="42.87880031825962" lon="-8.789719944221464"><ele>232.0</ele><time>2026-04-16T16:07:13.999Z</time></trkpt><trkpt lat="42.87865173296989" lon="-8.789844482518118"><ele>232.0</ele><time>2026-04-16T16:07:14.999Z</time></trkpt><trkpt lat="42.878503561631184" lon="-8.789962467386628"><ele>232.0</ele><time>2026-04-16T16:07:15.999Z</time></trkpt><trkpt lat="42.878361026079226" lon="-8.790074498928599"><ele>234.33333333333331</ele><time>2026-04-16T16:07:16.999Z</time></trkpt><trkpt lat="42.87821572707268" lon="-8.790188167017012"><ele>236.66666666666669</ele><time>2026-04-16T16:07:17.999Z</time></trkpt><trkpt lat="42.87805712906223" lon="-8.790298255507137"><ele>239.0</ele><time>2026-04-16T16:07:18.999Z</time></trkpt><trkpt lat="42.877882774599854" lon="-8.790408741543658"><ele>239.0</ele><time>2026-04-16T16:07:19.999Z</time></trkpt><trkpt lat="42.87770476988301" lon="-8.790520638346777"><ele>239.0</ele><time>2026-04-16T16:07:20.999Z</time></trkpt><trkpt lat="42.87754564010349" lon="-8.79061701858208"><ele>239.0</ele><time>2026-04-16T16:07:21.999Z</time></trkpt><trkpt lat="42.877390155340244" lon="-8.790712046281998"><ele>237.66666666666669</ele><time>2026-04-16T16:07:22.999Z</time></trkpt><trkpt lat="42.87723639674117" lon="-8.790803940040178"><ele>236.33333333333331</ele><time>2026-04-16T16:07:23.999Z</time></trkpt><trkpt lat="42.87709771743617" lon="-8.790880968783826"><ele>235.0</ele><time>2026-04-16T16:07:24.999Z</time></trkpt><trkpt lat="42.87696863221359" lon="-8.79094893170877"><ele>236.75</ele><time>2026-04-16T16:07:25.999Z</time></trkpt><trkpt lat="42.87684709179958" lon="-8.791023808145248"><ele>238.5</ele><time>2026-04-16T16:07:26.999Z</time></trkpt><trkpt lat="42.876747321519" lon="-8.791117560909244"><ele>240.25</ele><time>2026-04-16T16:07:27.999Z</time></trkpt><trkpt lat="42.876650343454095" lon="-8.791252594378767"><ele>242.0</ele><time>2026-04-16T16:07:28.999Z</time></trkpt><trkpt lat="42.87656005963213" lon="-8.791407392938481"><ele>242.0</ele><time>2026-04-16T16:07:29.999Z</time></trkpt><trkpt lat="42.876475868873435" lon="-8.791582972289671"><ele>242.0</ele><time>2026-04-16T16:07:30.999Z</time></trkpt><trkpt lat="42.87639192353335" lon="-8.791759979772749"><ele>242.0</ele><time>2026-04-16T16:07:31.999Z</time></trkpt><trkpt lat="42.87629592830246" lon="-8.791922412863943"><ele>246.0</ele><time>2026-04-16T16:07:32.999Z</time></trkpt><trkpt lat="42.876169145840606" lon="-8.792060978797675"><ele>250.0</ele><time>2026-04-16T16:07:33.999Z</time></trkpt><trkpt lat="42.87602643995957" lon="-8.792186511915878"><ele>254.0</ele><time>2026-04-16T16:07:34.999Z</time></trkpt><trkpt lat="42.87588418022339" lon="-8.792314140486326"><ele>254.0</ele><time>2026-04-16T16:07:35.999Z</time></trkpt><trkpt lat="42.87575784598518" lon="-8.792427356395681"><ele>254.0</ele><time>2026-04-16T16:07:36.999Z</time></trkpt><trkpt lat="42.87564419113711" lon="-8.792532179021158"><ele>254.0</ele><time>2026-04-16T16:07:37.999Z</time></trkpt><trkpt lat="42.87554607046556" lon="-8.79263533467129"><ele>254.0</ele><time>2026-04-16T16:07:38.999Z</time></trkpt><trkpt lat="42.87546346523542" lon="-8.792766112075089"><ele>256.5</ele><time>2026-04-16T16:07:39.999Z</time></trkpt><trkpt lat="42.875400889615875" lon="-8.792920428337004"><ele>259.0</ele><time>2026-04-16T16:07:40.999Z</time></trkpt><trkpt lat="42.87535941544782" lon="-8.79308466901598"><ele>261.5</ele><time>2026-04-16T16:07:41.999Z</time></trkpt><trkpt lat="42.87531288044665" lon="-8.793222043221617"><ele>264.0</ele><time>2026-04-16T16:07:42.999Z</time></trkpt><trkpt lat="42.8752755319239" lon="-8.793355896567485"><ele>263.75</ele><time>2026-04-16T16:07:43.999Z</time></trkpt><trkpt lat="42.87537461800434" lon="-8.793535951827305"><ele>263.5</ele><time>2026-04-16T16:07:44.999Z</time></trkpt><trkpt lat="42.875400571563276" lon="-8.79370004539257"><ele>263.25</ele><time>2026-04-16T16:07:45.999Z</time></trkpt><trkpt lat="42.87543758186494" lon="-8.793875231615015"><ele>263.0</ele><time>2026-04-16T16:07:46.999Z</time></trkpt><trkpt lat="42.87549476791405" lon="-8.794057799093093"><ele>263.0</ele><time>2026-04-16T16:07:47.999Z</time></trkpt><trkpt lat="42.87557110231197" lon="-8.794225975149452"><ele>263.0</ele><time>2026-04-16T16:07:48.999Z</time></trkpt><trkpt lat="42.87566792621357" lon="-8.794383181293082"><ele>263.0</ele><time>2026-04-16T16:07:49.999Z</time></trkpt><trkpt lat="42.87575965598541" lon="-8.7945553126846"><ele>262.0</ele><time>2026-04-16T16:07:50.999Z</time></trkpt><trkpt lat="42.875824324966956" lon="-8.79475014066384"><ele>261.0</ele><time>2026-04-16T16:07:51.999Z</time></trkpt><trkpt lat="42.875867934160716" lon="-8.794946994476804"><ele>260.0</ele><time>2026-04-16T16:07:52.999Z</time></trkpt><trkpt lat="42.875899506795086" lon="-8.795122863501527"><ele>259.0</ele><time>2026-04-16T16:07:53.999Z</time></trkpt><trkpt lat="42.87594599319159" lon="-8.795277925955745"><ele>263.25</ele><time>2026-04-16T16:07:54.999Z</time></trkpt><trkpt lat="42.876020329563225" lon="-8.795425343820012"><ele>267.5</ele><time>2026-04-16T16:07:55.999Z</time></trkpt><trkpt lat="42.876122386638094" lon="-8.7955562310247"><ele>271.75</ele><time>2026-04-16T16:07:56.999Z</time></trkpt><trkpt lat="42.87622961558263" lon="-8.795690269051965"><ele>276.0</ele><time>2026-04-16T16:07:57.999Z</time></trkpt><trkpt lat="42.87632817151804" lon="-8.79582456169206"><ele>276.0</ele><time>2026-04-16T16:07:58.999Z</time></trkpt><trkpt lat="42.87641509788458" lon="-8.795945584937648"><ele>276.0</ele><time>2026-04-16T16:07:59.999Z</time></trkpt><trkpt lat="42.87648973300489" lon="-8.796055585034642"><ele>276.0</ele><time>2026-04-16T16:08:00.999Z</time></trkpt><trkpt lat="42.87656022452904" lon="-8.796140601706563"><ele>276.0</ele><time>2026-04-16T16:08:01.999Z</time></trkpt><trkpt lat="42.876629072794124" lon="-8.796231951991574"><ele>276.0</ele><time>2026-04-16T16:08:02.999Z</time></trkpt><trkpt lat="42.87672176775055" lon="-8.796380378464969"><ele>278.0</ele><time>2026-04-16T16:08:03.999Z</time></trkpt><trkpt lat="42.876739930773184" lon="-8.796609410863871"><ele>280.0</ele><time>2026-04-16T16:08:04.999Z</time></trkpt><trkpt lat="42.87662608460078" lon="-8.796832611019761"><ele>282.0</ele><time>2026-04-16T16:08:05.999Z</time></trkpt><trkpt lat="42.87642389706011" lon="-8.796842862680435"><ele>283.5</ele><time>2026-04-16T16:08:06.999Z</time></trkpt><trkpt lat="42.87631139799759" lon="-8.796854917632674"><ele>285.0</ele><time>2026-04-16T16:08:07.999Z</time></trkpt><trkpt lat="42.876188941013474" lon="-8.796875855572656"><ele>286.5</ele><time>2026-04-16T16:08:08.999Z</time></trkpt><trkpt lat="42.87607794578488" lon="-8.79696011963308"><ele>288.0</ele><time>2026-04-16T16:08:09.999Z</time></trkpt><trkpt lat="42.87597604631612" lon="-8.79707714665463"><ele>287.0</ele><time>2026-04-16T16:08:10.999Z</time></trkpt><trkpt lat="42.87592576548619" lon="-8.797248422151233"><ele>286.0</ele><time>2026-04-16T16:08:11.999Z</time></trkpt><trkpt lat="42.87590050967312" lon="-8.797420305040855"><ele>285.0</ele><time>2026-04-16T16:08:12.999Z</time></trkpt><trkpt lat="42.87591336366" lon="-8.797603544020966"><ele>284.0</ele><time>2026-04-16T16:08:13.999Z</time></trkpt><trkpt lat="42.875959242183846" lon="-8.797786088149255"><ele>286.6666666666667</ele><time>2026-04-16T16:08:14.999Z</time></trkpt><trkpt lat="42.87603286691239" lon="-8.79797569633492"><ele>289.3333333333333</ele><time>2026-04-16T16:08:15.999Z</time></trkpt><trkpt lat="42.87612510232538" lon="-8.798165587264855"><ele>292.0</ele><time>2026-04-16T16:08:16.999Z</time></trkpt><trkpt lat="42.876222649446326" lon="-8.79834745131394"><ele>294.3333333333333</ele><time>2026-04-16T16:08:17.999Z</time></trkpt><trkpt lat="42.876318932811586" lon="-8.79852265688919"><ele>296.6666666666667</ele><time>2026-04-16T16:08:18.999Z</time></trkpt><trkpt lat="42.87640610548656" lon="-8.79870187701866"><ele>299.0</ele><time>2026-04-16T16:08:19.999Z</time></trkpt><trkpt lat="42.8764840247785" lon="-8.798888036339497"><ele>299.0</ele><time>2026-04-16T16:08:20.999Z</time></trkpt><trkpt lat="42.876532603239795" lon="-8.799112370273528"><ele>299.0</ele><time>2026-04-16T16:08:21.998Z</time></trkpt><trkpt lat="42.87655819458171" lon="-8.799359822489954"><ele>299.0</ele><time>2026-04-16T16:08:22.998Z</time></trkpt><trkpt lat="42.87657247879839" lon="-8.799609141305025"><ele>299.6666666666667</ele><time>2026-04-16T16:08:23.998Z</time></trkpt><trkpt lat="42.87659146638893" lon="-8.7998423763772"><ele>300.3333333333333</ele><time>2026-04-16T16:08:24.998Z</time></trkpt><trkpt lat="42.876626154003766" lon="-8.800072275617387"><ele>301.0</ele><time>2026-04-16T16:08:25.998Z</time></trkpt><trkpt lat="42.876687961255" lon="-8.800291158711298"><ele>302.66666666666663</ele><time>2026-04-16T16:08:26.998Z</time></trkpt><trkpt lat="42.87674213889746" lon="-8.800505971473342"><ele>304.3333333333333</ele><time>2026-04-16T16:08:27.998Z</time></trkpt><trkpt lat="42.87681827161756" lon="-8.800684149720386"><ele>306.0</ele><time>2026-04-16T16:08:28.998Z</time></trkpt><trkpt lat="42.876926103352346" lon="-8.800807749431561"><ele>307.0</ele><time>2026-04-16T16:08:29.998Z</time></trkpt><trkpt lat="42.87700293909462" lon="-8.800938018795524"><ele>308.0</ele><time>2026-04-16T16:08:30.998Z</time></trkpt><trkpt lat="42.877061324747345" lon="-8.80107263663442"><ele>309.0</ele><time>2026-04-16T16:08:31.998Z</time></trkpt><trkpt lat="42.87708383653668" lon="-8.801217928192584"><ele>310.0</ele><time>2026-04-16T16:08:32.998Z</time></trkpt><trkpt lat="42.87702968581397" lon="-8.801345034474226"><ele>310.4</ele><time>2026-04-16T16:08:33.998Z</time></trkpt><trkpt lat="42.876959362137356" lon="-8.8014385720549"><ele>310.8</ele><time>2026-04-16T16:08:34.998Z</time></trkpt><trkpt lat="42.87687632707539" lon="-8.801506890529481"><ele>311.2</ele><time>2026-04-16T16:08:36Z</time></trkpt><trkpt lat="42.87679279663055" lon="-8.801517720674823"><ele>311.6</ele><time>2026-04-16T16:08:37Z</time></trkpt><trkpt lat="42.87668100794654" lon="-8.801519885131734"><ele>312.0</ele><time>2026-04-16T16:08:38Z</time></trkpt><trkpt lat="42.87655096005997" lon="-8.801500921470442"><ele>313.0</ele><time>2026-04-16T16:08:39Z</time></trkpt><trkpt lat="42.87640014554624" lon="-8.80147790161371"><ele>314.0</ele><time>2026-04-16T16:08:40Z</time></trkpt><trkpt lat="42.87622977735174" lon="-8.801433757584798"><ele>315.0</ele><time>2026-04-16T16:08:41Z</time></trkpt><trkpt lat="42.87604806556559" lon="-8.801358506697468"><ele>318.6666666666667</ele><time>2026-04-16T16:08:42Z</time></trkpt><trkpt lat="42.875853859817695" lon="-8.801256892403902"><ele>322.33333333333337</ele><time>2026-04-16T16:08:43Z</time></trkpt><trkpt lat="42.87565832289955" lon="-8.80116910493409"><ele>326.0</ele><time>2026-04-16T16:08:44Z</time></trkpt><trkpt lat="42.87544238626662" lon="-8.801105896507613"><ele>326.0</ele><time>2026-04-16T16:08:45Z</time></trkpt><trkpt lat="42.875224806275206" lon="-8.80106567769945"><ele>326.0</ele><time>2026-04-16T16:08:46Z</time></trkpt><trkpt lat="42.87500432722881" lon="-8.800987316763493"><ele>326.0</ele><time>2026-04-16T16:08:47Z</time></trkpt><trkpt lat="42.87480252374782" lon="-8.800860216981913"><ele>323.33333333333337</ele><time>2026-04-16T16:08:48Z</time></trkpt><trkpt lat="42.87462323715919" lon="-8.80074427980838"><ele>320.6666666666667</ele><time>2026-04-16T16:08:49Z</time></trkpt><trkpt lat="42.87446408562114" lon="-8.800622348163069"><ele>318.0</ele><time>2026-04-16T16:08:50Z</time></trkpt><trkpt lat="42.8742985923027" lon="-8.80056851117991"><ele>319.75</ele><time>2026-04-16T16:08:51Z</time></trkpt><trkpt lat="42.87415318403704" lon="-8.800525406117874"><ele>321.5</ele><time>2026-04-16T16:08:52Z</time></trkpt><trkpt lat="42.87402266452601" lon="-8.800496722321036"><ele>323.25</ele><time>2026-04-16T16:08:53Z</time></trkpt><trkpt lat="42.87391799187034" lon="-8.80047674142564"><ele>325.0</ele><time>2026-04-16T16:08:54Z</time></trkpt><trkpt lat="42.8738280495738" lon="-8.800461464641597"><ele>325.0</ele><time>2026-04-16T16:08:55Z</time></trkpt><trkpt lat="42.8737496256559" lon="-8.800467631036177"><ele>325.0</ele><time>2026-04-16T16:08:56Z</time></trkpt><trkpt lat="42.8736878513794" lon="-8.800485054961063"><ele>325.0</ele><time>2026-04-16T16:08:57Z</time></trkpt><trkpt lat="42.873609836187356" lon="-8.800537750289779"><ele>325.0</ele><time>2026-04-16T16:08:59Z</time></trkpt><trkpt lat="42.87351582878217" lon="-8.800641377655783"><ele>325.0</ele><time>2026-04-16T16:09:01Z</time></trkpt><trkpt lat="42.87345976844889" lon="-8.800725813437342"><ele>325.0</ele><time>2026-04-16T16:09:02Z</time></trkpt><trkpt lat="42.87341681594112" lon="-8.800842593359672"><ele>324.75</ele><time>2026-04-16T16:09:03Z</time></trkpt><trkpt lat="42.873385624429815" lon="-8.8009579750638"><ele>324.5</ele><time>2026-04-16T16:09:04Z</time></trkpt><trkpt lat="42.873353162706174" lon="-8.801094539598187"><ele>324.25</ele><time>2026-04-16T16:09:05Z</time></trkpt><trkpt lat="42.873322411056" lon="-8.80126717141688"><ele>324.0</ele><time>2026-04-16T16:09:06Z</time></trkpt><trkpt lat="42.87328696846055" lon="-8.801461947807242"><ele>326.3333333333333</ele><time>2026-04-16T16:09:07Z</time></trkpt><trkpt lat="42.87324800413824" lon="-8.801652618140288"><ele>328.66666666666663</ele><time>2026-04-16T16:09:08Z</time></trkpt><trkpt lat="42.87319994352098" lon="-8.801863402544509"><ele>331.0</ele><time>2026-04-16T16:09:09Z</time></trkpt><trkpt lat="42.87315208443078" lon="-8.802079443146752"><ele>332.0</ele><time>2026-04-16T16:09:10Z</time></trkpt><trkpt lat="42.87311120853005" lon="-8.802288520509203"><ele>333.0</ele><time>2026-04-16T16:09:11Z</time></trkpt><trkpt lat="42.87308033370913" lon="-8.802488418758495"><ele>334.0</ele><time>2026-04-16T16:09:12Z</time></trkpt><trkpt lat="42.8730787437665" lon="-8.802704112395215"><ele>334.0</ele><time>2026-04-16T16:09:13Z</time></trkpt><trkpt lat="42.87309430809626" lon="-8.802929521235889"><ele>334.0</ele><time>2026-04-16T16:09:14Z</time></trkpt><trkpt lat="42.873115851053115" lon="-8.803178231583635"><ele>334.0</ele><time>2026-04-16T16:09:15Z</time></trkpt><trkpt lat="42.87314113120967" lon="-8.803431006383454"><ele>334.0</ele><time>2026-04-16T16:09:16Z</time></trkpt><trkpt lat="42.87316602007206" lon="-8.803684885391569"><ele>334.0</ele><time>2026-04-16T16:09:17Z</time></trkpt><trkpt lat="42.87319086349992" lon="-8.803959702150367"><ele>334.0</ele><time>2026-04-16T16:09:18Z</time></trkpt><trkpt lat="42.87321635797584" lon="-8.804218957373983"><ele>334.3333333333333</ele><time>2026-04-16T16:09:19Z</time></trkpt><trkpt lat="42.873238798833874" lon="-8.804449931849655"><ele>334.6666666666667</ele><time>2026-04-16T16:09:20Z</time></trkpt><trkpt lat="42.87326135185487" lon="-8.804661188756654"><ele>335.0</ele><time>2026-04-16T16:09:21Z</time></trkpt><trkpt lat="42.87328005482371" lon="-8.804851278959223"><ele>335.0</ele><time>2026-04-16T16:09:22Z</time></trkpt><trkpt lat="42.87330277972625" lon="-8.805021781182441"><ele>335.0</ele><time>2026-04-16T16:09:23Z</time></trkpt><trkpt lat="42.873353154949285" lon="-8.805172884075677"><ele>335.0</ele><time>2026-04-16T16:09:24Z</time></trkpt><trkpt lat="42.87340817929289" lon="-8.805327917538932"><ele>335.0</ele><time>2026-04-16T16:09:25Z</time></trkpt><trkpt lat="42.87352452506922" lon="-8.805435668188284"><ele>333.33333333333337</ele><time>2026-04-16T16:09:26Z</time></trkpt><trkpt lat="42.87365981270232" lon="-8.805538004535181"><ele>331.6666666666667</ele><time>2026-04-16T16:09:27Z</time></trkpt><trkpt lat="42.87380910014207" lon="-8.805628376698131"><ele>330.0</ele><time>2026-04-16T16:09:28Z</time></trkpt><trkpt lat="42.873965409182716" lon="-8.805726017101843"><ele>330.0</ele><time>2026-04-16T16:09:29Z</time></trkpt><trkpt lat="42.87412036799577" lon="-8.805829863838486"><ele>330.0</ele><time>2026-04-16T16:09:30Z</time></trkpt><trkpt lat="42.87426441793623" lon="-8.805946088737054"><ele>330.0</ele><time>2026-04-16T16:09:31Z</time></trkpt><trkpt lat="42.87439742736838" lon="-8.806087094204319"><ele>329.6666666666667</ele><time>2026-04-16T16:09:32Z</time></trkpt><trkpt lat="42.87451708225687" lon="-8.806252078693875"><ele>329.33333333333337</ele><time>2026-04-16T16:09:33Z</time></trkpt><trkpt lat="42.874609115555124" lon="-8.806447154762045"><ele>329.0</ele><time>2026-04-16T16:09:34Z</time></trkpt><trkpt lat="42.87468388229993" lon="-8.806664265708706"><ele>326.33333333333337</ele><time>2026-04-16T16:09:35Z</time></trkpt><trkpt lat="42.87474696199596" lon="-8.806890760203624"><ele>323.6666666666667</ele><time>2026-04-16T16:09:36Z</time></trkpt><trkpt lat="42.87480004304065" lon="-8.8071125021877"><ele>321.0</ele><time>2026-04-16T16:09:36.999Z</time></trkpt><trkpt lat="42.87484236932861" lon="-8.807299461173217"><ele>321.0</ele><time>2026-04-16T16:09:37.999Z</time></trkpt><trkpt lat="42.87487763359415" lon="-8.807457916210064"><ele>321.0</ele><time>2026-04-16T16:09:38.999Z</time></trkpt><trkpt lat="42.87490966993197" lon="-8.807598083779526"><ele>321.0</ele><time>2026-04-16T16:09:39.999Z</time></trkpt><trkpt lat="42.87493571549412" lon="-8.80772564939254"><ele>321.0</ele><time>2026-04-16T16:09:40.999Z</time></trkpt><trkpt lat="42.8749677650783" lon="-8.807839885268837"><ele>321.0</ele><time>2026-04-16T16:09:41.999Z</time></trkpt><trkpt lat="42.87500717304837" lon="-8.807948100354674"><ele>323.0</ele><time>2026-04-16T16:09:42.999Z</time></trkpt><trkpt lat="42.87506105980999" lon="-8.808057704569116"><ele>325.0</ele><time>2026-04-16T16:09:43.999Z</time></trkpt><trkpt lat="42.875132056292244" lon="-8.808171503219556"><ele>327.0</ele><time>2026-04-16T16:09:44.999Z</time></trkpt><trkpt lat="42.87521047144398" lon="-8.808290940893936"><ele>329.0</ele><time>2026-04-16T16:09:45.999Z</time></trkpt><trkpt lat="42.87530403140691" lon="-8.808418067216602"><ele>324.75</ele><time>2026-04-16T16:09:46.999Z</time></trkpt><trkpt lat="42.87539791217854" lon="-8.808557654239747"><ele>320.5</ele><time>2026-04-16T16:09:47.999Z</time></trkpt><trkpt lat="42.87549712862828" lon="-8.808702878763704"><ele>316.25</ele><time>2026-04-16T16:09:48.999Z</time></trkpt><trkpt lat="42.875597409780276" lon="-8.808850695552364"><ele>312.0</ele><time>2026-04-16T16:09:49.999Z</time></trkpt><trkpt lat="42.875706536549394" lon="-8.808992454464693"><ele>312.0</ele><time>2026-04-16T16:09:50.999Z</time></trkpt><trkpt lat="42.87581900889775" lon="-8.809110223649052"><ele>312.0</ele><time>2026-04-16T16:09:51.999Z</time></trkpt><trkpt lat="42.87592994622465" lon="-8.80920331080018"><ele>312.0</ele><time>2026-04-16T16:09:52.999Z</time></trkpt><trkpt lat="42.87603554329577" lon="-8.809283224111322"><ele>312.0</ele><time>2026-04-16T16:09:53.999Z</time></trkpt><trkpt lat="42.87612704780325" lon="-8.809354026482065"><ele>312.8571428571429</ele><time>2026-04-16T16:09:54.999Z</time></trkpt><trkpt lat="42.87619946914277" lon="-8.809408991287508"><ele>313.71428571428567</ele><time>2026-04-16T16:09:55.999Z</time></trkpt><trkpt lat="42.87626380635579" lon="-8.809438614096225"><ele>314.57142857142856</ele><time>2026-04-16T16:09:56.999Z</time></trkpt><trkpt lat="42.876292313604694" lon="-8.809546025748485"><ele>315.42857142857144</ele><time>2026-04-16T16:09:57.999Z</time></trkpt><trkpt lat="42.876299538457346" lon="-8.809638847546909"><ele>316.28571428571433</ele><time>2026-04-16T16:09:58.999Z</time></trkpt><trkpt lat="42.87630024867335" lon="-8.809735871221568"><ele>317.1428571428571</ele><time>2026-04-16T16:09:59.999Z</time></trkpt><trkpt lat="42.87630083360614" lon="-8.80983420914847"><ele>318.0</ele><time>2026-04-16T16:10:00.999Z</time></trkpt><trkpt lat="42.87628453760361" lon="-8.809958879869365"><ele>318.0</ele><time>2026-04-16T16:10:02.999Z</time></trkpt><trkpt lat="42.876196235037405" lon="-8.810048019896996"><ele>318.0</ele><time>2026-04-16T16:11:16Z</time></trkpt><trkpt lat="42.87611302250774" lon="-8.810081301573891"><ele>318.0</ele><time>2026-04-16T16:11:17Z</time></trkpt><trkpt lat="42.876008478882895" lon="-8.810118257984588"><ele>318.0</ele><time>2026-04-16T16:11:18Z</time></trkpt><trkpt lat="42.87590841687715" lon="-8.810154910172201"><ele>318.0</ele><time>2026-04-16T16:11:19Z</time></trkpt><trkpt lat="42.875796744948175" lon="-8.81019921378926"><ele>320.75</ele><time>2026-04-16T16:11:20Z</time></trkpt><trkpt lat="42.875674827963785" lon="-8.810249240640003"><ele>323.5</ele><time>2026-04-16T16:11:21Z</time></trkpt><trkpt lat="42.87555227201895" lon="-8.810293739949419"><ele>326.25</ele><time>2026-04-16T16:11:22Z</time></trkpt><trkpt lat="42.875422481308235" lon="-8.810343414681551"><ele>329.0</ele><time>2026-04-16T16:11:23Z</time></trkpt><trkpt lat="42.87530278223907" lon="-8.810389870203535"><ele>329.0</ele><time>2026-04-16T16:11:24Z</time></trkpt><trkpt lat="42.875203050970605" lon="-8.810435697309744"><ele>329.0</ele><time>2026-04-16T16:11:25Z</time></trkpt><trkpt lat="42.87511027519993" lon="-8.810486292010927"><ele>329.0</ele><time>2026-04-16T16:11:26Z</time></trkpt><trkpt lat="42.875026806742376" lon="-8.810560298236823"><ele>329.0</ele><time>2026-04-16T16:11:27Z</time></trkpt><trkpt lat="42.874954931426515" lon="-8.8106538720483"><ele>329.0</ele><time>2026-04-16T16:11:28Z</time></trkpt><trkpt lat="42.87489257003562" lon="-8.810758598436426"><ele>329.2</ele><time>2026-04-16T16:11:29Z</time></trkpt><trkpt lat="42.874845716293336" lon="-8.810871902874082"><ele>329.4</ele><time>2026-04-16T16:11:30Z</time></trkpt><trkpt lat="42.87481708322048" lon="-8.810998440024207"><ele>329.6</ele><time>2026-04-16T16:11:31Z</time></trkpt><trkpt lat="42.87479910249963" lon="-8.811127860082069"><ele>329.8</ele><time>2026-04-16T16:11:32Z</time></trkpt><trkpt lat="42.87478332982146" lon="-8.811251319506503"><ele>330.0</ele><time>2026-04-16T16:11:33Z</time></trkpt><trkpt lat="42.87476944083116" lon="-8.811373990097794"><ele>330.0</ele><time>2026-04-16T16:11:34Z</time></trkpt><trkpt lat="42.874754128474834" lon="-8.811495952934216"><ele>330.0</ele><time>2026-04-16T16:11:35Z</time></trkpt><trkpt lat="42.87474229152046" lon="-8.81162066530717"><ele>330.0</ele><time>2026-04-16T16:11:36Z</time></trkpt><trkpt lat="42.87473254618296" lon="-8.811737013826297"><ele>330.0</ele><time>2026-04-16T16:11:37Z</time></trkpt><trkpt lat="42.874724619653485" lon="-8.811835852985324"><ele>330.0</ele><time>2026-04-16T16:11:38Z</time></trkpt><trkpt lat="42.87473562245284" lon="-8.811953489742415"><ele>330.0</ele><time>2026-04-16T16:11:40Z</time></trkpt><trkpt lat="42.874739181105134" lon="-8.812052315129163"><ele>331.8333333333333</ele><time>2026-04-16T16:12:34.999Z</time></trkpt><trkpt lat="42.8747071396145" lon="-8.812157295363033"><ele>333.6666666666667</ele><time>2026-04-16T16:12:36.999Z</time></trkpt><trkpt lat="42.87469819123917" lon="-8.812245242553812"><ele>335.5</ele><time>2026-04-16T16:12:37.999Z</time></trkpt><trkpt lat="42.874690034276256" lon="-8.812350384125816"><ele>337.33333333333337</ele><time>2026-04-16T16:12:38.999Z</time></trkpt><trkpt lat="42.87467825558356" lon="-8.812465328961377"><ele>339.1666666666667</ele><time>2026-04-16T16:12:39.999Z</time></trkpt><trkpt lat="42.87466569480896" lon="-8.812583139139603"><ele>341.0</ele><time>2026-04-16T16:12:40.999Z</time></trkpt><trkpt lat="42.87465518348537" lon="-8.812685149398106"><ele>341.6666666666667</ele><time>2026-04-16T16:12:41.999Z</time></trkpt><trkpt lat="42.874645485375126" lon="-8.812781247984"><ele>342.33333333333337</ele><time>2026-04-16T16:12:42.999Z</time></trkpt><trkpt lat="42.87464124666469" lon="-8.812876591358194"><ele>343.0</ele><time>2026-04-16T16:12:43.999Z</time></trkpt><trkpt lat="42.87465081479814" lon="-8.812976493036858"><ele>343.6666666666667</ele><time>2026-04-16T16:12:44.999Z</time></trkpt><trkpt lat="42.87467811157709" lon="-8.813077278074562"><ele>344.3333333333333</ele><time>2026-04-16T16:12:45.999Z</time></trkpt><trkpt lat="42.87472664718073" lon="-8.813174511727121"><ele>345.0</ele><time>2026-04-16T16:12:46.999Z</time></trkpt><trkpt lat="42.8747986309903" lon="-8.813258980690357"><ele>345.0</ele><time>2026-04-16T16:12:48.001Z</time></trkpt><trkpt lat="42.87488483648713" lon="-8.813343129930145"><ele>345.0</ele><time>2026-04-16T16:12:49.001Z</time></trkpt><trkpt lat="42.87498360282726" lon="-8.813429789796668"><ele>345.0</ele><time>2026-04-16T16:12:50.001Z</time></trkpt><trkpt lat="42.8750876706838" lon="-8.813511123518689"><ele>345.0</ele><time>2026-04-16T16:12:51.001Z</time></trkpt><trkpt lat="42.87519484260722" lon="-8.81358491731937"><ele>344.75</ele><time>2026-04-16T16:12:52.001Z</time></trkpt><trkpt lat="42.875314149067314" lon="-8.813644475211307"><ele>344.5</ele><time>2026-04-16T16:12:53.001Z</time></trkpt><trkpt lat="42.8754400948158" lon="-8.813696110922988"><ele>344.25</ele><time>2026-04-16T16:12:54.001Z</time></trkpt><trkpt lat="42.87557279276632" lon="-8.813744529963515"><ele>344.0</ele><time>2026-04-16T16:12:55.001Z</time></trkpt><trkpt lat="42.87570900126854" lon="-8.813787155899998"><ele>344.0</ele><time>2026-04-16T16:12:56.001Z</time></trkpt><trkpt lat="42.875830187512165" lon="-8.81381938335132"><ele>344.0</ele><time>2026-04-16T16:12:57.001Z</time></trkpt><trkpt lat="42.87593901761839" lon="-8.813848253215122"><ele>344.0</ele><time>2026-04-16T16:12:58.001Z</time></trkpt><trkpt lat="42.8760368788487" lon="-8.813875441149058"><ele>344.0</ele><time>2026-04-16T16:12:59.001Z</time></trkpt><trkpt lat="42.87613201245704" lon="-8.813917716034641"><ele>344.0</ele><time>2026-04-16T16:13:00.001Z</time></trkpt><trkpt lat="42.876217844765335" lon="-8.813980501001172"><ele>346.6</ele><time>2026-04-16T16:13:01.001Z</time></trkpt><trkpt lat="42.87629340681361" lon="-8.814065958960558"><ele>349.2</ele><time>2026-04-16T16:13:02Z</time></trkpt><trkpt lat="42.87636002893564" lon="-8.81416835889072"><ele>351.8</ele><time>2026-04-16T16:13:03Z</time></trkpt><trkpt lat="42.87641824967167" lon="-8.814284015964358"><ele>354.40000000000003</ele><time>2026-04-16T16:13:04.001Z</time></trkpt><trkpt lat="42.87646286947849" lon="-8.814406414512693"><ele>357.0</ele><time>2026-04-16T16:13:05Z</time></trkpt><trkpt lat="42.87650851310056" lon="-8.814494758219958"><ele>357.0</ele><time>2026-04-16T16:13:06Z</time></trkpt><trkpt lat="42.876545096853896" lon="-8.81457186346798"><ele>357.0</ele><time>2026-04-16T16:13:07Z</time></trkpt><trkpt lat="42.876583783036665" lon="-8.814658804946825"><ele>357.0</ele><time>2026-04-16T16:13:08Z</time></trkpt><trkpt lat="42.876627051038646" lon="-8.814755931535842"><ele>357.0</ele><time>2026-04-16T16:13:09Z</time></trkpt><trkpt lat="42.876673720909714" lon="-8.814859871210697"><ele>357.0</ele><time>2026-04-16T16:13:10Z</time></trkpt><trkpt lat="42.87672838240182" lon="-8.814965164939817"><ele>357.0</ele><time>2026-04-16T16:13:11Z</time></trkpt><trkpt lat="42.876794116006906" lon="-8.815067832724774"><ele>359.0</ele><time>2026-04-16T16:13:12Z</time></trkpt><trkpt lat="42.87686443823611" lon="-8.81516884129374"><ele>361.0</ele><time>2026-04-16T16:13:13Z</time></trkpt><trkpt lat="42.87693861722526" lon="-8.815272547372484"><ele>363.0</ele><time>2026-04-16T16:13:14Z</time></trkpt><trkpt lat="42.87702443391866" lon="-8.815373807472522"><ele>365.0</ele><time>2026-04-16T16:13:15Z</time></trkpt><trkpt lat="42.877124046719466" lon="-8.815486660368245"><ele>365.0</ele><time>2026-04-16T16:13:16Z</time></trkpt><trkpt lat="42.877233506994294" lon="-8.815615566643489"><ele>365.0</ele><time>2026-04-16T16:13:17Z</time></trkpt><trkpt lat="42.8773435247214" lon="-8.815745461468696"><ele>365.0</ele><time>2026-04-16T16:13:18Z</time></trkpt><trkpt lat="42.87746349950168" lon="-8.815894321605795"><ele>366.6666666666667</ele><time>2026-04-16T16:13:19Z</time></trkpt><trkpt lat="42.87759171624495" lon="-8.81605028020585"><ele>368.3333333333333</ele><time>2026-04-16T16:13:20Z</time></trkpt><trkpt lat="42.877730445535796" lon="-8.81621194922014"><ele>370.0</ele><time>2026-04-16T16:13:21Z</time></trkpt><trkpt lat="42.87786216536442" lon="-8.816368926726197"><ele>370.0</ele><time>2026-04-16T16:13:22Z</time></trkpt><trkpt lat="42.87799003112132" lon="-8.81652453517169"><ele>370.0</ele><time>2026-04-16T16:13:23Z</time></trkpt><trkpt lat="42.87811764673597" lon="-8.816684925863273"><ele>370.0</ele><time>2026-04-16T16:13:24Z</time></trkpt><trkpt lat="42.87825035967521" lon="-8.81684931010184"><ele>370.66666666666663</ele><time>2026-04-16T16:13:25Z</time></trkpt><trkpt lat="42.87838956931006" lon="-8.817019627815323"><ele>371.3333333333333</ele><time>2026-04-16T16:13:26Z</time></trkpt><trkpt lat="42.8785247096675" lon="-8.817182606501856"><ele>372.0</ele><time>2026-04-16T16:13:27Z</time></trkpt><trkpt lat="42.87865159433021" lon="-8.81733355275701"><ele>372.0</ele><time>2026-04-16T16:13:28Z</time></trkpt><trkpt lat="42.87878847263198" lon="-8.817470215282642"><ele>372.0</ele><time>2026-04-16T16:13:29Z</time></trkpt><trkpt lat="42.8789462803959" lon="-8.817597312230495"><ele>372.0</ele><time>2026-04-16T16:13:30Z</time></trkpt><trkpt lat="42.879122187125056" lon="-8.817707690879555"><ele>375.0</ele><time>2026-04-16T16:13:31Z</time></trkpt><trkpt lat="42.879314420859686" lon="-8.817807985544064"><ele>378.0</ele><time>2026-04-16T16:13:32Z</time></trkpt><trkpt lat="42.87952074483906" lon="-8.8179140558631"><ele>381.0</ele><time>2026-04-16T16:13:33Z</time></trkpt><trkpt lat="42.879721829459115" lon="-8.818022980179455"><ele>381.0</ele><time>2026-04-16T16:13:34Z</time></trkpt><trkpt lat="42.879922869725426" lon="-8.818128551179274"><ele>381.0</ele><time>2026-04-16T16:13:35Z</time></trkpt><trkpt lat="42.88011140025204" lon="-8.818226751769771"><ele>381.0</ele><time>2026-04-16T16:13:36Z</time></trkpt><trkpt lat="42.880286384222586" lon="-8.818317753225108"><ele>380.3333333333333</ele><time>2026-04-16T16:13:37Z</time></trkpt><trkpt lat="42.88046320286871" lon="-8.8184136377252"><ele>379.66666666666663</ele><time>2026-04-16T16:13:38Z</time></trkpt><trkpt lat="42.88064563526798" lon="-8.818514071658605"><ele>379.0</ele><time>2026-04-16T16:13:39Z</time></trkpt><trkpt lat="42.88082494450518" lon="-8.81861246969398"><ele>378.66666666666663</ele><time>2026-04-16T16:13:40Z</time></trkpt><trkpt lat="42.88099120546509" lon="-8.818705143667431"><ele>378.3333333333333</ele><time>2026-04-16T16:13:41Z</time></trkpt><trkpt lat="42.88114846203419" lon="-8.818792408826743"><ele>378.0</ele><time>2026-04-16T16:13:42Z</time></trkpt><trkpt lat="42.88130204022889" lon="-8.818885189237374"><ele>378.0</ele><time>2026-04-16T16:13:43Z</time></trkpt><trkpt lat="42.881449302059266" lon="-8.819000573249031"><ele>378.0</ele><time>2026-04-16T16:13:44Z</time></trkpt><trkpt lat="42.881589192884796" lon="-8.819146822001931"><ele>378.0</ele><time>2026-04-16T16:13:45Z</time></trkpt><trkpt lat="42.88173129391725" lon="-8.819304737696237"><ele>378.0</ele><time>2026-04-16T16:13:46Z</time></trkpt><trkpt lat="42.881876471246265" lon="-8.819466035859595"><ele>378.0</ele><time>2026-04-16T16:13:47Z</time></trkpt><trkpt lat="42.88202313948384" lon="-8.819629182567576"><ele>378.0</ele><time>2026-04-16T16:13:48Z</time></trkpt><trkpt lat="42.88215884664638" lon="-8.81977465809746"><ele>378.0</ele><time>2026-04-16T16:13:49Z</time></trkpt><trkpt lat="42.882281976303055" lon="-8.819914293726203"><ele>378.0</ele><time>2026-04-16T16:13:50Z</time></trkpt><trkpt lat="42.88239084080818" lon="-8.820048514616298"><ele>378.0</ele><time>2026-04-16T16:13:51Z</time></trkpt><trkpt lat="42.882487074180986" lon="-8.820192426802487"><ele>378.0</ele><time>2026-04-16T16:13:52Z</time></trkpt><trkpt lat="42.882564950104886" lon="-8.820353251454229"><ele>378.0</ele><time>2026-04-16T16:13:53Z</time></trkpt><trkpt lat="42.882626417896155" lon="-8.820535821252967"><ele>378.0</ele><time>2026-04-16T16:13:54Z</time></trkpt><trkpt lat="42.882665945923954" lon="-8.820741616582222"><ele>378.0</ele><time>2026-04-16T16:13:55Z</time></trkpt><trkpt lat="42.88268347013539" lon="-8.820964972686058"><ele>375.3333333333333</ele><time>2026-04-16T16:13:56Z</time></trkpt><trkpt lat="42.88268649046767" lon="-8.821187005247463"><ele>372.66666666666663</ele><time>2026-04-16T16:13:57Z</time></trkpt><trkpt lat="42.8826780332056" lon="-8.821392092203313"><ele>370.0</ele><time>2026-04-16T16:13:58Z</time></trkpt><trkpt lat="42.88266118390708" lon="-8.821593296938122"><ele>370.0</ele><time>2026-04-16T16:13:59Z</time></trkpt><trkpt lat="42.88262871195976" lon="-8.821777739821416"><ele>370.0</ele><time>2026-04-16T16:14:00Z</time></trkpt><trkpt lat="42.88257022557693" lon="-8.821945749514018"><ele>370.0</ele><time>2026-04-16T16:14:01Z</time></trkpt><trkpt lat="42.88248067107086" lon="-8.82210356355252"><ele>370.0</ele><time>2026-04-16T16:14:02Z</time></trkpt><trkpt lat="42.88236201350218" lon="-8.82224851737754"><ele>369.0</ele><time>2026-04-16T16:14:03Z</time></trkpt><trkpt lat="42.882227509170875" lon="-8.822396748309368"><ele>368.0</ele><time>2026-04-16T16:14:03.999Z</time></trkpt><trkpt lat="42.88208477191749" lon="-8.822550362759639"><ele>367.0</ele><time>2026-04-16T16:14:04.999Z</time></trkpt><trkpt lat="42.88194133361634" lon="-8.822705792144983"><ele>365.66666666666663</ele><time>2026-04-16T16:14:05.999Z</time></trkpt><trkpt lat="42.881790779403104" lon="-8.822869352825599"><ele>364.3333333333333</ele><time>2026-04-16T16:14:06.999Z</time></trkpt><trkpt lat="42.88164384261283" lon="-8.823032991118138"><ele>363.0</ele><time>2026-04-16T16:14:07.999Z</time></trkpt><trkpt lat="42.88150408091522" lon="-8.8231881456388"><ele>362.0</ele><time>2026-04-16T16:14:08.999Z</time></trkpt><trkpt lat="42.881367265665155" lon="-8.823339341040523"><ele>361.0</ele><time>2026-04-16T16:14:09.999Z</time></trkpt><trkpt lat="42.881229880242344" lon="-8.823483151666009"><ele>360.0</ele><time>2026-04-16T16:14:10.999Z</time></trkpt><trkpt lat="42.88108247840703" lon="-8.823610258252332"><ele>357.0</ele><time>2026-04-16T16:14:11.999Z</time></trkpt><trkpt lat="42.88092032529852" lon="-8.823724080257143"><ele>354.0</ele><time>2026-04-16T16:14:12.999Z</time></trkpt><trkpt lat="42.88075541238754" lon="-8.82382950461161"><ele>351.0</ele><time>2026-04-16T16:14:13.999Z</time></trkpt><trkpt lat="42.88059951826847" lon="-8.823930102816611"><ele>351.0</ele><time>2026-04-16T16:14:14.999Z</time></trkpt><trkpt lat="42.880452750493035" lon="-8.824024418446365"><ele>351.0</ele><time>2026-04-16T16:14:15.999Z</time></trkpt><trkpt lat="42.88031169370114" lon="-8.824109647828779"><ele>351.0</ele><time>2026-04-16T16:14:16.999Z</time></trkpt><trkpt lat="42.88017543293604" lon="-8.824171725576344"><ele>351.25</ele><time>2026-04-16T16:14:17.999Z</time></trkpt><trkpt lat="42.880040550779" lon="-8.824203899968321"><ele>351.5</ele><time>2026-04-16T16:14:18.999Z</time></trkpt><trkpt lat="42.87990056400045" lon="-8.824198377615794"><ele>351.75</ele><time>2026-04-16T16:14:19.999Z</time></trkpt><trkpt lat="42.87975690009019" lon="-8.824171480517329"><ele>352.0</ele><time>2026-04-16T16:14:20.999Z</time></trkpt><trkpt lat="42.879620682848994" lon="-8.824143228944344"><ele>352.0</ele><time>2026-04-16T16:14:21.999Z</time></trkpt><trkpt lat="42.87949946323015" lon="-8.824135094570938"><ele>352.0</ele><time>2026-04-16T16:14:22.999Z</time></trkpt><trkpt lat="42.87938212095188" lon="-8.824154147569923"><ele>352.0</ele><time>2026-04-16T16:14:23.999Z</time></trkpt><trkpt lat="42.87926887716087" lon="-8.824238614073026"><ele>352.0</ele><time>2026-04-16T16:14:24.999Z</time></trkpt><trkpt lat="42.87916605735954" lon="-8.824363300521917"><ele>346.66666666666663</ele><time>2026-04-16T16:14:25.999Z</time></trkpt><trkpt lat="42.87908154758333" lon="-8.824546401844126"><ele>341.3333333333333</ele><time>2026-04-16T16:14:26.999Z</time></trkpt><trkpt lat="42.87902190498143" lon="-8.824735027977226"><ele>336.0</ele><time>2026-04-16T16:14:27.999Z</time></trkpt><trkpt lat="42.87894948910331" lon="-8.824918236745814"><ele>336.0</ele><time>2026-04-16T16:14:28.999Z</time></trkpt><trkpt lat="42.878844513491366" lon="-8.825089377393319"><ele>336.0</ele><time>2026-04-16T16:14:29.999Z</time></trkpt><trkpt lat="42.87871791621297" lon="-8.825238863269009"><ele>336.0</ele><time>2026-04-16T16:14:30.999Z</time></trkpt><trkpt lat="42.87860345252968" lon="-8.825390992676736"><ele>336.6666666666667</ele><time>2026-04-16T16:14:31.999Z</time></trkpt><trkpt lat="42.87850906354629" lon="-8.825557971630381"><ele>337.33333333333337</ele><time>2026-04-16T16:14:32.999Z</time></trkpt><trkpt lat="42.8784221554362" lon="-8.825752331812316"><ele>338.0</ele><time>2026-04-16T16:14:33.999Z</time></trkpt><trkpt lat="42.87834504406233" lon="-8.825967209860393"><ele>334.6666666666667</ele><time>2026-04-16T16:14:34.999Z</time></trkpt><trkpt lat="42.87827136845031" lon="-8.82619246694238"><ele>331.3333333333333</ele><time>2026-04-16T16:14:35.999Z</time></trkpt><trkpt lat="42.87819519709581" lon="-8.826421586514703"><ele>328.0</ele><time>2026-04-16T16:14:36.999Z</time></trkpt><trkpt lat="42.8781190344989" lon="-8.826654140558517"><ele>325.3333333333333</ele><time>2026-04-16T16:14:37.999Z</time></trkpt><trkpt lat="42.87804615780642" lon="-8.826878889737017"><ele>322.6666666666667</ele><time>2026-04-16T16:14:38.999Z</time></trkpt><trkpt lat="42.877973003732706" lon="-8.827098453612082"><ele>320.0</ele><time>2026-04-16T16:14:39.999Z</time></trkpt><trkpt lat="42.8778986370598" lon="-8.827312529019158"><ele>320.0</ele><time>2026-04-16T16:14:40.999Z</time></trkpt><trkpt lat="42.877830962620116" lon="-8.827526148492677"><ele>320.0</ele><time>2026-04-16T16:14:41.999Z</time></trkpt><trkpt lat="42.87778674281121" lon="-8.827743104521819"><ele>320.0</ele><time>2026-04-16T16:14:42.999Z</time></trkpt><trkpt lat="42.87776800820682" lon="-8.827975449698917"><ele>320.0</ele><time>2026-04-16T16:14:43.999Z</time></trkpt><trkpt lat="42.87777180730693" lon="-8.828215233329566"><ele>320.0</ele><time>2026-04-16T16:14:44.999Z</time></trkpt><trkpt lat="42.87776768209634" lon="-8.828452268942815"><ele>320.0</ele><time>2026-04-16T16:14:45.999Z</time></trkpt><trkpt lat="42.8777437040771" lon="-8.828678274853132"><ele>320.0</ele><time>2026-04-16T16:14:46.999Z</time></trkpt><trkpt lat="42.87770264348954" lon="-8.828917160587533"><ele>320.0</ele><time>2026-04-16T16:14:47.999Z</time></trkpt><trkpt lat="42.877656841387264" lon="-8.829163894273798"><ele>320.0</ele><time>2026-04-16T16:14:48.999Z</time></trkpt><trkpt lat="42.877614189654295" lon="-8.829403304373335"><ele>318.33333333333337</ele><time>2026-04-16T16:14:49.999Z</time></trkpt><trkpt lat="42.877571327057005" lon="-8.829636008118333"><ele>316.6666666666667</ele><time>2026-04-16T16:14:50.999Z</time></trkpt><trkpt lat="42.8775271068201" lon="-8.82986010341809"><ele>315.0</ele><time>2026-04-16T16:14:51.999Z</time></trkpt><trkpt lat="42.87748419788" lon="-8.830080292209775"><ele>314.6666666666667</ele><time>2026-04-16T16:14:53.001Z</time></trkpt><trkpt lat="42.87744459670784" lon="-8.830291647997107"><ele>314.33333333333337</ele><time>2026-04-16T16:14:54.001Z</time></trkpt><trkpt lat="42.87740819291373" lon="-8.830498798712144"><ele>314.0</ele><time>2026-04-16T16:14:55.001Z</time></trkpt><trkpt lat="42.87737317923146" lon="-8.83071111136674"><ele>314.0</ele><time>2026-04-16T16:14:56.001Z</time></trkpt><trkpt lat="42.87733757186087" lon="-8.830925773336581"><ele>314.0</ele><time>2026-04-16T16:14:57.001Z</time></trkpt><trkpt lat="42.87729972176685" lon="-8.831139913742776"><ele>314.0</ele><time>2026-04-16T16:14:58Z</time></trkpt><trkpt lat="42.87725763811119" lon="-8.831354597769487"><ele>314.0</ele><time>2026-04-16T16:14:59.001Z</time></trkpt><trkpt lat="42.87721529275143" lon="-8.831569931850312"><ele>314.0</ele><time>2026-04-16T16:15:00.001Z</time></trkpt><trkpt lat="42.877175926304524" lon="-8.831768168914712"><ele>314.0</ele><time>2026-04-16T16:15:01Z</time></trkpt><trkpt lat="42.877136048998" lon="-8.831958852253674"><ele>313.0</ele><time>2026-04-16T16:15:02Z</time></trkpt><trkpt lat="42.87709603110956" lon="-8.83214896502592"><ele>312.0</ele><time>2026-04-16T16:15:03Z</time></trkpt><trkpt lat="42.877056024402954" lon="-8.832342450893583"><ele>311.0</ele><time>2026-04-16T16:15:04Z</time></trkpt><trkpt lat="42.87701777831043" lon="-8.832539289360982"><ele>310.0</ele><time>2026-04-16T16:15:05Z</time></trkpt><trkpt lat="42.87698328603054" lon="-8.832744448692948"><ele>308.3333333333333</ele><time>2026-04-16T16:15:06Z</time></trkpt><trkpt lat="42.87694781508929" lon="-8.83296532907455"><ele>306.6666666666667</ele><time>2026-04-16T16:15:07Z</time></trkpt><trkpt lat="42.87691101548737" lon="-8.833196486374215"><ele>305.0</ele><time>2026-04-16T16:15:08Z</time></trkpt><trkpt lat="42.87686639735295" lon="-8.833435485293013"><ele>305.0</ele><time>2026-04-16T16:15:09Z</time></trkpt><trkpt lat="42.87681854064261" lon="-8.833682600819612"><ele>305.0</ele><time>2026-04-16T16:15:10Z</time></trkpt><trkpt lat="42.876770181038125" lon="-8.833936316446595"><ele>305.0</ele><time>2026-04-16T16:15:11Z</time></trkpt><trkpt lat="42.87672720152111" lon="-8.834174691817642"><ele>304.75</ele><time>2026-04-16T16:15:12Z</time></trkpt><trkpt lat="42.876689143683684" lon="-8.834393753431735"><ele>304.5</ele><time>2026-04-16T16:15:13Z</time></trkpt><trkpt lat="42.87665736335786" lon="-8.83457739799296"><ele>304.25</ele><time>2026-04-16T16:15:14Z</time></trkpt><trkpt lat="42.876610202098085" lon="-8.834754582570175"><ele>304.0</ele><time>2026-04-16T16:15:15Z</time></trkpt><trkpt lat="42.87653340950165" lon="-8.834925165892038"><ele>304.0</ele><time>2026-04-16T16:15:16Z</time></trkpt><trkpt lat="42.87643345395905" lon="-8.835096921421226"><ele>304.0</ele><time>2026-04-16T16:15:17Z</time></trkpt><trkpt lat="42.8763255695147" lon="-8.83528040963475"><ele>304.0</ele><time>2026-04-16T16:15:18Z</time></trkpt><trkpt lat="42.87621625559745" lon="-8.835476504360487"><ele>302.66666666666663</ele><time>2026-04-16T16:15:19Z</time></trkpt><trkpt lat="42.87611246312462" lon="-8.835662135052603"><ele>301.3333333333333</ele><time>2026-04-16T16:15:20Z</time></trkpt><trkpt lat="42.876013167636316" lon="-8.83584263342519"><ele>300.0</ele><time>2026-04-16T16:15:21Z</time></trkpt><trkpt lat="42.87592250283077" lon="-8.836028460594033"><ele>300.0</ele><time>2026-04-16T16:15:22Z</time></trkpt><trkpt lat="42.875861545419106" lon="-8.836223372555217"><ele>300.0</ele><time>2026-04-16T16:15:23Z</time></trkpt><trkpt lat="42.875826949026674" lon="-8.836427437799651"><ele>300.0</ele><time>2026-04-16T16:15:24Z</time></trkpt><trkpt lat="42.87582105690338" lon="-8.83664408409887"><ele>298.3333333333333</ele><time>2026-04-16T16:15:25Z</time></trkpt><trkpt lat="42.875827023227245" lon="-8.836878898029267"><ele>296.66666666666663</ele><time>2026-04-16T16:15:26Z</time></trkpt><trkpt lat="42.87582480187835" lon="-8.837124380697619"><ele>295.0</ele><time>2026-04-16T16:15:27Z</time></trkpt><trkpt lat="42.87581488065551" lon="-8.83737253739279"><ele>295.0</ele><time>2026-04-16T16:15:28Z</time></trkpt><trkpt lat="42.87578863175127" lon="-8.83761625021922"><ele>295.0</ele><time>2026-04-16T16:15:29Z</time></trkpt><trkpt lat="42.87575470545527" lon="-8.837871650458132"><ele>295.0</ele><time>2026-04-16T16:15:30Z</time></trkpt><trkpt lat="42.87571262747989" lon="-8.838134989931609"><ele>293.66666666666663</ele><time>2026-04-16T16:15:31Z</time></trkpt><trkpt lat="42.87567201934245" lon="-8.83838640488823"><ele>292.3333333333333</ele><time>2026-04-16T16:15:32Z</time></trkpt><trkpt lat="42.87563659406043" lon="-8.838620822219292"><ele>291.0</ele><time>2026-04-16T16:15:33Z</time></trkpt><trkpt lat="42.87559979254988" lon="-8.838834597975357"><ele>289.75</ele><time>2026-04-16T16:15:34Z</time></trkpt><trkpt lat="42.87556301419222" lon="-8.839031758833167"><ele>288.5</ele><time>2026-04-16T16:15:35Z</time></trkpt><trkpt lat="42.8755224974467" lon="-8.83922141937067"><ele>287.25</ele><time>2026-04-16T16:15:36Z</time></trkpt><trkpt lat="42.875463441647106" lon="-8.83940508243593"><ele>286.0</ele><time>2026-04-16T16:15:37Z</time></trkpt><trkpt lat="42.875390867077" lon="-8.839594179047731"><ele>283.0</ele><time>2026-04-16T16:15:38Z</time></trkpt><trkpt lat="42.87530829130911" lon="-8.8397877167598"><ele>280.0</ele><time>2026-04-16T16:15:39Z</time></trkpt><trkpt lat="42.875223811535065" lon="-8.839991637703006"><ele>277.0</ele><time>2026-04-16T16:15:40Z</time></trkpt><trkpt lat="42.87514234038292" lon="-8.840206144813486"><ele>278.0</ele><time>2026-04-16T16:15:41Z</time></trkpt><trkpt lat="42.87506065367226" lon="-8.840411112022942"><ele>279.0</ele><time>2026-04-16T16:15:42Z</time></trkpt><trkpt lat="42.874977330102936" lon="-8.840603999281125"><ele>280.0</ele><time>2026-04-16T16:15:43Z</time></trkpt><trkpt lat="42.87489212146002" lon="-8.840778986890555"><ele>280.0</ele><time>2026-04-16T16:15:44Z</time></trkpt><trkpt lat="42.87480677508665" lon="-8.840933306842917"><ele>280.0</ele><time>2026-04-16T16:15:45Z</time></trkpt><trkpt lat="42.874716342165286" lon="-8.841072825069906"><ele>280.0</ele><time>2026-04-16T16:15:46Z</time></trkpt><trkpt lat="42.87462427495322" lon="-8.841201479362852"><ele>280.0</ele><time>2026-04-16T16:15:47Z</time></trkpt><trkpt lat="42.874534040460716" lon="-8.841314019538636"><ele>279.16666666666663</ele><time>2026-04-16T16:15:48Z</time></trkpt><trkpt lat="42.87445514215254" lon="-8.841408469531329"><ele>278.3333333333333</ele><time>2026-04-16T16:15:49Z</time></trkpt><trkpt lat="42.874379790327424" lon="-8.841485434627938"><ele>277.5</ele><time>2026-04-16T16:15:50Z</time></trkpt><trkpt lat="42.87431760623522" lon="-8.841541335168772"><ele>276.6666666666667</ele><time>2026-04-16T16:15:51Z</time></trkpt><trkpt lat="42.874260507560386" lon="-8.841586746006822"><ele>275.83333333333337</ele><time>2026-04-16T16:15:52Z</time></trkpt><trkpt lat="42.87417101281826" lon="-8.841657715155465"><ele>275.0</ele><time>2026-04-16T16:15:54Z</time></trkpt><trkpt lat="42.874095175400285" lon="-8.841718067774512"><ele>274.4</ele><time>2026-04-16T16:15:56Z</time></trkpt><trkpt lat="42.87402017718506" lon="-8.841787577199003"><ele>273.8</ele><time>2026-04-16T16:15:58Z</time></trkpt><trkpt lat="42.87393481976987" lon="-8.841919610970482"><ele>273.2</ele><time>2026-04-16T16:16:00Z</time></trkpt><trkpt lat="42.87389994806838" lon="-8.842022826614535"><ele>272.6</ele><time>2026-04-16T16:16:01Z</time></trkpt><trkpt lat="42.873886058331244" lon="-8.842164891643499"><ele>272.0</ele><time>2026-04-16T16:16:02Z</time></trkpt><trkpt lat="42.87388039690396" lon="-8.842327843854719"><ele>272.0</ele><time>2026-04-16T16:16:03Z</time></trkpt><trkpt lat="42.87387252813506" lon="-8.84251037827759"><ele>272.0</ele><time>2026-04-16T16:16:03.999Z</time></trkpt><trkpt lat="42.87386269459458" lon="-8.842712498525156"><ele>272.0</ele><time>2026-04-16T16:16:04.999Z</time></trkpt><trkpt lat="42.87384314640067" lon="-8.842924659146357"><ele>272.0</ele><time>2026-04-16T16:16:05.999Z</time></trkpt><trkpt lat="42.87382447650416" lon="-8.843121690314806"><ele>274.5</ele><time>2026-04-16T16:16:06.999Z</time></trkpt><trkpt lat="42.873807861875115" lon="-8.843305173349147"><ele>277.0</ele><time>2026-04-16T16:16:07.999Z</time></trkpt><trkpt lat="42.87379875719324" lon="-8.843470293996372"><ele>279.5</ele><time>2026-04-16T16:16:08.999Z</time></trkpt><trkpt lat="42.873789047873444" lon="-8.843625856635905"><ele>282.0</ele><time>2026-04-16T16:16:09.999Z</time></trkpt><trkpt lat="42.87377725128842" lon="-8.843779917022632"><ele>282.6</ele><time>2026-04-16T16:16:10.999Z</time></trkpt><trkpt lat="42.873764378211696" lon="-8.843932451571792"><ele>283.2</ele><time>2026-04-16T16:16:11.999Z</time></trkpt><trkpt lat="42.87375475762702" lon="-8.844076168149089"><ele>283.8</ele><time>2026-04-16T16:16:12.999Z</time></trkpt><trkpt lat="42.8737582660322" lon="-8.844226576557867"><ele>284.4</ele><time>2026-04-16T16:16:13.999Z</time></trkpt><trkpt lat="42.873803165347894" lon="-8.84437170054425"><ele>285.0</ele><time>2026-04-16T16:16:14.999Z</time></trkpt><trkpt lat="42.873874587534225" lon="-8.8445007476837"><ele>282.0</ele><time>2026-04-16T16:16:15.999Z</time></trkpt><trkpt lat="42.873977831989116" lon="-8.844604091024651"><ele>279.0</ele><time>2026-04-16T16:16:16.999Z</time></trkpt><trkpt lat="42.874098514696385" lon="-8.844699377197411"><ele>276.0</ele><time>2026-04-16T16:16:17.999Z</time></trkpt><trkpt lat="42.874228667600555" lon="-8.844802796767807"><ele>273.0</ele><time>2026-04-16T16:16:18.999Z</time></trkpt><trkpt lat="42.87436020225076" lon="-8.844907455377127"><ele>273.0</ele><time>2026-04-16T16:16:19.999Z</time></trkpt><trkpt lat="42.874486435632086" lon="-8.845010852719955"><ele>273.0</ele><time>2026-04-16T16:16:20.999Z</time></trkpt><trkpt lat="42.8746075748969" lon="-8.845115404663987"><ele>273.0</ele><time>2026-04-16T16:16:21.999Z</time></trkpt><trkpt lat="42.874717890002565" lon="-8.845227272705383"><ele>273.0</ele><time>2026-04-16T16:16:22.999Z</time></trkpt><trkpt lat="42.874808115506745" lon="-8.84536008316508"><ele>269.6666666666667</ele><time>2026-04-16T16:16:23.999Z</time></trkpt><trkpt lat="42.87488334189719" lon="-8.845524202859975"><ele>266.33333333333337</ele><time>2026-04-16T16:16:24.999Z</time></trkpt><trkpt lat="42.87494834527204" lon="-8.845715139933205"><ele>263.0</ele><time>2026-04-16T16:16:25.999Z</time></trkpt><trkpt lat="42.87501164962617" lon="-8.845926738206947"><ele>261.6666666666667</ele><time>2026-04-16T16:16:26.999Z</time></trkpt><trkpt lat="42.87507509338148" lon="-8.846146357581222"><ele>260.3333333333333</ele><time>2026-04-16T16:16:27.999Z</time></trkpt><trkpt lat="42.875136931075055" lon="-8.846351877922993"><ele>259.0</ele><time>2026-04-16T16:16:28.999Z</time></trkpt><trkpt lat="42.875202501216506" lon="-8.84654481521748"><ele>260.3333333333333</ele><time>2026-04-16T16:16:29.999Z</time></trkpt><trkpt lat="42.875287144905684" lon="-8.846736246340877"><ele>261.6666666666667</ele><time>2026-04-16T16:16:30.999Z</time></trkpt><trkpt lat="42.87540318238877" lon="-8.84692319742417"><ele>263.0</ele><time>2026-04-16T16:16:31.999Z</time></trkpt><trkpt lat="42.875537355108584" lon="-8.84711148748029"><ele>263.0</ele><time>2026-04-16T16:16:32.999Z</time></trkpt><trkpt lat="42.875655144303586" lon="-8.847297036219281"><ele>263.0</ele><time>2026-04-16T16:16:33.999Z</time></trkpt><trkpt lat="42.87577631524294" lon="-8.84746301294875"><ele>263.0</ele><time>2026-04-16T16:16:34.999Z</time></trkpt><trkpt lat="42.87589663084053" lon="-8.847618297481539"><ele>261.6666666666667</ele><time>2026-04-16T16:16:35.999Z</time></trkpt><trkpt lat="42.87603646196489" lon="-8.847753397362183"><ele>260.3333333333333</ele><time>2026-04-16T16:16:36.999Z</time></trkpt><trkpt lat="42.87619112570978" lon="-8.847873496030662"><ele>259.0</ele><time>2026-04-16T16:16:37.999Z</time></trkpt><trkpt lat="42.87635613427608" lon="-8.847985763388792"><ele>259.0</ele><time>2026-04-16T16:16:38.999Z</time></trkpt><trkpt lat="42.876523849003135" lon="-8.84810213250606"><ele>259.0</ele><time>2026-04-16T16:16:39.999Z</time></trkpt><trkpt lat="42.87668410167556" lon="-8.848215262268578"><ele>259.0</ele><time>2026-04-16T16:16:40.999Z</time></trkpt><trkpt lat="42.87683486218051" lon="-8.848317483604452"><ele>258.75</ele><time>2026-04-16T16:16:41.999Z</time></trkpt><trkpt lat="42.87696881767635" lon="-8.848397708359514"><ele>258.5</ele><time>2026-04-16T16:16:42.999Z</time></trkpt><trkpt lat="42.87709452282481" lon="-8.848443933283887"><ele>258.25</ele><time>2026-04-16T16:16:43.999Z</time></trkpt><trkpt lat="42.877216640171255" lon="-8.84844711429495"><ele>258.0</ele><time>2026-04-16T16:16:44.999Z</time></trkpt><trkpt lat="42.877333135921894" lon="-8.84838477633198"><ele>258.0</ele><time>2026-04-16T16:16:45.999Z</time></trkpt><trkpt lat="42.87746536800698" lon="-8.848349845189524"><ele>258.0</ele><time>2026-04-16T16:16:46.999Z</time></trkpt><trkpt lat="42.877577594094596" lon="-8.848310279413415"><ele>258.0</ele><time>2026-04-16T16:16:47.999Z</time></trkpt><trkpt lat="42.877683293963386" lon="-8.84830701438792"><ele>258.0</ele><time>2026-04-16T16:16:48.999Z</time></trkpt><trkpt lat="42.87778453368276" lon="-8.848341768621006"><ele>258.0</ele><time>2026-04-16T16:16:49.999Z</time></trkpt><trkpt lat="42.87787375283369" lon="-8.848425756604529"><ele>258.0</ele><time>2026-04-16T16:16:50.999Z</time></trkpt><trkpt lat="42.87793341977038" lon="-8.848547003291662"><ele>258.0</ele><time>2026-04-16T16:16:51.999Z</time></trkpt><trkpt lat="42.87796974447609" lon="-8.848703190374357"><ele>258.0</ele><time>2026-04-16T16:16:52.999Z</time></trkpt><trkpt lat="42.87798528418581" lon="-8.848871840690403"><ele>258.0</ele><time>2026-04-16T16:16:53.999Z</time></trkpt><trkpt lat="42.87799333718025" lon="-8.8490491563429"><ele>258.0</ele><time>2026-04-16T16:16:54.999Z</time></trkpt><trkpt lat="42.877998284966324" lon="-8.849243917559244"><ele>258.0</ele><time>2026-04-16T16:16:55.999Z</time></trkpt><trkpt lat="42.878009425744565" lon="-8.84943641281786"><ele>258.0</ele><time>2026-04-16T16:16:56.999Z</time></trkpt><trkpt lat="42.8780253837926" lon="-8.849610367988221"><ele>255.5</ele><time>2026-04-16T16:16:57.999Z</time></trkpt><trkpt lat="42.87805504242762" lon="-8.849770122596551"><ele>253.0</ele><time>2026-04-16T16:16:59.001Z</time></trkpt><trkpt lat="42.87811176040421" lon="-8.84990965275696"><ele>250.5</ele><time>2026-04-16T16:17:00.001Z</time></trkpt><trkpt lat="42.87819843020898" lon="-8.85003644465406"><ele>248.0</ele><time>2026-04-16T16:17:01.001Z</time></trkpt><trkpt lat="42.87829936314409" lon="-8.850162493824818"><ele>246.66666666666669</ele><time>2026-04-16T16:17:02.001Z</time></trkpt><trkpt lat="42.878425919501694" lon="-8.850291976586638"><ele>245.33333333333331</ele><time>2026-04-16T16:17:03.001Z</time></trkpt><trkpt lat="42.87855691697385" lon="-8.850442507545283"><ele>244.0</ele><time>2026-04-16T16:17:04.001Z</time></trkpt><trkpt lat="42.87868659043868" lon="-8.850602647064532"><ele>244.0</ele><time>2026-04-16T16:17:05.001Z</time></trkpt><trkpt lat="42.878829520678046" lon="-8.850737573454056"><ele>244.0</ele><time>2026-04-16T16:17:06.001Z</time></trkpt><trkpt lat="42.87895253040759" lon="-8.850882645247818"><ele>244.0</ele><time>2026-04-16T16:17:07Z</time></trkpt><trkpt lat="42.8790857144106" lon="-8.851023043556461"><ele>243.0</ele><time>2026-04-16T16:17:08.001Z</time></trkpt><trkpt lat="42.87921177058933" lon="-8.85114776041949"><ele>242.0</ele><time>2026-04-16T16:17:09.001Z</time></trkpt><trkpt lat="42.879328444571215" lon="-8.851261391857731"><ele>241.0</ele><time>2026-04-16T16:17:10Z</time></trkpt><trkpt lat="42.8794335243944" lon="-8.85136792459423"><ele>240.0</ele><time>2026-04-16T16:17:11Z</time></trkpt><trkpt lat="42.87952436483207" lon="-8.8514605241145"><ele>240.0</ele><time>2026-04-16T16:17:12.001Z</time></trkpt><trkpt lat="42.87959463348033" lon="-8.851569710209304"><ele>240.0</ele><time>2026-04-16T16:17:13Z</time></trkpt><trkpt lat="42.87963974313579" lon="-8.851691548330345"><ele>240.0</ele><time>2026-04-16T16:17:14Z</time></trkpt><trkpt lat="42.879658024380404" lon="-8.851809389821941"><ele>240.0</ele><time>2026-04-16T16:17:15Z</time></trkpt><trkpt lat="42.87965765945093" lon="-8.851927872239559"><ele>240.0</ele><time>2026-04-16T16:17:16Z</time></trkpt><trkpt lat="42.87966451751415" lon="-8.852039768494937"><ele>238.8</ele><time>2026-04-16T16:17:17Z</time></trkpt><trkpt lat="42.879702527921935" lon="-8.85214037980285"><ele>237.6</ele><time>2026-04-16T16:17:18Z</time></trkpt><trkpt lat="42.87977214578875" lon="-8.852215468466232"><ele>236.39999999999998</ele><time>2026-04-16T16:17:19Z</time></trkpt><trkpt lat="42.879870403852784" lon="-8.852277908691878"><ele>235.2</ele><time>2026-04-16T16:17:20Z</time></trkpt><trkpt lat="42.87999100214203" lon="-8.852339828388217"><ele>234.0</ele><time>2026-04-16T16:17:21Z</time></trkpt><trkpt lat="42.88011051141957" lon="-8.852430907749135"><ele>235.33333333333331</ele><time>2026-04-16T16:17:22Z</time></trkpt><trkpt lat="42.88022851763693" lon="-8.852553812654328"><ele>236.66666666666666</ele><time>2026-04-16T16:17:23Z</time></trkpt><trkpt lat="42.88035089744249" lon="-8.852692618990762"><ele>238.0</ele><time>2026-04-16T16:17:24Z</time></trkpt><trkpt lat="42.88047439431451" lon="-8.852842583581614"><ele>238.0</ele><time>2026-04-16T16:17:25Z</time></trkpt><trkpt lat="42.88059906388517" lon="-8.853000429178879"><ele>238.0</ele><time>2026-04-16T16:17:26Z</time></trkpt><trkpt lat="42.88072260326366" lon="-8.853174815055095"><ele>238.0</ele><time>2026-04-16T16:17:27Z</time></trkpt><trkpt lat="42.88085142932116" lon="-8.853355659508235"><ele>239.0</ele><time>2026-04-16T16:17:28Z</time></trkpt><trkpt lat="42.88098574934695" lon="-8.85351182059434"><ele>240.0</ele><time>2026-04-16T16:17:29Z</time></trkpt><trkpt lat="42.88111013746438" lon="-8.85364502453159"><ele>241.0</ele><time>2026-04-16T16:17:30Z</time></trkpt><trkpt lat="42.88121450295999" lon="-8.853767717358556"><ele>241.0</ele><time>2026-04-16T16:17:31Z</time></trkpt><trkpt lat="42.88130987376698" lon="-8.853870324868673"><ele>241.00000000000003</ele><time>2026-04-16T16:17:32Z</time></trkpt><trkpt lat="42.88139056244996" lon="-8.853963256417451"><ele>241.00000000000003</ele><time>2026-04-16T16:17:33Z</time></trkpt><trkpt lat="42.88145147128228" lon="-8.854052351897574"><ele>241.0</ele><time>2026-04-16T16:17:34Z</time></trkpt><trkpt lat="42.881493034254035" lon="-8.854157133675956"><ele>241.0</ele><time>2026-04-16T16:17:35Z</time></trkpt><trkpt lat="42.881525255232646" lon="-8.854276555598124"><ele>239.4</ele><time>2026-04-16T16:17:36Z</time></trkpt><trkpt lat="42.881551696020914" lon="-8.854394316186022"><ele>237.8</ele><time>2026-04-16T16:17:37Z</time></trkpt><trkpt lat="42.881556075980896" lon="-8.854522464766212"><ele>236.20000000000002</ele><time>2026-04-16T16:17:38Z</time></trkpt><trkpt lat="42.881528383037136" lon="-8.854672891604363"><ele>234.60000000000002</ele><time>2026-04-16T16:17:39Z</time></trkpt><trkpt lat="42.88147690542855" lon="-8.854839589786497"><ele>233.0</ele><time>2026-04-16T16:17:40Z</time></trkpt><trkpt lat="42.88142109257146" lon="-8.855016846895765"><ele>232.25</ele><time>2026-04-16T16:17:41Z</time></trkpt><trkpt lat="42.88136137811607" lon="-8.855208752420848"><ele>231.5</ele><time>2026-04-16T16:17:42Z</time></trkpt><trkpt lat="42.88130299941226" lon="-8.855395876761607"><ele>230.75</ele><time>2026-04-16T16:17:43Z</time></trkpt><trkpt lat="42.88125611021099" lon="-8.855566436865857"><ele>230.0</ele><time>2026-04-16T16:17:44Z</time></trkpt><trkpt lat="42.8812100639535" lon="-8.855718452218861"><ele>230.0</ele><time>2026-04-16T16:17:45Z</time></trkpt><trkpt lat="42.88116233633843" lon="-8.85585430308815"><ele>230.0</ele><time>2026-04-16T16:17:46Z</time></trkpt><trkpt lat="42.88110345818746" lon="-8.855969108163151"><ele>230.0</ele><time>2026-04-16T16:17:47Z</time></trkpt><trkpt lat="42.881023821756344" lon="-8.856043642980303"><ele>230.0</ele><time>2026-04-16T16:17:48Z</time></trkpt><trkpt lat="42.88092500679038" lon="-8.85608091798837"><ele>230.0</ele><time>2026-04-16T16:17:49Z</time></trkpt><trkpt lat="42.880820783051355" lon="-8.856089397462183"><ele>231.75</ele><time>2026-04-16T16:17:50Z</time></trkpt><trkpt lat="42.88071446329595" lon="-8.856051889217971"><ele>233.5</ele><time>2026-04-16T16:17:51Z</time></trkpt><trkpt lat="42.88061159525946" lon="-8.855969323827036"><ele>235.25</ele><time>2026-04-16T16:17:52Z</time></trkpt><trkpt lat="42.880515480296324" lon="-8.855852079789654"><ele>237.0</ele><time>2026-04-16T16:17:53Z</time></trkpt><trkpt lat="42.88040779776735" lon="-8.855727715477641"><ele>237.0</ele><time>2026-04-16T16:17:54Z</time></trkpt><trkpt lat="42.880301840136234" lon="-8.855586045977617"><ele>237.0</ele><time>2026-04-16T16:17:55Z</time></trkpt><trkpt lat="42.880189091869156" lon="-8.855419808629335"><ele>237.0</ele><time>2026-04-16T16:17:56Z</time></trkpt><trkpt lat="42.88005370348881" lon="-8.855252058649329"><ele>240.0</ele><time>2026-04-16T16:17:57Z</time></trkpt><trkpt lat="42.879907095247695" lon="-8.855086323351916"><ele>243.0</ele><time>2026-04-16T16:17:58Z</time></trkpt><trkpt lat="42.87976873473798" lon="-8.854908156325232"><ele>246.0</ele><time>2026-04-16T16:17:59Z</time></trkpt><trkpt lat="42.87963236313717" lon="-8.854728284678476"><ele>246.0</ele><time>2026-04-16T16:18:00Z</time></trkpt><trkpt lat="42.87950889876194" lon="-8.854563651861291"><ele>246.0</ele><time>2026-04-16T16:18:01Z</time></trkpt><trkpt lat="42.879401246232234" lon="-8.854411580996711"><ele>246.0</ele><time>2026-04-16T16:18:02Z</time></trkpt><trkpt lat="42.879300756705895" lon="-8.854280172836773"><ele>246.25</ele><time>2026-04-16T16:18:03Z</time></trkpt><trkpt lat="42.87919302485558" lon="-8.85415803937808"><ele>246.5</ele><time>2026-04-16T16:18:04Z</time></trkpt><trkpt lat="42.87906066979575" lon="-8.854074884752034"><ele>246.75</ele><time>2026-04-16T16:18:05Z</time></trkpt><trkpt lat="42.87891624853028" lon="-8.854005943845003"><ele>247.0</ele><time>2026-04-16T16:18:06Z</time></trkpt><trkpt lat="42.87876107624066" lon="-8.853935212728743"><ele>247.0</ele><time>2026-04-16T16:18:07Z</time></trkpt><trkpt lat="42.87859072886558" lon="-8.853883490322927"><ele>247.0</ele><time>2026-04-16T16:18:08Z</time></trkpt><trkpt lat="42.87841336308878" lon="-8.853807637989107"><ele>247.0</ele><time>2026-04-16T16:18:09Z</time></trkpt><trkpt lat="42.87823481948333" lon="-8.853709623466985"><ele>250.0</ele><time>2026-04-16T16:18:10Z</time></trkpt><trkpt lat="42.87804451201534" lon="-8.853632010636856"><ele>253.0</ele><time>2026-04-16T16:18:11Z</time></trkpt><trkpt lat="42.87786906802481" lon="-8.853564852995685"><ele>256.0</ele><time>2026-04-16T16:18:12Z</time></trkpt><trkpt lat="42.8777017010346" lon="-8.853487950801618"><ele>254.33333333333331</ele><time>2026-04-16T16:18:13Z</time></trkpt><trkpt lat="42.8775422616035" lon="-8.853373106414871"><ele>252.66666666666669</ele><time>2026-04-16T16:18:13.999Z</time></trkpt><trkpt lat="42.87737055840213" lon="-8.853247485989987"><ele>251.0</ele><time>2026-04-16T16:18:14.999Z</time></trkpt><trkpt lat="42.877222688753825" lon="-8.853091043229881"><ele>251.0</ele><time>2026-04-16T16:18:15.999Z</time></trkpt><trkpt lat="42.877049571440985" lon="-8.852976975010927"><ele>251.0</ele><time>2026-04-16T16:18:16.999Z</time></trkpt><trkpt lat="42.87687703862933" lon="-8.852886369117147"><ele>251.0</ele><time>2026-04-16T16:18:17.999Z</time></trkpt><trkpt lat="42.87670612028153" lon="-8.85281215456747"><ele>256.33333333333337</ele><time>2026-04-16T16:18:18.999Z</time></trkpt><trkpt lat="42.876535673842724" lon="-8.852746393327735"><ele>261.6666666666667</ele><time>2026-04-16T16:18:19.999Z</time></trkpt><trkpt lat="42.87638685815431" lon="-8.85272082144621"><ele>267.0</ele><time>2026-04-16T16:18:20.999Z</time></trkpt><trkpt lat="42.87624231280147" lon="-8.852697923922214"><ele>267.0</ele><time>2026-04-16T16:18:21.999Z</time></trkpt><trkpt lat="42.876106230559245" lon="-8.852655478461033"><ele>267.0</ele><time>2026-04-16T16:18:22.999Z</time></trkpt><trkpt lat="42.87597451131236" lon="-8.85254431823337"><ele>267.0</ele><time>2026-04-16T16:18:23.999Z</time></trkpt><trkpt lat="42.87586886889604" lon="-8.85239547993454"><ele>267.0</ele><time>2026-04-16T16:18:24.999Z</time></trkpt><trkpt lat="42.87574618242036" lon="-8.852266901627896"><ele>267.25</ele><time>2026-04-16T16:18:25.999Z</time></trkpt><trkpt lat="42.87561221381096" lon="-8.852135755816315"><ele>267.5</ele><time>2026-04-16T16:18:26.999Z</time></trkpt><trkpt lat="42.87547816642854" lon="-8.852026818699446"><ele>267.75</ele><time>2026-04-16T16:18:27.999Z</time></trkpt><trkpt lat="42.87536216727867" lon="-8.851957951431729"><ele>268.0</ele><time>2026-04-16T16:18:28.999Z</time></trkpt><trkpt lat="42.87525048455188" lon="-8.851917662881997"><ele>268.0</ele><time>2026-04-16T16:18:29.999Z</time></trkpt><trkpt lat="42.87512794928167" lon="-8.851918454382767"><ele>268.0</ele><time>2026-04-16T16:18:30.999Z</time></trkpt><trkpt lat="42.87499738033609" lon="-8.851949768623609"><ele>268.0</ele><time>2026-04-16T16:18:31.999Z</time></trkpt><trkpt lat="42.87485912278781" lon="-8.852010221144802"><ele>268.0</ele><time>2026-04-16T16:18:32.999Z</time></trkpt><trkpt lat="42.874734535529285" lon="-8.852087277056656"><ele>270.0</ele><time>2026-04-16T16:18:33.999Z</time></trkpt><trkpt lat="42.87462977230863" lon="-8.852146763677387"><ele>272.0</ele><time>2026-04-16T16:18:34.999Z</time></trkpt><trkpt lat="42.87453295268408" lon="-8.852190454683603"><ele>274.0</ele><time>2026-04-16T16:18:35.999Z</time></trkpt><trkpt lat="42.8744260233867" lon="-8.85216878076936"><ele>276.0</ele><time>2026-04-16T16:18:36.999Z</time></trkpt><trkpt lat="42.87432631151589" lon="-8.852079644835841"><ele>278.0</ele><time>2026-04-16T16:18:37.999Z</time></trkpt><trkpt lat="42.87426344571178" lon="-8.851931716862413"><ele>280.5</ele><time>2026-04-16T16:18:38.999Z</time></trkpt><trkpt lat="42.87418050448545" lon="-8.851815044960857"><ele>283.0</ele><time>2026-04-16T16:18:39.999Z</time></trkpt><trkpt lat="42.874109388512984" lon="-8.851685859978655"><ele>285.5</ele><time>2026-04-16T16:18:40.999Z</time></trkpt><trkpt lat="42.873999623065146" lon="-8.851599944456275"><ele>288.0</ele><time>2026-04-16T16:18:41.999Z</time></trkpt><trkpt lat="42.873895045348675" lon="-8.851516245352018"><ele>284.25</ele><time>2026-04-16T16:18:42.999Z</time></trkpt><trkpt lat="42.87376783286655" lon="-8.851457700794878"><ele>280.5</ele><time>2026-04-16T16:18:43.999Z</time></trkpt><trkpt lat="42.87362362562506" lon="-8.851439443338526"><ele>276.75</ele><time>2026-04-16T16:18:44.999Z</time></trkpt><trkpt lat="42.87346648115389" lon="-8.851435391657464"><ele>273.0</ele><time>2026-04-16T16:18:45.999Z</time></trkpt><trkpt lat="42.87329491045313" lon="-8.851431512764988"><ele>273.0</ele><time>2026-04-16T16:18:46.999Z</time></trkpt><trkpt lat="42.87311273924426" lon="-8.8514338255261"><ele>273.0</ele><time>2026-04-16T16:18:47.999Z</time></trkpt><trkpt lat="42.87292474049854" lon="-8.851421325894314"><ele>273.0</ele><time>2026-04-16T16:18:48.999Z</time></trkpt><trkpt lat="42.87273746692765" lon="-8.851408874446063"><ele>273.6666666666667</ele><time>2026-04-16T16:18:49.999Z</time></trkpt><trkpt lat="42.87256509720281" lon="-8.851397413923555"><ele>274.33333333333337</ele><time>2026-04-16T16:18:50.999Z</time></trkpt><trkpt lat="42.87239274398395" lon="-8.851385197229645"><ele>275.0</ele><time>2026-04-16T16:18:51.999Z</time></trkpt><trkpt lat="42.87222869442429" lon="-8.85137157309379"><ele>275.0</ele><time>2026-04-16T16:18:52.999Z</time></trkpt><trkpt lat="42.87206284137678" lon="-8.851343006638317"><ele>275.0</ele><time>2026-04-16T16:18:53.999Z</time></trkpt><trkpt lat="42.8719003307842" lon="-8.851289858926586"><ele>275.0</ele><time>2026-04-16T16:18:54.999Z</time></trkpt><trkpt lat="42.871736460218045" lon="-8.85123141499268"><ele>278.33333333333337</ele><time>2026-04-16T16:18:55.999Z</time></trkpt><trkpt lat="42.871561364256166" lon="-8.851184173571877"><ele>281.6666666666667</ele><time>2026-04-16T16:18:56.999Z</time></trkpt><trkpt lat="42.871381585983805" lon="-8.85113142204888"><ele>285.0</ele><time>2026-04-16T16:18:57.999Z</time></trkpt><trkpt lat="42.87119992088847" lon="-8.851076323709327"><ele>285.0</ele><time>2026-04-16T16:18:58.999Z</time></trkpt><trkpt lat="42.87103527112265" lon="-8.851037372891623"><ele>285.0</ele><time>2026-04-16T16:18:59.999Z</time></trkpt><trkpt lat="42.87087970744941" lon="-8.851011718944244"><ele>285.0</ele><time>2026-04-16T16:19:00.999Z</time></trkpt><trkpt lat="42.87072966152532" lon="-8.850994237290056"><ele>289.0</ele><time>2026-04-16T16:19:01.999Z</time></trkpt><trkpt lat="42.8705673467218" lon="-8.850988740940602"><ele>293.0</ele><time>2026-04-16T16:19:02.999Z</time></trkpt><trkpt lat="42.87039215212143" lon="-8.850996987058712"><ele>297.0</ele><time>2026-04-16T16:19:03.999Z</time></trkpt><trkpt lat="42.870212422276985" lon="-8.851010887224081"><ele>300.3333333333333</ele><time>2026-04-16T16:19:05.001Z</time></trkpt><trkpt lat="42.87003149748493" lon="-8.851027791795893"><ele>303.66666666666663</ele><time>2026-04-16T16:19:06.001Z</time></trkpt><trkpt lat="42.86985654084182" lon="-8.851049314805014"><ele>307.0</ele><time>2026-04-16T16:19:07Z</time></trkpt><trkpt lat="42.86968410724236" lon="-8.851060787560177"><ele>307.0</ele><time>2026-04-16T16:19:08.001Z</time></trkpt><trkpt lat="42.86951292185078" lon="-8.851038990528254"><ele>307.0</ele><time>2026-04-16T16:19:09.001Z</time></trkpt><trkpt lat="42.869351850092805" lon="-8.851009587517058"><ele>307.0</ele><time>2026-04-16T16:19:10Z</time></trkpt><trkpt lat="42.869200683851524" lon="-8.851008936918175"><ele>307.25</ele><time>2026-04-16T16:19:11Z</time></trkpt><trkpt lat="42.86904649766119" lon="-8.85103572483699"><ele>307.5</ele><time>2026-04-16T16:19:12Z</time></trkpt><trkpt lat="42.86890233382479" lon="-8.851095890890377"><ele>307.75</ele><time>2026-04-16T16:19:13Z</time></trkpt><trkpt lat="42.86877310516745" lon="-8.85115357510242"><ele>308.0</ele><time>2026-04-16T16:19:14Z</time></trkpt><trkpt lat="42.868641943629164" lon="-8.851191926249564"><ele>308.0</ele><time>2026-04-16T16:19:15Z</time></trkpt><trkpt lat="42.868495377060704" lon="-8.851169336067072"><ele>308.0</ele><time>2026-04-16T16:19:16Z</time></trkpt><trkpt lat="42.86835133825649" lon="-8.851114300607044"><ele>308.0</ele><time>2026-04-16T16:19:17Z</time></trkpt><trkpt lat="42.86821097751106" lon="-8.851022439429146"><ele>301.33333333333337</ele><time>2026-04-16T16:19:18Z</time></trkpt><trkpt lat="42.8680815032706" lon="-8.850890404513818"><ele>294.6666666666667</ele><time>2026-04-16T16:19:19Z</time></trkpt><trkpt lat="42.867964010114264" lon="-8.850730547741266"><ele>288.0</ele><time>2026-04-16T16:19:20Z</time></trkpt><trkpt lat="42.86786671710493" lon="-8.850589598329963"><ele>288.0</ele><time>2026-04-16T16:19:21Z</time></trkpt><trkpt lat="42.867774569276214" lon="-8.85046656718914"><ele>288.0</ele><time>2026-04-16T16:19:22Z</time></trkpt><trkpt lat="42.8676559884321" lon="-8.850385681791018"><ele>288.0</ele><time>2026-04-16T16:19:23Z</time></trkpt><trkpt lat="42.867519343360236" lon="-8.850334159148654"><ele>288.0</ele><time>2026-04-16T16:19:24Z</time></trkpt><trkpt lat="42.867368102108315" lon="-8.850314788894513"><ele>291.75</ele><time>2026-04-16T16:19:25Z</time></trkpt><trkpt lat="42.867226312831484" lon="-8.850305028529105"><ele>295.5</ele><time>2026-04-16T16:19:26Z</time></trkpt><trkpt lat="42.86710302156393" lon="-8.850302341218846"><ele>299.25</ele><time>2026-04-16T16:19:27Z</time></trkpt><trkpt lat="42.866989715387774" lon="-8.850325887819915"><ele>303.0</ele><time>2026-04-16T16:19:28Z</time></trkpt><trkpt lat="42.86687821562931" lon="-8.850385554203365"><ele>303.25</ele><time>2026-04-16T16:19:29Z</time></trkpt><trkpt lat="42.86677083277124" lon="-8.850479472245755"><ele>303.5</ele><time>2026-04-16T16:19:30Z</time></trkpt><trkpt lat="42.86666644946251" lon="-8.850600752846729"><ele>303.75</ele><time>2026-04-16T16:19:31Z</time></trkpt><trkpt lat="42.86655351178956" lon="-8.850737400715389"><ele>304.0</ele><time>2026-04-16T16:19:32Z</time></trkpt><trkpt lat="42.866415173840835" lon="-8.850872682976988"><ele>306.0</ele><time>2026-04-16T16:19:33Z</time></trkpt><trkpt lat="42.86625379057721" lon="-8.851005576489479"><ele>308.0</ele><time>2026-04-16T16:19:34Z</time></trkpt><trkpt lat="42.86608450040331" lon="-8.851130452010038"><ele>310.0</ele><time>2026-04-16T16:19:35Z</time></trkpt><trkpt lat="42.86591548246424" lon="-8.851265039390253"><ele>310.0</ele><time>2026-04-16T16:19:36Z</time></trkpt><trkpt lat="42.86574240169615" lon="-8.851404795704347"><ele>310.0</ele><time>2026-04-16T16:19:37Z</time></trkpt><trkpt lat="42.86557785093665" lon="-8.85153769392942"><ele>310.0</ele><time>2026-04-16T16:19:38Z</time></trkpt><trkpt lat="42.86542692137836" lon="-8.851653682218545"><ele>310.0</ele><time>2026-04-16T16:19:39Z</time></trkpt><trkpt lat="42.865285534912644" lon="-8.851758830836019"><ele>310.0</ele><time>2026-04-16T16:19:40Z</time></trkpt><trkpt lat="42.865153303310755" lon="-8.851853057637676"><ele>310.0</ele><time>2026-04-16T16:19:41Z</time></trkpt><trkpt lat="42.86502557851414" lon="-8.851928005682405"><ele>310.0</ele><time>2026-04-16T16:19:42Z</time></trkpt><trkpt lat="42.86489197792912" lon="-8.85196696182302"><ele>312.5</ele><time>2026-04-16T16:19:43Z</time></trkpt><trkpt lat="42.864750319495236" lon="-8.851972994108705"><ele>315.0</ele><time>2026-04-16T16:19:44Z</time></trkpt><trkpt lat="42.86462350406251" lon="-8.85195106256413"><ele>317.5</ele><time>2026-04-16T16:19:45Z</time></trkpt><trkpt lat="42.86451326279573" lon="-8.851933203447853"><ele>320.0</ele><time>2026-04-16T16:19:46Z</time></trkpt><trkpt lat="42.86441194484063" lon="-8.85194299687029"><ele>320.0</ele><time>2026-04-16T16:19:47Z</time></trkpt><trkpt lat="42.86432464141849" lon="-8.851984085462767"><ele>320.0</ele><time>2026-04-16T16:19:48Z</time></trkpt><trkpt lat="42.86423851286069" lon="-8.852044270445813"><ele>320.0</ele><time>2026-04-16T16:19:49Z</time></trkpt><trkpt lat="42.86413830167939" lon="-8.852104982788962"><ele>320.0</ele><time>2026-04-16T16:19:50Z</time></trkpt><trkpt lat="42.864027717011425" lon="-8.852146984709407"><ele>320.0</ele><time>2026-04-16T16:19:51Z</time></trkpt><trkpt lat="42.863915566573006" lon="-8.85214618044768"><ele>319.0</ele><time>2026-04-16T16:19:52Z</time></trkpt><trkpt lat="42.863799990554156" lon="-8.8520961955259"><ele>318.0</ele><time>2026-04-16T16:19:53Z</time></trkpt><trkpt lat="42.86367534229452" lon="-8.852025801147011"><ele>317.0</ele><time>2026-04-16T16:19:54Z</time></trkpt><trkpt lat="42.86354046890213" lon="-8.851965393537519"><ele>316.0</ele><time>2026-04-16T16:19:55Z</time></trkpt><trkpt lat="42.86339370853811" lon="-8.851929635535909"><ele>315.3333333333333</ele><time>2026-04-16T16:19:56Z</time></trkpt><trkpt lat="42.86323746735538" lon="-8.851902240039422"><ele>314.6666666666667</ele><time>2026-04-16T16:19:57Z</time></trkpt><trkpt lat="42.86306253946057" lon="-8.851905917594936"><ele>314.0</ele><time>2026-04-16T16:19:58Z</time></trkpt><trkpt lat="42.86290174801345" lon="-8.851920387411921"><ele>314.0</ele><time>2026-04-16T16:19:59Z</time></trkpt><trkpt lat="42.862746391751514" lon="-8.85193332746112"><ele>314.0</ele><time>2026-04-16T16:20:00Z</time></trkpt><trkpt lat="42.86258806723124" lon="-8.851937429354976"><ele>314.0</ele><time>2026-04-16T16:20:01Z</time></trkpt><trkpt lat="42.8624382030504" lon="-8.851942402614684"><ele>313.75</ele><time>2026-04-16T16:20:02Z</time></trkpt><trkpt lat="42.86230341667501" lon="-8.851978953527263"><ele>313.5</ele><time>2026-04-16T16:20:03Z</time></trkpt><trkpt lat="42.86216479403546" lon="-8.852043481101536"><ele>313.25</ele><time>2026-04-16T16:20:04Z</time></trkpt><trkpt lat="42.86202301557096" lon="-8.852133413029767"><ele>313.0</ele><time>2026-04-16T16:20:05Z</time></trkpt><trkpt lat="42.861879847678885" lon="-8.852241560398108"><ele>316.3333333333333</ele><time>2026-04-16T16:20:06Z</time></trkpt><trkpt lat="42.86173684030375" lon="-8.852370985035513"><ele>319.6666666666667</ele><time>2026-04-16T16:20:07Z</time></trkpt><trkpt lat="42.86160046754292" lon="-8.852511403207005"><ele>323.0</ele><time>2026-04-16T16:20:08Z</time></trkpt><trkpt lat="42.86147933594431" lon="-8.852627000120878"><ele>325.75</ele><time>2026-04-16T16:20:09Z</time></trkpt><trkpt lat="42.86136446409297" lon="-8.852723391175124"><ele>328.5</ele><time>2026-04-16T16:20:10Z</time></trkpt><trkpt lat="42.86123237755776" lon="-8.852777837356758"><ele>331.25</ele><time>2026-04-16T16:20:11Z</time></trkpt><trkpt lat="42.86108417142934" lon="-8.852799699205073"><ele>334.0</ele><time>2026-04-16T16:20:12Z</time></trkpt><trkpt lat="42.86092756171024" lon="-8.852801058782617"><ele>334.5</ele><time>2026-04-16T16:20:13Z</time></trkpt><trkpt lat="42.86077413704055" lon="-8.852801636468046"><ele>335.0</ele><time>2026-04-16T16:20:14Z</time></trkpt><trkpt lat="42.86064514531554" lon="-8.852845432224774"><ele>335.5</ele><time>2026-04-16T16:20:15Z</time></trkpt><trkpt lat="42.860522602626396" lon="-8.852929702758367"><ele>336.0</ele><time>2026-04-16T16:20:16Z</time></trkpt><trkpt lat="42.860396996074" lon="-8.853042842098782"><ele>336.0</ele><time>2026-04-16T16:20:17Z</time></trkpt><trkpt lat="42.86027621521666" lon="-8.853157291939581"><ele>336.0</ele><time>2026-04-16T16:20:17.999Z</time></trkpt><trkpt lat="42.86017012768244" lon="-8.853253266709006"><ele>336.0</ele><time>2026-04-16T16:20:18.999Z</time></trkpt><trkpt lat="42.8600772359839" lon="-8.85334281433607"><ele>336.0</ele><time>2026-04-16T16:20:19.999Z</time></trkpt><trkpt lat="42.85999250664759" lon="-8.853422038792655"><ele>335.0</ele><time>2026-04-16T16:20:20.999Z</time></trkpt><trkpt lat="42.85990877292397" lon="-8.853495559185241"><ele>334.0</ele><time>2026-04-16T16:20:21.999Z</time></trkpt><trkpt lat="42.85981501520366" lon="-8.85357230151127"><ele>333.0</ele><time>2026-04-16T16:20:22.999Z</time></trkpt><trkpt lat="42.85970873933135" lon="-8.853659819508183"><ele>332.0</ele><time>2026-04-16T16:20:23.999Z</time></trkpt><trkpt lat="42.85959789130562" lon="-8.853755382660859"><ele>332.0</ele><time>2026-04-16T16:20:24.999Z</time></trkpt><trkpt lat="42.859482253987565" lon="-8.85385668207505"><ele>332.0</ele><time>2026-04-16T16:20:25.999Z</time></trkpt><trkpt lat="42.859374689011666" lon="-8.85394993597831"><ele>332.0</ele><time>2026-04-16T16:20:26.999Z</time></trkpt><trkpt lat="42.85927144675384" lon="-8.854039499126728"><ele>332.0</ele><time>2026-04-16T16:20:27.999Z</time></trkpt><trkpt lat="42.85917170092463" lon="-8.854128669942032"><ele>331.20000000000005</ele><time>2026-04-16T16:20:28.999Z</time></trkpt><trkpt lat="42.85907550433835" lon="-8.854212103042205"><ele>330.4</ele><time>2026-04-16T16:20:29.999Z</time></trkpt><trkpt lat="42.858978843568515" lon="-8.854291206080786"><ele>329.6</ele><time>2026-04-16T16:20:30.999Z</time></trkpt><trkpt lat="42.858884061516726" lon="-8.854366337722976"><ele>328.79999999999995</ele><time>2026-04-16T16:20:31.999Z</time></trkpt><trkpt lat="42.85879280825743" lon="-8.854446754023108"><ele>328.0</ele><time>2026-04-16T16:20:32.999Z</time></trkpt><trkpt lat="42.85870426469911" lon="-8.854546333865725"><ele>327.75</ele><time>2026-04-16T16:20:33.999Z</time></trkpt><trkpt lat="42.85861950169349" lon="-8.854663047770769"><ele>327.5</ele><time>2026-04-16T16:20:34.999Z</time></trkpt><trkpt lat="42.85853506927202" lon="-8.854792404317035"><ele>327.25</ele><time>2026-04-16T16:20:35.999Z</time></trkpt><trkpt lat="42.85844350215866" lon="-8.854921963520558"><ele>327.0</ele><time>2026-04-16T16:20:36.999Z</time></trkpt><trkpt lat="42.85835348133194" lon="-8.855056301263279"><ele>325.75</ele><time>2026-04-16T16:20:37.999Z</time></trkpt><trkpt lat="42.85826567168552" lon="-8.855203787420031"><ele>324.5</ele><time>2026-04-16T16:20:38.999Z</time></trkpt><trkpt lat="42.85817494080445" lon="-8.855357538872806"><ele>323.25</ele><time>2026-04-16T16:20:39.999Z</time></trkpt><trkpt lat="42.858078175341326" lon="-8.855511140366447"><ele>322.0</ele><time>2026-04-16T16:20:40.999Z</time></trkpt><trkpt lat="42.8579763269492" lon="-8.855667076835553"><ele>322.0</ele><time>2026-04-16T16:20:41.999Z</time></trkpt><trkpt lat="42.85787386755664" lon="-8.85582826965276"><ele>322.0</ele><time>2026-04-16T16:20:42.999Z</time></trkpt><trkpt lat="42.85777799095214" lon="-8.855979037670139"><ele>322.0</ele><time>2026-04-16T16:20:43.999Z</time></trkpt><trkpt lat="42.857686266587564" lon="-8.856121547905236"><ele>322.0</ele><time>2026-04-16T16:20:44.999Z</time></trkpt><trkpt lat="42.857593305978426" lon="-8.856259955621763"><ele>323.0</ele><time>2026-04-16T16:20:45.999Z</time></trkpt><trkpt lat="42.857494520128306" lon="-8.856400301589916"><ele>324.0</ele><time>2026-04-16T16:20:46.999Z</time></trkpt><trkpt lat="42.85739481114837" lon="-8.856540964121644"><ele>325.0</ele><time>2026-04-16T16:20:47.999Z</time></trkpt><trkpt lat="42.857303853934646" lon="-8.856673372051278"><ele>326.0</ele><time>2026-04-16T16:20:48.999Z</time></trkpt><trkpt lat="42.85722140325161" lon="-8.856803375799801"><ele>326.0</ele><time>2026-04-16T16:20:49.999Z</time></trkpt><trkpt lat="42.85714142566898" lon="-8.856930062407883"><ele>326.0</ele><time>2026-04-16T16:20:50.999Z</time></trkpt><trkpt lat="42.857071904881145" lon="-8.857048050570313"><ele>326.0</ele><time>2026-04-16T16:20:51.999Z</time></trkpt><trkpt lat="42.85701437695887" lon="-8.857162998467642"><ele>326.0</ele><time>2026-04-16T16:20:52.999Z</time></trkpt><trkpt lat="42.856969148515226" lon="-8.857287165866037"><ele>326.0</ele><time>2026-04-16T16:20:53.999Z</time></trkpt><trkpt lat="42.85693191635731" lon="-8.857417014901177"><ele>326.0</ele><time>2026-04-16T16:20:54.999Z</time></trkpt><trkpt lat="42.85690916037515" lon="-8.857548792156361"><ele>326.0</ele><time>2026-04-16T16:20:55.999Z</time></trkpt><trkpt lat="42.856903204230036" lon="-8.85768071136207"><ele>326.0</ele><time>2026-04-16T16:20:56.999Z</time></trkpt><trkpt lat="42.85689324483786" lon="-8.857810774732277"><ele>326.0</ele><time>2026-04-16T16:20:57.999Z</time></trkpt><trkpt lat="42.85685915949953" lon="-8.857934185133919"><ele>326.0</ele><time>2026-04-16T16:20:58.999Z</time></trkpt><trkpt lat="42.856790695603685" lon="-8.858050561510304"><ele>325.0</ele><time>2026-04-16T16:20:59.999Z</time></trkpt><trkpt lat="42.85669947795308" lon="-8.858162340533818"><ele>324.0</ele><time>2026-04-16T16:21:00.999Z</time></trkpt><trkpt lat="42.85658419946619" lon="-8.85826345652357"><ele>323.0</ele><time>2026-04-16T16:21:01.999Z</time></trkpt><trkpt lat="42.856479670728426" lon="-8.858385770791722"><ele>322.0</ele><time>2026-04-16T16:21:02.999Z</time></trkpt><trkpt lat="42.856390071396085" lon="-8.858527842595883"><ele>322.0</ele><time>2026-04-16T16:21:03.999Z</time></trkpt><trkpt lat="42.856303020665436" lon="-8.858635096067875"><ele>322.0</ele><time>2026-04-16T16:21:04.999Z</time></trkpt><trkpt lat="42.85621641809466" lon="-8.858715848405792"><ele>322.0</ele><time>2026-04-16T16:21:05.999Z</time></trkpt><trkpt lat="42.85612000720399" lon="-8.858753512082115"><ele>322.0</ele><time>2026-04-16T16:21:06.999Z</time></trkpt><trkpt lat="42.85600273652354" lon="-8.858750707473936"><ele>322.0</ele><time>2026-04-16T16:21:07.999Z</time></trkpt><trkpt lat="42.855884741868344" lon="-8.85871365260319"><ele>318.75</ele><time>2026-04-16T16:21:08.999Z</time></trkpt><trkpt lat="42.8557637832934" lon="-8.858696074165705"><ele>315.5</ele><time>2026-04-16T16:21:09.999Z</time></trkpt><trkpt lat="42.85562494025504" lon="-8.858721977417925"><ele>312.25</ele><time>2026-04-16T16:21:11Z</time></trkpt><trkpt lat="42.85547996231887" lon="-8.858770955717018"><ele>309.0</ele><time>2026-04-16T16:21:12Z</time></trkpt><trkpt lat="42.85532282587702" lon="-8.858838425152136"><ele>309.0</ele><time>2026-04-16T16:21:13Z</time></trkpt><trkpt lat="42.855171224389885" lon="-8.858905045293584"><ele>309.0</ele><time>2026-04-16T16:21:14Z</time></trkpt><trkpt lat="42.85502434776573" lon="-8.858978710218805"><ele>309.0</ele><time>2026-04-16T16:21:15Z</time></trkpt><trkpt lat="42.85487688677162" lon="-8.859069643717223"><ele>310.3333333333333</ele><time>2026-04-16T16:21:16Z</time></trkpt><trkpt lat="42.854734263202104" lon="-8.859175200213985"><ele>311.66666666666663</ele><time>2026-04-16T16:21:17Z</time></trkpt><trkpt lat="42.85459720610416" lon="-8.859293800631907"><ele>313.0</ele><time>2026-04-16T16:21:18Z</time></trkpt><trkpt lat="42.8544553774443" lon="-8.85942152561186"><ele>313.0</ele><time>2026-04-16T16:21:19Z</time></trkpt><trkpt lat="42.854306960000415" lon="-8.859550226214903"><ele>313.0</ele><time>2026-04-16T16:21:20Z</time></trkpt><trkpt lat="42.85416065983973" lon="-8.859671499258194"><ele>313.0</ele><time>2026-04-16T16:21:21Z</time></trkpt><trkpt lat="42.85402174170825" lon="-8.859794593842738"><ele>310.0</ele><time>2026-04-16T16:21:22Z</time></trkpt><trkpt lat="42.8538822005057" lon="-8.859908982279688"><ele>307.0</ele><time>2026-04-16T16:21:23Z</time></trkpt><trkpt lat="42.8537401458064" lon="-8.860018626180082"><ele>304.0</ele><time>2026-04-16T16:21:24Z</time></trkpt><trkpt lat="42.853605333667474" lon="-8.860132248194741"><ele>304.0</ele><time>2026-04-16T16:21:25Z</time></trkpt><trkpt lat="42.85347820143328" lon="-8.860249127401987"><ele>304.0</ele><time>2026-04-16T16:21:26Z</time></trkpt><trkpt lat="42.85334911686443" lon="-8.860366015230554"><ele>304.0</ele><time>2026-04-16T16:21:27Z</time></trkpt><trkpt lat="42.853219675679185" lon="-8.860468869217375"><ele>297.66666666666663</ele><time>2026-04-16T16:21:28Z</time></trkpt><trkpt lat="42.853091071776625" lon="-8.860583476743122"><ele>291.3333333333333</ele><time>2026-04-16T16:21:29Z</time></trkpt><trkpt lat="42.85296178173461" lon="-8.860707705546062"><ele>285.0</ele><time>2026-04-16T16:21:30Z</time></trkpt><trkpt lat="42.85283268904871" lon="-8.860842236738902"><ele>285.0</ele><time>2026-04-16T16:21:31Z</time></trkpt><trkpt lat="42.852717302712236" lon="-8.860988896899721"><ele>285.0</ele><time>2026-04-16T16:21:32Z</time></trkpt><trkpt lat="42.85261631099658" lon="-8.86113529085447"><ele>285.0</ele><time>2026-04-16T16:21:33Z</time></trkpt><trkpt lat="42.85253333779562" lon="-8.861273024107593"><ele>285.0</ele><time>2026-04-16T16:21:34Z</time></trkpt><trkpt lat="42.852460978782254" lon="-8.861403093107391"><ele>279.0</ele><time>2026-04-16T16:21:35Z</time></trkpt><trkpt lat="42.85241543036939" lon="-8.861537982331988"><ele>273.0</ele><time>2026-04-16T16:21:36Z</time></trkpt><trkpt lat="42.8524024938656" lon="-8.861686684074984"><ele>267.0</ele><time>2026-04-16T16:21:37Z</time></trkpt><trkpt lat="42.85242121823973" lon="-8.861853210175443"><ele>261.0</ele><time>2026-04-16T16:21:38Z</time></trkpt><trkpt lat="42.85248293513084" lon="-8.86202627644253"><ele>261.0</ele><time>2026-04-16T16:21:39Z</time></trkpt><trkpt lat="42.85254504846004" lon="-8.86223183029567"><ele>261.0</ele><time>2026-04-16T16:21:40Z</time></trkpt><trkpt lat="42.85260579177871" lon="-8.862438624754443"><ele>261.0</ele><time>2026-04-16T16:21:41Z</time></trkpt><trkpt lat="42.85266036278756" lon="-8.862637018323491"><ele>261.0</ele><time>2026-04-16T16:21:42Z</time></trkpt><trkpt lat="42.85269349722848" lon="-8.862813467400596"><ele>261.0</ele><time>2026-04-16T16:21:43Z</time></trkpt><trkpt lat="42.852736302837776" lon="-8.862958979816375"><ele>261.0</ele><time>2026-04-16T16:21:44Z</time></trkpt><trkpt lat="42.85275394615179" lon="-8.863100843945622"><ele>261.0</ele><time>2026-04-16T16:21:45Z</time></trkpt><trkpt lat="42.852753064514005" lon="-8.863243651269878"><ele>261.0</ele><time>2026-04-16T16:21:46Z</time></trkpt><trkpt lat="42.85267416467636" lon="-8.863362582109716"><ele>261.0</ele><time>2026-04-16T16:21:47Z</time></trkpt><trkpt lat="42.85256816139912" lon="-8.86347912979232"><ele>261.0</ele><time>2026-04-16T16:21:48Z</time></trkpt><trkpt lat="42.852446264314096" lon="-8.863613922128101"><ele>261.0</ele><time>2026-04-16T16:21:49Z</time></trkpt><trkpt lat="42.85233135399918" lon="-8.863785452382116"><ele>255.66666666666669</ele><time>2026-04-16T16:21:50Z</time></trkpt><trkpt lat="42.8522163299896" lon="-8.86396124196764"><ele>250.33333333333334</ele><time>2026-04-16T16:21:51Z</time></trkpt><trkpt lat="42.85209282383849" lon="-8.864149459914891"><ele>245.0</ele><time>2026-04-16T16:21:52Z</time></trkpt><trkpt lat="42.851970889868966" lon="-8.864327429171201"><ele>244.25</ele><time>2026-04-16T16:21:53Z</time></trkpt><trkpt lat="42.851860362203865" lon="-8.864496476212812"><ele>243.5</ele><time>2026-04-16T16:21:54Z</time></trkpt><trkpt lat="42.85176465571745" lon="-8.8646428505079"><ele>242.75</ele><time>2026-04-16T16:21:55Z</time></trkpt><trkpt lat="42.85168077004393" lon="-8.864767224082128"><ele>242.0</ele><time>2026-04-16T16:21:56Z</time></trkpt><trkpt lat="42.8516034853183" lon="-8.864890651962861"><ele>240.39999999999998</ele><time>2026-04-16T16:21:57Z</time></trkpt><trkpt lat="42.851552090916904" lon="-8.865028504729914"><ele>238.79999999999998</ele><time>2026-04-16T16:21:58Z</time></trkpt><trkpt lat="42.85152872143366" lon="-8.865161919556362"><ele>237.2</ele><time>2026-04-16T16:21:59Z</time></trkpt><trkpt lat="42.85154043284951" lon="-8.8652942916064"><ele>235.6</ele><time>2026-04-16T16:22:00Z</time></trkpt><trkpt lat="42.85158700954048" lon="-8.865414091712651"><ele>234.0</ele><time>2026-04-16T16:22:01Z</time></trkpt><trkpt lat="42.85166496522196" lon="-8.865500788432836"><ele>234.0</ele><time>2026-04-16T16:22:02Z</time></trkpt><trkpt lat="42.85176762447761" lon="-8.865557469059775"><ele>234.0</ele><time>2026-04-16T16:22:03Z</time></trkpt><trkpt lat="42.851890407814935" lon="-8.865617390164655"><ele>234.0</ele><time>2026-04-16T16:22:04Z</time></trkpt><trkpt lat="42.852021488087935" lon="-8.865699637096773"><ele>234.0</ele><time>2026-04-16T16:22:05Z</time></trkpt><trkpt lat="42.85216141408778" lon="-8.865793031620386"><ele>234.0</ele><time>2026-04-16T16:22:06Z</time></trkpt><trkpt lat="42.85229936029963" lon="-8.865883329061946"><ele>234.0</ele><time>2026-04-16T16:22:07Z</time></trkpt><trkpt lat="42.852435408248354" lon="-8.86597127327008"><ele>234.0</ele><time>2026-04-16T16:22:08Z</time></trkpt><trkpt lat="42.852557355944825" lon="-8.866053270476083"><ele>234.0</ele><time>2026-04-16T16:22:09Z</time></trkpt><trkpt lat="42.85266252894303" lon="-8.866126666751063"><ele>231.0</ele><time>2026-04-16T16:22:10Z</time></trkpt><trkpt lat="42.85275645514283" lon="-8.866201502537628"><ele>227.99999999999997</ele><time>2026-04-16T16:22:11Z</time></trkpt><trkpt lat="42.852833640935806" lon="-8.866286456176303"><ele>224.99999999999997</ele><time>2026-04-16T16:22:12Z</time></trkpt><trkpt lat="42.852880439565915" lon="-8.866419738861428"><ele>222.0</ele><time>2026-04-16T16:22:13Z</time></trkpt><trkpt lat="42.852911338805086" lon="-8.866551887907619"><ele>219.0</ele><time>2026-04-16T16:22:14Z</time></trkpt><trkpt lat="42.85291140044227" lon="-8.866695366702238"><ele>215.0</ele><time>2026-04-16T16:22:15Z</time></trkpt><trkpt lat="42.852897200961294" lon="-8.86685618183627"><ele>211.0</ele><time>2026-04-16T16:22:16Z</time></trkpt><trkpt lat="42.852882902301666" lon="-8.867035864348491"><ele>207.0</ele><time>2026-04-16T16:22:17Z</time></trkpt><trkpt lat="42.85286994310058" lon="-8.867222570811968"><ele>203.0</ele><time>2026-04-16T16:22:18Z</time></trkpt><trkpt lat="42.85286201157686" lon="-8.867397239809128"><ele>203.0</ele><time>2026-04-16T16:22:19Z</time></trkpt><trkpt lat="42.85284728415271" lon="-8.867561772129058"><ele>203.0</ele><time>2026-04-16T16:22:20Z</time></trkpt><trkpt lat="42.85281463875871" lon="-8.867701150119844"><ele>203.0</ele><time>2026-04-16T16:22:21Z</time></trkpt><trkpt lat="42.85275834515536" lon="-8.867817875326198"><ele>203.0</ele><time>2026-04-16T16:22:22Z</time></trkpt><trkpt lat="42.85266966759113" lon="-8.86789142468712"><ele>203.0</ele><time>2026-04-16T16:22:22.999Z</time></trkpt><trkpt lat="42.852550924554606" lon="-8.867947212483134"><ele>204.33333333333334</ele><time>2026-04-16T16:22:23.999Z</time></trkpt><trkpt lat="42.85241003094888" lon="-8.867984968599705"><ele>205.66666666666669</ele><time>2026-04-16T16:22:24.999Z</time></trkpt><trkpt lat="42.85225064489223" lon="-8.868009493289449"><ele>207.0</ele><time>2026-04-16T16:22:25.999Z</time></trkpt><trkpt lat="42.85209000087841" lon="-8.868111548068848"><ele>207.0</ele><time>2026-04-16T16:22:26.999Z</time></trkpt><trkpt lat="42.85193873982727" lon="-8.868248847337629"><ele>207.0</ele><time>2026-04-16T16:22:27.999Z</time></trkpt><trkpt lat="42.85178620587911" lon="-8.86841042735658"><ele>207.0</ele><time>2026-04-16T16:22:28.999Z</time></trkpt><trkpt lat="42.85161783559738" lon="-8.868570476826147"><ele>203.0</ele><time>2026-04-16T16:22:29.999Z</time></trkpt><trkpt lat="42.85144391703288" lon="-8.868730512013752"><ele>199.0</ele><time>2026-04-16T16:22:30.999Z</time></trkpt><trkpt lat="42.85128390925664" lon="-8.868883406808012"><ele>195.0</ele><time>2026-04-16T16:22:31.999Z</time></trkpt><trkpt lat="42.85113416356277" lon="-8.86903128889449"><ele>195.0</ele><time>2026-04-16T16:22:32.999Z</time></trkpt><trkpt lat="42.85099381495092" lon="-8.869178195846985"><ele>195.0</ele><time>2026-04-16T16:22:33.999Z</time></trkpt><trkpt lat="42.850857642145016" lon="-8.869312836798937"><ele>195.0</ele><time>2026-04-16T16:22:34.999Z</time></trkpt><trkpt lat="42.85071783032816" lon="-8.869426329896044"><ele>192.0</ele><time>2026-04-16T16:22:35.999Z</time></trkpt><trkpt lat="42.85057068839664" lon="-8.869500848046645"><ele>189.0</ele><time>2026-04-16T16:22:36.999Z</time></trkpt><trkpt lat="42.85040319684548" lon="-8.869546246309444"><ele>186.0</ele><time>2026-04-16T16:22:37.999Z</time></trkpt><trkpt lat="42.85023406038502" lon="-8.869577056749495"><ele>186.0</ele><time>2026-04-16T16:22:38.999Z</time></trkpt><trkpt lat="42.85006375460174" lon="-8.869613389606057"><ele>186.0</ele><time>2026-04-16T16:22:39.999Z</time></trkpt><trkpt lat="42.84989887181127" lon="-8.869639800816893"><ele>186.0</ele><time>2026-04-16T16:22:40.999Z</time></trkpt><trkpt lat="42.84974248474333" lon="-8.869651334156007"><ele>186.0</ele><time>2026-04-16T16:22:41.999Z</time></trkpt><trkpt lat="42.84960841410237" lon="-8.869654536285307"><ele>186.0</ele><time>2026-04-16T16:22:42.999Z</time></trkpt><trkpt lat="42.84948562578704" lon="-8.869652582824125"><ele>186.0</ele><time>2026-04-16T16:22:43.999Z</time></trkpt><trkpt lat="42.84936784754082" lon="-8.869618568809544"><ele>186.0</ele><time>2026-04-16T16:22:44.999Z</time></trkpt><trkpt lat="42.84926061918226" lon="-8.869543137067176"><ele>184.5</ele><time>2026-04-16T16:22:45.999Z</time></trkpt><trkpt lat="42.849152194712026" lon="-8.869448718649393"><ele>183.0</ele><time>2026-04-16T16:22:46.999Z</time></trkpt><trkpt lat="42.84903896164614" lon="-8.869332337626364"><ele>181.5</ele><time>2026-04-16T16:22:47.999Z</time></trkpt><trkpt lat="42.848935467537935" lon="-8.869170610672322"><ele>180.0</ele><time>2026-04-16T16:22:48.999Z</time></trkpt><trkpt lat="42.84883587457023" lon="-8.86899854384732"><ele>179.25</ele><time>2026-04-16T16:22:49.999Z</time></trkpt><trkpt lat="42.84873223981017" lon="-8.868847943313233"><ele>178.5</ele><time>2026-04-16T16:22:50.999Z</time></trkpt><trkpt lat="42.84861337454125" lon="-8.86872541376623"><ele>177.75</ele><time>2026-04-16T16:22:51.999Z</time></trkpt><trkpt lat="42.848476508966584" lon="-8.868654091598868"><ele>177.0</ele><time>2026-04-16T16:22:52.999Z</time></trkpt><trkpt lat="42.84833979280188" lon="-8.868602036803289"><ele>177.0</ele><time>2026-04-16T16:22:53.999Z</time></trkpt><trkpt lat="42.848202733351656" lon="-8.868544767295129"><ele>177.0</ele><time>2026-04-16T16:22:54.999Z</time></trkpt><trkpt lat="42.84808830892257" lon="-8.868431821212848"><ele>177.0</ele><time>2026-04-16T16:22:55.999Z</time></trkpt><trkpt lat="42.84798528172737" lon="-8.868312867274541"><ele>177.0</ele><time>2026-04-16T16:22:56.999Z</time></trkpt><trkpt lat="42.84786837945523" lon="-8.868197503058392"><ele>177.0</ele><time>2026-04-16T16:22:57.999Z</time></trkpt><trkpt lat="42.84771642393036" lon="-8.868137531247925"><ele>177.0</ele><time>2026-04-16T16:22:58.999Z</time></trkpt><trkpt lat="42.847573614684215" lon="-8.868079528976345"><ele>177.0</ele><time>2026-04-16T16:22:59.999Z</time></trkpt><trkpt lat="42.84743764906083" lon="-8.868038458147517"><ele>177.0</ele><time>2026-04-16T16:23:00.999Z</time></trkpt><trkpt lat="42.84730711465462" lon="-8.868018866789127"><ele>177.0</ele><time>2026-04-16T16:23:01.999Z</time></trkpt><trkpt lat="42.84718124107613" lon="-8.868019693264268"><ele>177.0</ele><time>2026-04-16T16:23:02.999Z</time></trkpt><trkpt lat="42.84705806081694" lon="-8.86803358041402"><ele>177.0</ele><time>2026-04-16T16:23:03.999Z</time></trkpt><trkpt lat="42.8469422197728" lon="-8.868045536506026"><ele>177.0</ele><time>2026-04-16T16:23:04.999Z</time></trkpt><trkpt lat="42.84683677338223" lon="-8.868042111488368"><ele>175.6</ele><time>2026-04-16T16:23:05.999Z</time></trkpt><trkpt lat="42.846730304092006" lon="-8.868042084622616"><ele>174.2</ele><time>2026-04-16T16:23:06.999Z</time></trkpt><trkpt lat="42.846618720485374" lon="-8.868029330877322"><ele>172.8</ele><time>2026-04-16T16:23:07.999Z</time></trkpt><trkpt lat="42.84651592728337" lon="-8.868011518929453"><ele>171.4</ele><time>2026-04-16T16:23:08.999Z</time></trkpt><trkpt lat="42.84642792283903" lon="-8.867995183142268"><ele>170.0</ele><time>2026-04-16T16:23:09.999Z</time></trkpt><trkpt lat="42.8463439455765" lon="-8.867971612543753"><ele>170.0</ele><time>2026-04-16T16:23:10.999Z</time></trkpt><trkpt lat="42.84626975661783" lon="-8.867941215090733"><ele>170.0</ele><time>2026-04-16T16:23:11.999Z</time></trkpt><trkpt lat="42.84620893104255" lon="-8.867918411713877"><ele>170.0</ele><time>2026-04-16T16:23:12.999Z</time></trkpt><trkpt lat="42.84613597960025" lon="-8.867892699186056"><ele>170.0</ele><time>2026-04-16T16:23:14.999Z</time></trkpt><trkpt lat="42.84620928676661" lon="-8.867909791782862"><ele>170.0</ele><time>2026-04-16T16:23:31Z</time></trkpt><trkpt lat="42.846337459813604" lon="-8.867939060183337"><ele>170.0</ele><time>2026-04-16T16:23:32Z</time></trkpt><trkpt lat="42.84643094690374" lon="-8.867974339785533"><ele>170.0</ele><time>2026-04-16T16:23:33Z</time></trkpt><trkpt lat="42.846567676909594" lon="-8.868002685460068"><ele>170.0</ele><time>2026-04-16T16:23:34Z</time></trkpt><trkpt lat="42.8467152428235" lon="-8.86801439900906"><ele>170.0</ele><time>2026-04-16T16:23:35Z</time></trkpt><trkpt lat="42.846940773661395" lon="-8.867996483487314"><ele>172.33333333333331</ele><time>2026-04-16T16:23:36Z</time></trkpt><trkpt lat="42.84712347660853" lon="-8.867967776340215"><ele>174.66666666666666</ele><time>2026-04-16T16:23:37Z</time></trkpt><trkpt lat="42.84732132354872" lon="-8.867974549856989"><ele>177.0</ele><time>2026-04-16T16:23:38Z</time></trkpt><trkpt lat="42.84751888028207" lon="-8.867986960244645"><ele>180.75</ele><time>2026-04-16T16:23:40Z</time></trkpt><trkpt lat="42.84766516105781" lon="-8.868044256955825"><ele>184.5</ele><time>2026-04-16T16:23:41Z</time></trkpt><trkpt lat="42.84780411250223" lon="-8.868107252395996"><ele>188.25</ele><time>2026-04-16T16:23:42Z</time></trkpt><trkpt lat="42.84792255445014" lon="-8.868156630846023"><ele>192.0</ele><time>2026-04-16T16:23:43Z</time></trkpt><trkpt lat="42.84801446256741" lon="-8.868251427820883"><ele>192.0</ele><time>2026-04-16T16:23:44Z</time></trkpt><trkpt lat="42.848091542924074" lon="-8.86834585464674"><ele>192.0</ele><time>2026-04-16T16:23:45Z</time></trkpt><trkpt lat="42.848164702109315" lon="-8.86843680295672"><ele>192.0</ele><time>2026-04-16T16:23:46Z</time></trkpt><trkpt lat="42.84825328528832" lon="-8.868488128232299"><ele>192.0</ele><time>2026-04-16T16:23:47Z</time></trkpt><trkpt lat="42.84833147733135" lon="-8.868544632898178"><ele>192.0</ele><time>2026-04-16T16:23:49Z</time></trkpt><trkpt lat="42.84825987814817" lon="-8.868522933273574"><ele>192.0</ele><time>2026-04-16T16:24:05Z</time></trkpt><trkpt lat="42.84812610774833" lon="-8.868463452363848"><ele>192.0</ele><time>2026-04-16T16:27:52.999Z</time></trkpt><trkpt lat="42.84803709147015" lon="-8.868427547147604"><ele>192.0</ele><time>2026-04-16T16:27:53.999Z</time></trkpt><trkpt lat="42.847946471308866" lon="-8.868333523483344"><ele>192.0</ele><time>2026-04-16T16:27:54.999Z</time></trkpt><trkpt lat="42.84783909963147" lon="-8.868232566537236"><ele>192.0</ele><time>2026-04-16T16:27:55.999Z</time></trkpt><trkpt lat="42.84769377574222" lon="-8.868143692403185"><ele>192.0</ele><time>2026-04-16T16:27:56.999Z</time></trkpt><trkpt lat="42.84753221085516" lon="-8.868072202470435"><ele>192.0</ele><time>2026-04-16T16:27:57.999Z</time></trkpt><trkpt lat="42.84735426243849" lon="-8.868024748106267"><ele>187.0</ele><time>2026-04-16T16:27:58.999Z</time></trkpt><trkpt lat="42.84715639585254" lon="-8.86801012067163"><ele>182.0</ele><time>2026-04-16T16:27:59.999Z</time></trkpt><trkpt lat="42.84695185032295" lon="-8.86803226608167"><ele>177.0</ele><time>2026-04-16T16:28:00.999Z</time></trkpt><trkpt lat="42.8467716398547" lon="-8.86805204037277"><ele>174.66666666666666</ele><time>2026-04-16T16:28:01.999Z</time></trkpt><trkpt lat="42.84661194643599" lon="-8.868023546448985"><ele>172.33333333333331</ele><time>2026-04-16T16:28:02.999Z</time></trkpt><trkpt lat="42.84644293636238" lon="-8.867985375764038"><ele>170.0</ele><time>2026-04-16T16:28:03.999Z</time></trkpt><trkpt lat="42.8462895661119" lon="-8.86793305114191"><ele>170.0</ele><time>2026-04-16T16:28:04.999Z</time></trkpt><trkpt lat="42.84612866425702" lon="-8.867876754603424"><ele>170.0</ele><time>2026-04-16T16:28:05.999Z</time></trkpt><trkpt lat="42.845968412174386" lon="-8.867808664739789"><ele>170.0</ele><time>2026-04-16T16:28:06.999Z</time></trkpt><trkpt lat="42.84580853181595" lon="-8.867724363188973"><ele>171.0</ele><time>2026-04-16T16:28:07.999Z</time></trkpt><trkpt lat="42.845665534567324" lon="-8.867638960083855"><ele>172.0</ele><time>2026-04-16T16:28:08.999Z</time></trkpt><trkpt lat="42.84553583785124" lon="-8.867562900602776"><ele>173.0</ele><time>2026-04-16T16:28:09.999Z</time></trkpt><trkpt lat="42.84541591012308" lon="-8.867490896505652"><ele>174.0</ele><time>2026-04-16T16:28:10.999Z</time></trkpt><trkpt lat="42.845309761164074" lon="-8.86742289461257"><ele>174.0</ele><time>2026-04-16T16:28:11.999Z</time></trkpt><trkpt lat="42.84521297399025" lon="-8.86734899228758"><ele>174.0</ele><time>2026-04-16T16:28:12.999Z</time></trkpt><trkpt lat="42.845128819574974" lon="-8.867286488783655"><ele>174.0</ele><time>2026-04-16T16:28:13.999Z</time></trkpt><trkpt lat="42.84506435082553" lon="-8.867246511608737"><ele>174.0</ele><time>2026-04-16T16:28:14.999Z</time></trkpt><trkpt lat="42.844986625463754" lon="-8.867215851541413"><ele>174.0</ele><time>2026-04-16T16:28:16.999Z</time></trkpt><trkpt lat="42.84486909020165" lon="-8.86718133874491"><ele>169.5</ele><time>2026-04-16T16:28:19.999Z</time></trkpt><trkpt lat="42.8447921062589" lon="-8.867152897022144"><ele>165.0</ele><time>2026-04-16T16:28:20.999Z</time></trkpt><trkpt lat="42.84468920781865" lon="-8.867136476448994"><ele>160.5</ele><time>2026-04-16T16:28:21.998Z</time></trkpt><trkpt lat="42.844563314420974" lon="-8.867146748495236"><ele>156.0</ele><time>2026-04-16T16:28:22.998Z</time></trkpt><trkpt lat="42.84442075626361" lon="-8.867204271721004"><ele>151.33333333333334</ele><time>2026-04-16T16:28:23.998Z</time></trkpt><trkpt lat="42.84425682831377" lon="-8.86724816125208"><ele>146.66666666666669</ele><time>2026-04-16T16:28:24.998Z</time></trkpt><trkpt lat="42.84409562523487" lon="-8.867302836775238"><ele>142.0</ele><time>2026-04-16T16:28:25.998Z</time></trkpt><trkpt lat="42.84393916896112" lon="-8.867298397196786"><ele>142.0</ele><time>2026-04-16T16:28:26.998Z</time></trkpt><trkpt lat="42.8437844238566" lon="-8.867286638504813"><ele>142.0</ele><time>2026-04-16T16:28:27.998Z</time></trkpt><trkpt lat="42.84363507634263" lon="-8.86727569609786"><ele>142.0</ele><time>2026-04-16T16:28:28.998Z</time></trkpt><trkpt lat="42.84349326718402" lon="-8.867302562232998"><ele>142.0</ele><time>2026-04-16T16:28:29.998Z</time></trkpt><trkpt lat="42.843348448085855" lon="-8.867362578242227"><ele>139.66666666666669</ele><time>2026-04-16T16:28:30.998Z</time></trkpt><trkpt lat="42.843196578024006" lon="-8.867459990529852"><ele>137.33333333333334</ele><time>2026-04-16T16:28:31.998Z</time></trkpt><trkpt lat="42.84304076548048" lon="-8.86758011498594"><ele>135.0</ele><time>2026-04-16T16:28:32.998Z</time></trkpt><trkpt lat="42.842878114199756" lon="-8.867706879460549"><ele>131.33333333333334</ele><time>2026-04-16T16:28:33.998Z</time></trkpt><trkpt lat="42.84272388300378" lon="-8.867816437594792"><ele>127.66666666666667</ele><time>2026-04-16T16:28:34.998Z</time></trkpt><trkpt lat="42.842572026628325" lon="-8.867920728576896"><ele>124.0</ele><time>2026-04-16T16:28:35.998Z</time></trkpt><trkpt lat="42.842430946355876" lon="-8.868024504560404"><ele>123.75</ele><time>2026-04-16T16:28:36.998Z</time></trkpt><trkpt lat="42.84230963684811" lon="-8.868114661911413"><ele>123.5</ele><time>2026-04-16T16:28:37.998Z</time></trkpt><trkpt lat="42.84220221063137" lon="-8.868184634075863"><ele>123.25</ele><time>2026-04-16T16:28:38.998Z</time></trkpt><trkpt lat="42.84210107876719" lon="-8.86822173566695"><ele>123.0</ele><time>2026-04-16T16:28:39.998Z</time></trkpt><trkpt lat="42.84200153009691" lon="-8.868244699290502"><ele>123.0</ele><time>2026-04-16T16:28:40.998Z</time></trkpt><trkpt lat="42.84190392329458" lon="-8.868243750683359"><ele>123.00000000000001</ele><time>2026-04-16T16:28:41.998Z</time></trkpt><trkpt lat="42.84181004096858" lon="-8.868215725732373"><ele>123.00000000000001</ele><time>2026-04-16T16:28:42.998Z</time></trkpt><trkpt lat="42.841717114417655" lon="-8.868178586881701"><ele>123.0</ele><time>2026-04-16T16:28:43.998Z</time></trkpt><trkpt lat="42.84161760029487" lon="-8.868127085698921"><ele>123.0</ele><time>2026-04-16T16:28:44.998Z</time></trkpt><trkpt lat="42.84151294927837" lon="-8.868066404967765"><ele>121.5</ele><time>2026-04-16T16:28:45.998Z</time></trkpt><trkpt lat="42.84139690823044" lon="-8.868003457940999"><ele>120.0</ele><time>2026-04-16T16:28:46.998Z</time></trkpt><trkpt lat="42.84127221202173" lon="-8.867941279336018"><ele>118.5</ele><time>2026-04-16T16:28:47.998Z</time></trkpt><trkpt lat="42.84114553766344" lon="-8.867876660105422"><ele>117.0</ele><time>2026-04-16T16:28:48.998Z</time></trkpt><trkpt lat="42.84101749852823" lon="-8.867828037957397"><ele>116.19999999999999</ele><time>2026-04-16T16:28:49.998Z</time></trkpt><trkpt lat="42.84091068456744" lon="-8.867773920210423"><ele>115.39999999999999</ele><time>2026-04-16T16:28:50.998Z</time></trkpt><trkpt lat="42.84082030605798" lon="-8.867728231791494"><ele>114.60000000000001</ele><time>2026-04-16T16:28:51.998Z</time></trkpt><trkpt lat="42.84074552215733" lon="-8.867694463587958"><ele>113.80000000000001</ele><time>2026-04-16T16:28:52.998Z</time></trkpt><trkpt lat="42.84067309020533" lon="-8.86767795581485"><ele>113.0</ele><time>2026-04-16T16:28:53.998Z</time></trkpt><trkpt lat="42.84056392674178" lon="-8.867799186705858"><ele>113.0</ele><time>2026-04-16T16:28:54.998Z</time></trkpt><trkpt lat="42.84045779229629" lon="-8.867871126624395"><ele>113.0</ele><time>2026-04-16T16:28:55.998Z</time></trkpt><trkpt lat="42.84033142308481" lon="-8.86793781868041"><ele>113.0</ele><time>2026-04-16T16:28:56.998Z</time></trkpt><trkpt lat="42.84019252962112" lon="-8.86801215566469"><ele>113.0</ele><time>2026-04-16T16:28:57.998Z</time></trkpt><trkpt lat="42.840041474104225" lon="-8.868094122670987"><ele>111.66666666666666</ele><time>2026-04-16T16:28:58.998Z</time></trkpt><trkpt lat="42.839887789489126" lon="-8.868171747223974"><ele>110.33333333333334</ele><time>2026-04-16T16:28:59.998Z</time></trkpt><trkpt lat="42.839744332202926" lon="-8.868244354304602"><ele>109.0</ele><time>2026-04-16T16:29:00.998Z</time></trkpt><trkpt lat="42.839606321752285" lon="-8.8683178820413"><ele>109.0</ele><time>2026-04-16T16:29:01.998Z</time></trkpt><trkpt lat="42.83947428259292" lon="-8.868391474482747"><ele>109.0</ele><time>2026-04-16T16:29:02.998Z</time></trkpt><trkpt lat="42.839350672018206" lon="-8.86845836846186"><ele>109.0</ele><time>2026-04-16T16:29:03.998Z</time></trkpt><trkpt lat="42.839228906484806" lon="-8.868509088952845"><ele>109.0</ele><time>2026-04-16T16:29:04.998Z</time></trkpt><trkpt lat="42.839112286928355" lon="-8.868546515982088"><ele>106.2</ele><time>2026-04-16T16:29:05.998Z</time></trkpt><trkpt lat="42.839000974424465" lon="-8.868573656209012"><ele>103.4</ele><time>2026-04-16T16:29:06.998Z</time></trkpt><trkpt lat="42.83889735005443" lon="-8.86859764954113"><ele>100.6</ele><time>2026-04-16T16:29:07.998Z</time></trkpt><trkpt lat="42.838809138210124" lon="-8.868645507451452"><ele>97.8</ele><time>2026-04-16T16:29:08.998Z</time></trkpt><trkpt lat="42.8387419808414" lon="-8.868726035004027"><ele>95.0</ele><time>2026-04-16T16:29:09.998Z</time></trkpt><trkpt lat="42.838693158990395" lon="-8.868834163538786"><ele>95.0</ele><time>2026-04-16T16:29:10.998Z</time></trkpt><trkpt lat="42.838646525825084" lon="-8.86897090378542"><ele>95.0</ele><time>2026-04-16T16:29:11.998Z</time></trkpt><trkpt lat="42.8385834730156" lon="-8.869125701159868"><ele>95.0</ele><time>2026-04-16T16:29:12.998Z</time></trkpt><trkpt lat="42.838512315038706" lon="-8.869292311539517"><ele>95.0</ele><time>2026-04-16T16:29:13.998Z</time></trkpt><trkpt lat="42.83843704534372" lon="-8.869428912444251"><ele>92.25</ele><time>2026-04-16T16:29:14.998Z</time></trkpt><trkpt lat="42.83835201596011" lon="-8.86954772277701"><ele>89.5</ele><time>2026-04-16T16:29:15.998Z</time></trkpt><trkpt lat="42.83825372334599" lon="-8.869646663526638"><ele>86.75</ele><time>2026-04-16T16:29:16.998Z</time></trkpt><trkpt lat="42.83814657705741" lon="-8.869724111737932"><ele>84.0</ele><time>2026-04-16T16:29:17.998Z</time></trkpt><trkpt lat="42.83805194118296" lon="-8.869784609933449"><ele>84.0</ele><time>2026-04-16T16:29:18.998Z</time></trkpt><trkpt lat="42.837961978463746" lon="-8.869838333621018"><ele>84.0</ele><time>2026-04-16T16:29:19.998Z</time></trkpt><trkpt lat="42.83788611430988" lon="-8.869910199618502"><ele>84.0</ele><time>2026-04-16T16:29:20.998Z</time></trkpt><trkpt lat="42.83780712994286" lon="-8.86995183584687"><ele>84.0</ele><time>2026-04-16T16:29:21.998Z</time></trkpt><trkpt lat="42.837736677221194" lon="-8.869993068376528"><ele>84.0</ele><time>2026-04-16T16:29:22.998Z</time></trkpt><trkpt lat="42.837666263030776" lon="-8.870021203466662"><ele>84.0</ele><time>2026-04-16T16:29:23.998Z</time></trkpt><trkpt lat="42.83757662746438" lon="-8.870064132433209"><ele>82.2</ele><time>2026-04-16T16:29:25.998Z</time></trkpt><trkpt lat="42.83757801350016" lon="-8.870173367184362"><ele>80.4</ele><time>2026-04-16T16:29:27.998Z</time></trkpt><trkpt lat="42.83765989158547" lon="-8.87029114242928"><ele>78.6</ele><time>2026-04-16T16:29:29.998Z</time></trkpt><trkpt lat="42.83771395499468" lon="-8.870374643784503"><ele>76.8</ele><time>2026-04-16T16:29:30.998Z</time></trkpt><trkpt lat="42.83777309237788" lon="-8.870462980083103"><ele>75.0</ele><time>2026-04-16T16:29:31.998Z</time></trkpt><trkpt lat="42.83784444682342" lon="-8.870569295019488"><ele>74.6</ele><time>2026-04-16T16:29:32.998Z</time></trkpt><trkpt lat="42.83791694819302" lon="-8.870677936159758"><ele>74.2</ele><time>2026-04-16T16:29:33.998Z</time></trkpt><trkpt lat="42.83798846562521" lon="-8.87077617672871"><ele>73.8</ele><time>2026-04-16T16:29:34.998Z</time></trkpt><trkpt lat="42.83805133136981" lon="-8.870870458462631"><ele>73.4</ele><time>2026-04-16T16:29:35.998Z</time></trkpt><trkpt lat="42.83810921117348" lon="-8.870957249209086"><ele>73.0</ele><time>2026-04-16T16:29:36.998Z</time></trkpt><trkpt lat="42.83815854415723" lon="-8.871026275507704"><ele>70.6</ele><time>2026-04-16T16:29:37.998Z</time></trkpt><trkpt lat="42.83822256748681" lon="-8.87113037376791"><ele>68.19999999999999</ele><time>2026-04-16T16:29:39.998Z</time></trkpt><trkpt lat="42.8382118820619" lon="-8.871228232327631"><ele>65.8</ele><time>2026-04-16T16:29:41.999Z</time></trkpt><trkpt lat="42.83812718253242" lon="-8.871252978539"><ele>63.4</ele><time>2026-04-16T16:29:43.999Z</time></trkpt><trkpt lat="42.83800650027746" lon="-8.871214626022791"><ele>61.0</ele><time>2026-04-16T16:29:45.999Z</time></trkpt><trkpt lat="42.837935799841" lon="-8.871202209156632"><ele>61.0</ele><time>2026-04-16T16:29:46.999Z</time></trkpt><trkpt lat="42.83785302495278" lon="-8.871188681012153"><ele>60.99999999999999</ele><time>2026-04-16T16:29:47.999Z</time></trkpt><trkpt lat="42.83774764236065" lon="-8.871166839650703"><ele>60.99999999999999</ele><time>2026-04-16T16:29:48.999Z</time></trkpt><trkpt lat="42.83762097782898" lon="-8.87112862139569"><ele>61.0</ele><time>2026-04-16T16:29:49.999Z</time></trkpt><trkpt lat="42.83749687888946" lon="-8.871093503562959"><ele>61.0</ele><time>2026-04-16T16:29:50.999Z</time></trkpt><trkpt lat="42.837373103113386" lon="-8.871049500788358"><ele>61.25</ele><time>2026-04-16T16:29:51.999Z</time></trkpt><trkpt lat="42.83723833494069" lon="-8.871010783059921"><ele>61.5</ele><time>2026-04-16T16:29:52.999Z</time></trkpt><trkpt lat="42.837094177219186" lon="-8.870972134334362"><ele>61.75</ele><time>2026-04-16T16:29:53.999Z</time></trkpt><trkpt lat="42.836957009657965" lon="-8.870939621013479"><ele>62.0</ele><time>2026-04-16T16:29:54.999Z</time></trkpt><trkpt lat="42.83684458954106" lon="-8.870914950687947"><ele>64.5</ele><time>2026-04-16T16:29:55.999Z</time></trkpt><trkpt lat="42.836764468981144" lon="-8.8709011635981"><ele>67.0</ele><time>2026-04-16T16:29:56.999Z</time></trkpt><trkpt lat="42.8366543109347" lon="-8.870894140967316"><ele>69.5</ele><time>2026-04-16T16:29:58.999Z</time></trkpt><trkpt lat="42.83658993851582" lon="-8.870888527308209"><ele>72.0</ele><time>2026-04-16T16:29:59.999Z</time></trkpt><trkpt lat="42.83651770606725" lon="-8.870860876359071"><ele>74.5</ele><time>2026-04-16T16:30:00.999Z</time></trkpt><trkpt lat="42.83645306111891" lon="-8.870793667195183"><ele>77.0</ele><time>2026-04-16T16:30:01.999Z</time></trkpt><trkpt lat="42.83639062424791" lon="-8.87071211198041"><ele>77.0</ele><time>2026-04-16T16:30:02.999Z</time></trkpt><trkpt lat="42.83634882474458" lon="-8.870584668600616"><ele>77.0</ele><time>2026-04-16T16:30:03.999Z</time></trkpt><trkpt lat="42.836309689802" lon="-8.87045491186016"><ele>77.0</ele><time>2026-04-16T16:30:04.999Z</time></trkpt><trkpt lat="42.83625888275997" lon="-8.87032719512369"><ele>77.0</ele><time>2026-04-16T16:30:05.999Z</time></trkpt><trkpt lat="42.83620997031257" lon="-8.870192180649592"><ele>77.0</ele><time>2026-04-16T16:30:06.999Z</time></trkpt><trkpt lat="42.836137312717625" lon="-8.870076002052187"><ele>75.6</ele><time>2026-04-16T16:30:07.999Z</time></trkpt><trkpt lat="42.83605462934217" lon="-8.869979582167707"><ele>74.2</ele><time>2026-04-16T16:30:08.999Z</time></trkpt><trkpt lat="42.835965648658636" lon="-8.869908610792207"><ele>72.8</ele><time>2026-04-16T16:30:09.999Z</time></trkpt><trkpt lat="42.83588601480619" lon="-8.869868622302631"><ele>71.4</ele><time>2026-04-16T16:30:10.999Z</time></trkpt><trkpt lat="42.83580549679952" lon="-8.869853582951468"><ele>70.0</ele><time>2026-04-16T16:30:11.999Z</time></trkpt><trkpt lat="42.83572588592746" lon="-8.869843612542853"><ele>70.0</ele><time>2026-04-16T16:30:12.999Z</time></trkpt><trkpt lat="42.83563845111521" lon="-8.869838286740041"><ele>70.0</ele><time>2026-04-16T16:30:13.999Z</time></trkpt><trkpt lat="42.83553062634057" lon="-8.869828947220691"><ele>70.0</ele><time>2026-04-16T16:30:14.999Z</time></trkpt><trkpt lat="42.83541787527774" lon="-8.869813429117137"><ele>70.0</ele><time>2026-04-16T16:30:15.999Z</time></trkpt><trkpt lat="42.83532494973529" lon="-8.869824174571878"><ele>70.0</ele><time>2026-04-16T16:30:16.999Z</time></trkpt><trkpt lat="42.83524937361635" lon="-8.869812729524256"><ele>68.4</ele><time>2026-04-16T16:30:17.999Z</time></trkpt><trkpt lat="42.835133787838544" lon="-8.869796007236513"><ele>66.8</ele><time>2026-04-16T16:30:19.999Z</time></trkpt><trkpt lat="42.835049835279314" lon="-8.869797095436711"><ele>65.2</ele><time>2026-04-16T16:30:21.999Z</time></trkpt><trkpt lat="42.834995706054464" lon="-8.869865029917095"><ele>63.6</ele><time>2026-04-16T16:30:24.999Z</time></trkpt><trkpt lat="42.83501506506819" lon="-8.869951432414561"><ele>62.0</ele><time>2026-04-16T16:31:36.998Z</time></trkpt><trkpt lat="42.835143279682775" lon="-8.870155290362229"><ele>62.0</ele><time>2026-04-16T16:31:37.998Z</time></trkpt><trkpt lat="42.835211801685" lon="-8.87029248057797"><ele>62.0</ele><time>2026-04-16T16:31:38.998Z</time></trkpt><trkpt lat="42.83528781514559" lon="-8.870448732877138"><ele>62.0</ele><time>2026-04-16T16:31:39.999Z</time></trkpt><trkpt lat="42.835352349962875" lon="-8.870592482758198"><ele>62.0</ele><time>2026-04-16T16:31:40.999Z</time></trkpt><trkpt lat="42.83539855724586" lon="-8.870702930576373"><ele>62.00000000000001</ele><time>2026-04-16T16:31:41.999Z</time></trkpt><trkpt lat="42.83543707592221" lon="-8.870787433425651"><ele>62.0</ele><time>2026-04-16T16:31:42.999Z</time></trkpt><trkpt lat="42.8354715654917" lon="-8.870913876385343"><ele>62.0</ele><time>2026-04-16T16:31:44.999Z</time></trkpt><trkpt lat="42.83543408667722" lon="-8.871066270218229"><ele>62.0</ele><time>2026-04-16T16:31:46.999Z</time></trkpt><trkpt lat="42.83540539281215" lon="-8.871157548846135"><ele>62.00000000000001</ele><time>2026-04-16T16:31:47.999Z</time></trkpt><trkpt lat="42.83537844014576" lon="-8.871269688124604"><ele>62.0</ele><time>2026-04-16T16:31:48.999Z</time></trkpt><trkpt lat="42.83534903434118" lon="-8.871390596487105"><ele>59.8</ele><time>2026-04-16T16:31:49.999Z</time></trkpt><trkpt lat="42.83532041570886" lon="-8.871521099711154"><ele>57.6</ele><time>2026-04-16T16:31:50.999Z</time></trkpt><trkpt lat="42.83528472889716" lon="-8.871655419973985"><ele>55.4</ele><time>2026-04-16T16:31:51.999Z</time></trkpt><trkpt lat="42.835253915892025" lon="-8.87179089859975"><ele>53.199999999999996</ele><time>2026-04-16T16:31:52.999Z</time></trkpt><trkpt lat="42.835228824918396" lon="-8.87193068081749"><ele>51.0</ele><time>2026-04-16T16:31:53.999Z</time></trkpt><trkpt lat="42.83520160125035" lon="-8.872042355829795"><ele>47.4</ele><time>2026-04-16T16:31:54.999Z</time></trkpt><trkpt lat="42.83517958086746" lon="-8.872138917346575"><ele>43.8</ele><time>2026-04-16T16:31:55.999Z</time></trkpt><trkpt lat="42.83516192986349" lon="-8.872222459340893"><ele>40.199999999999996</ele><time>2026-04-16T16:31:56.999Z</time></trkpt><trkpt lat="42.83511033064288" lon="-8.872323299971812"><ele>36.599999999999994</ele><time>2026-04-16T16:31:58.999Z</time></trkpt><trkpt lat="42.83501548992444" lon="-8.872366528741315"><ele>33.0</ele><time>2026-04-16T16:32:00.999Z</time></trkpt><trkpt lat="42.8349055171038" lon="-8.872495228121249"><ele>27.25</ele><time>2026-04-16T16:32:02.999Z</time></trkpt><trkpt lat="42.834833296282206" lon="-8.872617929994568"><ele>21.5</ele><time>2026-04-16T16:32:03.999Z</time></trkpt><trkpt lat="42.834755340756075" lon="-8.872760173653829"><ele>15.75</ele><time>2026-04-16T16:32:04.999Z</time></trkpt><trkpt lat="42.83468694874485" lon="-8.872892539720938"><ele>10.0</ele><time>2026-04-16T16:32:05.999Z</time></trkpt><trkpt lat="42.834624089988345" lon="-8.873000572037633"><ele>10.0</ele><time>2026-04-16T16:32:06.999Z</time></trkpt><trkpt lat="42.83456829281771" lon="-8.873091239142285"><ele>10.0</ele><time>2026-04-16T16:32:07.999Z</time></trkpt><trkpt lat="42.83452053424252" lon="-8.873167175499624"><ele>10.0</ele><time>2026-04-16T16:32:08.999Z</time></trkpt><trkpt lat="42.83447991530614" lon="-8.873300432241464"><ele>10.0</ele><time>2026-04-16T16:32:10.999Z</time></trkpt><trkpt lat="42.83454001468667" lon="-8.873495253048342"><ele>10.0</ele><time>2026-04-16T16:32:13.999Z</time></trkpt><trkpt lat="42.83458690225454" lon="-8.87359829152683"><ele>9.0</ele><time>2026-04-16T16:32:14.999Z</time></trkpt><trkpt lat="42.83460512573596" lon="-8.873710496887599"><ele>8.0</ele><time>2026-04-16T16:32:15.999Z</time></trkpt><trkpt lat="42.83459302982781" lon="-8.87383150229287"><ele>7.0</ele><time>2026-04-16T16:32:16.999Z</time></trkpt><trkpt lat="42.83455893155249" lon="-8.873963608208436"><ele>6.0</ele><time>2026-04-16T16:32:17.999Z</time></trkpt><trkpt lat="42.834518582337516" lon="-8.874097176619038"><ele>5.0</ele><time>2026-04-16T16:32:18.999Z</time></trkpt><trkpt lat="42.83448622265883" lon="-8.874205769711125"><ele>5.4</ele><time>2026-04-16T16:32:19.999Z</time></trkpt><trkpt lat="42.83443570612652" lon="-8.874290125039044"><ele>5.8</ele><time>2026-04-16T16:32:20.999Z</time></trkpt><trkpt lat="42.83436369345277" lon="-8.874335068452396"><ele>6.199999999999999</ele><time>2026-04-16T16:32:21.999Z</time></trkpt><trkpt lat="42.83426998641774" lon="-8.87436423909243"><ele>6.6</ele><time>2026-04-16T16:32:22.999Z</time></trkpt><trkpt lat="42.83415431746726" lon="-8.874304514765264"><ele>7.0</ele><time>2026-04-16T16:32:23.999Z</time></trkpt><trkpt lat="42.83402425246934" lon="-8.874247451638059"><ele>7.0</ele><time>2026-04-16T16:32:24.999Z</time></trkpt><trkpt lat="42.83389314973342" lon="-8.87419917778553"><ele>7.0</ele><time>2026-04-16T16:32:25.999Z</time></trkpt><trkpt lat="42.833761370737676" lon="-8.87416883350633"><ele>7.0</ele><time>2026-04-16T16:32:26.999Z</time></trkpt><trkpt lat="42.83363921751054" lon="-8.87417093831739"><ele>7.0</ele><time>2026-04-16T16:32:27.999Z</time></trkpt><trkpt lat="42.83353217496361" lon="-8.87421555438419"><ele>8.5</ele><time>2026-04-16T16:32:28.999Z</time></trkpt><trkpt lat="42.833442217349784" lon="-8.874294554188085"><ele>10.0</ele><time>2026-04-16T16:32:29.999Z</time></trkpt><trkpt lat="42.83335054142453" lon="-8.874403151346957"><ele>11.5</ele><time>2026-04-16T16:32:30.999Z</time></trkpt><trkpt lat="42.83324668516148" lon="-8.874521312786959"><ele>13.0</ele><time>2026-04-16T16:32:31.999Z</time></trkpt><trkpt lat="42.83312065315951" lon="-8.874634534411294"><ele>13.0</ele><time>2026-04-16T16:32:32.999Z</time></trkpt><trkpt lat="42.832979020006505" lon="-8.874739217490458"><ele>13.0</ele><time>2026-04-16T16:32:33.999Z</time></trkpt><trkpt lat="42.83283966362236" lon="-8.874844561998886"><ele>13.0</ele><time>2026-04-16T16:32:34.999Z</time></trkpt><trkpt lat="42.83269938896697" lon="-8.87495525744074"><ele>12.25</ele><time>2026-04-16T16:32:35.999Z</time></trkpt><trkpt lat="42.83256517119746" lon="-8.875066687544098"><ele>11.5</ele><time>2026-04-16T16:32:36.999Z</time></trkpt><trkpt lat="42.83244645318638" lon="-8.875173016639033"><ele>10.75</ele><time>2026-04-16T16:32:37.999Z</time></trkpt><trkpt lat="42.83233600964751" lon="-8.87527388787818"><ele>10.0</ele><time>2026-04-16T16:32:38.999Z</time></trkpt><trkpt lat="42.83223187861114" lon="-8.875358517223296"><ele>10.0</ele><time>2026-04-16T16:32:39.999Z</time></trkpt><trkpt lat="42.83211927531555" lon="-8.87539591029027"><ele>10.0</ele><time>2026-04-16T16:32:40.999Z</time></trkpt><trkpt lat="42.831989754263425" lon="-8.875379270589875"><ele>10.0</ele><time>2026-04-16T16:32:41.999Z</time></trkpt><trkpt lat="42.83185835261001" lon="-8.875327739518191"><ele>10.0</ele><time>2026-04-16T16:32:42.999Z</time></trkpt><trkpt lat="42.83172057023949" lon="-8.875259795097778"><ele>10.0</ele><time>2026-04-16T16:32:43.999Z</time></trkpt><trkpt lat="42.83159365584221" lon="-8.875210260361413"><ele>10.0</ele><time>2026-04-16T16:32:44.999Z</time></trkpt><trkpt lat="42.83147479325284" lon="-8.875203090347748"><ele>10.0</ele><time>2026-04-16T16:32:45.999Z</time></trkpt><trkpt lat="42.83136126092293" lon="-8.875228410691037"><ele>10.0</ele><time>2026-04-16T16:32:46.999Z</time></trkpt><trkpt lat="42.83124020361017" lon="-8.875258158357601"><ele>10.0</ele><time>2026-04-16T16:32:47.999Z</time></trkpt><trkpt lat="42.83111149060994" lon="-8.875302454686711"><ele>10.0</ele><time>2026-04-16T16:32:48.999Z</time></trkpt><trkpt lat="42.83099845887985" lon="-8.875351677327593"><ele>10.0</ele><time>2026-04-16T16:32:49.999Z</time></trkpt><trkpt lat="42.83089658085179" lon="-8.87536489760695"><ele>10.0</ele><time>2026-04-16T16:32:50.999Z</time></trkpt><trkpt lat="42.830803293160265" lon="-8.875391744442089"><ele>10.0</ele><time>2026-04-16T16:32:51.999Z</time></trkpt><trkpt lat="42.83072354834979" lon="-8.875437739411055"><ele>9.8</ele><time>2026-04-16T16:32:52.999Z</time></trkpt><trkpt lat="42.83065587035566" lon="-8.875456049438297"><ele>9.6</ele><time>2026-04-16T16:32:53.999Z</time></trkpt><trkpt lat="42.830593255964025" lon="-8.875472298081897"><ele>9.4</ele><time>2026-04-16T16:33:34.998Z</time></trkpt><trkpt lat="42.83048102986524" lon="-8.875497900183527"><ele>9.2</ele><time>2026-04-16T16:33:36.998Z</time></trkpt><trkpt lat="42.83037930120144" lon="-8.875527318327087"><ele>9.0</ele><time>2026-04-16T16:33:37.998Z</time></trkpt><trkpt lat="42.830278886986505" lon="-8.875540715877085"><ele>9.0</ele><time>2026-04-16T16:33:38.998Z</time></trkpt><trkpt lat="42.830177987143884" lon="-8.875568963628236"><ele>9.0</ele><time>2026-04-16T16:33:39.998Z</time></trkpt><trkpt lat="42.830090579644626" lon="-8.875597459796888"><ele>9.0</ele><time>2026-04-16T16:33:40.998Z</time></trkpt><trkpt lat="42.83001567204586" lon="-8.8756248588236"><ele>9.0</ele><time>2026-04-16T16:33:41.998Z</time></trkpt><trkpt lat="42.82995866695038" lon="-8.875662532743158"><ele>9.0</ele><time>2026-04-16T16:33:42.998Z</time></trkpt><trkpt lat="42.82988879218182" lon="-8.875747055850757"><ele>9.0</ele><time>2026-04-16T16:33:44.998Z</time></trkpt><trkpt lat="42.82984448145236" lon="-8.875827371341865"><ele>8.4</ele><time>2026-04-16T16:33:48Z</time></trkpt><trkpt lat="42.82978474159629" lon="-8.875896413183195"><ele>7.800000000000001</ele><time>2026-04-16T16:33:50Z</time></trkpt><trkpt lat="42.82966597963768" lon="-8.87583964832043"><ele>7.199999999999999</ele><time>2026-04-16T16:33:51Z</time></trkpt><trkpt lat="42.829579652266474" lon="-8.875819916046755"><ele>6.6</ele><time>2026-04-16T16:33:52Z</time></trkpt><trkpt lat="42.82949503051798" lon="-8.875799514109188"><ele>6.0</ele><time>2026-04-16T16:33:53Z</time></trkpt><trkpt lat="42.829399000062836" lon="-8.875776409687317"><ele>5.5</ele><time>2026-04-16T16:33:54Z</time></trkpt><trkpt lat="42.82929791609638" lon="-8.875753485312197"><ele>5.0</ele><time>2026-04-16T16:33:55Z</time></trkpt><trkpt lat="42.82921154248441" lon="-8.875733902075469"><ele>4.5</ele><time>2026-04-16T16:33:56Z</time></trkpt><trkpt lat="42.82913628683507" lon="-8.875717104258912"><ele>4.0</ele><time>2026-04-16T16:33:57Z</time></trkpt><trkpt lat="42.829065243911636" lon="-8.87570407959318"><ele>3.5</ele><time>2026-04-16T16:33:58Z</time></trkpt><trkpt lat="42.82898480273564" lon="-8.87569129451194"><ele>3.0</ele><time>2026-04-16T16:33:59Z</time></trkpt><trkpt lat="42.828904138516634" lon="-8.875690066032128"><ele>3.0</ele><time>2026-04-16T16:34:00Z</time></trkpt><trkpt lat="42.82881733206928" lon="-8.87568728915592"><ele>3.0</ele><time>2026-04-16T16:34:01Z</time></trkpt><trkpt lat="42.82871797171567" lon="-8.875693009124895"><ele>3.0</ele><time>2026-04-16T16:34:02Z</time></trkpt><trkpt lat="42.828617063505035" lon="-8.875696756347292"><ele>3.0</ele><time>2026-04-16T16:34:03Z</time></trkpt><trkpt lat="42.82851344550631" lon="-8.875688637990827"><ele>3.0</ele><time>2026-04-16T16:34:04Z</time></trkpt><trkpt lat="42.828404406550945" lon="-8.87568566352347"><ele>2.25</ele><time>2026-04-16T16:34:05Z</time></trkpt><trkpt lat="42.82829305989678" lon="-8.875690504644593"><ele>1.5</ele><time>2026-04-16T16:34:06Z</time></trkpt><trkpt lat="42.8281747501673" lon="-8.875691519531065"><ele>0.75</ele><time>2026-04-16T16:34:07Z</time></trkpt><trkpt lat="42.82805611068099" lon="-8.875695204752944"><ele>0.0</ele><time>2026-04-16T16:34:08Z</time></trkpt><trkpt lat="42.82793482526622" lon="-8.875701156089505"><ele>0.0</ele><time>2026-04-16T16:34:09Z</time></trkpt><trkpt lat="42.827812619275804" lon="-8.875704702960315"><ele>0.0</ele><time>2026-04-16T16:34:10Z</time></trkpt><trkpt lat="42.82768980061287" lon="-8.875707506014376"><ele>0.0</ele><time>2026-04-16T16:34:11Z</time></trkpt><trkpt lat="42.827566039324594" lon="-8.875709192563422"><ele>0.0</ele><time>2026-04-16T16:34:12Z</time></trkpt><trkpt lat="42.82743968315703" lon="-8.87572184986317"><ele>0.0</ele><time>2026-04-16T16:34:13Z</time></trkpt><trkpt lat="42.82731235944824" lon="-8.875733900205782"><ele>0.0</ele><time>2026-04-16T16:34:14Z</time></trkpt><trkpt lat="42.82718195209358" lon="-8.875741945235266"><ele>0.0</ele><time>2026-04-16T16:34:15Z</time></trkpt><trkpt lat="42.827055898021314" lon="-8.875747295338773"><ele>0.0</ele><time>2026-04-16T16:34:16Z</time></trkpt><trkpt lat="42.826927775942444" lon="-8.875752555660672"><ele>2.0</ele><time>2026-04-16T16:34:17Z</time></trkpt><trkpt lat="42.826786933035336" lon="-8.875755018087933"><ele>4.0</ele><time>2026-04-16T16:34:18Z</time></trkpt><trkpt lat="42.826629213787925" lon="-8.87574386529816"><ele>6.0</ele><time>2026-04-16T16:34:19Z</time></trkpt><trkpt lat="42.826476670483466" lon="-8.875724007398842"><ele>6.0</ele><time>2026-04-16T16:34:20Z</time></trkpt><trkpt lat="42.826321980333795" lon="-8.875708434437644"><ele>6.0</ele><time>2026-04-16T16:34:21Z</time></trkpt><trkpt lat="42.82615629172674" lon="-8.875693856295356"><ele>6.0</ele><time>2026-04-16T16:34:22Z</time></trkpt><trkpt lat="42.825980474828576" lon="-8.875668884996534"><ele>8.0</ele><time>2026-04-16T16:34:23Z</time></trkpt><trkpt lat="42.82580816495372" lon="-8.875650243861658"><ele>10.0</ele><time>2026-04-16T16:34:24Z</time></trkpt><trkpt lat="42.82563902017127" lon="-8.87564232736064"><ele>12.0</ele><time>2026-04-16T16:34:25Z</time></trkpt><trkpt lat="42.82547167016164" lon="-8.87566317215506"><ele>12.0</ele><time>2026-04-16T16:34:26Z</time></trkpt><trkpt lat="42.825292191783625" lon="-8.875694967711818"><ele>12.0</ele><time>2026-04-16T16:34:27Z</time></trkpt><trkpt lat="42.82511682065767" lon="-8.875694141084635"><ele>12.0</ele><time>2026-04-16T16:34:28Z</time></trkpt><trkpt lat="42.82495785661219" lon="-8.875664922134332"><ele>12.0</ele><time>2026-04-16T16:34:29Z</time></trkpt><trkpt lat="42.82480016838564" lon="-8.875633465306896"><ele>12.0</ele><time>2026-04-16T16:34:29.999Z</time></trkpt><trkpt lat="42.82463573539929" lon="-8.875627570751188"><ele>12.0</ele><time>2026-04-16T16:34:30.999Z</time></trkpt><trkpt lat="42.82447709761182" lon="-8.875638250250955"><ele>12.0</ele><time>2026-04-16T16:34:31.999Z</time></trkpt><trkpt lat="42.824333427219216" lon="-8.875621188957544"><ele>12.0</ele><time>2026-04-16T16:34:32.999Z</time></trkpt><trkpt lat="42.8241921287468" lon="-8.875588699314935"><ele>12.0</ele><time>2026-04-16T16:34:33.999Z</time></trkpt><trkpt lat="42.82404857300873" lon="-8.875549721553533"><ele>12.0</ele><time>2026-04-16T16:34:34.999Z</time></trkpt><trkpt lat="42.823899796946236" lon="-8.875513819063128"><ele>11.666666666666666</ele><time>2026-04-16T16:34:35.999Z</time></trkpt><trkpt lat="42.82374455350608" lon="-8.875473387656019"><ele>11.333333333333332</ele><time>2026-04-16T16:34:36.999Z</time></trkpt><trkpt lat="42.82358298360297" lon="-8.875434639139472"><ele>11.0</ele><time>2026-04-16T16:34:37.999Z</time></trkpt><trkpt lat="42.82341608995348" lon="-8.875375606740802"><ele>9.666666666666666</ele><time>2026-04-16T16:34:38.999Z</time></trkpt><trkpt lat="42.82324928336788" lon="-8.875283468039557"><ele>8.333333333333334</ele><time>2026-04-16T16:34:39.999Z</time></trkpt><trkpt lat="42.82307731118032" lon="-8.875178544837814"><ele>7.0</ele><time>2026-04-16T16:34:40.999Z</time></trkpt><trkpt lat="42.8229033357185" lon="-8.875065009890296"><ele>7.333333333333334</ele><time>2026-04-16T16:34:41.999Z</time></trkpt><trkpt lat="42.82272394115481" lon="-8.874947694910416"><ele>7.666666666666666</ele><time>2026-04-16T16:34:42.999Z</time></trkpt><trkpt lat="42.82254062644703" lon="-8.874824463516006"><ele>8.0</ele><time>2026-04-16T16:34:43.999Z</time></trkpt><trkpt lat="42.822363335183326" lon="-8.874708384232997"><ele>8.0</ele><time>2026-04-16T16:34:44.999Z</time></trkpt><trkpt lat="42.82220315870149" lon="-8.874599388423775"><ele>8.0</ele><time>2026-04-16T16:34:45.999Z</time></trkpt><trkpt lat="42.82205545195945" lon="-8.87449767983659"><ele>8.0</ele><time>2026-04-16T16:34:46.999Z</time></trkpt><trkpt lat="42.82191884297551" lon="-8.87441134798912"><ele>6.666666666666666</ele><time>2026-04-16T16:34:47.999Z</time></trkpt><trkpt lat="42.82178008536979" lon="-8.874364316389537"><ele>5.333333333333333</ele><time>2026-04-16T16:34:48.999Z</time></trkpt><trkpt lat="42.82162607698048" lon="-8.874369352367491"><ele>4.0</ele><time>2026-04-16T16:34:49.999Z</time></trkpt><trkpt lat="42.82146086720794" lon="-8.874412881697594"><ele>4.0</ele><time>2026-04-16T16:34:50.999Z</time></trkpt><trkpt lat="42.821285163255254" lon="-8.874465700502572"><ele>4.0</ele><time>2026-04-16T16:34:51.999Z</time></trkpt><trkpt lat="42.82111207269916" lon="-8.874508580360452"><ele>4.0</ele><time>2026-04-16T16:34:52.999Z</time></trkpt><trkpt lat="42.82094023912107" lon="-8.874549028121223"><ele>4.666666666666666</ele><time>2026-04-16T16:34:53.999Z</time></trkpt><trkpt lat="42.82076824463217" lon="-8.874595588300668"><ele>5.333333333333333</ele><time>2026-04-16T16:34:54.999Z</time></trkpt><trkpt lat="42.82060027671834" lon="-8.874667903849948"><ele>6.0</ele><time>2026-04-16T16:34:55.999Z</time></trkpt><trkpt lat="42.82043656746263" lon="-8.874749049652323"><ele>6.0</ele><time>2026-04-16T16:34:56.999Z</time></trkpt><trkpt lat="42.820291454275996" lon="-8.874830108574308"><ele>6.0</ele><time>2026-04-16T16:34:57.999Z</time></trkpt><trkpt lat="42.82015787566083" lon="-8.874904233215132"><ele>6.0</ele><time>2026-04-16T16:34:58.999Z</time></trkpt><trkpt lat="42.82003015110275" lon="-8.874958257544298"><ele>6.0</ele><time>2026-04-16T16:34:59.999Z</time></trkpt><trkpt lat="42.81989016038213" lon="-8.874979722012057"><ele>9.0</ele><time>2026-04-16T16:35:00.999Z</time></trkpt><trkpt lat="42.81973470914123" lon="-8.874982236533645"><ele>12.0</ele><time>2026-04-16T16:35:01.999Z</time></trkpt><trkpt lat="42.81957215645503" lon="-8.874981426644414"><ele>15.0</ele><time>2026-04-16T16:35:02.999Z</time></trkpt><trkpt lat="42.819420225003924" lon="-8.874980673566272"><ele>14.0</ele><time>2026-04-16T16:35:03.999Z</time></trkpt><trkpt lat="42.819284253967396" lon="-8.874991588386829"><ele>13.0</ele><time>2026-04-16T16:35:04.999Z</time></trkpt><trkpt lat="42.81916074901133" lon="-8.875030231800512"><ele>12.0</ele><time>2026-04-16T16:35:05.999Z</time></trkpt><trkpt lat="42.81906560405007" lon="-8.875127804545087"><ele>11.0</ele><time>2026-04-16T16:35:06.999Z</time></trkpt><trkpt lat="42.818993605872066" lon="-8.87526405424458"><ele>11.0</ele><time>2026-04-16T16:35:07.999Z</time></trkpt><trkpt lat="42.818915454860715" lon="-8.87540680122308"><ele>11.0</ele><time>2026-04-16T16:35:08.999Z</time></trkpt><trkpt lat="42.81885744352547" lon="-8.87560491833113"><ele>11.0</ele><time>2026-04-16T16:35:09.999Z</time></trkpt><trkpt lat="42.81878980258995" lon="-8.875764465414354"><ele>11.0</ele><time>2026-04-16T16:35:10.999Z</time></trkpt><trkpt lat="42.81869981760108" lon="-8.875913875960151"><ele>11.0</ele><time>2026-04-16T16:35:11.999Z</time></trkpt><trkpt lat="42.81858340567189" lon="-8.876052129136372"><ele>11.0</ele><time>2026-04-16T16:35:12.999Z</time></trkpt><trkpt lat="42.81844655643458" lon="-8.876178201001657"><ele>11.0</ele><time>2026-04-16T16:35:13.999Z</time></trkpt><trkpt lat="42.81829249545772" lon="-8.87627834283672"><ele>11.0</ele><time>2026-04-16T16:35:14.999Z</time></trkpt><trkpt lat="42.81811966892268" lon="-8.87635800356777"><ele>11.0</ele><time>2026-04-16T16:35:15.999Z</time></trkpt><trkpt lat="42.817946360317364" lon="-8.876437361198322"><ele>11.0</ele><time>2026-04-16T16:35:16.999Z</time></trkpt><trkpt lat="42.81778731802606" lon="-8.876506418387589"><ele>9.0</ele><time>2026-04-16T16:35:17.999Z</time></trkpt><trkpt lat="42.81763174342578" lon="-8.876570081819372"><ele>7.0</ele><time>2026-04-16T16:35:18.999Z</time></trkpt><trkpt lat="42.81748166204467" lon="-8.876659731409068"><ele>5.0</ele><time>2026-04-16T16:35:19.999Z</time></trkpt><trkpt lat="42.81735117956628" lon="-8.876800220756746"><ele>5.0</ele><time>2026-04-16T16:35:20.999Z</time></trkpt><trkpt lat="42.817234556032496" lon="-8.876965688386862"><ele>5.0</ele><time>2026-04-16T16:35:21.999Z</time></trkpt><trkpt lat="42.8171048558896" lon="-8.877116650769159"><ele>5.0</ele><time>2026-04-16T16:35:22.999Z</time></trkpt><trkpt lat="42.81695263245147" lon="-8.8772315622532"><ele>7.666666666666666</ele><time>2026-04-16T16:35:23.999Z</time></trkpt><trkpt lat="42.81678446604085" lon="-8.877310602741977"><ele>10.333333333333332</ele><time>2026-04-16T16:35:24.999Z</time></trkpt><trkpt lat="42.81661446698204" lon="-8.877361717191734"><ele>13.0</ele><time>2026-04-16T16:35:25.999Z</time></trkpt><trkpt lat="42.81645180758513" lon="-8.877404288974304"><ele>13.0</ele><time>2026-04-16T16:35:26.999Z</time></trkpt><trkpt lat="42.81631406609162" lon="-8.877437874203986"><ele>13.0</ele><time>2026-04-16T16:35:27.999Z</time></trkpt><trkpt lat="42.81618579356293" lon="-8.877455656506132"><ele>13.0</ele><time>2026-04-16T16:35:28.999Z</time></trkpt><trkpt lat="42.81606542681971" lon="-8.877437016373646"><ele>13.0</ele><time>2026-04-16T16:35:29.999Z</time></trkpt><trkpt lat="42.81595122915848" lon="-8.877363334213431"><ele>12.8</ele><time>2026-04-16T16:35:30.999Z</time></trkpt><trkpt lat="42.81586683081981" lon="-8.877252326066364"><ele>12.600000000000001</ele><time>2026-04-16T16:35:31.999Z</time></trkpt><trkpt lat="42.81577003712186" lon="-8.87716705081308"><ele>12.399999999999999</ele><time>2026-04-16T16:35:32.999Z</time></trkpt><trkpt lat="42.81565962800212" lon="-8.877150674427979"><ele>12.2</ele><time>2026-04-16T16:35:33.999Z</time></trkpt><trkpt lat="42.815555995887195" lon="-8.877178350701085"><ele>12.0</ele><time>2026-04-16T16:35:34.999Z</time></trkpt><trkpt lat="42.8154493521603" lon="-8.877243800488806"><ele>12.0</ele><time>2026-04-16T16:35:35.999Z</time></trkpt><trkpt lat="42.81534515135486" lon="-8.877363318779597"><ele>12.0</ele><time>2026-04-16T16:35:36.999Z</time></trkpt><trkpt lat="42.81526542531997" lon="-8.877537757409938"><ele>12.0</ele><time>2026-04-16T16:35:37.999Z</time></trkpt><trkpt lat="42.81517197375375" lon="-8.877722529352889"><ele>14.333333333333332</ele><time>2026-04-16T16:35:38.999Z</time></trkpt><trkpt lat="42.81508625063664" lon="-8.877926369997418"><ele>16.666666666666664</ele><time>2026-04-16T16:35:39.999Z</time></trkpt><trkpt lat="42.81502622494583" lon="-8.87811006449776"><ele>19.0</ele><time>2026-04-16T16:35:40.999Z</time></trkpt><trkpt lat="42.81497416646675" lon="-8.878310660451639"><ele>19.0</ele><time>2026-04-16T16:35:41.999Z</time></trkpt><trkpt lat="42.814934155239" lon="-8.878497218982652"><ele>19.0</ele><time>2026-04-16T16:35:42.999Z</time></trkpt><trkpt lat="42.814908924424685" lon="-8.878698812822964"><ele>19.0</ele><time>2026-04-16T16:35:43.999Z</time></trkpt><trkpt lat="42.814904020297696" lon="-8.878872857818914"><ele>19.0</ele><time>2026-04-16T16:35:44.999Z</time></trkpt><trkpt lat="42.81491528292598" lon="-8.87909574403421"><ele>21.333333333333332</ele><time>2026-04-16T16:35:45.999Z</time></trkpt><trkpt lat="42.81493144740026" lon="-8.879328441925473"><ele>23.666666666666664</ele><time>2026-04-16T16:35:46.999Z</time></trkpt><trkpt lat="42.81495857274641" lon="-8.879511017173547"><ele>26.0</ele><time>2026-04-16T16:35:47.999Z</time></trkpt><trkpt lat="42.81496635551107" lon="-8.879720195392602"><ele>26.0</ele><time>2026-04-16T16:35:48.999Z</time></trkpt><trkpt lat="42.814940413555476" lon="-8.879955095359689"><ele>26.0</ele><time>2026-04-16T16:35:49.999Z</time></trkpt><trkpt lat="42.8149018284889" lon="-8.880197598257695"><ele>26.0</ele><time>2026-04-16T16:35:50.999Z</time></trkpt><trkpt lat="42.814868098878726" lon="-8.880437069353597"><ele>26.0</ele><time>2026-04-16T16:35:52Z</time></trkpt><trkpt lat="42.814851761350745" lon="-8.880667280954984"><ele>26.0</ele><time>2026-04-16T16:35:53Z</time></trkpt><trkpt lat="42.81483949192396" lon="-8.880913524203049"><ele>26.0</ele><time>2026-04-16T16:35:54Z</time></trkpt><trkpt lat="42.814811965144926" lon="-8.881173143688025"><ele>25.333333333333332</ele><time>2026-04-16T16:35:55Z</time></trkpt><trkpt lat="42.81475384568999" lon="-8.881416425863232"><ele>24.666666666666664</ele><time>2026-04-16T16:35:56Z</time></trkpt><trkpt lat="42.81468827469172" lon="-8.881653639513791"><ele>24.0</ele><time>2026-04-16T16:35:57Z</time></trkpt><trkpt lat="42.81461304600847" lon="-8.881903911580578"><ele>21.0</ele><time>2026-04-16T16:35:58Z</time></trkpt><trkpt lat="42.8145355260461" lon="-8.882156569107023"><ele>18.0</ele><time>2026-04-16T16:35:59Z</time></trkpt><trkpt lat="42.8144508218607" lon="-8.882409506942546"><ele>15.0</ele><time>2026-04-16T16:36:00Z</time></trkpt><trkpt lat="42.814355124741205" lon="-8.882670783443963"><ele>21.0</ele><time>2026-04-16T16:36:01Z</time></trkpt><trkpt lat="42.81424629321524" lon="-8.882902365124984"><ele>27.0</ele><time>2026-04-16T16:36:02Z</time></trkpt><trkpt lat="42.81412773413044" lon="-8.883088964439262"><ele>33.0</ele><time>2026-04-16T16:36:03Z</time></trkpt><trkpt lat="42.81402972292396" lon="-8.883292165283933"><ele>29.666666666666668</ele><time>2026-04-16T16:36:04Z</time></trkpt><trkpt lat="42.81392732429597" lon="-8.88348140724707"><ele>26.333333333333336</ele><time>2026-04-16T16:36:05Z</time></trkpt><trkpt lat="42.81380574186779" lon="-8.883655023759284"><ele>23.0</ele><time>2026-04-16T16:36:06Z</time></trkpt><trkpt lat="42.8136742235491" lon="-8.883815277089539"><ele>23.0</ele><time>2026-04-16T16:36:07Z</time></trkpt><trkpt lat="42.81353153191525" lon="-8.883964588262474"><ele>23.0</ele><time>2026-04-16T16:36:08Z</time></trkpt><trkpt lat="42.81338822706258" lon="-8.884100912176743"><ele>23.0</ele><time>2026-04-16T16:36:09Z</time></trkpt><trkpt lat="42.813254978210075" lon="-8.884211135317097"><ele>24.0</ele><time>2026-04-16T16:36:10Z</time></trkpt><trkpt lat="42.81312704716681" lon="-8.884299640539501"><ele>25.0</ele><time>2026-04-16T16:36:11Z</time></trkpt><trkpt lat="42.81300183475666" lon="-8.884367271024312"><ele>26.0</ele><time>2026-04-16T16:36:12Z</time></trkpt><trkpt lat="42.81289125136718" lon="-8.884421447990558"><ele>27.0</ele><time>2026-04-16T16:36:13Z</time></trkpt><trkpt lat="42.81279652022566" lon="-8.884460004743072"><ele>27.0</ele><time>2026-04-16T16:36:14Z</time></trkpt><trkpt lat="42.81275102745311" lon="-8.884544809883378"><ele>27.0</ele><time>2026-04-16T16:36:15Z</time></trkpt><trkpt lat="42.812719222722684" lon="-8.884652716663936"><ele>27.0</ele><time>2026-04-16T16:36:17Z</time></trkpt><trkpt lat="42.81269149133841" lon="-8.884755266772896"><ele>27.0</ele><time>2026-04-16T16:36:20Z</time></trkpt><trkpt lat="42.812663041138244" lon="-8.884857486675669"><ele>27.0</ele><time>2026-04-16T16:36:22Z</time></trkpt><trkpt lat="42.81254534385626" lon="-8.88484734604678"><ele>27.0</ele><time>2026-04-16T16:36:23Z</time></trkpt><trkpt lat="42.812465935322905" lon="-8.884831578005876"><ele>28.833333333333332</ele><time>2026-04-16T16:36:24Z</time></trkpt><trkpt lat="42.81238233745902" lon="-8.884830954115115"><ele>30.666666666666664</ele><time>2026-04-16T16:36:25Z</time></trkpt><trkpt lat="42.812299354892794" lon="-8.884851087728146"><ele>32.5</ele><time>2026-04-16T16:36:26Z</time></trkpt><trkpt lat="42.81222819624641" lon="-8.88488612148769"><ele>34.33333333333333</ele><time>2026-04-16T16:36:27Z</time></trkpt><trkpt lat="42.812152573354886" lon="-8.884892943118292"><ele>36.166666666666664</ele><time>2026-04-16T16:36:28Z</time></trkpt><trkpt lat="42.8120649952183" lon="-8.884926422583472"><ele>38.0</ele><time>2026-04-16T16:36:29Z</time></trkpt><trkpt lat="42.81197768596102" lon="-8.885037536173318"><ele>38.0</ele><time>2026-04-16T16:36:30Z</time></trkpt><trkpt lat="42.811889864798744" lon="-8.885070377026404"><ele>38.0</ele><time>2026-04-16T16:36:31Z</time></trkpt><trkpt lat="42.811799071288426" lon="-8.885062932767209"><ele>38.0</ele><time>2026-04-16T16:36:32Z</time></trkpt><trkpt lat="42.81171721190106" lon="-8.88501683047242"><ele>38.0</ele><time>2026-04-16T16:36:33Z</time></trkpt><trkpt lat="42.81164877760612" lon="-8.88493098949297"><ele>38.0</ele><time>2026-04-16T16:36:34Z</time></trkpt><trkpt lat="42.81160068212095" lon="-8.884819386165379"><ele>39.25</ele><time>2026-04-16T16:36:35Z</time></trkpt><trkpt lat="42.811591185482115" lon="-8.884684763484332"><ele>40.5</ele><time>2026-04-16T16:36:36Z</time></trkpt><trkpt lat="42.811616379494076" lon="-8.88454105033667"><ele>41.75</ele><time>2026-04-16T16:36:37Z</time></trkpt><trkpt lat="42.81166474883282" lon="-8.884397576844618"><ele>43.0</ele><time>2026-04-16T16:36:38Z</time></trkpt><trkpt lat="42.81171615591629" lon="-8.884221665343008"><ele>46.0</ele><time>2026-04-16T16:36:39Z</time></trkpt><trkpt lat="42.811758841089805" lon="-8.884002584190934"><ele>49.0</ele><time>2026-04-16T16:36:40Z</time></trkpt><trkpt lat="42.811803814108444" lon="-8.883764355856691"><ele>52.0</ele><time>2026-04-16T16:36:41Z</time></trkpt><trkpt lat="42.81185773380073" lon="-8.883518849885121"><ele>56.666666666666664</ele><time>2026-04-16T16:36:42Z</time></trkpt><trkpt lat="42.81192645765319" lon="-8.883261265534902"><ele>61.33333333333333</ele><time>2026-04-16T16:36:43Z</time></trkpt><trkpt lat="42.81200379331469" lon="-8.882978048635747"><ele>66.0</ele><time>2026-04-16T16:36:44Z</time></trkpt><trkpt lat="42.81208705964802" lon="-8.8826698454386"><ele>70.0</ele><time>2026-04-16T16:36:45Z</time></trkpt><trkpt lat="42.81217561748508" lon="-8.882336653925977"><ele>74.0</ele><time>2026-04-16T16:36:46Z</time></trkpt><trkpt lat="42.81227080294319" lon="-8.88198417284222"><ele>78.5</ele><time>2026-04-16T16:36:47Z</time></trkpt><trkpt lat="42.81236616945429" lon="-8.881630937867664"><ele>83.0</ele><time>2026-04-16T16:36:48Z</time></trkpt><trkpt lat="42.8124625945649" lon="-8.881268394954137"><ele>85.5</ele><time>2026-04-16T16:36:49Z</time></trkpt><trkpt lat="42.81255329486724" lon="-8.88091990679109"><ele>88.0</ele><time>2026-04-16T16:36:50Z</time></trkpt><trkpt lat="42.81263938468566" lon="-8.880579171630421"><ele>77.5</ele><time>2026-04-16T16:36:51Z</time></trkpt><trkpt lat="42.81271388291243" lon="-8.880237195799465"><ele>67.0</ele><time>2026-04-16T16:36:52Z</time></trkpt><trkpt lat="42.81276905461306" lon="-8.879887478702258"><ele>67.5</ele><time>2026-04-16T16:36:53Z</time></trkpt><trkpt lat="42.81280263056004" lon="-8.879527157359218"><ele>68.0</ele><time>2026-04-16T16:36:54Z</time></trkpt><trkpt lat="42.81281991458926" lon="-8.879172794352593"><ele>68.0</ele><time>2026-04-16T16:36:55Z</time></trkpt><trkpt lat="42.812817550425514" lon="-8.87881503629278"><ele>68.0</ele><time>2026-04-16T16:36:55.999Z</time></trkpt><trkpt lat="42.81279778471689" lon="-8.878469314337977"><ele>69.0</ele><time>2026-04-16T16:36:56.999Z</time></trkpt><trkpt lat="42.812767694949095" lon="-8.878138624489383"><ele>70.0</ele><time>2026-04-16T16:36:57.999Z</time></trkpt><trkpt lat="42.81272522582342" lon="-8.877821142333701"><ele>70.0</ele><time>2026-04-16T16:36:58.999Z</time></trkpt><trkpt lat="42.81267557887504" lon="-8.877513524657692"><ele>70.0</ele><time>2026-04-16T16:36:59.999Z</time></trkpt><trkpt lat="42.81260983832713" lon="-8.877219746194642"><ele>79.0</ele><time>2026-04-16T16:37:00.999Z</time></trkpt><trkpt lat="42.81257662727962" lon="-8.876925462116178"><ele>88.0</ele><time>2026-04-16T16:37:01.999Z</time></trkpt><trkpt lat="42.812449997530926" lon="-8.876658160810683"><ele>88.0</ele><time>2026-04-16T16:37:02.999Z</time></trkpt><trkpt lat="42.81235860004319" lon="-8.876388837352131"><ele>88.0</ele><time>2026-04-16T16:37:03.999Z</time></trkpt><trkpt lat="42.812255604222614" lon="-8.876128578232452"><ele>88.0</ele><time>2026-04-16T16:37:04.999Z</time></trkpt><trkpt lat="42.812147243359476" lon="-8.875876643164528"><ele>85.33333333333333</ele><time>2026-04-16T16:37:05.999Z</time></trkpt><trkpt lat="42.81202704623496" lon="-8.875632485349437"><ele>82.66666666666667</ele><time>2026-04-16T16:37:06.999Z</time></trkpt><trkpt lat="42.811900583800416" lon="-8.875396640127136"><ele>80.0</ele><time>2026-04-16T16:37:07.999Z</time></trkpt><trkpt lat="42.81176431869757" lon="-8.875170315931099"><ele>84.33333333333334</ele><time>2026-04-16T16:37:08.999Z</time></trkpt><trkpt lat="42.81162087495741" lon="-8.87494781180701"><ele>88.66666666666667</ele><time>2026-04-16T16:37:09.999Z</time></trkpt><trkpt lat="42.811471572845214" lon="-8.87473149810543"><ele>93.0</ele><time>2026-04-16T16:37:10.999Z</time></trkpt><trkpt lat="42.81131936776526" lon="-8.874516287379445"><ele>93.0</ele><time>2026-04-16T16:37:11.999Z</time></trkpt><trkpt lat="42.81116571815023" lon="-8.874302444040868"><ele>93.0</ele><time>2026-04-16T16:37:12.999Z</time></trkpt><trkpt lat="42.81101057653179" lon="-8.874088948310378"><ele>93.0</ele><time>2026-04-16T16:37:13.999Z</time></trkpt><trkpt lat="42.81085252441665" lon="-8.8738758588967"><ele>95.0</ele><time>2026-04-16T16:37:14.999Z</time></trkpt><trkpt lat="42.810693708933684" lon="-8.873663103784338"><ele>97.0</ele><time>2026-04-16T16:37:15.999Z</time></trkpt><trkpt lat="42.81053463290547" lon="-8.873449042518596"><ele>99.0</ele><time>2026-04-16T16:37:16.999Z</time></trkpt><trkpt lat="42.81037638057295" lon="-8.873233310754523"><ele>99.0</ele><time>2026-04-16T16:37:17.999Z</time></trkpt><trkpt lat="42.81021670900103" lon="-8.873018201778931"><ele>99.0</ele><time>2026-04-16T16:37:18.999Z</time></trkpt><trkpt lat="42.810056010974755" lon="-8.872803652431793"><ele>99.0</ele><time>2026-04-16T16:37:19.999Z</time></trkpt><trkpt lat="42.80989498378587" lon="-8.872588541356654"><ele>105.0</ele><time>2026-04-16T16:37:20.999Z</time></trkpt><trkpt lat="42.80973308323199" lon="-8.872373808422875"><ele>111.0</ele><time>2026-04-16T16:37:21.999Z</time></trkpt><trkpt lat="42.80957062407343" lon="-8.872158114171201"><ele>111.0</ele><time>2026-04-16T16:37:22.999Z</time></trkpt><trkpt lat="42.80940777386794" lon="-8.871940491536943"><ele>111.0</ele><time>2026-04-16T16:37:23.999Z</time></trkpt><trkpt lat="42.80924579880795" lon="-8.871718924634727"><ele>110.0</ele><time>2026-04-16T16:37:24.999Z</time></trkpt><trkpt lat="42.80908726210195" lon="-8.871492837370337"><ele>109.0</ele><time>2026-04-16T16:37:25.999Z</time></trkpt><trkpt lat="42.8089357541358" lon="-8.871262862105345"><ele>109.0</ele><time>2026-04-16T16:37:26.999Z</time></trkpt><trkpt lat="42.80878711427399" lon="-8.871034960750194"><ele>109.0</ele><time>2026-04-16T16:37:27.999Z</time></trkpt><trkpt lat="42.80864373800246" lon="-8.87080611945614"><ele>109.0</ele><time>2026-04-16T16:37:28.999Z</time></trkpt><trkpt lat="42.80850555762391" lon="-8.870575618859446"><ele>109.66666666666667</ele><time>2026-04-16T16:37:29.999Z</time></trkpt><trkpt lat="42.8083723044819" lon="-8.870340978019652"><ele>110.33333333333334</ele><time>2026-04-16T16:37:30.999Z</time></trkpt><trkpt lat="42.808246503126206" lon="-8.870100882230112"><ele>111.0</ele><time>2026-04-16T16:37:31.999Z</time></trkpt><trkpt lat="42.80812833509198" lon="-8.869854786138347"><ele>111.0</ele><time>2026-04-16T16:37:32.999Z</time></trkpt><trkpt lat="42.80801592593502" lon="-8.86960340368773"><ele>111.0</ele><time>2026-04-16T16:37:33.999Z</time></trkpt><trkpt lat="42.80790799476682" lon="-8.869347184127188"><ele>111.0</ele><time>2026-04-16T16:37:34.999Z</time></trkpt><trkpt lat="42.80780365606488" lon="-8.869088522765786"><ele>110.0</ele><time>2026-04-16T16:37:35.999Z</time></trkpt><trkpt lat="42.807704868213264" lon="-8.868826329381703"><ele>109.0</ele><time>2026-04-16T16:37:36.999Z</time></trkpt><trkpt lat="42.80761089618543" lon="-8.868561959640783"><ele>108.0</ele><time>2026-04-16T16:37:37.999Z</time></trkpt><trkpt lat="42.80752362934599" lon="-8.868294180504437"><ele>115.0</ele><time>2026-04-16T16:37:38.999Z</time></trkpt><trkpt lat="42.807445632572865" lon="-8.868020624272782"><ele>122.0</ele><time>2026-04-16T16:37:39.999Z</time></trkpt><trkpt lat="42.80737278253152" lon="-8.8677452988902"><ele>129.0</ele><time>2026-04-16T16:37:40.999Z</time></trkpt><trkpt lat="42.80730386740195" lon="-8.867467475928489"><ele>130.66666666666666</ele><time>2026-04-16T16:37:41.999Z</time></trkpt><trkpt lat="42.80724094023089" lon="-8.867186317875285"><ele>132.33333333333331</ele><time>2026-04-16T16:37:42.999Z</time></trkpt><trkpt lat="42.80718426769476" lon="-8.866901302844367"><ele>134.0</ele><time>2026-04-16T16:37:43.999Z</time></trkpt><trkpt lat="42.80713314822688" lon="-8.866613976495241"><ele>135.0</ele><time>2026-04-16T16:37:44.999Z</time></trkpt><trkpt lat="42.80708759739132" lon="-8.866325265448287"><ele>136.0</ele><time>2026-04-16T16:37:45.999Z</time></trkpt><trkpt lat="42.80704924071837" lon="-8.866036026431015"><ele>137.0</ele><time>2026-04-16T16:37:46.999Z</time></trkpt><trkpt lat="42.80701724595627" lon="-8.865745700544315"><ele>138.0</ele><time>2026-04-16T16:37:47.999Z</time></trkpt><trkpt lat="42.8069681288827" lon="-8.865460076045602"><ele>139.0</ele><time>2026-04-16T16:37:48.999Z</time></trkpt><trkpt lat="42.80692636701787" lon="-8.86517137489831"><ele>140.0</ele><time>2026-04-16T16:37:49.999Z</time></trkpt><trkpt lat="42.80693146871845" lon="-8.864869158260678"><ele>140.66666666666666</ele><time>2026-04-16T16:37:50.999Z</time></trkpt><trkpt lat="42.80689895671449" lon="-8.864574719660558"><ele>141.33333333333334</ele><time>2026-04-16T16:37:51.999Z</time></trkpt><trkpt lat="42.80687030318515" lon="-8.86427988621055"><ele>142.0</ele><time>2026-04-16T16:37:52.999Z</time></trkpt><trkpt lat="42.806841572675516" lon="-8.863983795699708"><ele>143.33333333333334</ele><time>2026-04-16T16:37:53.999Z</time></trkpt><trkpt lat="42.806807499646496" lon="-8.863687265473066"><ele>144.66666666666666</ele><time>2026-04-16T16:37:54.999Z</time></trkpt><trkpt lat="42.80676938935744" lon="-8.863392110212793"><ele>146.0</ele><time>2026-04-16T16:37:55.999Z</time></trkpt><trkpt lat="42.80672670797512" lon="-8.86309644683813"><ele>146.0</ele><time>2026-04-16T16:37:56.999Z</time></trkpt><trkpt lat="42.806682138780715" lon="-8.862801518830326"><ele>146.0</ele><time>2026-04-16T16:37:58Z</time></trkpt><trkpt lat="42.806641110042236" lon="-8.86250526079882"><ele>146.0</ele><time>2026-04-16T16:37:59Z</time></trkpt><trkpt lat="42.80660575495926" lon="-8.862207418895684"><ele>147.66666666666666</ele><time>2026-04-16T16:38:00Z</time></trkpt><trkpt lat="42.80657334855847" lon="-8.861910250354168"><ele>149.33333333333334</ele><time>2026-04-16T16:38:01Z</time></trkpt><trkpt lat="42.806541377590854" lon="-8.861613019187379"><ele>151.0</ele><time>2026-04-16T16:38:02Z</time></trkpt><trkpt lat="42.80650697371193" lon="-8.861315454319156"><ele>153.33333333333334</ele><time>2026-04-16T16:38:03Z</time></trkpt><trkpt lat="42.80647204804216" lon="-8.861015592432118"><ele>155.66666666666666</ele><time>2026-04-16T16:38:04Z</time></trkpt><trkpt lat="42.80643608522929" lon="-8.860715052382842"><ele>158.0</ele><time>2026-04-16T16:38:05Z</time></trkpt><trkpt lat="42.80640123816124" lon="-8.860411710765879"><ele>171.0</ele><time>2026-04-16T16:38:06Z</time></trkpt><trkpt lat="42.806366405553" lon="-8.86010563561519"><ele>184.0</ele><time>2026-04-16T16:38:07Z</time></trkpt><trkpt lat="42.80633423545381" lon="-8.859799708135796"><ele>184.0</ele><time>2026-04-16T16:38:08Z</time></trkpt><trkpt lat="42.806302366310476" lon="-8.859488877097798"><ele>184.0</ele><time>2026-04-16T16:38:09Z</time></trkpt><trkpt lat="42.80627061363766" lon="-8.859177620989243"><ele>188.5</ele><time>2026-04-16T16:38:10Z</time></trkpt><trkpt lat="42.80623656134921" lon="-8.858870075199333"><ele>193.0</ele><time>2026-04-16T16:38:11Z</time></trkpt><trkpt lat="42.8062008148607" lon="-8.858562608567954"><ele>196.5</ele><time>2026-04-16T16:38:12Z</time></trkpt><trkpt lat="42.80616455006964" lon="-8.85825592081657"><ele>200.0</ele><time>2026-04-16T16:38:13Z</time></trkpt><trkpt lat="42.8061286458749" lon="-8.857948738133413"><ele>200.0</ele><time>2026-04-16T16:38:14Z</time></trkpt><trkpt lat="42.80609386114083" lon="-8.857640163226598"><ele>200.0</ele><time>2026-04-16T16:38:15Z</time></trkpt><trkpt lat="42.80605999677361" lon="-8.85733034016278"><ele>202.5</ele><time>2026-04-16T16:38:16Z</time></trkpt><trkpt lat="42.8060249208402" lon="-8.857018696856523"><ele>205.0</ele><time>2026-04-16T16:38:17Z</time></trkpt><trkpt lat="42.80598924785982" lon="-8.856705199505113"><ele>197.5</ele><time>2026-04-16T16:38:18Z</time></trkpt><trkpt lat="42.80595420490754" lon="-8.856390950909464"><ele>190.0</ele><time>2026-04-16T16:38:19Z</time></trkpt><trkpt lat="42.805918877001275" lon="-8.856074194238014"><ele>193.5</ele><time>2026-04-16T16:38:20Z</time></trkpt><trkpt lat="42.80588296718736" lon="-8.855755983809608"><ele>197.0</ele><time>2026-04-16T16:38:21Z</time></trkpt><trkpt lat="42.80584704825228" lon="-8.85543640921287"><ele>197.5</ele><time>2026-04-16T16:38:22Z</time></trkpt><trkpt lat="42.805811679669866" lon="-8.855116414556953"><ele>198.0</ele><time>2026-04-16T16:38:23Z</time></trkpt><trkpt lat="42.80577683483799" lon="-8.854795733390556"><ele>198.0</ele><time>2026-04-16T16:38:24Z</time></trkpt><trkpt lat="42.80574349173367" lon="-8.854482707166104"><ele>198.0</ele><time>2026-04-16T16:38:25Z</time></trkpt><trkpt lat="42.805711461738866" lon="-8.854174785936793"><ele>193.0</ele><time>2026-04-16T16:38:26Z</time></trkpt><trkpt lat="42.8056803509758" lon="-8.853868726277918"><ele>188.0</ele><time>2026-04-16T16:38:27Z</time></trkpt><trkpt lat="42.80564915740894" lon="-8.853565157752376"><ele>184.5</ele><time>2026-04-16T16:38:28Z</time></trkpt><trkpt lat="42.805619459605765" lon="-8.853261679502776"><ele>181.0</ele><time>2026-04-16T16:38:29Z</time></trkpt><trkpt lat="42.80559141472181" lon="-8.852956263026785"><ele>181.0</ele><time>2026-04-16T16:38:30Z</time></trkpt><trkpt lat="42.805565531823305" lon="-8.852649387579996"><ele>181.0</ele><time>2026-04-16T16:38:31Z</time></trkpt><trkpt lat="42.80554090276858" lon="-8.852339667679509"><ele>177.0</ele><time>2026-04-16T16:38:32Z</time></trkpt><trkpt lat="42.80551660695254" lon="-8.852029138347335"><ele>173.0</ele><time>2026-04-16T16:38:33Z</time></trkpt><trkpt lat="42.80549594077115" lon="-8.851716411856716"><ele>170.0</ele><time>2026-04-16T16:38:34Z</time></trkpt><trkpt lat="42.80548154759355" lon="-8.851401974679394"><ele>167.0</ele><time>2026-04-16T16:38:35Z</time></trkpt><trkpt lat="42.80546921328917" lon="-8.851083695192916"><ele>165.5</ele><time>2026-04-16T16:38:36Z</time></trkpt><trkpt lat="42.80545927071735" lon="-8.850761367817093"><ele>164.0</ele><time>2026-04-16T16:38:37Z</time></trkpt><trkpt lat="42.80545048101914" lon="-8.850436442217402"><ele>166.0</ele><time>2026-04-16T16:38:38Z</time></trkpt><trkpt lat="42.805447071138474" lon="-8.850109866673236"><ele>168.0</ele><time>2026-04-16T16:38:39Z</time></trkpt><trkpt lat="42.80544825581233" lon="-8.849784083086346"><ele>168.0</ele><time>2026-04-16T16:38:40Z</time></trkpt><trkpt lat="42.80545106717654" lon="-8.849459433365706"><ele>168.0</ele><time>2026-04-16T16:38:41Z</time></trkpt><trkpt lat="42.805461558399855" lon="-8.849141054263674"><ele>169.5</ele><time>2026-04-16T16:38:42Z</time></trkpt><trkpt lat="42.80548037564044" lon="-8.848827019761279"><ele>171.0</ele><time>2026-04-16T16:38:43Z</time></trkpt><trkpt lat="42.80550341272029" lon="-8.848519135972882"><ele>169.5</ele><time>2026-04-16T16:38:44Z</time></trkpt><trkpt lat="42.80553482633753" lon="-8.848209126056581"><ele>168.0</ele><time>2026-04-16T16:38:45Z</time></trkpt><trkpt lat="42.80557007385935" lon="-8.84789322220841"><ele>164.0</ele><time>2026-04-16T16:38:46Z</time></trkpt><trkpt lat="42.80560391186201" lon="-8.84757418567391"><ele>160.0</ele><time>2026-04-16T16:38:47Z</time></trkpt><trkpt lat="42.80563682901086" lon="-8.84725276919212"><ele>160.0</ele><time>2026-04-16T16:38:48Z</time></trkpt><trkpt lat="42.80566951028624" lon="-8.84692883223348"><ele>160.0</ele><time>2026-04-16T16:38:49Z</time></trkpt><trkpt lat="42.80570580565685" lon="-8.846603488212349"><ele>159.5</ele><time>2026-04-16T16:38:50Z</time></trkpt><trkpt lat="42.80575408582895" lon="-8.846280272660005"><ele>159.0</ele><time>2026-04-16T16:38:51Z</time></trkpt><trkpt lat="42.805810301747286" lon="-8.845976529947873"><ele>160.66666666666666</ele><time>2026-04-16T16:38:52Z</time></trkpt><trkpt lat="42.80587082705705" lon="-8.84568448904884"><ele>162.33333333333331</ele><time>2026-04-16T16:38:53Z</time></trkpt><trkpt lat="42.80593477602322" lon="-8.845394106895327"><ele>164.0</ele><time>2026-04-16T16:38:54Z</time></trkpt><trkpt lat="42.80599898562736" lon="-8.845106435951932"><ele>165.66666666666666</ele><time>2026-04-16T16:38:55Z</time></trkpt><trkpt lat="42.80606664856523" lon="-8.844819680026683"><ele>167.33333333333334</ele><time>2026-04-16T16:38:56Z</time></trkpt><trkpt lat="42.806141992597745" lon="-8.84453185539335"><ele>169.0</ele><time>2026-04-16T16:38:57Z</time></trkpt><trkpt lat="42.80622277445364" lon="-8.844242678716459"><ele>172.0</ele><time>2026-04-16T16:38:58Z</time></trkpt><trkpt lat="42.80630917652877" lon="-8.843954984042933"><ele>175.0</ele><time>2026-04-16T16:38:59Z</time></trkpt><trkpt lat="42.806398277500975" lon="-8.843670150246169"><ele>179.0</ele><time>2026-04-16T16:39:00Z</time></trkpt><trkpt lat="42.80649179922544" lon="-8.843378336252744"><ele>183.0</ele><time>2026-04-16T16:39:01Z</time></trkpt><trkpt lat="42.80658975007136" lon="-8.843086656680528"><ele>183.0</ele><time>2026-04-16T16:39:02Z</time></trkpt><trkpt lat="42.806689960070116" lon="-8.842808938259694"><ele>183.0</ele><time>2026-04-16T16:39:03Z</time></trkpt><trkpt lat="42.80679272732473" lon="-8.842541014083764"><ele>183.0</ele><time>2026-04-16T16:39:04Z</time></trkpt><trkpt lat="42.80690006211051" lon="-8.842277731349423"><ele>183.0</ele><time>2026-04-16T16:39:05Z</time></trkpt><trkpt lat="42.807012242578985" lon="-8.842015734778991"><ele>183.0</ele><time>2026-04-16T16:39:06Z</time></trkpt><trkpt lat="42.80712442834269" lon="-8.841761210705537"><ele>183.0</ele><time>2026-04-16T16:39:07Z</time></trkpt><trkpt lat="42.80723678598566" lon="-8.841515042509327"><ele>186.0</ele><time>2026-04-16T16:39:07.999Z</time></trkpt><trkpt lat="42.80735057207748" lon="-8.841274237262292"><ele>189.0</ele><time>2026-04-16T16:39:08.999Z</time></trkpt><trkpt lat="42.80746740029247" lon="-8.841038377678952"><ele>192.0</ele><time>2026-04-16T16:39:09.999Z</time></trkpt><trkpt lat="42.80758600298793" lon="-8.840810503712131"><ele>197.66666666666669</ele><time>2026-04-16T16:39:10.999Z</time></trkpt><trkpt lat="42.80770873618976" lon="-8.840592105961823"><ele>203.33333333333334</ele><time>2026-04-16T16:39:11.999Z</time></trkpt><trkpt lat="42.80783903852584" lon="-8.840374517205221"><ele>209.0</ele><time>2026-04-16T16:39:12.999Z</time></trkpt><trkpt lat="42.80797758513071" lon="-8.840156873815802"><ele>210.33333333333334</ele><time>2026-04-16T16:39:13.999Z</time></trkpt><trkpt lat="42.808122528408056" lon="-8.839937716220078"><ele>211.66666666666669</ele><time>2026-04-16T16:39:14.999Z</time></trkpt><trkpt lat="42.80826968733619" lon="-8.839713142439157"><ele>213.0</ele><time>2026-04-16T16:39:15.999Z</time></trkpt><trkpt lat="42.80841902831154" lon="-8.83948311163764"><ele>222.5</ele><time>2026-04-16T16:39:16.999Z</time></trkpt><trkpt lat="42.80857189185999" lon="-8.839250143530915"><ele>232.0</ele><time>2026-04-16T16:39:17.999Z</time></trkpt><trkpt lat="42.808731269601054" lon="-8.839018150685822"><ele>232.0</ele><time>2026-04-16T16:39:18.999Z</time></trkpt><trkpt lat="42.808896299980816" lon="-8.838786711486424"><ele>232.0</ele><time>2026-04-16T16:39:19.999Z</time></trkpt><trkpt lat="42.80906542396922" lon="-8.838552270428565"><ele>231.0</ele><time>2026-04-16T16:39:20.999Z</time></trkpt><trkpt lat="42.809231747151586" lon="-8.838321099686887"><ele>230.0</ele><time>2026-04-16T16:39:21.999Z</time></trkpt><trkpt lat="42.80939710163877" lon="-8.838090542001678"><ele>239.0</ele><time>2026-04-16T16:39:22.999Z</time></trkpt><trkpt lat="42.80956289632565" lon="-8.837863205987704"><ele>248.0</ele><time>2026-04-16T16:39:23.999Z</time></trkpt><trkpt lat="42.809730923187374" lon="-8.837643339321577"><ele>247.5</ele><time>2026-04-16T16:39:24.999Z</time></trkpt><trkpt lat="42.8098991098871" lon="-8.837432441498153"><ele>247.0</ele><time>2026-04-16T16:39:25.999Z</time></trkpt><trkpt lat="42.81006567452155" lon="-8.837229787739304"><ele>248.33333333333331</ele><time>2026-04-16T16:39:26.999Z</time></trkpt><trkpt lat="42.81023295938102" lon="-8.837034426931346"><ele>249.66666666666669</ele><time>2026-04-16T16:39:27.999Z</time></trkpt><trkpt lat="42.81039942322173" lon="-8.836841891607259"><ele>251.0</ele><time>2026-04-16T16:39:28.999Z</time></trkpt><trkpt lat="42.8105634416074" lon="-8.836649136471804"><ele>253.66666666666669</ele><time>2026-04-16T16:39:29.999Z</time></trkpt><trkpt lat="42.810726169313085" lon="-8.836457944054086"><ele>256.3333333333333</ele><time>2026-04-16T16:39:30.999Z</time></trkpt><trkpt lat="42.81089066576864" lon="-8.836269964897847"><ele>259.0</ele><time>2026-04-16T16:39:31.999Z</time></trkpt><trkpt lat="42.81105495174604" lon="-8.836083614993358"><ele>257.0</ele><time>2026-04-16T16:39:32.999Z</time></trkpt><trkpt lat="42.811218293572175" lon="-8.835895198481825"><ele>255.0</ele><time>2026-04-16T16:39:33.999Z</time></trkpt><trkpt lat="42.81138306396476" lon="-8.835707738895808"><ele>253.0</ele><time>2026-04-16T16:39:34.999Z</time></trkpt><trkpt lat="42.811548314965236" lon="-8.835522155233885"><ele>253.0</ele><time>2026-04-16T16:39:35.999Z</time></trkpt><trkpt lat="42.81171367660247" lon="-8.835337582053967"><ele>253.0</ele><time>2026-04-16T16:39:36.999Z</time></trkpt><trkpt lat="42.81187867250669" lon="-8.83515399930914"><ele>253.0</ele><time>2026-04-16T16:39:37.999Z</time></trkpt><trkpt lat="42.81204408218267" lon="-8.834970435014268"><ele>251.0</ele><time>2026-04-16T16:39:38.999Z</time></trkpt><trkpt lat="42.81220724421277" lon="-8.834784544417158"><ele>249.0</ele><time>2026-04-16T16:39:39.999Z</time></trkpt><trkpt lat="42.81237056515064" lon="-8.834598853060465"><ele>247.0</ele><time>2026-04-16T16:39:40.999Z</time></trkpt><trkpt lat="42.8125344845185" lon="-8.83441283525316"><ele>248.33333333333331</ele><time>2026-04-16T16:39:41.999Z</time></trkpt><trkpt lat="42.81269680863455" lon="-8.834224176257985"><ele>249.66666666666669</ele><time>2026-04-16T16:39:42.999Z</time></trkpt><trkpt lat="42.81285968150973" lon="-8.834040572482547"><ele>251.0</ele><time>2026-04-16T16:39:43.999Z</time></trkpt><trkpt lat="42.81301607775522" lon="-8.83385569467893"><ele>251.0</ele><time>2026-04-16T16:39:44.999Z</time></trkpt><trkpt lat="42.81317443887017" lon="-8.83368278808798"><ele>251.0</ele><time>2026-04-16T16:39:45.999Z</time></trkpt><trkpt lat="42.813328312181" lon="-8.833510022658915"><ele>251.0</ele><time>2026-04-16T16:39:46.999Z</time></trkpt><trkpt lat="42.81347871983794" lon="-8.8333379479119"><ele>253.33333333333334</ele><time>2026-04-16T16:39:47.999Z</time></trkpt><trkpt lat="42.81362628361429" lon="-8.833165650362334"><ele>255.66666666666669</ele><time>2026-04-16T16:39:48.999Z</time></trkpt><trkpt lat="42.81377297937205" lon="-8.832994204729916"><ele>258.0</ele><time>2026-04-16T16:39:49.999Z</time></trkpt><trkpt lat="42.8139188586563" lon="-8.832823810159365"><ele>258.0</ele><time>2026-04-16T16:39:50.999Z</time></trkpt><trkpt lat="42.8140654808461" lon="-8.832656201348208"><ele>258.0</ele><time>2026-04-16T16:39:51.999Z</time></trkpt><trkpt lat="42.81421176105346" lon="-8.832490487138665"><ele>258.0</ele><time>2026-04-16T16:39:52.999Z</time></trkpt><trkpt lat="42.814357579717864" lon="-8.832323211997494"><ele>262.0</ele><time>2026-04-16T16:39:53.999Z</time></trkpt><trkpt lat="42.81450378163706" lon="-8.832156961341617"><ele>266.0</ele><time>2026-04-16T16:39:54.999Z</time></trkpt><trkpt lat="42.81464923366991" lon="-8.831988436744478"><ele>270.0</ele><time>2026-04-16T16:39:55.999Z</time></trkpt><trkpt lat="42.81479512306971" lon="-8.83181947899329"><ele>275.3333333333333</ele><time>2026-04-16T16:39:56.999Z</time></trkpt><trkpt lat="42.81494176838125" lon="-8.831651433948702"><ele>280.66666666666663</ele><time>2026-04-16T16:39:57.999Z</time></trkpt><trkpt lat="42.81508871224084" lon="-8.831483653251501"><ele>286.0</ele><time>2026-04-16T16:39:58.999Z</time></trkpt><trkpt lat="42.81523787769217" lon="-8.831313118940074"><ele>286.0</ele><time>2026-04-16T16:39:59.999Z</time></trkpt><trkpt lat="42.81538834963899" lon="-8.83113812286736"><ele>286.0</ele><time>2026-04-16T16:40:00.999Z</time></trkpt><trkpt lat="42.81553962627175" lon="-8.830955819171104"><ele>286.0</ele><time>2026-04-16T16:40:01.999Z</time></trkpt><trkpt lat="42.81568909042656" lon="-8.83076306908684"><ele>291.66666666666663</ele><time>2026-04-16T16:40:02.999Z</time></trkpt><trkpt lat="42.81583677037456" lon="-8.830560494214684"><ele>297.3333333333333</ele><time>2026-04-16T16:40:04Z</time></trkpt><trkpt lat="42.81598418483699" lon="-8.830349949486378"><ele>303.0</ele><time>2026-04-16T16:40:05Z</time></trkpt><trkpt lat="42.816130529651254" lon="-8.830133301764542"><ele>304.0</ele><time>2026-04-16T16:40:06Z</time></trkpt><trkpt lat="42.81627603566979" lon="-8.829905981783861"><ele>305.0</ele><time>2026-04-16T16:40:07Z</time></trkpt><trkpt lat="42.81641653610284" lon="-8.829669825096918"><ele>306.0</ele><time>2026-04-16T16:40:08Z</time></trkpt><trkpt lat="42.81655045268417" lon="-8.829421844651216"><ele>312.0</ele><time>2026-04-16T16:40:09Z</time></trkpt><trkpt lat="42.816676977310856" lon="-8.829163046986608"><ele>318.0</ele><time>2026-04-16T16:40:10Z</time></trkpt><trkpt lat="42.81679737432623" lon="-8.828893796434604"><ele>305.5</ele><time>2026-04-16T16:40:11Z</time></trkpt><trkpt lat="42.81691185716175" lon="-8.828613997702424"><ele>293.0</ele><time>2026-04-16T16:40:12Z</time></trkpt><trkpt lat="42.81702274350238" lon="-8.828324576622208"><ele>292.0</ele><time>2026-04-16T16:40:13Z</time></trkpt><trkpt lat="42.81712870551704" lon="-8.828027686912296"><ele>291.0</ele><time>2026-04-16T16:40:14Z</time></trkpt><trkpt lat="42.81722778381826" lon="-8.827722262840688"><ele>295.5</ele><time>2026-04-16T16:40:15Z</time></trkpt><trkpt lat="42.81731710598437" lon="-8.827411877784337"><ele>300.0</ele><time>2026-04-16T16:40:16Z</time></trkpt><trkpt lat="42.81739609634808" lon="-8.827098146931569"><ele>305.0</ele><time>2026-04-16T16:40:17Z</time></trkpt><trkpt lat="42.81746454063437" lon="-8.826778310291084"><ele>310.0</ele><time>2026-04-16T16:40:18Z</time></trkpt><trkpt lat="42.81752130213571" lon="-8.826453508721173"><ele>310.0</ele><time>2026-04-16T16:40:19Z</time></trkpt><trkpt lat="42.81757132441242" lon="-8.826125320783747"><ele>310.0</ele><time>2026-04-16T16:40:20Z</time></trkpt><trkpt lat="42.81761237369118" lon="-8.825798534847213"><ele>313.5</ele><time>2026-04-16T16:40:21Z</time></trkpt><trkpt lat="42.8176435148475" lon="-8.82547614755611"><ele>317.0</ele><time>2026-04-16T16:40:22Z</time></trkpt><trkpt lat="42.81766465409527" lon="-8.82515499884398"><ele>323.0</ele><time>2026-04-16T16:40:23Z</time></trkpt><trkpt lat="42.81767885458759" lon="-8.824834815861308"><ele>329.0</ele><time>2026-04-16T16:40:24Z</time></trkpt><trkpt lat="42.817684547814416" lon="-8.82451521666066"><ele>337.5</ele><time>2026-04-16T16:40:25Z</time></trkpt><trkpt lat="42.817683185676835" lon="-8.824196814833769"><ele>346.0</ele><time>2026-04-16T16:40:26Z</time></trkpt><trkpt lat="42.81766984371001" lon="-8.823877953348486"><ele>347.0</ele><time>2026-04-16T16:40:27Z</time></trkpt><trkpt lat="42.81764447585874" lon="-8.823557386820578"><ele>348.0</ele><time>2026-04-16T16:40:28Z</time></trkpt><trkpt lat="42.81760919293359" lon="-8.823237304426076"><ele>348.0</ele><time>2026-04-16T16:40:29Z</time></trkpt><trkpt lat="42.817564310785635" lon="-8.822917759694622"><ele>348.0</ele><time>2026-04-16T16:40:30Z</time></trkpt><trkpt lat="42.81751283175336" lon="-8.822597920876984"><ele>357.5</ele><time>2026-04-16T16:40:31Z</time></trkpt><trkpt lat="42.81745208833709" lon="-8.822277075088607"><ele>367.0</ele><time>2026-04-16T16:40:32Z</time></trkpt><trkpt lat="42.81738115493646" lon="-8.821956991274845"><ele>372.0</ele><time>2026-04-16T16:40:33Z</time></trkpt><trkpt lat="42.81730162463597" lon="-8.8216376364565"><ele>377.0</ele><time>2026-04-16T16:40:34Z</time></trkpt><trkpt lat="42.81721144881548" lon="-8.821320523984062"><ele>377.0</ele><time>2026-04-16T16:40:35Z</time></trkpt><trkpt lat="42.817112458849245" lon="-8.821005582212448"><ele>377.0</ele><time>2026-04-16T16:40:36Z</time></trkpt><trkpt lat="42.81701090501085" lon="-8.820699362729902"><ele>380.0</ele><time>2026-04-16T16:40:37Z</time></trkpt><trkpt lat="42.81690745995487" lon="-8.820401440502376"><ele>383.0</ele><time>2026-04-16T16:40:38Z</time></trkpt><trkpt lat="42.81680337716185" lon="-8.820108799904697"><ele>377.0</ele><time>2026-04-16T16:40:39Z</time></trkpt><trkpt lat="42.81669944191158" lon="-8.819820607403017"><ele>371.0</ele><time>2026-04-16T16:40:40Z</time></trkpt><trkpt lat="42.816597434992445" lon="-8.81953311112501"><ele>373.5</ele><time>2026-04-16T16:40:41Z</time></trkpt><trkpt lat="42.816495642270425" lon="-8.819246032547282"><ele>376.0</ele><time>2026-04-16T16:40:42Z</time></trkpt><trkpt lat="42.816394431366916" lon="-8.818958826217427"><ele>376.0</ele><time>2026-04-16T16:40:43Z</time></trkpt><trkpt lat="42.81629041200047" lon="-8.81867122209372"><ele>376.0</ele><time>2026-04-16T16:40:44Z</time></trkpt><trkpt lat="42.81618460249085" lon="-8.818384952311225"><ele>377.0</ele><time>2026-04-16T16:40:45Z</time></trkpt><trkpt lat="42.81607995464607" lon="-8.818099665036966"><ele>378.0</ele><time>2026-04-16T16:40:46Z</time></trkpt><trkpt lat="42.81597836985467" lon="-8.81781514443422"><ele>375.0</ele><time>2026-04-16T16:40:47Z</time></trkpt><trkpt lat="42.815878741675" lon="-8.81753389563155"><ele>372.0</ele><time>2026-04-16T16:40:48Z</time></trkpt><trkpt lat="42.81578054522661" lon="-8.817255965369645"><ele>372.0</ele><time>2026-04-16T16:40:49Z</time></trkpt><trkpt lat="42.815680356397735" lon="-8.816980636696364"><ele>372.0</ele><time>2026-04-16T16:40:50Z</time></trkpt><trkpt lat="42.81557763224744" lon="-8.816706632059642"><ele>375.0</ele><time>2026-04-16T16:40:51Z</time></trkpt><trkpt lat="42.81547614904901" lon="-8.816430093952265"><ele>378.0</ele><time>2026-04-16T16:40:52Z</time></trkpt><trkpt lat="42.8153748518275" lon="-8.816148741107042"><ele>376.3333333333333</ele><time>2026-04-16T16:40:53Z</time></trkpt><trkpt lat="42.81527693050677" lon="-8.815872466723283"><ele>374.66666666666663</ele><time>2026-04-16T16:40:54Z</time></trkpt><trkpt lat="42.815179551812044" lon="-8.815598056963998"><ele>373.0</ele><time>2026-04-16T16:40:55Z</time></trkpt><trkpt lat="42.815081604041445" lon="-8.815327498082965"><ele>365.66666666666663</ele><time>2026-04-16T16:40:56Z</time></trkpt><trkpt lat="42.814981777578154" lon="-8.815059840147903"><ele>358.3333333333333</ele><time>2026-04-16T16:40:57Z</time></trkpt><trkpt lat="42.81488301759312" lon="-8.814791898405579"><ele>351.0</ele><time>2026-04-16T16:40:58Z</time></trkpt><trkpt lat="42.814786472248464" lon="-8.81452668474091"><ele>349.6666666666667</ele><time>2026-04-16T16:40:59Z</time></trkpt><trkpt lat="42.81469191303791" lon="-8.814263785114612"><ele>348.33333333333337</ele><time>2026-04-16T16:41:00Z</time></trkpt><trkpt lat="42.81459816501316" lon="-8.814005294203705"><ele>347.0</ele><time>2026-04-16T16:41:01Z</time></trkpt><trkpt lat="42.81450625671187" lon="-8.813749536071047"><ele>347.0</ele><time>2026-04-16T16:41:02Z</time></trkpt><trkpt lat="42.81441359956756" lon="-8.813497585988221"><ele>347.0</ele><time>2026-04-16T16:41:03Z</time></trkpt><trkpt lat="42.8143226731649" lon="-8.813249250629715"><ele>347.0</ele><time>2026-04-16T16:41:04Z</time></trkpt><trkpt lat="42.814232601224674" lon="-8.813004839632884"><ele>345.0</ele><time>2026-04-16T16:41:05Z</time></trkpt><trkpt lat="42.81414348707448" lon="-8.812764566427745"><ele>343.0</ele><time>2026-04-16T16:41:06Z</time></trkpt><trkpt lat="42.81405454229213" lon="-8.812524926214211"><ele>341.0</ele><time>2026-04-16T16:41:07Z</time></trkpt><trkpt lat="42.813967920343245" lon="-8.812284953835869"><ele>341.0</ele><time>2026-04-16T16:41:08Z</time></trkpt><trkpt lat="42.81388253896127" lon="-8.812045858952636"><ele>341.0</ele><time>2026-04-16T16:41:09Z</time></trkpt><trkpt lat="42.8137978422903" lon="-8.811808121093202"><ele>341.0</ele><time>2026-04-16T16:41:09.999Z</time></trkpt><trkpt lat="42.81371221781327" lon="-8.811569484153223"><ele>343.6666666666667</ele><time>2026-04-16T16:41:10.999Z</time></trkpt><trkpt lat="42.81362521234179" lon="-8.811331868194301"><ele>346.3333333333333</ele><time>2026-04-16T16:41:11.999Z</time></trkpt><trkpt lat="42.81353776797666" lon="-8.811095332418091"><ele>349.0</ele><time>2026-04-16T16:41:12.999Z</time></trkpt><trkpt lat="42.813450891199444" lon="-8.810859687385442"><ele>355.66666666666663</ele><time>2026-04-16T16:41:13.999Z</time></trkpt><trkpt lat="42.813366247268206" lon="-8.810625750202735"><ele>362.3333333333333</ele><time>2026-04-16T16:41:14.999Z</time></trkpt><trkpt lat="42.813283341426995" lon="-8.810393645537712"><ele>369.0</ele><time>2026-04-16T16:41:15.999Z</time></trkpt><trkpt lat="42.81320361863319" lon="-8.810163017579622"><ele>374.0</ele><time>2026-04-16T16:41:16.999Z</time></trkpt><trkpt lat="42.813126548399154" lon="-8.809937447563883"><ele>379.0</ele><time>2026-04-16T16:41:17.999Z</time></trkpt><trkpt lat="42.81305301377767" lon="-8.809714497713157"><ele>384.0</ele><time>2026-04-16T16:41:18.999Z</time></trkpt><trkpt lat="42.81298500966023" lon="-8.809493329087578"><ele>389.66666666666663</ele><time>2026-04-16T16:41:19.999Z</time></trkpt><trkpt lat="42.812920798196" lon="-8.809274813480291"><ele>395.3333333333333</ele><time>2026-04-16T16:41:20.999Z</time></trkpt><trkpt lat="42.81286127361511" lon="-8.809053331632494"><ele>401.0</ele><time>2026-04-16T16:41:21.999Z</time></trkpt><trkpt lat="42.812804167350386" lon="-8.808827349389423"><ele>401.0</ele><time>2026-04-16T16:41:22.999Z</time></trkpt><trkpt lat="42.81274944849137" lon="-8.808592614506626"><ele>401.0</ele><time>2026-04-16T16:41:23.999Z</time></trkpt><trkpt lat="42.81269658283707" lon="-8.808352686056367"><ele>401.0</ele><time>2026-04-16T16:41:24.999Z</time></trkpt><trkpt lat="42.81264491994322" lon="-8.80811256717145"><ele>405.0</ele><time>2026-04-16T16:41:25.999Z</time></trkpt><trkpt lat="42.812596713858206" lon="-8.807870352786622"><ele>409.0</ele><time>2026-04-16T16:41:26.999Z</time></trkpt><trkpt lat="42.8125542829599" lon="-8.807623906437462"><ele>413.0</ele><time>2026-04-16T16:41:27.999Z</time></trkpt><trkpt lat="42.81251714428942" lon="-8.807370926030526"><ele>413.0</ele><time>2026-04-16T16:41:28.999Z</time></trkpt><trkpt lat="42.81248389453518" lon="-8.807113255035091"><ele>413.0</ele><time>2026-04-16T16:41:29.999Z</time></trkpt><trkpt lat="42.81245650782722" lon="-8.806847500572916"><ele>413.0</ele><time>2026-04-16T16:41:30.999Z</time></trkpt><trkpt lat="42.81243157152732" lon="-8.806578054161793"><ele>413.0</ele><time>2026-04-16T16:41:31.999Z</time></trkpt><trkpt lat="42.81241186444027" lon="-8.806302970762706"><ele>413.0</ele><time>2026-04-16T16:41:32.999Z</time></trkpt><trkpt lat="42.812395671359695" lon="-8.806021975018057"><ele>413.0</ele><time>2026-04-16T16:41:33.999Z</time></trkpt><trkpt lat="42.81238701278141" lon="-8.805738193294724"><ele>411.66666666666663</ele><time>2026-04-16T16:41:34.999Z</time></trkpt><trkpt lat="42.812385493801706" lon="-8.80544954324387"><ele>410.33333333333337</ele><time>2026-04-16T16:41:35.999Z</time></trkpt><trkpt lat="42.812389129990926" lon="-8.805158427197636"><ele>409.0</ele><time>2026-04-16T16:41:36.999Z</time></trkpt><trkpt lat="42.81239717729946" lon="-8.804865514993564"><ele>412.0</ele><time>2026-04-16T16:41:37.999Z</time></trkpt><trkpt lat="42.81240909165306" lon="-8.804571478792859"><ele>415.0</ele><time>2026-04-16T16:41:38.999Z</time></trkpt><trkpt lat="42.81242328035075" lon="-8.804276170195712"><ele>418.0</ele><time>2026-04-16T16:41:39.999Z</time></trkpt><trkpt lat="42.8124413049624" lon="-8.803979492825745"><ele>420.0</ele><time>2026-04-16T16:41:40.999Z</time></trkpt><trkpt lat="42.8124628791113" lon="-8.8036813532273"><ele>422.0</ele><time>2026-04-16T16:41:41.999Z</time></trkpt><trkpt lat="42.812486416579226" lon="-8.80338203395524"><ele>424.0</ele><time>2026-04-16T16:41:42.999Z</time></trkpt><trkpt lat="42.812509567613866" lon="-8.803080915107888"><ele>423.6666666666667</ele><time>2026-04-16T16:41:43.999Z</time></trkpt><trkpt lat="42.8125317944448" lon="-8.802777709256345"><ele>423.33333333333337</ele><time>2026-04-16T16:41:44.999Z</time></trkpt><trkpt lat="42.81255248031219" lon="-8.802471777096223"><ele>423.0</ele><time>2026-04-16T16:41:45.999Z</time></trkpt><trkpt lat="42.812575982296465" lon="-8.802162491924783"><ele>423.0</ele><time>2026-04-16T16:41:46.999Z</time></trkpt><trkpt lat="42.81260043519402" lon="-8.801849511871817"><ele>423.0</ele><time>2026-04-16T16:41:47.999Z</time></trkpt><trkpt lat="42.81262495704862" lon="-8.801535616867827"><ele>423.0</ele><time>2026-04-16T16:41:48.999Z</time></trkpt><trkpt lat="42.8126500902873" lon="-8.801222699693934"><ele>423.0</ele><time>2026-04-16T16:41:49.999Z</time></trkpt><trkpt lat="42.812675279740546" lon="-8.800909854296453"><ele>429.5</ele><time>2026-04-16T16:41:50.999Z</time></trkpt><trkpt lat="42.812699832472966" lon="-8.800596572524427"><ele>436.0</ele><time>2026-04-16T16:41:51.999Z</time></trkpt><trkpt lat="42.81272415201091" lon="-8.80028180959739"><ele>432.0</ele><time>2026-04-16T16:41:52.999Z</time></trkpt><trkpt lat="42.812748381385404" lon="-8.79996587651582"><ele>428.0</ele><time>2026-04-16T16:41:53.999Z</time></trkpt><trkpt lat="42.81277200994955" lon="-8.79964934893531"><ele>427.0</ele><time>2026-04-16T16:41:54.999Z</time></trkpt><trkpt lat="42.81279650389436" lon="-8.799332309620805"><ele>426.0</ele><time>2026-04-16T16:41:55.999Z</time></trkpt><trkpt lat="42.81282164252435" lon="-8.79901481777659"><ele>426.0</ele><time>2026-04-16T16:41:56.999Z</time></trkpt><trkpt lat="42.812846675938104" lon="-8.798699553226525"><ele>426.0</ele><time>2026-04-16T16:41:57.999Z</time></trkpt><trkpt lat="42.812871299694045" lon="-8.798384651143309"><ele>424.0</ele><time>2026-04-16T16:41:58.999Z</time></trkpt><trkpt lat="42.812897821808235" lon="-8.798068844233445"><ele>422.0</ele><time>2026-04-16T16:41:59.999Z</time></trkpt><trkpt lat="42.81292263930877" lon="-8.797753714385252"><ele>420.5</ele><time>2026-04-16T16:42:00.999Z</time></trkpt><trkpt lat="42.81294705092164" lon="-8.79744496730448"><ele>419.0</ele><time>2026-04-16T16:42:01.999Z</time></trkpt><trkpt lat="42.812971874582075" lon="-8.797139935921418"><ele>419.0</ele><time>2026-04-16T16:42:02.999Z</time></trkpt><trkpt lat="42.81299540067065" lon="-8.796839319194016"><ele>419.0</ele><time>2026-04-16T16:42:03.999Z</time></trkpt><trkpt lat="42.81301844590246" lon="-8.796539627743124"><ele>419.0</ele><time>2026-04-16T16:42:04.999Z</time></trkpt><trkpt lat="42.813041053152006" lon="-8.79623848179013"><ele>419.3333333333333</ele><time>2026-04-16T16:42:05.999Z</time></trkpt><trkpt lat="42.81306445278768" lon="-8.795935437097015"><ele>419.66666666666663</ele><time>2026-04-16T16:42:06.999Z</time></trkpt><trkpt lat="42.81308753568586" lon="-8.795629906461608"><ele>420.0</ele><time>2026-04-16T16:42:07.999Z</time></trkpt><trkpt lat="42.81311022580305" lon="-8.795323037989107"><ele>420.5</ele><time>2026-04-16T16:42:08.999Z</time></trkpt><trkpt lat="42.813133562404175" lon="-8.795014034757848"><ele>421.0</ele><time>2026-04-16T16:42:10Z</time></trkpt><trkpt lat="42.81315838282443" lon="-8.794702943932501"><ele>421.0</ele><time>2026-04-16T16:42:11Z</time></trkpt><trkpt lat="42.81318219343057" lon="-8.794387839411842"><ele>421.0</ele><time>2026-04-16T16:42:12Z</time></trkpt><trkpt lat="42.81320566393165" lon="-8.794068975482347"><ele>422.5</ele><time>2026-04-16T16:42:13Z</time></trkpt><trkpt lat="42.81322997167631" lon="-8.793746578355425"><ele>424.0</ele><time>2026-04-16T16:42:14Z</time></trkpt><trkpt lat="42.81325410599656" lon="-8.79342175351817"><ele>426.0</ele><time>2026-04-16T16:42:15Z</time></trkpt><trkpt lat="42.81328034378708" lon="-8.79309755892307"><ele>428.0</ele><time>2026-04-16T16:42:16Z</time></trkpt><trkpt lat="42.813306715154106" lon="-8.792770150690384"><ele>430.5</ele><time>2026-04-16T16:42:17Z</time></trkpt><trkpt lat="42.813333396427616" lon="-8.7924419522239"><ele>433.0</ele><time>2026-04-16T16:42:18Z</time></trkpt><trkpt lat="42.81335941805358" lon="-8.792112366722002"><ele>433.5</ele><time>2026-04-16T16:42:19Z</time></trkpt><trkpt lat="42.8133839509944" lon="-8.791782964799744"><ele>434.0</ele><time>2026-04-16T16:42:20Z</time></trkpt><trkpt lat="42.81340842509897" lon="-8.791454751383739"><ele>434.0</ele><time>2026-04-16T16:42:21Z</time></trkpt><trkpt lat="42.81343203151017" lon="-8.791131333672299"><ele>434.0</ele><time>2026-04-16T16:42:22Z</time></trkpt><trkpt lat="42.81345481088465" lon="-8.790814993190107"><ele>435.0</ele><time>2026-04-16T16:42:23Z</time></trkpt><trkpt lat="42.813478842651506" lon="-8.790501925362928"><ele>436.0</ele><time>2026-04-16T16:42:24Z</time></trkpt><trkpt lat="42.81350324669737" lon="-8.790191536137076"><ele>439.0</ele><time>2026-04-16T16:42:25Z</time></trkpt><trkpt lat="42.81352791366115" lon="-8.789880795672577"><ele>442.0</ele><time>2026-04-16T16:42:26Z</time></trkpt><trkpt lat="42.8135527875623" lon="-8.789571765806322"><ele>440.5</ele><time>2026-04-16T16:42:27Z</time></trkpt><trkpt lat="42.813576270313824" lon="-8.789262659806235"><ele>439.0</ele><time>2026-04-16T16:42:28Z</time></trkpt><trkpt lat="42.81360024515564" lon="-8.788951134630754"><ele>439.0</ele><time>2026-04-16T16:42:29Z</time></trkpt><trkpt lat="42.81362408080401" lon="-8.788639094915986"><ele>439.0</ele><time>2026-04-16T16:42:30Z</time></trkpt><trkpt lat="42.81364763980779" lon="-8.788328883371435"><ele>439.5</ele><time>2026-04-16T16:42:31Z</time></trkpt><trkpt lat="42.81367164008925" lon="-8.788020067002645"><ele>440.0</ele><time>2026-04-16T16:42:32Z</time></trkpt><trkpt lat="42.81369656405356" lon="-8.787708849896282"><ele>445.5</ele><time>2026-04-16T16:42:33Z</time></trkpt><trkpt lat="42.813721416372374" lon="-8.787394775680012"><ele>451.0</ele><time>2026-04-16T16:42:34Z</time></trkpt><trkpt lat="42.813745171187904" lon="-8.787079206508464"><ele>452.5</ele><time>2026-04-16T16:42:35Z</time></trkpt><trkpt lat="42.813769123584834" lon="-8.786761160653121"><ele>454.0</ele><time>2026-04-16T16:42:36Z</time></trkpt><trkpt lat="42.81379287717609" lon="-8.786439653342264"><ele>454.0</ele><time>2026-04-16T16:42:37Z</time></trkpt><trkpt lat="42.813817456878425" lon="-8.786115212523153"><ele>454.0</ele><time>2026-04-16T16:42:38Z</time></trkpt><trkpt lat="42.81384385579119" lon="-8.785789186577732"><ele>455.0</ele><time>2026-04-16T16:42:39Z</time></trkpt><trkpt lat="42.81386936547782" lon="-8.785463103551432"><ele>456.0</ele><time>2026-04-16T16:42:40Z</time></trkpt><trkpt lat="42.81389482362394" lon="-8.785132328576202"><ele>456.5</ele><time>2026-04-16T16:42:41Z</time></trkpt><trkpt lat="42.81391986400269" lon="-8.784799078372705"><ele>457.0</ele><time>2026-04-16T16:42:42Z</time></trkpt><trkpt lat="42.81394264099349" lon="-8.784465617133819"><ele>457.0</ele><time>2026-04-16T16:42:43Z</time></trkpt><trkpt lat="42.813966789169754" lon="-8.78413182711394"><ele>457.0</ele><time>2026-04-16T16:42:44Z</time></trkpt><trkpt lat="42.813988334341786" lon="-8.783796802024577"><ele>456.5</ele><time>2026-04-16T16:42:45Z</time></trkpt><trkpt lat="42.81400763459035" lon="-8.78346026733268"><ele>456.0</ele><time>2026-04-16T16:42:46Z</time></trkpt><trkpt lat="42.81402527676108" lon="-8.783121897700614"><ele>456.0</ele><time>2026-04-16T16:42:47Z</time></trkpt><trkpt lat="42.81404181032733" lon="-8.782782653349873"><ele>456.0</ele><time>2026-04-16T16:42:48Z</time></trkpt><trkpt lat="42.81405587836472" lon="-8.782442315446522"><ele>457.0</ele><time>2026-04-16T16:42:49Z</time></trkpt><trkpt lat="42.814068894590356" lon="-8.782100467048556"><ele>458.0</ele><time>2026-04-16T16:42:50Z</time></trkpt><trkpt lat="42.81408167452948" lon="-8.781757030673718"><ele>459.5</ele><time>2026-04-16T16:42:51Z</time></trkpt><trkpt lat="42.81409279600985" lon="-8.781413043313757"><ele>461.0</ele><time>2026-04-16T16:42:52Z</time></trkpt><trkpt lat="42.81410324038059" lon="-8.78106814905737"><ele>460.0</ele><time>2026-04-16T16:42:53Z</time></trkpt><trkpt lat="42.81411283254823" lon="-8.780730691406275"><ele>459.0</ele><time>2026-04-16T16:42:54Z</time></trkpt><trkpt lat="42.814120428878795" lon="-8.780400565489222"><ele>459.0</ele><time>2026-04-16T16:42:55Z</time></trkpt><trkpt lat="42.81412586979649" lon="-8.780074411508872"><ele>459.0</ele><time>2026-04-16T16:42:56Z</time></trkpt><trkpt lat="42.81412864664658" lon="-8.779755073116487"><ele>459.0</ele><time>2026-04-16T16:42:57Z</time></trkpt><trkpt lat="42.81413043406824" lon="-8.779436593006084"><ele>459.0</ele><time>2026-04-16T16:42:58Z</time></trkpt><trkpt lat="42.814132504557925" lon="-8.77912176596976"><ele>455.0</ele><time>2026-04-16T16:42:59Z</time></trkpt><trkpt lat="42.81413263579278" lon="-8.778804615749943"><ele>451.0</ele><time>2026-04-16T16:43:00Z</time></trkpt><trkpt lat="42.814132095772834" lon="-8.778479700349553"><ele>449.6666666666667</ele><time>2026-04-16T16:43:01Z</time></trkpt><trkpt lat="42.814130195288826" lon="-8.778169844757935"><ele>448.33333333333337</ele><time>2026-04-16T16:43:02Z</time></trkpt><trkpt lat="42.814128953875425" lon="-8.777874198927803"><ele>447.0</ele><time>2026-04-16T16:43:03Z</time></trkpt><trkpt lat="42.81412577024753" lon="-8.777592602152982"><ele>445.66666666666663</ele><time>2026-04-16T16:43:04Z</time></trkpt><trkpt lat="42.814122426499694" lon="-8.777320775916571"><ele>444.3333333333333</ele><time>2026-04-16T16:43:05Z</time></trkpt><trkpt lat="42.814117947761154" lon="-8.777049653110064"><ele>443.0</ele><time>2026-04-16T16:43:06Z</time></trkpt><trkpt lat="42.814114133116966" lon="-8.776773729419915"><ele>442.0</ele><time>2026-04-16T16:43:07Z</time></trkpt><trkpt lat="42.8141130732539" lon="-8.776483792804163"><ele>441.0</ele><time>2026-04-16T16:43:08Z</time></trkpt><trkpt lat="42.81410889243524" lon="-8.77618827796466"><ele>440.0</ele><time>2026-04-16T16:43:09Z</time></trkpt><trkpt lat="42.814104476548" lon="-8.775886764317685"><ele>440.0</ele><time>2026-04-16T16:43:10Z</time></trkpt><trkpt lat="42.81409766755443" lon="-8.775579076535177"><ele>440.0</ele><time>2026-04-16T16:43:11Z</time></trkpt><trkpt lat="42.81408950522734" lon="-8.775269722458905"><ele>439.0</ele><time>2026-04-16T16:43:12Z</time></trkpt><trkpt lat="42.8140807549908" lon="-8.774957431063859"><ele>438.0</ele><time>2026-04-16T16:43:13Z</time></trkpt><trkpt lat="42.81407127182173" lon="-8.774642561715217"><ele>441.0</ele><time>2026-04-16T16:43:14Z</time></trkpt><trkpt lat="42.814061743606224" lon="-8.774326566259186"><ele>444.0</ele><time>2026-04-16T16:43:15Z</time></trkpt><trkpt lat="42.814053391251676" lon="-8.774010504655644"><ele>444.0</ele><time>2026-04-16T16:43:16Z</time></trkpt><trkpt lat="42.814046791336054" lon="-8.773697589986106"><ele>444.0</ele><time>2026-04-16T16:43:16.999Z</time></trkpt><trkpt lat="42.81403923732918" lon="-8.773389730028223"><ele>448.5</ele><time>2026-04-16T16:43:17.999Z</time></trkpt><trkpt lat="42.81402982491857" lon="-8.773083721180402"><ele>453.0</ele><time>2026-04-16T16:43:18.999Z</time></trkpt><trkpt lat="42.81402071560811" lon="-8.77276786115074"><ele>456.5</ele><time>2026-04-16T16:43:19.999Z</time></trkpt><trkpt lat="42.81401294047636" lon="-8.772454118949257"><ele>460.0</ele><time>2026-04-16T16:43:20.999Z</time></trkpt><trkpt lat="42.814006595000144" lon="-8.77213560022185"><ele>461.5</ele><time>2026-04-16T16:43:21.999Z</time></trkpt><trkpt lat="42.81399991365523" lon="-8.771818615042296"><ele>463.0</ele><time>2026-04-16T16:43:22.999Z</time></trkpt><trkpt lat="42.81399428540065" lon="-8.771496829419137"><ele>463.0</ele><time>2026-04-16T16:43:23.999Z</time></trkpt><trkpt lat="42.81398755211757" lon="-8.771161981400578"><ele>463.0</ele><time>2026-04-16T16:43:24.999Z</time></trkpt><trkpt lat="42.813980959293154" lon="-8.770837927435341"><ele>461.5</ele><time>2026-04-16T16:43:25.999Z</time></trkpt><trkpt lat="42.813974897782536" lon="-8.770524570174693"><ele>460.0</ele><time>2026-04-16T16:43:26.999Z</time></trkpt><trkpt lat="42.813967618379266" lon="-8.770215396876857"><ele>459.33333333333337</ele><time>2026-04-16T16:43:27.999Z</time></trkpt><trkpt lat="42.813959207145345" lon="-8.769911881295604"><ele>458.66666666666663</ele><time>2026-04-16T16:43:28.999Z</time></trkpt><trkpt lat="42.81395147824026" lon="-8.769614074067132"><ele>458.0</ele><time>2026-04-16T16:43:29.999Z</time></trkpt><trkpt lat="42.813945352742586" lon="-8.769313056404679"><ele>456.0</ele><time>2026-04-16T16:43:30.999Z</time></trkpt><trkpt lat="42.8139360020551" lon="-8.769007320758883"><ele>454.0</ele><time>2026-04-16T16:43:31.999Z</time></trkpt><trkpt lat="42.813923924584955" lon="-8.768699544818986"><ele>450.33333333333337</ele><time>2026-04-16T16:43:32.999Z</time></trkpt><trkpt lat="42.81391161710338" lon="-8.76839996205229"><ele>446.66666666666663</ele><time>2026-04-16T16:43:33.999Z</time></trkpt><trkpt lat="42.81389912829637" lon="-8.768107796654018"><ele>443.0</ele><time>2026-04-16T16:43:34.999Z</time></trkpt><trkpt lat="42.813891986394" lon="-8.767816862371161"><ele>442.66666666666663</ele><time>2026-04-16T16:43:35.999Z</time></trkpt><trkpt lat="42.81388188808087" lon="-8.767518410060408"><ele>442.33333333333337</ele><time>2026-04-16T16:43:36.999Z</time></trkpt><trkpt lat="42.8138648976681" lon="-8.767233427851249"><ele>442.0</ele><time>2026-04-16T16:43:37.999Z</time></trkpt><trkpt lat="42.81385903305145" lon="-8.766935048849888"><ele>442.6666666666667</ele><time>2026-04-16T16:43:38.999Z</time></trkpt><trkpt lat="42.81384757920166" lon="-8.766637515634674"><ele>443.33333333333337</ele><time>2026-04-16T16:43:39.999Z</time></trkpt><trkpt lat="42.81383288355167" lon="-8.76634243287986"><ele>444.0</ele><time>2026-04-16T16:43:40.999Z</time></trkpt><trkpt lat="42.81381701449448" lon="-8.766047349879532"><ele>445.33333333333337</ele><time>2026-04-16T16:43:41.999Z</time></trkpt><trkpt lat="42.81380359597186" lon="-8.765750062912916"><ele>446.6666666666667</ele><time>2026-04-16T16:43:42.999Z</time></trkpt><trkpt lat="42.81379141207288" lon="-8.76545093781766"><ele>448.0</ele><time>2026-04-16T16:43:43.999Z</time></trkpt><trkpt lat="42.813781689680205" lon="-8.765144922068691"><ele>451.0</ele><time>2026-04-16T16:43:44.999Z</time></trkpt><trkpt lat="42.813773962497145" lon="-8.764835756687935"><ele>454.0</ele><time>2026-04-16T16:43:45.999Z</time></trkpt><trkpt lat="42.81377028008648" lon="-8.764524232270514"><ele>456.0</ele><time>2026-04-16T16:43:46.999Z</time></trkpt><trkpt lat="42.81377081559648" lon="-8.764203762139799"><ele>458.0</ele><time>2026-04-16T16:43:47.999Z</time></trkpt><trkpt lat="42.81377896742218" lon="-8.763880363319956"><ele>458.0</ele><time>2026-04-16T16:43:48.999Z</time></trkpt><trkpt lat="42.81379529641186" lon="-8.763551198871424"><ele>458.0</ele><time>2026-04-16T16:43:49.999Z</time></trkpt><trkpt lat="42.81381621444658" lon="-8.76322057343178"><ele>458.0</ele><time>2026-04-16T16:43:50.999Z</time></trkpt><trkpt lat="42.813834415625905" lon="-8.762886060002215"><ele>458.0</ele><time>2026-04-16T16:43:51.999Z</time></trkpt><trkpt lat="42.81386019848517" lon="-8.76255071600162"><ele>456.5</ele><time>2026-04-16T16:43:52.999Z</time></trkpt><trkpt lat="42.813899753547076" lon="-8.762213736975772"><ele>455.0</ele><time>2026-04-16T16:43:53.999Z</time></trkpt><trkpt lat="42.81394817290578" lon="-8.761877373021747"><ele>454.5</ele><time>2026-04-16T16:43:54.999Z</time></trkpt><trkpt lat="42.81400634310564" lon="-8.761526772360273"><ele>454.0</ele><time>2026-04-16T16:43:55.999Z</time></trkpt><trkpt lat="42.814071560051886" lon="-8.761164651625878"><ele>455.5</ele><time>2026-04-16T16:43:56.999Z</time></trkpt><trkpt lat="42.81413571592285" lon="-8.760795827956999"><ele>457.0</ele><time>2026-04-16T16:43:57.999Z</time></trkpt><trkpt lat="42.81418605747426" lon="-8.760448634694454"><ele>458.0</ele><time>2026-04-16T16:43:58.999Z</time></trkpt><trkpt lat="42.814227716535385" lon="-8.760119637333002"><ele>459.0</ele><time>2026-04-16T16:43:59.999Z</time></trkpt><trkpt lat="42.81427131585817" lon="-8.759795423611934"><ele>463.0</ele><time>2026-04-16T16:44:00.999Z</time></trkpt><trkpt lat="42.81432481629936" lon="-8.759458798160347"><ele>467.0</ele><time>2026-04-16T16:44:01.999Z</time></trkpt><trkpt lat="42.814387459493915" lon="-8.759137149457288"><ele>467.0</ele><time>2026-04-16T16:44:02.999Z</time></trkpt><trkpt lat="42.81444669221125" lon="-8.758851034984787"><ele>467.0</ele><time>2026-04-16T16:44:03.999Z</time></trkpt><trkpt lat="42.81449367333195" lon="-8.75860716801857"><ele>467.0</ele><time>2026-04-16T16:44:04.999Z</time></trkpt><trkpt lat="42.814530350004574" lon="-8.758385227012957"><ele>465.8</ele><time>2026-04-16T16:44:05.999Z</time></trkpt><trkpt lat="42.81455932216469" lon="-8.758198778718729"><ele>464.6</ele><time>2026-04-16T16:44:06.999Z</time></trkpt><trkpt lat="42.81457870783436" lon="-8.758049327558217"><ele>463.40000000000003</ele><time>2026-04-16T16:44:07.999Z</time></trkpt><trkpt lat="42.81459421906896" lon="-8.757921015023648"><ele>462.20000000000005</ele><time>2026-04-16T16:44:08.999Z</time></trkpt><trkpt lat="42.8145955474699" lon="-8.75783004695384"><ele>461.0</ele><time>2026-04-16T16:44:09.999Z</time></trkpt><trkpt lat="42.81457782112071" lon="-8.757731697165754"><ele>460.5</ele><time>2026-04-16T16:44:10.999Z</time></trkpt><trkpt lat="42.81454060726002" lon="-8.757607441994722"><ele>460.0</ele><time>2026-04-16T16:44:11.999Z</time></trkpt><trkpt lat="42.814469260020736" lon="-8.757470219901698"><ele>459.5</ele><time>2026-04-16T16:44:12.999Z</time></trkpt><trkpt lat="42.81434271755234" lon="-8.757352905920216"><ele>459.0</ele><time>2026-04-16T16:44:13.999Z</time></trkpt><trkpt lat="42.81420439905825" lon="-8.757200949290187"><ele>458.0</ele><time>2026-04-16T16:44:14.999Z</time></trkpt><trkpt lat="42.81404478879466" lon="-8.757081570950012"><ele>457.0</ele><time>2026-04-16T16:44:16Z</time></trkpt><trkpt lat="42.81390569563718" lon="-8.756950445605733"><ele>456.0</ele><time>2026-04-16T16:44:17Z</time></trkpt><trkpt lat="42.81377320271682" lon="-8.756815382306495"><ele>455.33333333333337</ele><time>2026-04-16T16:44:18Z</time></trkpt><trkpt lat="42.813638154371695" lon="-8.75669455706382"><ele>454.6666666666667</ele><time>2026-04-16T16:44:19Z</time></trkpt><trkpt lat="42.81351144562102" lon="-8.756569135967663"><ele>454.0</ele><time>2026-04-16T16:44:20.001Z</time></trkpt><trkpt lat="42.813387128123225" lon="-8.756464303778694"><ele>453.2</ele><time>2026-04-16T16:44:21Z</time></trkpt><trkpt lat="42.81328780566088" lon="-8.756374672303998"><ele>452.4</ele><time>2026-04-16T16:44:22Z</time></trkpt><trkpt lat="42.8132025931228" lon="-8.756303576566822"><ele>451.6</ele><time>2026-04-16T16:44:23.001Z</time></trkpt><trkpt lat="42.81312062255119" lon="-8.756267245342086"><ele>450.8</ele><time>2026-04-16T16:44:24Z</time></trkpt><trkpt lat="42.81302809478919" lon="-8.756267316106321"><ele>450.0</ele><time>2026-04-16T16:44:25Z</time></trkpt><trkpt lat="42.812936244101984" lon="-8.75624389969582"><ele>450.0</ele><time>2026-04-16T16:44:26.001Z</time></trkpt><trkpt lat="42.8128568224867" lon="-8.756163259492807"><ele>450.0</ele><time>2026-04-16T16:44:27Z</time></trkpt><trkpt lat="42.81278163737555" lon="-8.756029173031504"><ele>450.0</ele><time>2026-04-16T16:44:28Z</time></trkpt><trkpt lat="42.812692410587715" lon="-8.75584299587353"><ele>450.0</ele><time>2026-04-16T16:44:29Z</time></trkpt><trkpt lat="42.81259065603511" lon="-8.755645389990026"><ele>450.0</ele><time>2026-04-16T16:44:30Z</time></trkpt><trkpt lat="42.81247882440797" lon="-8.755457760661905"><ele>450.0</ele><time>2026-04-16T16:44:31Z</time></trkpt><trkpt lat="42.81235381492305" lon="-8.755247837249968"><ele>450.0</ele><time>2026-04-16T16:44:32Z</time></trkpt><trkpt lat="42.81222024858562" lon="-8.755016077596956"><ele>450.0</ele><time>2026-04-16T16:44:33Z</time></trkpt><trkpt lat="42.81209043195244" lon="-8.754779492584841"><ele>450.0</ele><time>2026-04-16T16:44:34Z</time></trkpt><trkpt lat="42.811952297481106" lon="-8.754537018405308"><ele>450.0</ele><time>2026-04-16T16:44:35Z</time></trkpt><trkpt lat="42.81180905811512" lon="-8.754291670659594"><ele>448.0</ele><time>2026-04-16T16:44:36Z</time></trkpt><trkpt lat="42.8116734217202" lon="-8.754063076651898"><ele>446.0</ele><time>2026-04-16T16:44:37Z</time></trkpt><trkpt lat="42.811545391194564" lon="-8.753847242390087"><ele>444.0</ele><time>2026-04-16T16:44:38Z</time></trkpt><trkpt lat="42.81142467585926" lon="-8.75364276175997"><ele>443.0</ele><time>2026-04-16T16:44:39Z</time></trkpt><trkpt lat="42.81131112445419" lon="-8.75344941576279"><ele>442.0</ele><time>2026-04-16T16:44:40Z</time></trkpt><trkpt lat="42.81119846553655" lon="-8.753252124855166"><ele>441.0</ele><time>2026-04-16T16:44:41Z</time></trkpt><trkpt lat="42.81108078231635" lon="-8.753051449902284"><ele>441.0</ele><time>2026-04-16T16:44:42Z</time></trkpt><trkpt lat="42.81095356738929" lon="-8.752823952180742"><ele>441.0</ele><time>2026-04-16T16:44:43Z</time></trkpt><trkpt lat="42.810816134584755" lon="-8.752588114653888"><ele>441.0</ele><time>2026-04-16T16:44:44Z</time></trkpt><trkpt lat="42.81068367181907" lon="-8.752364645812213"><ele>441.33333333333337</ele><time>2026-04-16T16:44:45Z</time></trkpt><trkpt lat="42.810565317576895" lon="-8.75215551871851"><ele>441.6666666666667</ele><time>2026-04-16T16:44:46Z</time></trkpt><trkpt lat="42.81045561567146" lon="-8.75196117633187"><ele>442.0</ele><time>2026-04-16T16:44:47Z</time></trkpt><trkpt lat="42.81034885940019" lon="-8.751780994896107"><ele>442.0</ele><time>2026-04-16T16:44:48Z</time></trkpt><trkpt lat="42.81025059330207" lon="-8.751608752530279"><ele>442.0</ele><time>2026-04-16T16:44:49Z</time></trkpt><trkpt lat="42.810165012115085" lon="-8.751439037480148"><ele>442.0</ele><time>2026-04-16T16:44:50Z</time></trkpt><trkpt lat="42.81010709442762" lon="-8.75125765964245"><ele>442.0</ele><time>2026-04-16T16:44:51Z</time></trkpt><trkpt lat="42.810070180363724" lon="-8.751055532186248"><ele>442.0</ele><time>2026-04-16T16:44:52Z</time></trkpt><trkpt lat="42.810056467254135" lon="-8.750830545190787"><ele>442.0</ele><time>2026-04-16T16:44:53Z</time></trkpt><trkpt lat="42.8100430757254" lon="-8.750580015027328"><ele>442.33333333333337</ele><time>2026-04-16T16:44:54Z</time></trkpt><trkpt lat="42.81005438891988" lon="-8.75031552720818"><ele>442.66666666666663</ele><time>2026-04-16T16:44:55Z</time></trkpt><trkpt lat="42.810069326553375" lon="-8.750065264574506"><ele>443.0</ele><time>2026-04-16T16:44:56Z</time></trkpt><trkpt lat="42.81008154600192" lon="-8.749821347747833"><ele>443.3333333333333</ele><time>2026-04-16T16:44:57Z</time></trkpt><trkpt lat="42.81009523035697" lon="-8.749574770974261"><ele>443.66666666666663</ele><time>2026-04-16T16:44:58Z</time></trkpt><trkpt lat="42.81010925312646" lon="-8.749341824205286"><ele>444.0</ele><time>2026-04-16T16:44:59Z</time></trkpt><trkpt lat="42.81012270631507" lon="-8.749118339315658"><ele>440.5</ele><time>2026-04-16T16:45:00Z</time></trkpt><trkpt lat="42.81013511820794" lon="-8.74891215249117"><ele>437.0</ele><time>2026-04-16T16:45:01Z</time></trkpt><trkpt lat="42.81013700943049" lon="-8.74872344885324"><ele>433.5</ele><time>2026-04-16T16:45:02Z</time></trkpt><trkpt lat="42.81013154578367" lon="-8.748548207953707"><ele>430.0</ele><time>2026-04-16T16:45:03Z</time></trkpt><trkpt lat="42.8100702621888" lon="-8.748394044696246"><ele>429.5</ele><time>2026-04-16T16:45:04Z</time></trkpt><trkpt lat="42.80998364134186" lon="-8.748272725989708"><ele>429.0</ele><time>2026-04-16T16:45:05Z</time></trkpt><trkpt lat="42.80987564163895" lon="-8.748191908095562"><ele>428.5</ele><time>2026-04-16T16:45:06Z</time></trkpt><trkpt lat="42.80974418393299" lon="-8.74813638927811"><ele>428.0</ele><time>2026-04-16T16:45:07Z</time></trkpt><trkpt lat="42.809598398445765" lon="-8.74808601036701"><ele>428.0</ele><time>2026-04-16T16:45:08Z</time></trkpt><trkpt lat="42.80946220911991" lon="-8.748030990684601"><ele>428.0</ele><time>2026-04-16T16:45:09Z</time></trkpt><trkpt lat="42.80934386295794" lon="-8.747956323617291"><ele>428.0</ele><time>2026-04-16T16:45:10Z</time></trkpt><trkpt lat="42.809234137873744" lon="-8.747835397339045"><ele>428.0</ele><time>2026-04-16T16:45:11Z</time></trkpt><trkpt lat="42.80913548292911" lon="-8.747669405275607"><ele>425.66666666666663</ele><time>2026-04-16T16:45:12Z</time></trkpt><trkpt lat="42.80904026703553" lon="-8.747467159505613"><ele>423.33333333333337</ele><time>2026-04-16T16:45:13Z</time></trkpt><trkpt lat="42.80894501641354" lon="-8.747280262486342"><ele>421.0</ele><time>2026-04-16T16:45:14Z</time></trkpt><trkpt lat="42.80883946101064" lon="-8.747119590965916"><ele>421.0</ele><time>2026-04-16T16:45:15Z</time></trkpt><trkpt lat="42.8087157095775" lon="-8.746972141631932"><ele>421.0</ele><time>2026-04-16T16:45:16Z</time></trkpt><trkpt lat="42.80856473906476" lon="-8.74685103683133"><ele>421.0</ele><time>2026-04-16T16:45:17Z</time></trkpt><trkpt lat="42.80837735302322" lon="-8.746762166521336"><ele>415.5</ele><time>2026-04-16T16:45:18Z</time></trkpt><trkpt lat="42.80815848045818" lon="-8.746676582311613"><ele>410.0</ele><time>2026-04-16T16:45:19Z</time></trkpt><trkpt lat="42.80792180994544" lon="-8.74657579297799"><ele>410.0</ele><time>2026-04-16T16:45:20Z</time></trkpt><trkpt lat="42.80769403762827" lon="-8.746474798223305"><ele>410.0</ele><time>2026-04-16T16:45:21Z</time></trkpt><trkpt lat="42.80745643447907" lon="-8.746366437705467"><ele>407.5</ele><time>2026-04-16T16:45:22Z</time></trkpt><trkpt lat="42.80721885081222" lon="-8.746259669070234"><ele>405.0</ele><time>2026-04-16T16:45:23Z</time></trkpt><trkpt lat="42.806999247311396" lon="-8.746158608122354"><ele>404.33333333333337</ele><time>2026-04-16T16:45:24Z</time></trkpt><trkpt lat="42.80679015402261" lon="-8.746070415698824"><ele>403.6666666666667</ele><time>2026-04-16T16:45:25Z</time></trkpt><trkpt lat="42.80657972209251" lon="-8.746016286631498"><ele>403.0</ele><time>2026-04-16T16:45:26Z</time></trkpt><trkpt lat="42.806352340971834" lon="-8.745991161671695"><ele>403.0</ele><time>2026-04-16T16:45:27Z</time></trkpt><trkpt lat="42.80611440629097" lon="-8.74598754346871"><ele>403.0</ele><time>2026-04-16T16:45:28Z</time></trkpt><trkpt lat="42.80588746192342" lon="-8.745983568504336"><ele>402.0</ele><time>2026-04-16T16:45:29Z</time></trkpt><trkpt lat="42.80567218225983" lon="-8.745974619912708"><ele>401.0</ele><time>2026-04-16T16:45:30Z</time></trkpt><trkpt lat="42.805457515337956" lon="-8.745973978706589"><ele>400.0</ele><time>2026-04-16T16:45:30.999Z</time></trkpt><trkpt lat="42.80524415880129" lon="-8.745969346058677"><ele>400.33333333333337</ele><time>2026-04-16T16:45:31.999Z</time></trkpt><trkpt lat="42.805031086833274" lon="-8.745965440790574"><ele>400.66666666666663</ele><time>2026-04-16T16:45:32.999Z</time></trkpt><trkpt lat="42.804815083504444" lon="-8.745962395617644"><ele>401.0</ele><time>2026-04-16T16:45:33.999Z</time></trkpt><trkpt lat="42.804592662630434" lon="-8.745956434040536"><ele>401.0</ele><time>2026-04-16T16:45:34.999Z</time></trkpt><trkpt lat="42.804383079355546" lon="-8.745952868462197"><ele>401.0</ele><time>2026-04-16T16:45:35.999Z</time></trkpt><trkpt lat="42.80418549125929" lon="-8.745947966332505"><ele>401.0</ele><time>2026-04-16T16:45:36.999Z</time></trkpt><trkpt lat="42.803997870298524" lon="-8.745945302184227"><ele>400.3333333333333</ele><time>2026-04-16T16:45:37.999Z</time></trkpt><trkpt lat="42.8038170065229" lon="-8.745943390999184"><ele>399.66666666666663</ele><time>2026-04-16T16:45:38.999Z</time></trkpt><trkpt lat="42.803633767550956" lon="-8.745933938964393"><ele>399.0</ele><time>2026-04-16T16:45:39.999Z</time></trkpt><trkpt lat="42.80345238663406" lon="-8.745898492779125"><ele>398.0</ele><time>2026-04-16T16:45:40.999Z</time></trkpt><trkpt lat="42.803277402189316" lon="-8.74582676191181"><ele>397.0</ele><time>2026-04-16T16:45:41.999Z</time></trkpt><trkpt lat="42.80310984993673" lon="-8.745714373601368"><ele>396.0</ele><time>2026-04-16T16:45:42.999Z</time></trkpt><trkpt lat="42.802940744989165" lon="-8.745584403895702"><ele>396.0</ele><time>2026-04-16T16:45:43.999Z</time></trkpt><trkpt lat="42.8027675612208" lon="-8.745438135563216"><ele>396.0</ele><time>2026-04-16T16:45:44.999Z</time></trkpt><trkpt lat="42.80258724921346" lon="-8.745283888914795"><ele>396.0</ele><time>2026-04-16T16:45:45.999Z</time></trkpt><trkpt lat="42.802400859710474" lon="-8.745131610006661"><ele>396.0</ele><time>2026-04-16T16:45:46.999Z</time></trkpt><trkpt lat="42.80222285721225" lon="-8.744985924599744"><ele>396.0</ele><time>2026-04-16T16:45:47.999Z</time></trkpt><trkpt lat="42.80204143744422" lon="-8.744835989351946"><ele>396.0</ele><time>2026-04-16T16:45:48.999Z</time></trkpt><trkpt lat="42.80185312384261" lon="-8.744683926085271"><ele>394.5</ele><time>2026-04-16T16:45:49.999Z</time></trkpt><trkpt lat="42.8016614043024" lon="-8.74452608862904"><ele>393.0</ele><time>2026-04-16T16:45:50.999Z</time></trkpt><trkpt lat="42.80146750180685" lon="-8.744363693732382"><ele>393.0</ele><time>2026-04-16T16:45:51.999Z</time></trkpt><trkpt lat="42.80126731564998" lon="-8.74420182698836"><ele>393.0</ele><time>2026-04-16T16:45:52.999Z</time></trkpt><trkpt lat="42.80106058223801" lon="-8.744036734984666"><ele>392.33333333333337</ele><time>2026-04-16T16:45:53.999Z</time></trkpt><trkpt lat="42.80086720123213" lon="-8.743881784062417"><ele>391.6666666666667</ele><time>2026-04-16T16:45:54.999Z</time></trkpt><trkpt lat="42.8006845196532" lon="-8.743730233514128"><ele>391.0</ele><time>2026-04-16T16:45:55.999Z</time></trkpt><trkpt lat="42.800510154886354" lon="-8.743583208267207"><ele>391.33333333333337</ele><time>2026-04-16T16:45:56.999Z</time></trkpt><trkpt lat="42.8003414185259" lon="-8.74344553619516"><ele>391.66666666666663</ele><time>2026-04-16T16:45:57.999Z</time></trkpt><trkpt lat="42.800178962845365" lon="-8.74331526990507"><ele>392.0</ele><time>2026-04-16T16:45:58.999Z</time></trkpt><trkpt lat="42.800024534042315" lon="-8.74318868423033"><ele>391.0</ele><time>2026-04-16T16:45:59.999Z</time></trkpt><trkpt lat="42.79987690744719" lon="-8.743065406814793"><ele>390.0</ele><time>2026-04-16T16:46:00.999Z</time></trkpt><trkpt lat="42.79973384566215" lon="-8.7429450118769"><ele>389.0</ele><time>2026-04-16T16:46:01.999Z</time></trkpt><trkpt lat="42.79959867542105" lon="-8.742828696409573"><ele>389.0</ele><time>2026-04-16T16:46:02.999Z</time></trkpt><trkpt lat="42.799460210659745" lon="-8.74272042265298"><ele>389.0</ele><time>2026-04-16T16:46:03.999Z</time></trkpt><trkpt lat="42.79931684568464" lon="-8.742613876301196"><ele>389.0</ele><time>2026-04-16T16:46:04.999Z</time></trkpt><trkpt lat="42.79916988733523" lon="-8.742497245173123"><ele>389.3333333333333</ele><time>2026-04-16T16:46:05.999Z</time></trkpt><trkpt lat="42.79901966307073" lon="-8.742369172369413"><ele>389.66666666666663</ele><time>2026-04-16T16:46:06.999Z</time></trkpt><trkpt lat="42.79887577764103" lon="-8.74224578654222"><ele>390.0</ele><time>2026-04-16T16:46:07.999Z</time></trkpt><trkpt lat="42.79873772149638" lon="-8.742128223795007"><ele>390.0</ele><time>2026-04-16T16:46:08.999Z</time></trkpt><trkpt lat="42.79859616036299" lon="-8.742009855700582"><ele>390.0</ele><time>2026-04-16T16:46:09.999Z</time></trkpt><trkpt lat="42.79844518012562" lon="-8.741883445331379"><ele>390.0</ele><time>2026-04-16T16:46:10.999Z</time></trkpt><trkpt lat="42.798284021330666" lon="-8.741749594278707"><ele>389.33333333333337</ele><time>2026-04-16T16:46:11.999Z</time></trkpt><trkpt lat="42.79811539227754" lon="-8.741611991145316"><ele>388.6666666666667</ele><time>2026-04-16T16:46:12.999Z</time></trkpt><trkpt lat="42.79794429339503" lon="-8.741472685459616"><ele>388.0</ele><time>2026-04-16T16:46:13.999Z</time></trkpt><trkpt lat="42.79776393625649" lon="-8.74132561338118"><ele>387.0</ele><time>2026-04-16T16:46:14.999Z</time></trkpt><trkpt lat="42.79757805916169" lon="-8.741175643866631"><ele>386.0</ele><time>2026-04-16T16:46:15.999Z</time></trkpt><trkpt lat="42.79738799658608" lon="-8.741020694883138"><ele>385.0</ele><time>2026-04-16T16:46:16.999Z</time></trkpt><trkpt lat="42.79719301893095" lon="-8.740862329206376"><ele>384.6666666666667</ele><time>2026-04-16T16:46:17.999Z</time></trkpt><trkpt lat="42.7970073874934" lon="-8.74071227557056"><ele>384.33333333333337</ele><time>2026-04-16T16:46:18.999Z</time></trkpt><trkpt lat="42.796831761506496" lon="-8.740568750247938"><ele>384.0</ele><time>2026-04-16T16:46:19.999Z</time></trkpt><trkpt lat="42.796663730420015" lon="-8.74043129487254"><ele>384.0</ele><time>2026-04-16T16:46:20.999Z</time></trkpt><trkpt lat="42.79650480199537" lon="-8.740292613768634"><ele>384.0</ele><time>2026-04-16T16:46:22.001Z</time></trkpt><trkpt lat="42.79634926242327" lon="-8.740159620428042"><ele>384.0</ele><time>2026-04-16T16:46:23.001Z</time></trkpt><trkpt lat="42.79619988772593" lon="-8.740061050130825"><ele>385.66666666666663</ele><time>2026-04-16T16:46:24.001Z</time></trkpt><trkpt lat="42.79603192170763" lon="-8.739982118085894"><ele>387.3333333333333</ele><time>2026-04-16T16:46:25.001Z</time></trkpt><trkpt lat="42.79585879466367" lon="-8.73993203517466"><ele>389.0</ele><time>2026-04-16T16:46:26.001Z</time></trkpt><trkpt lat="42.79568684681965" lon="-8.739916389873521"><ele>389.0</ele><time>2026-04-16T16:46:27.001Z</time></trkpt><trkpt lat="42.79552677658295" lon="-8.73992375841665"><ele>389.0</ele><time>2026-04-16T16:46:28.001Z</time></trkpt><trkpt lat="42.795384377204606" lon="-8.739939619806343"><ele>389.0</ele><time>2026-04-16T16:46:29.001Z</time></trkpt><trkpt lat="42.79525621095199" lon="-8.739957811700833"><ele>389.0</ele><time>2026-04-16T16:46:30.001Z</time></trkpt><trkpt lat="42.79513993754986" lon="-8.739972349520272"><ele>388.2</ele><time>2026-04-16T16:46:31.001Z</time></trkpt><trkpt lat="42.795041392118755" lon="-8.73998298320431"><ele>387.4</ele><time>2026-04-16T16:46:32.001Z</time></trkpt><trkpt lat="42.79496629791368" lon="-8.739997084680555"><ele>386.6</ele><time>2026-04-16T16:46:33Z</time></trkpt><trkpt lat="42.794880143544056" lon="-8.740026859699311"><ele>385.8</ele><time>2026-04-16T16:46:35Z</time></trkpt><trkpt lat="42.79481616441406" lon="-8.74003347843792"><ele>385.0</ele><time>2026-04-16T16:46:37Z</time></trkpt><trkpt lat="42.79472322031204" lon="-8.739905276255449"><ele>385.0</ele><time>2026-04-16T16:46:39Z</time></trkpt><trkpt lat="42.79467848307226" lon="-8.739797126910464"><ele>385.0</ele><time>2026-04-16T16:46:40Z</time></trkpt><trkpt lat="42.79461670804514" lon="-8.739684788081934"><ele>385.0</ele><time>2026-04-16T16:46:41Z</time></trkpt><trkpt lat="42.79455349341862" lon="-8.739571947394266"><ele>385.0</ele><time>2026-04-16T16:46:42Z</time></trkpt><trkpt lat="42.79448192089618" lon="-8.739451557191028"><ele>385.0</ele><time>2026-04-16T16:46:43Z</time></trkpt><trkpt lat="42.79440749835691" lon="-8.739330541157884"><ele>385.0</ele><time>2026-04-16T16:46:44Z</time></trkpt><trkpt lat="42.79433783724685" lon="-8.739213405606492"><ele>385.0</ele><time>2026-04-16T16:46:45Z</time></trkpt><trkpt lat="42.79426921015796" lon="-8.739095089950826"><ele>385.0</ele><time>2026-04-16T16:46:46Z</time></trkpt><trkpt lat="42.794198120920015" lon="-8.738975859970468"><ele>385.0</ele><time>2026-04-16T16:46:47Z</time></trkpt><trkpt lat="42.794128145822675" lon="-8.738866907673042"><ele>385.0</ele><time>2026-04-16T16:46:48Z</time></trkpt><trkpt lat="42.79405904464758" lon="-8.738759710644285"><ele>385.0</ele><time>2026-04-16T16:46:49Z</time></trkpt><trkpt lat="42.79399024846158" lon="-8.73865568559265"><ele>385.0</ele><time>2026-04-16T16:46:50Z</time></trkpt><trkpt lat="42.7939250229295" lon="-8.738549873784756"><ele>385.0</ele><time>2026-04-16T16:46:51Z</time></trkpt><trkpt lat="42.7938530670741" lon="-8.738436567959523"><ele>385.0</ele><time>2026-04-16T16:46:52Z</time></trkpt><trkpt lat="42.79376879668384" lon="-8.738317744351555"><ele>385.0</ele><time>2026-04-16T16:46:53Z</time></trkpt><trkpt lat="42.79367646491263" lon="-8.738191575151902"><ele>386.25</ele><time>2026-04-16T16:46:54Z</time></trkpt><trkpt lat="42.793580194151055" lon="-8.738053082319487"><ele>387.5</ele><time>2026-04-16T16:46:55Z</time></trkpt><trkpt lat="42.79347812738232" lon="-8.737909073221429"><ele>388.75</ele><time>2026-04-16T16:46:56Z</time></trkpt><trkpt lat="42.79337977926679" lon="-8.737772403074262"><ele>390.0</ele><time>2026-04-16T16:46:57Z</time></trkpt><trkpt lat="42.79327816828621" lon="-8.737643359442702"><ele>385.75</ele><time>2026-04-16T16:46:58Z</time></trkpt><trkpt lat="42.793165424969814" lon="-8.737537037396354"><ele>381.5</ele><time>2026-04-16T16:46:59Z</time></trkpt><trkpt lat="42.79305131888568" lon="-8.737442965501842"><ele>377.25</ele><time>2026-04-16T16:47:00Z</time></trkpt><trkpt lat="42.792949876124524" lon="-8.737336874971337"><ele>373.0</ele><time>2026-04-16T16:47:01Z</time></trkpt><trkpt lat="42.792864878370324" lon="-8.737205909831273"><ele>373.0</ele><time>2026-04-16T16:47:02Z</time></trkpt><trkpt lat="42.79279139608078" lon="-8.737057716244044"><ele>373.0</ele><time>2026-04-16T16:47:03Z</time></trkpt><trkpt lat="42.79272099901631" lon="-8.736899622690839"><ele>373.0</ele><time>2026-04-16T16:47:04Z</time></trkpt><trkpt lat="42.7926411412252" lon="-8.73674285162989"><ele>373.0</ele><time>2026-04-16T16:47:05Z</time></trkpt><trkpt lat="42.792545960511106" lon="-8.73660917322425"><ele>372.75</ele><time>2026-04-16T16:47:06Z</time></trkpt><trkpt lat="42.792433105031236" lon="-8.736496577136714"><ele>372.5</ele><time>2026-04-16T16:47:07Z</time></trkpt><trkpt lat="42.7923039567751" lon="-8.736411855099234"><ele>372.25</ele><time>2026-04-16T16:47:08Z</time></trkpt><trkpt lat="42.79216172001211" lon="-8.736351129408314"><ele>372.0</ele><time>2026-04-16T16:47:09Z</time></trkpt><trkpt lat="42.79201418049566" lon="-8.736320128528337"><ele>372.0</ele><time>2026-04-16T16:47:10Z</time></trkpt><trkpt lat="42.79187226397853" lon="-8.736330967134093"><ele>372.0</ele><time>2026-04-16T16:47:11Z</time></trkpt><trkpt lat="42.79173548286163" lon="-8.73638270204987"><ele>372.0</ele><time>2026-04-16T16:47:12Z</time></trkpt><trkpt lat="42.79159661347259" lon="-8.736437304746973"><ele>372.0</ele><time>2026-04-16T16:47:13Z</time></trkpt><trkpt lat="42.791452721673465" lon="-8.736485879252994"><ele>372.25</ele><time>2026-04-16T16:47:14Z</time></trkpt><trkpt lat="42.791311456253034" lon="-8.736531783048783"><ele>372.5</ele><time>2026-04-16T16:47:15Z</time></trkpt><trkpt lat="42.791172590536505" lon="-8.73657988321265"><ele>372.75</ele><time>2026-04-16T16:47:16Z</time></trkpt><trkpt lat="42.791034647499444" lon="-8.736626802736914"><ele>373.0</ele><time>2026-04-16T16:47:17Z</time></trkpt><trkpt lat="42.7909020951577" lon="-8.736674999526949"><ele>372.5</ele><time>2026-04-16T16:47:18Z</time></trkpt><trkpt lat="42.790773621082" lon="-8.736718605567267"><ele>372.0</ele><time>2026-04-16T16:47:19Z</time></trkpt><trkpt lat="42.79064751646401" lon="-8.736761253584628"><ele>371.5</ele><time>2026-04-16T16:47:20Z</time></trkpt><trkpt lat="42.79052175653122" lon="-8.736801501766736"><ele>371.0</ele><time>2026-04-16T16:47:21Z</time></trkpt><trkpt lat="42.790395698887906" lon="-8.736820211210786"><ele>371.0</ele><time>2026-04-16T16:47:22Z</time></trkpt><trkpt lat="42.790273366848474" lon="-8.736805901203105"><ele>371.0</ele><time>2026-04-16T16:47:23Z</time></trkpt><trkpt lat="42.7901605261145" lon="-8.736758453621423"><ele>371.0</ele><time>2026-04-16T16:47:24Z</time></trkpt><trkpt lat="42.79006365341594" lon="-8.736671115453994"><ele>371.0</ele><time>2026-04-16T16:47:25Z</time></trkpt><trkpt lat="42.7899819744498" lon="-8.736546264126192"><ele>371.25</ele><time>2026-04-16T16:47:26Z</time></trkpt><trkpt lat="42.78992643255922" lon="-8.736389466911703"><ele>371.5</ele><time>2026-04-16T16:47:27Z</time></trkpt><trkpt lat="42.7899032987653" lon="-8.736222779448491"><ele>371.75</ele><time>2026-04-16T16:47:28Z</time></trkpt><trkpt lat="42.789912839483335" lon="-8.73604328354043"><ele>372.0</ele><time>2026-04-16T16:47:29Z</time></trkpt><trkpt lat="42.78995540387066" lon="-8.7358665950806"><ele>367.75</ele><time>2026-04-16T16:47:30Z</time></trkpt><trkpt lat="42.79001910268988" lon="-8.735694820251032"><ele>363.5</ele><time>2026-04-16T16:47:31Z</time></trkpt><trkpt lat="42.790062037131015" lon="-8.735517568383266"><ele>359.25</ele><time>2026-04-16T16:47:32Z</time></trkpt><trkpt lat="42.79010852425679" lon="-8.735354876635798"><ele>355.0</ele><time>2026-04-16T16:47:33Z</time></trkpt><trkpt lat="42.79014865322394" lon="-8.735188297170156"><ele>352.25</ele><time>2026-04-16T16:47:34Z</time></trkpt><trkpt lat="42.79013966947709" lon="-8.73501675702044"><ele>349.5</ele><time>2026-04-16T16:47:35Z</time></trkpt><trkpt lat="42.79009621080775" lon="-8.734853005291079"><ele>346.75</ele><time>2026-04-16T16:47:35.999Z</time></trkpt><trkpt lat="42.790028156969285" lon="-8.734705921163629"><ele>344.0</ele><time>2026-04-16T16:47:36.999Z</time></trkpt><trkpt lat="42.78993155030019" lon="-8.734589137312241"><ele>344.0</ele><time>2026-04-16T16:47:37.999Z</time></trkpt><trkpt lat="42.78980849475911" lon="-8.734492172322433"><ele>344.0</ele><time>2026-04-16T16:47:38.999Z</time></trkpt><trkpt lat="42.789670980102365" lon="-8.734427846712016"><ele>344.0</ele><time>2026-04-16T16:47:39.999Z</time></trkpt><trkpt lat="42.78952616110244" lon="-8.73436303594576"><ele>344.0</ele><time>2026-04-16T16:47:40.999Z</time></trkpt><trkpt lat="42.78937818366834" lon="-8.734288974161112"><ele>340.33333333333337</ele><time>2026-04-16T16:47:41.999Z</time></trkpt><trkpt lat="42.78922776245326" lon="-8.734213228739614"><ele>336.6666666666667</ele><time>2026-04-16T16:47:42.999Z</time></trkpt><trkpt lat="42.78907534849236" lon="-8.734142151548557"><ele>333.0</ele><time>2026-04-16T16:47:43.999Z</time></trkpt><trkpt lat="42.788921989102114" lon="-8.734069701221992"><ele>333.0</ele><time>2026-04-16T16:47:44.999Z</time></trkpt><trkpt lat="42.788767834555394" lon="-8.733991786401678"><ele>333.0</ele><time>2026-04-16T16:47:45.999Z</time></trkpt><trkpt lat="42.78861765231494" lon="-8.733918923997322"><ele>333.0</ele><time>2026-04-16T16:47:46.999Z</time></trkpt><trkpt lat="42.788472613514344" lon="-8.733857157345515"><ele>333.25</ele><time>2026-04-16T16:47:47.999Z</time></trkpt><trkpt lat="42.78832919497684" lon="-8.733808632745298"><ele>333.5</ele><time>2026-04-16T16:47:48.999Z</time></trkpt><trkpt lat="42.78818380749125" lon="-8.73378002304201"><ele>333.75</ele><time>2026-04-16T16:47:49.999Z</time></trkpt><trkpt lat="42.78803694644973" lon="-8.733771953144823"><ele>334.0</ele><time>2026-04-16T16:47:50.999Z</time></trkpt><trkpt lat="42.78788819663075" lon="-8.733780737255652"><ele>334.0</ele><time>2026-04-16T16:47:51.999Z</time></trkpt><trkpt lat="42.78773852973126" lon="-8.733803608814386"><ele>334.0</ele><time>2026-04-16T16:47:52.999Z</time></trkpt><trkpt lat="42.78758965486071" lon="-8.73384043123677"><ele>334.0</ele><time>2026-04-16T16:47:53.999Z</time></trkpt><trkpt lat="42.78744806800642" lon="-8.733871992263488"><ele>334.0</ele><time>2026-04-16T16:47:54.999Z</time></trkpt><trkpt lat="42.78731581448575" lon="-8.733897660259101"><ele>333.5</ele><time>2026-04-16T16:47:55.999Z</time></trkpt><trkpt lat="42.787193453562786" lon="-8.733917194896359"><ele>333.0</ele><time>2026-04-16T16:47:56.999Z</time></trkpt><trkpt lat="42.78707243805268" lon="-8.73392410273922"><ele>332.5</ele><time>2026-04-16T16:47:57.999Z</time></trkpt><trkpt lat="42.78695255113805" lon="-8.733894192886158"><ele>332.0</ele><time>2026-04-16T16:47:58.999Z</time></trkpt><trkpt lat="42.786843772928776" lon="-8.733822400930205"><ele>333.75</ele><time>2026-04-16T16:47:59.999Z</time></trkpt><trkpt lat="42.78674978381641" lon="-8.733713945847576"><ele>335.5</ele><time>2026-04-16T16:48:00.999Z</time></trkpt><trkpt lat="42.786668106670426" lon="-8.733571631524923"><ele>337.25</ele><time>2026-04-16T16:48:01.999Z</time></trkpt><trkpt lat="42.786599946674436" lon="-8.73339504287762"><ele>339.0</ele><time>2026-04-16T16:48:02.999Z</time></trkpt><trkpt lat="42.786536427031464" lon="-8.733200200701118"><ele>334.0</ele><time>2026-04-16T16:48:03.999Z</time></trkpt><trkpt lat="42.78646554308597" lon="-8.732997695528464"><ele>329.0</ele><time>2026-04-16T16:48:04.999Z</time></trkpt><trkpt lat="42.7863979869871" lon="-8.732780197404907"><ele>324.0</ele><time>2026-04-16T16:48:05.999Z</time></trkpt><trkpt lat="42.786327329747785" lon="-8.732559800803955"><ele>320.6666666666667</ele><time>2026-04-16T16:48:06.999Z</time></trkpt><trkpt lat="42.78625435564148" lon="-8.73235463455508"><ele>317.33333333333337</ele><time>2026-04-16T16:48:07.999Z</time></trkpt><trkpt lat="42.786184878660094" lon="-8.732151759180784"><ele>314.0</ele><time>2026-04-16T16:48:08.999Z</time></trkpt><trkpt lat="42.786116342452175" lon="-8.731955953143446"><ele>315.0</ele><time>2026-04-16T16:48:09.999Z</time></trkpt><trkpt lat="42.786038038386835" lon="-8.731772081813629"><ele>316.0</ele><time>2026-04-16T16:48:10.999Z</time></trkpt><trkpt lat="42.78594070350991" lon="-8.731613669948498"><ele>317.0</ele><time>2026-04-16T16:48:11.999Z</time></trkpt><trkpt lat="42.785825979268736" lon="-8.731485160645665"><ele>317.0</ele><time>2026-04-16T16:48:12.999Z</time></trkpt><trkpt lat="42.78569428445136" lon="-8.731380581050209"><ele>317.0</ele><time>2026-04-16T16:48:13.999Z</time></trkpt><trkpt lat="42.78555020570772" lon="-8.731296240552135"><ele>317.0</ele><time>2026-04-16T16:48:14.999Z</time></trkpt><trkpt lat="42.78540179553187" lon="-8.731216016198749"><ele>317.0</ele><time>2026-04-16T16:48:15.999Z</time></trkpt><trkpt lat="42.78525564305547" lon="-8.73113410697056"><ele>317.0</ele><time>2026-04-16T16:48:16.999Z</time></trkpt><trkpt lat="42.78511878837992" lon="-8.731055564924088"><ele>317.0</ele><time>2026-04-16T16:48:17.999Z</time></trkpt><trkpt lat="42.78498548822967" lon="-8.73098045495387"><ele>313.75</ele><time>2026-04-16T16:48:18.999Z</time></trkpt><trkpt lat="42.784853929257174" lon="-8.730902261217565"><ele>310.5</ele><time>2026-04-16T16:48:19.999Z</time></trkpt><trkpt lat="42.784728169730485" lon="-8.730818048464362"><ele>307.25</ele><time>2026-04-16T16:48:20.999Z</time></trkpt><trkpt lat="42.78461990659464" lon="-8.730705515460743"><ele>304.0</ele><time>2026-04-16T16:48:21.999Z</time></trkpt><trkpt lat="42.78453537872227" lon="-8.730565364381983"><ele>304.0</ele><time>2026-04-16T16:48:22.999Z</time></trkpt><trkpt lat="42.78448588675832" lon="-8.73039885480929"><ele>304.0</ele><time>2026-04-16T16:48:23.999Z</time></trkpt><trkpt lat="42.784477328059324" lon="-8.730208464719079"><ele>304.0</ele><time>2026-04-16T16:48:24.999Z</time></trkpt><trkpt lat="42.784508248709265" lon="-8.730002819515942"><ele>304.0</ele><time>2026-04-16T16:48:25.999Z</time></trkpt><trkpt lat="42.784549146660865" lon="-8.729799152521084"><ele>299.5</ele><time>2026-04-16T16:48:27.001Z</time></trkpt><trkpt lat="42.784602344998596" lon="-8.729629044285"><ele>295.0</ele><time>2026-04-16T16:48:28.001Z</time></trkpt><trkpt lat="42.78463344331613" lon="-8.729466580967719"><ele>290.5</ele><time>2026-04-16T16:48:29.001Z</time></trkpt><trkpt lat="42.784642890355684" lon="-8.729318523913426"><ele>286.0</ele><time>2026-04-16T16:48:30.001Z</time></trkpt><trkpt lat="42.78459534651679" lon="-8.72918268669227"><ele>285.0</ele><time>2026-04-16T16:48:31.001Z</time></trkpt><trkpt lat="42.78451119984736" lon="-8.729061092129442"><ele>284.0</ele><time>2026-04-16T16:48:32.001Z</time></trkpt><trkpt lat="42.78440484726961" lon="-8.728970709980164"><ele>283.0</ele><time>2026-04-16T16:48:33.001Z</time></trkpt><trkpt lat="42.784298809668094" lon="-8.728889583459305"><ele>282.0</ele><time>2026-04-16T16:48:34.001Z</time></trkpt><trkpt lat="42.78421388705542" lon="-8.728773717561188"><ele>283.0</ele><time>2026-04-16T16:48:35Z</time></trkpt><trkpt lat="42.78415446787819" lon="-8.728638379531175"><ele>284.0</ele><time>2026-04-16T16:48:36Z</time></trkpt><trkpt lat="42.7841123002087" lon="-8.728496760545053"><ele>285.0</ele><time>2026-04-16T16:48:37Z</time></trkpt><trkpt lat="42.78411802404534" lon="-8.72833432479454"><ele>286.0</ele><time>2026-04-16T16:48:38Z</time></trkpt><trkpt lat="42.78416771272465" lon="-8.728155728649877"><ele>286.0</ele><time>2026-04-16T16:48:39Z</time></trkpt><trkpt lat="42.78425239907829" lon="-8.727998772764032"><ele>286.0</ele><time>2026-04-16T16:48:40Z</time></trkpt><trkpt lat="42.784334182735314" lon="-8.727846447933995"><ele>286.0</ele><time>2026-04-16T16:48:41Z</time></trkpt><trkpt lat="42.78439624759891" lon="-8.727700488826255"><ele>286.0</ele><time>2026-04-16T16:48:42Z</time></trkpt><trkpt lat="42.78443400024549" lon="-8.727547690258175"><ele>285.25</ele><time>2026-04-16T16:48:43Z</time></trkpt><trkpt lat="42.78444899788073" lon="-8.727387925049324"><ele>284.5</ele><time>2026-04-16T16:48:44Z</time></trkpt><trkpt lat="42.78441049243877" lon="-8.727235851252752"><ele>283.75</ele><time>2026-04-16T16:48:45Z</time></trkpt><trkpt lat="42.78433620731402" lon="-8.727115209005857"><ele>283.0</ele><time>2026-04-16T16:48:46Z</time></trkpt><trkpt lat="42.78422539016334" lon="-8.727028678043693"><ele>283.0</ele><time>2026-04-16T16:48:47Z</time></trkpt><trkpt lat="42.784088370441545" lon="-8.726979797063468"><ele>283.0</ele><time>2026-04-16T16:48:48Z</time></trkpt><trkpt lat="42.783932106580274" lon="-8.726959992093166"><ele>283.0</ele><time>2026-04-16T16:48:49Z</time></trkpt><trkpt lat="42.78375417901038" lon="-8.726953292925923"><ele>283.0</ele><time>2026-04-16T16:48:50Z</time></trkpt><trkpt lat="42.7835802681975" lon="-8.726974519500756"><ele>283.0</ele><time>2026-04-16T16:48:51Z</time></trkpt><trkpt lat="42.7833948430419" lon="-8.727027522071827"><ele>283.0</ele><time>2026-04-16T16:48:52Z</time></trkpt><trkpt lat="42.783189874288226" lon="-8.727093605147761"><ele>282.3333333333333</ele><time>2026-04-16T16:48:53Z</time></trkpt><trkpt lat="42.78296749893852" lon="-8.727151498431931"><ele>281.6666666666667</ele><time>2026-04-16T16:48:54Z</time></trkpt><trkpt lat="42.78276188826125" lon="-8.727207050125589"><ele>281.0</ele><time>2026-04-16T16:48:55Z</time></trkpt><trkpt lat="42.78257695144316" lon="-8.727255553623705"><ele>281.0</ele><time>2026-04-16T16:48:56Z</time></trkpt><trkpt lat="42.7824111272145" lon="-8.727300197538117"><ele>281.0</ele><time>2026-04-16T16:48:57Z</time></trkpt><trkpt lat="42.78226051866794" lon="-8.727344599128433"><ele>281.0</ele><time>2026-04-16T16:48:58Z</time></trkpt><trkpt lat="42.782121021684716" lon="-8.727378023663466"><ele>281.0</ele><time>2026-04-16T16:48:59Z</time></trkpt><trkpt lat="42.781988678454006" lon="-8.72737439698556"><ele>281.0</ele><time>2026-04-16T16:49:00Z</time></trkpt><trkpt lat="42.781859392484215" lon="-8.727335611260896"><ele>281.0</ele><time>2026-04-16T16:49:01Z</time></trkpt><trkpt lat="42.78173960212332" lon="-8.727252304564908"><ele>281.0</ele><time>2026-04-16T16:49:02Z</time></trkpt><trkpt lat="42.78162192038377" lon="-8.727139825971205"><ele>279.0</ele><time>2026-04-16T16:49:03Z</time></trkpt><trkpt lat="42.78150339608945" lon="-8.726999107292079"><ele>277.0</ele><time>2026-04-16T16:49:04Z</time></trkpt><trkpt lat="42.78137941740795" lon="-8.72685332678999"><ele>275.0</ele><time>2026-04-16T16:49:05Z</time></trkpt><trkpt lat="42.781256505078034" lon="-8.726706636053382"><ele>275.33333333333337</ele><time>2026-04-16T16:49:06Z</time></trkpt><trkpt lat="42.781142006856534" lon="-8.726563497560642"><ele>275.6666666666667</ele><time>2026-04-16T16:49:07Z</time></trkpt><trkpt lat="42.7810277477014" lon="-8.726426168852168"><ele>276.0</ele><time>2026-04-16T16:49:08Z</time></trkpt><trkpt lat="42.78091934498089" lon="-8.726298895465636"><ele>276.0</ele><time>2026-04-16T16:49:09Z</time></trkpt><trkpt lat="42.78081909272638" lon="-8.726170675882216"><ele>276.0</ele><time>2026-04-16T16:49:10Z</time></trkpt><trkpt lat="42.780729676408974" lon="-8.726037245156974"><ele>276.0</ele><time>2026-04-16T16:49:11Z</time></trkpt><trkpt lat="42.78066761594126" lon="-8.725884616681526"><ele>276.0</ele><time>2026-04-16T16:49:12Z</time></trkpt><trkpt lat="42.78063153184607" lon="-8.725724030175602"><ele>274.5</ele><time>2026-04-16T16:49:13Z</time></trkpt><trkpt lat="42.780628293819575" lon="-8.725564621262121"><ele>273.0</ele><time>2026-04-16T16:49:14Z</time></trkpt><trkpt lat="42.780638607978794" lon="-8.725398473249264"><ele>271.5</ele><time>2026-04-16T16:49:15Z</time></trkpt><trkpt lat="42.78070426716931" lon="-8.725229268665235"><ele>270.0</ele><time>2026-04-16T16:49:16Z</time></trkpt><trkpt lat="42.78079632115011" lon="-8.725065654307517"><ele>267.6666666666667</ele><time>2026-04-16T16:49:17Z</time></trkpt><trkpt lat="42.780904767510066" lon="-8.72490993087344"><ele>265.33333333333337</ele><time>2026-04-16T16:49:18Z</time></trkpt><trkpt lat="42.78101647493197" lon="-8.724751779743794"><ele>263.0</ele><time>2026-04-16T16:49:19Z</time></trkpt><trkpt lat="42.781132902159015" lon="-8.724614712114358"><ele>259.25</ele><time>2026-04-16T16:49:20Z</time></trkpt><trkpt lat="42.78123257182194" lon="-8.724468169022431"><ele>255.5</ele><time>2026-04-16T16:49:21Z</time></trkpt><trkpt lat="42.78131569718397" lon="-8.72430941999878"><ele>251.75</ele><time>2026-04-16T16:49:22Z</time></trkpt><trkpt lat="42.781414811315855" lon="-8.724177376017213"><ele>248.0</ele><time>2026-04-16T16:49:23Z</time></trkpt><trkpt lat="42.781456534384" lon="-8.724004199998179"><ele>247.5</ele><time>2026-04-16T16:49:24Z</time></trkpt><trkpt lat="42.781501784109516" lon="-8.723842656540038"><ele>247.0</ele><time>2026-04-16T16:49:25Z</time></trkpt><trkpt lat="42.781504358396354" lon="-8.723672075778005"><ele>246.5</ele><time>2026-04-16T16:49:26Z</time></trkpt><trkpt lat="42.78148369451476" lon="-8.723495991958353"><ele>246.0</ele><time>2026-04-16T16:49:27Z</time></trkpt><trkpt lat="42.78143597783672" lon="-8.723321182485183"><ele>244.66666666666669</ele><time>2026-04-16T16:49:28Z</time></trkpt><trkpt lat="42.78136202419633" lon="-8.723140015586415"><ele>243.33333333333334</ele><time>2026-04-16T16:49:29Z</time></trkpt><trkpt lat="42.78127213984351" lon="-8.722960133675743"><ele>242.0</ele><time>2026-04-16T16:49:30Z</time></trkpt><trkpt lat="42.78117403232788" lon="-8.722764233828153"><ele>243.0</ele><time>2026-04-16T16:49:31Z</time></trkpt><trkpt lat="42.78107066352738" lon="-8.722585969985737"><ele>244.0</ele><time>2026-04-16T16:49:32Z</time></trkpt><trkpt lat="42.780952123809335" lon="-8.722427996823862"><ele>245.0</ele><time>2026-04-16T16:49:33Z</time></trkpt><trkpt lat="42.78081781244859" lon="-8.72229279888229"><ele>245.0</ele><time>2026-04-16T16:49:34Z</time></trkpt><trkpt lat="42.7806670069854" lon="-8.722183089564304"><ele>245.0</ele><time>2026-04-16T16:49:35Z</time></trkpt><trkpt lat="42.780517826898794" lon="-8.72208254326808"><ele>245.0</ele><time>2026-04-16T16:49:36Z</time></trkpt><trkpt lat="42.78037665935065" lon="-8.721986231207621"><ele>245.0</ele><time>2026-04-16T16:49:37Z</time></trkpt><trkpt lat="42.780235140495435" lon="-8.721909653056962"><ele>245.0</ele><time>2026-04-16T16:49:38Z</time></trkpt><trkpt lat="42.78008948830644" lon="-8.721870882381623"><ele>245.0</ele><time>2026-04-16T16:49:39Z</time></trkpt><trkpt lat="42.77993790709435" lon="-8.721860480890518"><ele>244.66666666666669</ele><time>2026-04-16T16:49:40Z</time></trkpt><trkpt lat="42.779780612667764" lon="-8.721882476971798"><ele>244.33333333333331</ele><time>2026-04-16T16:49:41Z</time></trkpt><trkpt lat="42.779626136955784" lon="-8.721926731020828"><ele>244.0</ele><time>2026-04-16T16:49:41.999Z</time></trkpt><trkpt lat="42.779483618955574" lon="-8.721968045762312"><ele>242.39999999999998</ele><time>2026-04-16T16:49:42.999Z</time></trkpt><trkpt lat="42.77934844108557" lon="-8.721994855106455"><ele>240.79999999999998</ele><time>2026-04-16T16:49:43.999Z</time></trkpt><trkpt lat="42.77923229868756" lon="-8.721998351465771"><ele>239.20000000000002</ele><time>2026-04-16T16:49:44.999Z</time></trkpt><trkpt lat="42.77913631903547" lon="-8.721992679599111"><ele>237.60000000000002</ele><time>2026-04-16T16:49:45.999Z</time></trkpt><trkpt lat="42.779064790938115" lon="-8.722005798410603"><ele>236.0</ele><time>2026-04-16T16:49:46.999Z</time></trkpt><trkpt lat="42.778989027848475" lon="-8.722025994110723"><ele>236.00000000000003</ele><time>2026-04-16T16:49:47.999Z</time></trkpt><trkpt lat="42.77891414869727" lon="-8.722041213398965"><ele>236.0</ele><time>2026-04-16T16:49:48.999Z</time></trkpt><trkpt lat="42.77884560595855" lon="-8.722042621624038"><ele>236.0</ele><time>2026-04-16T16:49:49.999Z</time></trkpt><trkpt lat="42.77877682637326" lon="-8.722021331942953"><ele>236.0</ele><time>2026-04-16T16:49:51.999Z</time></trkpt><trkpt lat="42.778713629852646" lon="-8.721932401578545"><ele>236.00000000000003</ele><time>2026-04-16T16:50:22.999Z</time></trkpt><trkpt lat="42.77867576082485" lon="-8.721782929893287"><ele>236.0</ele><time>2026-04-16T16:50:24.999Z</time></trkpt><trkpt lat="42.77866741878209" lon="-8.721692853452192"><ele>234.4</ele><time>2026-04-16T16:50:25.999Z</time></trkpt><trkpt lat="42.778660534657305" lon="-8.721602323475784"><ele>232.8</ele><time>2026-04-16T16:50:26.999Z</time></trkpt><trkpt lat="42.77865546247388" lon="-8.721511964079882"><ele>231.20000000000002</ele><time>2026-04-16T16:50:27.999Z</time></trkpt><trkpt lat="42.77862752804754" lon="-8.721346822826913"><ele>229.60000000000002</ele><time>2026-04-16T16:50:29.999Z</time></trkpt><trkpt lat="42.77859703395703" lon="-8.72120240759544"><ele>228.0</ele><time>2026-04-16T16:50:30.999Z</time></trkpt><trkpt lat="42.7785811315447" lon="-8.721035218451169"><ele>227.5</ele><time>2026-04-16T16:50:31.999Z</time></trkpt><trkpt lat="42.77856079744745" lon="-8.720850328565785"><ele>227.0</ele><time>2026-04-16T16:50:33.001Z</time></trkpt><trkpt lat="42.778538272720915" lon="-8.720666778531271"><ele>226.5</ele><time>2026-04-16T16:50:34.001Z</time></trkpt><trkpt lat="42.77851229683315" lon="-8.720486788391725"><ele>226.0</ele><time>2026-04-16T16:50:35.001Z</time></trkpt><trkpt lat="42.77847312374471" lon="-8.720312536625576"><ele>226.0</ele><time>2026-04-16T16:50:36.001Z</time></trkpt><trkpt lat="42.77841688497916" lon="-8.720148579758739"><ele>226.0</ele><time>2026-04-16T16:50:37.001Z</time></trkpt><trkpt lat="42.77833944812875" lon="-8.719999188307492"><ele>226.0</ele><time>2026-04-16T16:50:38.001Z</time></trkpt><trkpt lat="42.7782387062193" lon="-8.719866818238767"><ele>226.0</ele><time>2026-04-16T16:50:39.001Z</time></trkpt><trkpt lat="42.77811685390645" lon="-8.719760852441741"><ele>226.0</ele><time>2026-04-16T16:50:40.001Z</time></trkpt><trkpt lat="42.77797347967125" lon="-8.71968711883813"><ele>226.0</ele><time>2026-04-16T16:50:41.001Z</time></trkpt><trkpt lat="42.77781536403841" lon="-8.719642822332384"><ele>226.0</ele><time>2026-04-16T16:50:42.001Z</time></trkpt><trkpt lat="42.77765575239932" lon="-8.71961283800241"><ele>224.75</ele><time>2026-04-16T16:50:43.001Z</time></trkpt><trkpt lat="42.77750977496551" lon="-8.719575916209122"><ele>223.5</ele><time>2026-04-16T16:50:44.001Z</time></trkpt><trkpt lat="42.7773697002128" lon="-8.719526891653528"><ele>222.25</ele><time>2026-04-16T16:50:45.001Z</time></trkpt><trkpt lat="42.777244136059295" lon="-8.719454936199442"><ele>221.0</ele><time>2026-04-16T16:50:46.001Z</time></trkpt><trkpt lat="42.77713106403257" lon="-8.719354180167477"><ele>221.0</ele><time>2026-04-16T16:50:47.001Z</time></trkpt><trkpt lat="42.77704550929026" lon="-8.719218710206539"><ele>221.0</ele><time>2026-04-16T16:50:48.001Z</time></trkpt><trkpt lat="42.77697405908945" lon="-8.719063277433717"><ele>221.0</ele><time>2026-04-16T16:50:49.001Z</time></trkpt><trkpt lat="42.776905613094485" lon="-8.718887345126548"><ele>221.0</ele><time>2026-04-16T16:50:50.001Z</time></trkpt><trkpt lat="42.77682782961298" lon="-8.718705144555827"><ele>218.66666666666669</ele><time>2026-04-16T16:50:51.001Z</time></trkpt><trkpt lat="42.776729625613115" lon="-8.718542421076663"><ele>216.33333333333331</ele><time>2026-04-16T16:50:52Z</time></trkpt><trkpt lat="42.77661821178719" lon="-8.718411138147557"><ele>214.0</ele><time>2026-04-16T16:50:53Z</time></trkpt><trkpt lat="42.77648972301441" lon="-8.718297898638873"><ele>214.0</ele><time>2026-04-16T16:50:54Z</time></trkpt><trkpt lat="42.77635565821555" lon="-8.718190143621682"><ele>214.0</ele><time>2026-04-16T16:50:55Z</time></trkpt><trkpt lat="42.77621459623703" lon="-8.718083415514588"><ele>214.0</ele><time>2026-04-16T16:50:56Z</time></trkpt><trkpt lat="42.77607185931102" lon="-8.71797179428012"><ele>213.66666666666666</ele><time>2026-04-16T16:50:57Z</time></trkpt><trkpt lat="42.775924639699674" lon="-8.71786078963068"><ele>213.33333333333331</ele><time>2026-04-16T16:50:58Z</time></trkpt><trkpt lat="42.77578146278127" lon="-8.717752152607213"><ele>213.0</ele><time>2026-04-16T16:50:59Z</time></trkpt><trkpt lat="42.77564395884515" lon="-8.717648357491651"><ele>213.0</ele><time>2026-04-16T16:51:00Z</time></trkpt><trkpt lat="42.775509032819926" lon="-8.71755293284878"><ele>213.0</ele><time>2026-04-16T16:51:01Z</time></trkpt><trkpt lat="42.7753809435089" lon="-8.717452839823489"><ele>213.0</ele><time>2026-04-16T16:51:02Z</time></trkpt><trkpt lat="42.77525019434063" lon="-8.71735250930232"><ele>216.0</ele><time>2026-04-16T16:51:03Z</time></trkpt><trkpt lat="42.77511614732236" lon="-8.717253654336309"><ele>219.0</ele><time>2026-04-16T16:51:04Z</time></trkpt><trkpt lat="42.77497613795082" lon="-8.717147829482183"><ele>222.0</ele><time>2026-04-16T16:51:05Z</time></trkpt><trkpt lat="42.77483437527588" lon="-8.717033855787713"><ele>222.0</ele><time>2026-04-16T16:51:06Z</time></trkpt><trkpt lat="42.77469172949205" lon="-8.716913617925377"><ele>222.0</ele><time>2026-04-16T16:51:07Z</time></trkpt><trkpt lat="42.77454621297822" lon="-8.71678492573491"><ele>222.0</ele><time>2026-04-16T16:51:08Z</time></trkpt><trkpt lat="42.77440421393946" lon="-8.716646114910004"><ele>219.66666666666669</ele><time>2026-04-16T16:51:09Z</time></trkpt><trkpt lat="42.774265201890806" lon="-8.716496877941601"><ele>217.33333333333334</ele><time>2026-04-16T16:51:10Z</time></trkpt><trkpt lat="42.774127193986146" lon="-8.716344188542427"><ele>215.0</ele><time>2026-04-16T16:51:11Z</time></trkpt><trkpt lat="42.773985018636075" lon="-8.716186550130516"><ele>207.33333333333334</ele><time>2026-04-16T16:51:12Z</time></trkpt><trkpt lat="42.773840979934626" lon="-8.71601742169147"><ele>199.66666666666669</ele><time>2026-04-16T16:51:13Z</time></trkpt><trkpt lat="42.77370113747848" lon="-8.715851434169965"><ele>192.0</ele><time>2026-04-16T16:51:14Z</time></trkpt><trkpt lat="42.773564495665966" lon="-8.715676185863215"><ele>191.0</ele><time>2026-04-16T16:51:15Z</time></trkpt><trkpt lat="42.773433410912666" lon="-8.715488952775516"><ele>190.0</ele><time>2026-04-16T16:51:16Z</time></trkpt><trkpt lat="42.773314513968344" lon="-8.715291303589801"><ele>189.0</ele><time>2026-04-16T16:51:17Z</time></trkpt><trkpt lat="42.773195702373556" lon="-8.715091975082833"><ele>188.0</ele><time>2026-04-16T16:51:18Z</time></trkpt><trkpt lat="42.773075444804114" lon="-8.714902570561431"><ele>187.0</ele><time>2026-04-16T16:51:19Z</time></trkpt><trkpt lat="42.77295806825878" lon="-8.714716168163218"><ele>186.0</ele><time>2026-04-16T16:51:20Z</time></trkpt><trkpt lat="42.77284624726694" lon="-8.714539843757738"><ele>186.66666666666666</ele><time>2026-04-16T16:51:21Z</time></trkpt><trkpt lat="42.77274079530688" lon="-8.714370095957523"><ele>187.33333333333331</ele><time>2026-04-16T16:51:22Z</time></trkpt><trkpt lat="42.77263502749757" lon="-8.714215029291061"><ele>188.0</ele><time>2026-04-16T16:51:23Z</time></trkpt><trkpt lat="42.77252428500221" lon="-8.71407794587748"><ele>188.0</ele><time>2026-04-16T16:51:24Z</time></trkpt><trkpt lat="42.77240445550102" lon="-8.71395400241029"><ele>188.0</ele><time>2026-04-16T16:51:25Z</time></trkpt><trkpt lat="42.77226901165927" lon="-8.713847405738848"><ele>188.0</ele><time>2026-04-16T16:51:26Z</time></trkpt><trkpt lat="42.77212185831677" lon="-8.71374895278487"><ele>188.0</ele><time>2026-04-16T16:51:27Z</time></trkpt><trkpt lat="42.77196723386072" lon="-8.713657200233337"><ele>188.0</ele><time>2026-04-16T16:51:28Z</time></trkpt><trkpt lat="42.77181511007894" lon="-8.713575763520376"><ele>188.0</ele><time>2026-04-16T16:51:29Z</time></trkpt><trkpt lat="42.77166185844485" lon="-8.71351525274583"><ele>187.33333333333331</ele><time>2026-04-16T16:51:30Z</time></trkpt><trkpt lat="42.77149977176953" lon="-8.713478549427276"><ele>186.66666666666666</ele><time>2026-04-16T16:51:31Z</time></trkpt><trkpt lat="42.771328245450235" lon="-8.713467338849785"><ele>186.0</ele><time>2026-04-16T16:51:32Z</time></trkpt><trkpt lat="42.77115335559318" lon="-8.713483557684327"><ele>188.33333333333331</ele><time>2026-04-16T16:51:33Z</time></trkpt><trkpt lat="42.77098614824355" lon="-8.713526487961044"><ele>190.66666666666666</ele><time>2026-04-16T16:51:34Z</time></trkpt><trkpt lat="42.77082388409596" lon="-8.713558235032046"><ele>193.0</ele><time>2026-04-16T16:51:35Z</time></trkpt><trkpt lat="42.77066276788281" lon="-8.713595530883527"><ele>193.0</ele><time>2026-04-16T16:51:36Z</time></trkpt><trkpt lat="42.770520034846754" lon="-8.713627245916895"><ele>193.0</ele><time>2026-04-16T16:51:37Z</time></trkpt><trkpt lat="42.77039033143693" lon="-8.713649692391563"><ele>193.0</ele><time>2026-04-16T16:51:38Z</time></trkpt><trkpt lat="42.770268663785764" lon="-8.71365148998035"><ele>193.0</ele><time>2026-04-16T16:51:39Z</time></trkpt><trkpt lat="42.770151875517286" lon="-8.713605684319614"><ele>189.5</ele><time>2026-04-16T16:51:40Z</time></trkpt><trkpt lat="42.7700536605419" lon="-8.713519478555812"><ele>186.0</ele><time>2026-04-16T16:51:41Z</time></trkpt><trkpt lat="42.76996785140789" lon="-8.713392433373746"><ele>182.5</ele><time>2026-04-16T16:51:42Z</time></trkpt><trkpt lat="42.7699054711706" lon="-8.713226972889286"><ele>179.0</ele><time>2026-04-16T16:51:43Z</time></trkpt><trkpt lat="42.769869560595545" lon="-8.713022588845956"><ele>179.0</ele><time>2026-04-16T16:51:44Z</time></trkpt><trkpt lat="42.76984138898929" lon="-8.712808604105058"><ele>179.0</ele><time>2026-04-16T16:51:45Z</time></trkpt><trkpt lat="42.76981194944756" lon="-8.712616601134288"><ele>179.0</ele><time>2026-04-16T16:51:46Z</time></trkpt><trkpt lat="42.769775379679615" lon="-8.712426493394432"><ele>179.0</ele><time>2026-04-16T16:51:47Z</time></trkpt><trkpt lat="42.76973555416755" lon="-8.712233160886175"><ele>174.0</ele><time>2026-04-16T16:51:48Z</time></trkpt><trkpt lat="42.769682226827115" lon="-8.712044267210795"><ele>169.0</ele><time>2026-04-16T16:51:49Z</time></trkpt><trkpt lat="42.769604779726585" lon="-8.711862486597294"><ele>164.0</ele><time>2026-04-16T16:51:50Z</time></trkpt><trkpt lat="42.769506851482205" lon="-8.711696844506422"><ele>161.33333333333331</ele><time>2026-04-16T16:51:51Z</time></trkpt><trkpt lat="42.76939287082526" lon="-8.711546039272184"><ele>158.66666666666666</ele><time>2026-04-16T16:51:52Z</time></trkpt><trkpt lat="42.76927599510612" lon="-8.711398956852962"><ele>156.0</ele><time>2026-04-16T16:51:53Z</time></trkpt><trkpt lat="42.76915762005194" lon="-8.71124738262991"><ele>156.33333333333334</ele><time>2026-04-16T16:51:54Z</time></trkpt><trkpt lat="42.76904331386853" lon="-8.711092424977926"><ele>156.66666666666669</ele><time>2026-04-16T16:51:55Z</time></trkpt><trkpt lat="42.76892719889276" lon="-8.710948180322033"><ele>157.0</ele><time>2026-04-16T16:51:56Z</time></trkpt><trkpt lat="42.768818296835555" lon="-8.710805739236289"><ele>157.0</ele><time>2026-04-16T16:51:57Z</time></trkpt><trkpt lat="42.76870997492646" lon="-8.710668783867808"><ele>157.0</ele><time>2026-04-16T16:51:58Z</time></trkpt><trkpt lat="42.76860782042897" lon="-8.71053523046851"><ele>157.0</ele><time>2026-04-16T16:51:59Z</time></trkpt><trkpt lat="42.76850861631017" lon="-8.710405537249661"><ele>157.0</ele><time>2026-04-16T16:52:00Z</time></trkpt><trkpt lat="42.768411198504275" lon="-8.71028278734587"><ele>156.75</ele><time>2026-04-16T16:52:01Z</time></trkpt><trkpt lat="42.76831535799042" lon="-8.710167406941922"><ele>156.5</ele><time>2026-04-16T16:52:02Z</time></trkpt><trkpt lat="42.76821551108972" lon="-8.710060338124235"><ele>156.25</ele><time>2026-04-16T16:52:03Z</time></trkpt><trkpt lat="42.76810902561029" lon="-8.709963277025418"><ele>156.0</ele><time>2026-04-16T16:52:04Z</time></trkpt><trkpt lat="42.767995243646006" lon="-8.709869556887085"><ele>156.0</ele><time>2026-04-16T16:52:05Z</time></trkpt><trkpt lat="42.76787424909377" lon="-8.709779232292854"><ele>156.0</ele><time>2026-04-16T16:52:06Z</time></trkpt><trkpt lat="42.76774699151786" lon="-8.709691283813259"><ele>156.0</ele><time>2026-04-16T16:52:07Z</time></trkpt><trkpt lat="42.76762301640435" lon="-8.709615516488013"><ele>156.0</ele><time>2026-04-16T16:52:07.999Z</time></trkpt><trkpt lat="42.767496481574234" lon="-8.709557404060849"><ele>156.25</ele><time>2026-04-16T16:52:08.999Z</time></trkpt><trkpt lat="42.767384600956824" lon="-8.709474762886142"><ele>156.5</ele><time>2026-04-16T16:52:09.999Z</time></trkpt><trkpt lat="42.767271949103396" lon="-8.709387848063255"><ele>156.75</ele><time>2026-04-16T16:52:10.999Z</time></trkpt><trkpt lat="42.76718581452515" lon="-8.709240670497618"><ele>157.0</ele><time>2026-04-16T16:52:11.999Z</time></trkpt><trkpt lat="42.767127068617675" lon="-8.709060385655643"><ele>153.66666666666669</ele><time>2026-04-16T16:52:12.999Z</time></trkpt><trkpt lat="42.767091983651696" lon="-8.708859312922733"><ele>150.33333333333334</ele><time>2026-04-16T16:52:13.999Z</time></trkpt><trkpt lat="42.76703708568561" lon="-8.708651687180325"><ele>147.0</ele><time>2026-04-16T16:52:14.999Z</time></trkpt><trkpt lat="42.766995552113194" lon="-8.708448599645141"><ele>144.25</ele><time>2026-04-16T16:52:15.999Z</time></trkpt><trkpt lat="42.766968318981675" lon="-8.708248039397569"><ele>141.5</ele><time>2026-04-16T16:52:16.999Z</time></trkpt><trkpt lat="42.7669612868299" lon="-8.708048665279604"><ele>138.75</ele><time>2026-04-16T16:52:17.999Z</time></trkpt><trkpt lat="42.76697688630159" lon="-8.707854949035779"><ele>136.0</ele><time>2026-04-16T16:52:18.999Z</time></trkpt><trkpt lat="42.76697728300293" lon="-8.707666824596254"><ele>135.0</ele><time>2026-04-16T16:52:19.999Z</time></trkpt><trkpt lat="42.76699858110986" lon="-8.707488186512307"><ele>134.0</ele><time>2026-04-16T16:52:20.999Z</time></trkpt><trkpt lat="42.76702631040158" lon="-8.707315238666354"><ele>133.0</ele><time>2026-04-16T16:52:21.999Z</time></trkpt><trkpt lat="42.76701957379968" lon="-8.707139217550028"><ele>132.0</ele><time>2026-04-16T16:52:22.999Z</time></trkpt><trkpt lat="42.76699366137599" lon="-8.70696430036449"><ele>133.25</ele><time>2026-04-16T16:52:23.999Z</time></trkpt><trkpt lat="42.76696268259461" lon="-8.706793048204672"><ele>134.5</ele><time>2026-04-16T16:52:24.999Z</time></trkpt><trkpt lat="42.76693282552228" lon="-8.706631973209769"><ele>135.75</ele><time>2026-04-16T16:52:25.999Z</time></trkpt><trkpt lat="42.766897394274245" lon="-8.706479965013118"><ele>137.0</ele><time>2026-04-16T16:52:26.999Z</time></trkpt><trkpt lat="42.766838106825155" lon="-8.706344853349876"><ele>137.0</ele><time>2026-04-16T16:52:27.999Z</time></trkpt><trkpt lat="42.766752591725755" lon="-8.706230703325433"><ele>137.0</ele><time>2026-04-16T16:52:28.999Z</time></trkpt><trkpt lat="42.76665481140697" lon="-8.706138970493745"><ele>137.0</ele><time>2026-04-16T16:52:29.999Z</time></trkpt><trkpt lat="42.76655134805903" lon="-8.706076465619976"><ele>137.0</ele><time>2026-04-16T16:52:30.999Z</time></trkpt><trkpt lat="42.76644035097077" lon="-8.706033909383535"><ele>133.75</ele><time>2026-04-16T16:52:31.999Z</time></trkpt><trkpt lat="42.76632377212088" lon="-8.70599375930504"><ele>130.5</ele><time>2026-04-16T16:52:32.999Z</time></trkpt><trkpt lat="42.76620095785731" lon="-8.705956226889295"><ele>127.25</ele><time>2026-04-16T16:52:33.999Z</time></trkpt><trkpt lat="42.76607965330435" lon="-8.705921076018068"><ele>124.0</ele><time>2026-04-16T16:52:34.999Z</time></trkpt><trkpt lat="42.765964398909176" lon="-8.70588722043334"><ele>124.0</ele><time>2026-04-16T16:52:35.999Z</time></trkpt><trkpt lat="42.76585448897478" lon="-8.705843182488946"><ele>124.0</ele><time>2026-04-16T16:52:36.999Z</time></trkpt><trkpt lat="42.76574576631287" lon="-8.705768060183445"><ele>124.0</ele><time>2026-04-16T16:52:37.999Z</time></trkpt><trkpt lat="42.76564617424527" lon="-8.705652687366543"><ele>124.0</ele><time>2026-04-16T16:52:39.001Z</time></trkpt><trkpt lat="42.76556384129657" lon="-8.705512463945295"><ele>124.0</ele><time>2026-04-16T16:52:40.001Z</time></trkpt><trkpt lat="42.76548820660809" lon="-8.705377210153602"><ele>124.0</ele><time>2026-04-16T16:52:41.001Z</time></trkpt><trkpt lat="42.76539620960667" lon="-8.70526744961047"><ele>124.0</ele><time>2026-04-16T16:52:42.001Z</time></trkpt><trkpt lat="42.7652864143133" lon="-8.705185066303548"><ele>124.0</ele><time>2026-04-16T16:52:43.001Z</time></trkpt><trkpt lat="42.76517087550581" lon="-8.705153668701868"><ele>122.25</ele><time>2026-04-16T16:52:44.001Z</time></trkpt><trkpt lat="42.7650660309469" lon="-8.705185250918403"><ele>120.5</ele><time>2026-04-16T16:52:45.001Z</time></trkpt><trkpt lat="42.76497542477677" lon="-8.705265096572582"><ele>118.75</ele><time>2026-04-16T16:52:46.001Z</time></trkpt><trkpt lat="42.764893721691585" lon="-8.705389635901414"><ele>117.0</ele><time>2026-04-16T16:52:47.001Z</time></trkpt><trkpt lat="42.76482442391643" lon="-8.7055427465884"><ele>117.0</ele><time>2026-04-16T16:52:48.001Z</time></trkpt><trkpt lat="42.76475552759108" lon="-8.705708575254066"><ele>117.0</ele><time>2026-04-16T16:52:49.001Z</time></trkpt><trkpt lat="42.764668681504524" lon="-8.705870719564599"><ele>117.0</ele><time>2026-04-16T16:52:50.001Z</time></trkpt><trkpt lat="42.7645697752069" lon="-8.706005740265836"><ele>117.0</ele><time>2026-04-16T16:52:51.001Z</time></trkpt><trkpt lat="42.76445359265728" lon="-8.706117714993582"><ele>115.0</ele><time>2026-04-16T16:52:52.001Z</time></trkpt><trkpt lat="42.76432499758739" lon="-8.706211934540994"><ele>113.0</ele><time>2026-04-16T16:52:53.001Z</time></trkpt><trkpt lat="42.76418098071827" lon="-8.706272196246076"><ele>111.0</ele><time>2026-04-16T16:52:54.001Z</time></trkpt><trkpt lat="42.764028512519964" lon="-8.706308928682677"><ele>111.0</ele><time>2026-04-16T16:52:55.001Z</time></trkpt><trkpt lat="42.76387414727193" lon="-8.706333860573123"><ele>111.0</ele><time>2026-04-16T16:52:56.001Z</time></trkpt><trkpt lat="42.76371590294958" lon="-8.706347970172443"><ele>111.0</ele><time>2026-04-16T16:52:57.001Z</time></trkpt><trkpt lat="42.763553833513434" lon="-8.706359191159242"><ele>107.66666666666666</ele><time>2026-04-16T16:52:58.001Z</time></trkpt><trkpt lat="42.76339287099259" lon="-8.706373981075634"><ele>104.33333333333333</ele><time>2026-04-16T16:52:59.001Z</time></trkpt><trkpt lat="42.76323829001471" lon="-8.706391784250558"><ele>101.0</ele><time>2026-04-16T16:53:00.001Z</time></trkpt><trkpt lat="42.76308652744647" lon="-8.70640986788814"><ele>101.0</ele><time>2026-04-16T16:53:01.001Z</time></trkpt><trkpt lat="42.762938101946546" lon="-8.706420582835367"><ele>101.0</ele><time>2026-04-16T16:53:02.001Z</time></trkpt><trkpt lat="42.762792107780776" lon="-8.706429480149847"><ele>101.0</ele><time>2026-04-16T16:53:03.001Z</time></trkpt><trkpt lat="42.76264999922906" lon="-8.706446788530396"><ele>101.0</ele><time>2026-04-16T16:53:04.001Z</time></trkpt><trkpt lat="42.76251041553625" lon="-8.706462142263947"><ele>99.0</ele><time>2026-04-16T16:53:05.001Z</time></trkpt><trkpt lat="42.76237324542828" lon="-8.706473214186355"><ele>97.0</ele><time>2026-04-16T16:53:06.001Z</time></trkpt><trkpt lat="42.76223931147448" lon="-8.706485284089856"><ele>95.0</ele><time>2026-04-16T16:53:07.001Z</time></trkpt><trkpt lat="42.76210748021274" lon="-8.706486147635676"><ele>93.0</ele><time>2026-04-16T16:53:08Z</time></trkpt><trkpt lat="42.761979158326795" lon="-8.706455757308412"><ele>92.5</ele><time>2026-04-16T16:53:09Z</time></trkpt><trkpt lat="42.761861130810665" lon="-8.706374255788027"><ele>92.0</ele><time>2026-04-16T16:53:10Z</time></trkpt><trkpt lat="42.7617661052627" lon="-8.706251066920517"><ele>91.5</ele><time>2026-04-16T16:53:11Z</time></trkpt><trkpt lat="42.76168606008521" lon="-8.706094503591215"><ele>91.0</ele><time>2026-04-16T16:53:12Z</time></trkpt><trkpt lat="42.76162200669672" lon="-8.705909432237343"><ele>90.0</ele><time>2026-04-16T16:53:13Z</time></trkpt><trkpt lat="42.7615577981801" lon="-8.705710986549374"><ele>89.0</ele><time>2026-04-16T16:53:14Z</time></trkpt><trkpt lat="42.76148227772727" lon="-8.705520524802907"><ele>88.0</ele><time>2026-04-16T16:53:15Z</time></trkpt><trkpt lat="42.761398636325296" lon="-8.705347541307502"><ele>84.66666666666666</ele><time>2026-04-16T16:53:16Z</time></trkpt><trkpt lat="42.76131242855365" lon="-8.705171000388832"><ele>81.33333333333333</ele><time>2026-04-16T16:53:17Z</time></trkpt><trkpt lat="42.761220605516996" lon="-8.704986232462364"><ele>78.0</ele><time>2026-04-16T16:53:18Z</time></trkpt><trkpt lat="42.76117494667467" lon="-8.704762937353516"><ele>78.0</ele><time>2026-04-16T16:53:19Z</time></trkpt><trkpt lat="42.76113847976717" lon="-8.704532136601184"><ele>78.0</ele><time>2026-04-16T16:53:20Z</time></trkpt><trkpt lat="42.761108965656234" lon="-8.704306045450695"><ele>78.0</ele><time>2026-04-16T16:53:21Z</time></trkpt><trkpt lat="42.761078756738314" lon="-8.704088054173019"><ele>77.33333333333333</ele><time>2026-04-16T16:53:22Z</time></trkpt><trkpt lat="42.761045810278766" lon="-8.703871664909945"><ele>76.66666666666666</ele><time>2026-04-16T16:53:23Z</time></trkpt><trkpt lat="42.761015188533406" lon="-8.703650688854951"><ele>76.0</ele><time>2026-04-16T16:53:24Z</time></trkpt><trkpt lat="42.76098501630345" lon="-8.703438187807212"><ele>75.25</ele><time>2026-04-16T16:53:25Z</time></trkpt><trkpt lat="42.760954427636506" lon="-8.703233030643283"><ele>74.5</ele><time>2026-04-16T16:53:26Z</time></trkpt><trkpt lat="42.76092416518428" lon="-8.703051044083587"><ele>73.75</ele><time>2026-04-16T16:53:27Z</time></trkpt><trkpt lat="42.76088767124699" lon="-8.702889597512518"><ele>73.0</ele><time>2026-04-16T16:53:28Z</time></trkpt><trkpt lat="42.76082693610348" lon="-8.702747071589112"><ele>71.5</ele><time>2026-04-16T16:53:29Z</time></trkpt><trkpt lat="42.76073768663031" lon="-8.702634538080037"><ele>70.0</ele><time>2026-04-16T16:53:30Z</time></trkpt><trkpt lat="42.760619568081275" lon="-8.702539322539478"><ele>68.5</ele><time>2026-04-16T16:53:31Z</time></trkpt><trkpt lat="42.76047851193528" lon="-8.702471054761373"><ele>67.0</ele><time>2026-04-16T16:53:32Z</time></trkpt><trkpt lat="42.760345809246736" lon="-8.70242457300136"><ele>67.0</ele><time>2026-04-16T16:53:33Z</time></trkpt><trkpt lat="42.760225095109185" lon="-8.702354611293531"><ele>67.0</ele><time>2026-04-16T16:53:34Z</time></trkpt><trkpt lat="42.760118032332905" lon="-8.702251020856531"><ele>67.0</ele><time>2026-04-16T16:53:35Z</time></trkpt><trkpt lat="42.760035088281214" lon="-8.702109735647554"><ele>67.0</ele><time>2026-04-16T16:53:36Z</time></trkpt><trkpt lat="42.759968068967915" lon="-8.701938714127703"><ele>64.0</ele><time>2026-04-16T16:53:37Z</time></trkpt><trkpt lat="42.75990449129527" lon="-8.701776680243462"><ele>61.0</ele><time>2026-04-16T16:53:38Z</time></trkpt><trkpt lat="42.75983906871299" lon="-8.701633851930607"><ele>58.0</ele><time>2026-04-16T16:53:39Z</time></trkpt><trkpt lat="42.75977571995986" lon="-8.701502411223268"><ele>55.0</ele><time>2026-04-16T16:53:40Z</time></trkpt><trkpt lat="42.759728499419936" lon="-8.701373378202861"><ele>55.0</ele><time>2026-04-16T16:53:41Z</time></trkpt><trkpt lat="42.759712701604116" lon="-8.701237411300424"><ele>55.0</ele><time>2026-04-16T16:53:42Z</time></trkpt><trkpt lat="42.75971672058902" lon="-8.701095551199733"><ele>55.0</ele><time>2026-04-16T16:53:43Z</time></trkpt><trkpt lat="42.75979370699733" lon="-8.700967226182202"><ele>55.0</ele><time>2026-04-16T16:53:44Z</time></trkpt><trkpt lat="42.75985702345622" lon="-8.700815820641772"><ele>55.33333333333333</ele><time>2026-04-16T16:53:45Z</time></trkpt><trkpt lat="42.75993784949758" lon="-8.700656487561856"><ele>55.66666666666667</ele><time>2026-04-16T16:53:46Z</time></trkpt><trkpt lat="42.76001112717186" lon="-8.700463209516023"><ele>56.0</ele><time>2026-04-16T16:53:47Z</time></trkpt><trkpt lat="42.76008671942597" lon="-8.7002427729852"><ele>55.0</ele><time>2026-04-16T16:53:48Z</time></trkpt><trkpt lat="42.76015347162272" lon="-8.700048114046174"><ele>54.0</ele><time>2026-04-16T16:53:49Z</time></trkpt><trkpt lat="42.76022057035305" lon="-8.69984998753806"><ele>53.0</ele><time>2026-04-16T16:53:50Z</time></trkpt><trkpt lat="42.760286245028524" lon="-8.699654802508949"><ele>53.0</ele><time>2026-04-16T16:53:51Z</time></trkpt><trkpt lat="42.76034959721467" lon="-8.699474691328739"><ele>53.0</ele><time>2026-04-16T16:53:52Z</time></trkpt><trkpt lat="42.76040981345337" lon="-8.699302289895108"><ele>53.0</ele><time>2026-04-16T16:53:53Z</time></trkpt><trkpt lat="42.76046061568739" lon="-8.699130229221886"><ele>53.0</ele><time>2026-04-16T16:53:54Z</time></trkpt><trkpt lat="42.760474053663344" lon="-8.698958881505975"><ele>52.25</ele><time>2026-04-16T16:53:55Z</time></trkpt><trkpt lat="42.7604840252093" lon="-8.698771722637447"><ele>51.5</ele><time>2026-04-16T16:53:56Z</time></trkpt><trkpt lat="42.76046783707745" lon="-8.698573915581006"><ele>50.75</ele><time>2026-04-16T16:53:57Z</time></trkpt><trkpt lat="42.76047496603433" lon="-8.698360968074178"><ele>50.0</ele><time>2026-04-16T16:53:58Z</time></trkpt><trkpt lat="42.760503273729896" lon="-8.698141646453672"><ele>50.0</ele><time>2026-04-16T16:53:59Z</time></trkpt><trkpt lat="42.76054238934544" lon="-8.697917832779794"><ele>50.0</ele><time>2026-04-16T16:54:00Z</time></trkpt><trkpt lat="42.760580820235774" lon="-8.69769191970881"><ele>50.0</ele><time>2026-04-16T16:54:01Z</time></trkpt><trkpt lat="42.76061776893303" lon="-8.697463288801918"><ele>49.66666666666667</ele><time>2026-04-16T16:54:02Z</time></trkpt><trkpt lat="42.76065387782482" lon="-8.69724597862681"><ele>49.33333333333333</ele><time>2026-04-16T16:54:03Z</time></trkpt><trkpt lat="42.760687725720636" lon="-8.697043903409686"><ele>49.0</ele><time>2026-04-16T16:54:04Z</time></trkpt><trkpt lat="42.76071809981713" lon="-8.696852760384274"><ele>50.5</ele><time>2026-04-16T16:54:05Z</time></trkpt><trkpt lat="42.76074501811417" lon="-8.696674226821102"><ele>52.0</ele><time>2026-04-16T16:54:06Z</time></trkpt><trkpt lat="42.760777961011165" lon="-8.696510766018122"><ele>53.5</ele><time>2026-04-16T16:54:07Z</time></trkpt><trkpt lat="42.76082079257535" lon="-8.696354339054816"><ele>55.0</ele><time>2026-04-16T16:54:08Z</time></trkpt><trkpt lat="42.760875158462525" lon="-8.696200045883256"><ele>56.25</ele><time>2026-04-16T16:54:09Z</time></trkpt><trkpt lat="42.760934966740905" lon="-8.696044789415772"><ele>57.5</ele><time>2026-04-16T16:54:10Z</time></trkpt><trkpt lat="42.76099415345109" lon="-8.695883330235457"><ele>58.75</ele><time>2026-04-16T16:54:10.999Z</time></trkpt><trkpt lat="42.761051603851485" lon="-8.69571364366735"><ele>60.0</ele><time>2026-04-16T16:54:11.999Z</time></trkpt><trkpt lat="42.76111058497401" lon="-8.695540219928432"><ele>57.75</ele><time>2026-04-16T16:54:12.999Z</time></trkpt><trkpt lat="42.76116910283962" lon="-8.69536246577967"><ele>55.5</ele><time>2026-04-16T16:54:13.999Z</time></trkpt><trkpt lat="42.7612247669846" lon="-8.69518414199213"><ele>53.25</ele><time>2026-04-16T16:54:14.999Z</time></trkpt><trkpt lat="42.7612760634084" lon="-8.694998377209314"><ele>51.0</ele><time>2026-04-16T16:54:15.999Z</time></trkpt><trkpt lat="42.7613227345624" lon="-8.694812339529587"><ele>51.0</ele><time>2026-04-16T16:54:16.999Z</time></trkpt><trkpt lat="42.76137002085867" lon="-8.6946432064156"><ele>51.0</ele><time>2026-04-16T16:54:17.999Z</time></trkpt><trkpt lat="42.76143562199377" lon="-8.694485286191219"><ele>51.0</ele><time>2026-04-16T16:54:18.999Z</time></trkpt><trkpt lat="42.76152318599497" lon="-8.69432984156107"><ele>51.0</ele><time>2026-04-16T16:54:19.999Z</time></trkpt><trkpt lat="42.761626317347" lon="-8.694174709116485"><ele>52.0</ele><time>2026-04-16T16:54:20.999Z</time></trkpt><trkpt lat="42.76173271487996" lon="-8.694015558755883"><ele>53.0</ele><time>2026-04-16T16:54:21.999Z</time></trkpt><trkpt lat="42.7618407037789" lon="-8.693853931057538"><ele>54.0</ele><time>2026-04-16T16:54:22.999Z</time></trkpt><trkpt lat="42.76194796108631" lon="-8.693688442092924"><ele>54.0</ele><time>2026-04-16T16:54:23.999Z</time></trkpt><trkpt lat="42.76205530225174" lon="-8.693526806114358"><ele>54.0</ele><time>2026-04-16T16:54:24.999Z</time></trkpt><trkpt lat="42.76215566506161" lon="-8.693379858379"><ele>54.0</ele><time>2026-04-16T16:54:25.999Z</time></trkpt><trkpt lat="42.762248908118174" lon="-8.693243123485795"><ele>54.0</ele><time>2026-04-16T16:54:26.999Z</time></trkpt><trkpt lat="42.76233278087146" lon="-8.693112537752494"><ele>54.0</ele><time>2026-04-16T16:54:27.999Z</time></trkpt><trkpt lat="42.76239738358666" lon="-8.69298210213466"><ele>54.00000000000001</ele><time>2026-04-16T16:54:28.999Z</time></trkpt><trkpt lat="42.76243091712196" lon="-8.692846558245883"><ele>54.00000000000001</ele><time>2026-04-16T16:54:29.999Z</time></trkpt><trkpt lat="42.76242909234557" lon="-8.692717764898756"><ele>54.0</ele><time>2026-04-16T16:54:30.999Z</time></trkpt><trkpt lat="42.76239737396713" lon="-8.69258979805481"><ele>54.0</ele><time>2026-04-16T16:54:31.999Z</time></trkpt><trkpt lat="42.76234289198295" lon="-8.692469474884128"><ele>55.75</ele><time>2026-04-16T16:54:32.999Z</time></trkpt><trkpt lat="42.762273298157105" lon="-8.69235196626521"><ele>57.5</ele><time>2026-04-16T16:54:33.999Z</time></trkpt><trkpt lat="42.76219497201127" lon="-8.692230607920122"><ele>59.25</ele><time>2026-04-16T16:54:34.999Z</time></trkpt><trkpt lat="42.76211408010486" lon="-8.692107392411419"><ele>61.0</ele><time>2026-04-16T16:54:35.999Z</time></trkpt><trkpt lat="42.76203626489143" lon="-8.691983912311402"><ele>61.599999999999994</ele><time>2026-04-16T16:54:36.999Z</time></trkpt><trkpt lat="42.761960383290436" lon="-8.691864052206574"><ele>62.199999999999996</ele><time>2026-04-16T16:54:37.999Z</time></trkpt><trkpt lat="42.76188912840681" lon="-8.6917503304512"><ele>62.800000000000004</ele><time>2026-04-16T16:54:38.999Z</time></trkpt><trkpt lat="42.761817879941034" lon="-8.691640996922134"><ele>63.400000000000006</ele><time>2026-04-16T16:54:39.999Z</time></trkpt><trkpt lat="42.76174448442374" lon="-8.691520775018967"><ele>64.0</ele><time>2026-04-16T16:54:40.999Z</time></trkpt><trkpt lat="42.7616643504077" lon="-8.691384695423613"><ele>63.75</ele><time>2026-04-16T16:54:41.999Z</time></trkpt><trkpt lat="42.76157413968489" lon="-8.691240404229616"><ele>63.5</ele><time>2026-04-16T16:54:42.999Z</time></trkpt><trkpt lat="42.76147045347006" lon="-8.691087812509915"><ele>63.25</ele><time>2026-04-16T16:54:43.999Z</time></trkpt><trkpt lat="42.76136359618809" lon="-8.690933609520581"><ele>63.0</ele><time>2026-04-16T16:54:45.001Z</time></trkpt><trkpt lat="42.761252152713546" lon="-8.69077715244695"><ele>63.0</ele><time>2026-04-16T16:54:46.001Z</time></trkpt><trkpt lat="42.76114110550596" lon="-8.690630003348957"><ele>63.0</ele><time>2026-04-16T16:54:47.001Z</time></trkpt><trkpt lat="42.76103487539728" lon="-8.690501387839708"><ele>63.0</ele><time>2026-04-16T16:54:48.001Z</time></trkpt><trkpt lat="42.76093455334072" lon="-8.690382719074124"><ele>63.0</ele><time>2026-04-16T16:54:49.001Z</time></trkpt><trkpt lat="42.76084045935502" lon="-8.690261188439091"><ele>63.75</ele><time>2026-04-16T16:54:50.001Z</time></trkpt><trkpt lat="42.76075167698193" lon="-8.69011568794944"><ele>64.5</ele><time>2026-04-16T16:54:51.001Z</time></trkpt><trkpt lat="42.76067512514515" lon="-8.689946500036367"><ele>65.25</ele><time>2026-04-16T16:54:52.001Z</time></trkpt><trkpt lat="42.760610357373636" lon="-8.68975569396665"><ele>66.0</ele><time>2026-04-16T16:54:53.001Z</time></trkpt><trkpt lat="42.76055586417962" lon="-8.689567613056427"><ele>65.5</ele><time>2026-04-16T16:54:54.001Z</time></trkpt><trkpt lat="42.76050894258792" lon="-8.689398634047627"><ele>65.0</ele><time>2026-04-16T16:54:55.001Z</time></trkpt><trkpt lat="42.76046642779646" lon="-8.689241119044452"><ele>64.5</ele><time>2026-04-16T16:54:56.001Z</time></trkpt><trkpt lat="42.760433030713195" lon="-8.689089164302002"><ele>64.0</ele><time>2026-04-16T16:54:57.001Z</time></trkpt><trkpt lat="42.76041025660225" lon="-8.688949982305838"><ele>63.99999999999999</ele><time>2026-04-16T16:54:58.001Z</time></trkpt><trkpt lat="42.76039019267731" lon="-8.688819069408899"><ele>64.0</ele><time>2026-04-16T16:54:59.001Z</time></trkpt><trkpt lat="42.76037234453293" lon="-8.688701669340762"><ele>64.0</ele><time>2026-04-16T16:55:00.001Z</time></trkpt><trkpt lat="42.76035932329036" lon="-8.688602383804263"><ele>64.0</ele><time>2026-04-16T16:55:01.001Z</time></trkpt><trkpt lat="42.760347484333" lon="-8.688503711199802"><ele>63.99999999999999</ele><time>2026-04-16T16:55:02.001Z</time></trkpt><trkpt lat="42.7603316840782" lon="-8.68837604676366"><ele>64.0</ele><time>2026-04-16T16:55:03.001Z</time></trkpt><trkpt lat="42.76029965732813" lon="-8.688220709124819"><ele>63.75</ele><time>2026-04-16T16:55:04.001Z</time></trkpt><trkpt lat="42.76025412145784" lon="-8.688066721442606"><ele>63.5</ele><time>2026-04-16T16:55:05.001Z</time></trkpt><trkpt lat="42.760203698170386" lon="-8.687916492566655"><ele>63.25</ele><time>2026-04-16T16:55:06.001Z</time></trkpt><trkpt lat="42.76014803282568" lon="-8.687762636451179"><ele>63.0</ele><time>2026-04-16T16:55:07.001Z</time></trkpt><trkpt lat="42.76009667347111" lon="-8.6876139854474"><ele>63.4</ele><time>2026-04-16T16:55:08Z</time></trkpt><trkpt lat="42.76006351292348" lon="-8.68746881701895"><ele>63.8</ele><time>2026-04-16T16:55:09Z</time></trkpt><trkpt lat="42.76003319867107" lon="-8.68733151098626"><ele>64.2</ele><time>2026-04-16T16:55:10Z</time></trkpt><trkpt lat="42.75999977300911" lon="-8.687204725070098"><ele>64.6</ele><time>2026-04-16T16:55:11Z</time></trkpt><trkpt lat="42.75996400318384" lon="-8.687077819287033"><ele>65.0</ele><time>2026-04-16T16:55:12Z</time></trkpt><trkpt lat="42.759918662707456" lon="-8.686933334963044"><ele>64.0</ele><time>2026-04-16T16:55:13Z</time></trkpt><trkpt lat="42.75985325294383" lon="-8.686770311951602"><ele>63.0</ele><time>2026-04-16T16:55:14Z</time></trkpt><trkpt lat="42.7597618464475" lon="-8.686603581648356"><ele>62.0</ele><time>2026-04-16T16:55:15Z</time></trkpt><trkpt lat="42.75965659967594" lon="-8.686426564195619"><ele>62.0</ele><time>2026-04-16T16:55:16Z</time></trkpt><trkpt lat="42.75955930829672" lon="-8.686257014537436"><ele>62.0</ele><time>2026-04-16T16:55:17Z</time></trkpt><trkpt lat="42.75947764827518" lon="-8.686106290537703"><ele>62.0</ele><time>2026-04-16T16:55:18Z</time></trkpt><trkpt lat="42.75940410247448" lon="-8.685968856462493"><ele>62.0</ele><time>2026-04-16T16:55:19Z</time></trkpt><trkpt lat="42.75933927825233" lon="-8.68584463198063"><ele>64.0</ele><time>2026-04-16T16:55:20Z</time></trkpt><trkpt lat="42.7592818484169" lon="-8.685733980703915"><ele>66.0</ele><time>2026-04-16T16:55:21Z</time></trkpt><trkpt lat="42.7592345128194" lon="-8.685647435604412"><ele>68.0</ele><time>2026-04-16T16:55:22Z</time></trkpt><trkpt lat="42.759195624966445" lon="-8.685572308839081"><ele>70.0</ele><time>2026-04-16T16:55:23Z</time></trkpt><trkpt lat="42.75913260042693" lon="-8.685454918485608"><ele>72.0</ele><time>2026-04-16T16:55:25Z</time></trkpt><trkpt lat="42.75908772910804" lon="-8.685366126100224"><ele>74.0</ele><time>2026-04-16T16:55:27Z</time></trkpt><trkpt lat="42.75904200782815" lon="-8.685256352526567"><ele>74.33333333333334</ele><time>2026-04-16T16:55:29Z</time></trkpt><trkpt lat="42.75901337620808" lon="-8.685178279751712"><ele>74.66666666666667</ele><time>2026-04-16T16:55:30Z</time></trkpt><trkpt lat="42.75896947149332" lon="-8.685090849451583"><ele>75.0</ele><time>2026-04-16T16:55:31Z</time></trkpt><trkpt lat="42.75890860440714" lon="-8.685007173369375"><ele>75.33333333333333</ele><time>2026-04-16T16:55:32Z</time></trkpt><trkpt lat="42.758846652471696" lon="-8.684901323413955"><ele>75.66666666666666</ele><time>2026-04-16T16:55:33Z</time></trkpt><trkpt lat="42.75878988577019" lon="-8.684774405575341"><ele>76.0</ele><time>2026-04-16T16:55:34Z</time></trkpt><trkpt lat="42.758729096703874" lon="-8.684632569544291"><ele>76.0</ele><time>2026-04-16T16:55:35Z</time></trkpt><trkpt lat="42.75865966631509" lon="-8.684480350956477"><ele>76.0</ele><time>2026-04-16T16:55:36Z</time></trkpt><trkpt lat="42.758587114741914" lon="-8.684329471532784"><ele>76.0</ele><time>2026-04-16T16:55:36.999Z</time></trkpt><trkpt lat="42.75851247327726" lon="-8.684168891020695"><ele>76.0</ele><time>2026-04-16T16:55:37.999Z</time></trkpt><trkpt lat="42.75843587446438" lon="-8.684002627328718"><ele>76.75</ele><time>2026-04-16T16:55:38.999Z</time></trkpt><trkpt lat="42.7583605006758" lon="-8.683837979086967"><ele>77.5</ele><time>2026-04-16T16:55:39.999Z</time></trkpt><trkpt lat="42.75828498407548" lon="-8.68367429141171"><ele>78.25</ele><time>2026-04-16T16:55:40.999Z</time></trkpt><trkpt lat="42.75820869812885" lon="-8.683510473432236"><ele>79.0</ele><time>2026-04-16T16:55:41.999Z</time></trkpt><trkpt lat="42.75812989164223" lon="-8.683345857323792"><ele>77.0</ele><time>2026-04-16T16:55:42.999Z</time></trkpt><trkpt lat="42.75804052100588" lon="-8.6831647832967"><ele>75.0</ele><time>2026-04-16T16:55:43.999Z</time></trkpt><trkpt lat="42.75794147946651" lon="-8.682967932968394"><ele>73.0</ele><time>2026-04-16T16:55:44.999Z</time></trkpt><trkpt lat="42.75784064814367" lon="-8.68276625748835"><ele>72.66666666666666</ele><time>2026-04-16T16:55:45.999Z</time></trkpt><trkpt lat="42.75774053464166" lon="-8.682574566856188"><ele>72.33333333333333</ele><time>2026-04-16T16:55:46.999Z</time></trkpt><trkpt lat="42.75764547458525" lon="-8.682386309575046"><ele>72.0</ele><time>2026-04-16T16:55:47.999Z</time></trkpt><trkpt lat="42.75755291964177" lon="-8.682203269514572"><ele>73.0</ele><time>2026-04-16T16:55:48.999Z</time></trkpt><trkpt lat="42.757461310791804" lon="-8.682025713940547"><ele>74.0</ele><time>2026-04-16T16:55:49.999Z</time></trkpt><trkpt lat="42.75737046918832" lon="-8.681852890714813"><ele>75.0</ele><time>2026-04-16T16:55:50.999Z</time></trkpt><trkpt lat="42.75727723338233" lon="-8.681673693250993"><ele>71.66666666666667</ele><time>2026-04-16T16:55:51.999Z</time></trkpt><trkpt lat="42.757180037754864" lon="-8.681486970243677"><ele>68.33333333333334</ele><time>2026-04-16T16:55:52.999Z</time></trkpt><trkpt lat="42.757077382337144" lon="-8.681291904144976"><ele>65.0</ele><time>2026-04-16T16:55:53.999Z</time></trkpt><trkpt lat="42.75697336055859" lon="-8.681093663811728"><ele>63.66666666666667</ele><time>2026-04-16T16:55:54.999Z</time></trkpt><trkpt lat="42.756873519603836" lon="-8.680897307810971"><ele>62.33333333333333</ele><time>2026-04-16T16:55:55.999Z</time></trkpt><trkpt lat="42.7567804904602" lon="-8.68070707436225"><ele>61.0</ele><time>2026-04-16T16:55:56.999Z</time></trkpt><trkpt lat="42.75667888225638" lon="-8.680545610501962"><ele>61.0</ele><time>2026-04-16T16:55:57.999Z</time></trkpt><trkpt lat="42.75656603434884" lon="-8.680406206905406"><ele>61.0</ele><time>2026-04-16T16:55:58.999Z</time></trkpt><trkpt lat="42.75645501499472" lon="-8.680237611377203"><ele>61.0</ele><time>2026-04-16T16:55:59.999Z</time></trkpt><trkpt lat="42.75636775854675" lon="-8.680042118323616"><ele>58.33333333333333</ele><time>2026-04-16T16:56:00.999Z</time></trkpt><trkpt lat="42.75631220362256" lon="-8.679796334340338"><ele>55.66666666666667</ele><time>2026-04-16T16:56:01.999Z</time></trkpt><trkpt lat="42.756304920156694" lon="-8.679544758757686"><ele>53.0</ele><time>2026-04-16T16:56:02.999Z</time></trkpt><trkpt lat="42.7563068782816" lon="-8.679349210977456"><ele>51.66666666666667</ele><time>2026-04-16T16:56:03.999Z</time></trkpt><trkpt lat="42.756268666675716" lon="-8.679157113228758"><ele>50.33333333333333</ele><time>2026-04-16T16:56:04.999Z</time></trkpt><trkpt lat="42.756181927222606" lon="-8.678980185987657"><ele>49.0</ele><time>2026-04-16T16:56:05.999Z</time></trkpt><trkpt lat="42.7560714301211" lon="-8.678813889995478"><ele>49.0</ele><time>2026-04-16T16:56:06.999Z</time></trkpt><trkpt lat="42.75594533993171" lon="-8.678655083003347"><ele>49.0</ele><time>2026-04-16T16:56:07.999Z</time></trkpt><trkpt lat="42.75581814912407" lon="-8.678503209252089"><ele>49.0</ele><time>2026-04-16T16:56:08.999Z</time></trkpt><trkpt lat="42.75571042508834" lon="-8.678367544700944"><ele>49.0</ele><time>2026-04-16T16:56:09.998Z</time></trkpt><trkpt lat="42.75561892510346" lon="-8.678250971615734"><ele>49.0</ele><time>2026-04-16T16:56:10.998Z</time></trkpt><trkpt lat="42.75552879808754" lon="-8.678164043950902"><ele>49.0</ele><time>2026-04-16T16:56:11.998Z</time></trkpt><trkpt lat="42.75543824935495" lon="-8.678112862287497"><ele>49.0</ele><time>2026-04-16T16:56:12.998Z</time></trkpt><trkpt lat="42.755346308164334" lon="-8.6780798421655"><ele>49.0</ele><time>2026-04-16T16:56:13.998Z</time></trkpt><trkpt lat="42.75526870505446" lon="-8.678031233329962"><ele>48.99999999999999</ele><time>2026-04-16T16:56:14.998Z</time></trkpt><trkpt lat="42.75521555278476" lon="-8.677957815025955"><ele>49.0</ele><time>2026-04-16T16:56:15.998Z</time></trkpt><trkpt lat="42.755191516564835" lon="-8.677856173828022"><ele>49.0</ele><time>2026-04-16T16:56:16.998Z</time></trkpt><trkpt lat="42.755193644210266" lon="-8.677753039119407"><ele>49.0</ele><time>2026-04-16T16:56:17.998Z</time></trkpt><trkpt lat="42.755228828249244" lon="-8.67767030719257"><ele>48.99999999999999</ele><time>2026-04-16T16:56:18.998Z</time></trkpt><trkpt lat="42.75530208888393" lon="-8.677613907713505"><ele>49.0</ele><time>2026-04-16T16:56:19.998Z</time></trkpt><trkpt lat="42.75538409247067" lon="-8.6776000114031"><ele>49.0</ele><time>2026-04-16T16:56:20.998Z</time></trkpt><trkpt lat="42.75545203871354" lon="-8.67763018775964"><ele>49.0</ele><time>2026-04-16T16:56:21.998Z</time></trkpt><trkpt lat="42.755504507459484" lon="-8.677700205320168"><ele>49.0</ele><time>2026-04-16T16:56:22.998Z</time></trkpt><trkpt lat="42.755533643415" lon="-8.677810315626573"><ele>49.0</ele><time>2026-04-16T16:56:23.998Z</time></trkpt><trkpt lat="42.75554182288228" lon="-8.677948970520031"><ele>49.0</ele><time>2026-04-16T16:56:24.998Z</time></trkpt><trkpt lat="42.75557862904397" lon="-8.678100664684045"><ele>49.0</ele><time>2026-04-16T16:56:25.998Z</time></trkpt><trkpt lat="42.755659703027476" lon="-8.678243235052097"><ele>49.0</ele><time>2026-04-16T16:56:26.998Z</time></trkpt><trkpt lat="42.75577707092753" lon="-8.678380817532178"><ele>49.0</ele><time>2026-04-16T16:56:27.998Z</time></trkpt><trkpt lat="42.7558927179897" lon="-8.678523886463903"><ele>49.0</ele><time>2026-04-16T16:56:28.998Z</time></trkpt><trkpt lat="42.756027663593024" lon="-8.678644726005778"><ele>49.0</ele><time>2026-04-16T16:56:29.998Z</time></trkpt><trkpt lat="42.756159341900876" lon="-8.678799751619271"><ele>49.0</ele><time>2026-04-16T16:56:30.998Z</time></trkpt><trkpt lat="42.75628072798355" lon="-8.678994651740895"><ele>49.0</ele><time>2026-04-16T16:56:31.998Z</time></trkpt><trkpt lat="42.75634373260957" lon="-8.679256745532484"><ele>50.33333333333333</ele><time>2026-04-16T16:56:32.998Z</time></trkpt><trkpt lat="42.756396393094946" lon="-8.679524227307388"><ele>51.66666666666667</ele><time>2026-04-16T16:56:33.998Z</time></trkpt><trkpt lat="42.75641182377774" lon="-8.679842212704788"><ele>53.0</ele><time>2026-04-16T16:56:34.998Z</time></trkpt><trkpt lat="42.756507376172515" lon="-8.680132653424309"><ele>57.0</ele><time>2026-04-16T16:56:35.998Z</time></trkpt><trkpt lat="42.75667154515704" lon="-8.68035835317992"><ele>61.0</ele><time>2026-04-16T16:56:36.998Z</time></trkpt><trkpt lat="42.75680219082507" lon="-8.680635078451411"><ele>59.5</ele><time>2026-04-16T16:56:37.998Z</time></trkpt><trkpt lat="42.75695396622373" lon="-8.680916416995212"><ele>58.0</ele><time>2026-04-16T16:56:38.998Z</time></trkpt><trkpt lat="42.7571075215258" lon="-8.681216887205897"><ele>61.5</ele><time>2026-04-16T16:56:39.998Z</time></trkpt><trkpt lat="42.757262259383715" lon="-8.681526451111102"><ele>65.0</ele><time>2026-04-16T16:56:40.998Z</time></trkpt><trkpt lat="42.75742091989594" lon="-8.681834571200003"><ele>68.5</ele><time>2026-04-16T16:56:41.998Z</time></trkpt><trkpt lat="42.757582977524244" lon="-8.682148617416916"><ele>72.0</ele><time>2026-04-16T16:56:42.998Z</time></trkpt><trkpt lat="42.75772600371159" lon="-8.682428940265458"><ele>72.0</ele><time>2026-04-16T16:56:43.998Z</time></trkpt><trkpt lat="42.75786067850085" lon="-8.682685495743186"><ele>72.0</ele><time>2026-04-16T16:56:44.998Z</time></trkpt><trkpt lat="42.75798437234702" lon="-8.682923363006047"><ele>72.0</ele><time>2026-04-16T16:56:45.998Z</time></trkpt><trkpt lat="42.75809669571705" lon="-8.683146970575384"><ele>72.33333333333333</ele><time>2026-04-16T16:56:46.998Z</time></trkpt><trkpt lat="42.75819952967757" lon="-8.683364634850768"><ele>72.66666666666666</ele><time>2026-04-16T16:56:47.998Z</time></trkpt><trkpt lat="42.75829335038556" lon="-8.683563573274892"><ele>73.0</ele><time>2026-04-16T16:56:48.998Z</time></trkpt><trkpt lat="42.75838451837167" lon="-8.68375442566175"><ele>73.0</ele><time>2026-04-16T16:56:50Z</time></trkpt><trkpt lat="42.758478203902484" lon="-8.683951253193996"><ele>73.0</ele><time>2026-04-16T16:56:51Z</time></trkpt><trkpt lat="42.75857269844534" lon="-8.684153732998325"><ele>73.0</ele><time>2026-04-16T16:56:52Z</time></trkpt><trkpt lat="42.75866799804087" lon="-8.684356651542542"><ele>74.0</ele><time>2026-04-16T16:56:53Z</time></trkpt><trkpt lat="42.758765277924624" lon="-8.684563361257883"><ele>75.0</ele><time>2026-04-16T16:56:54Z</time></trkpt><trkpt lat="42.75886644171644" lon="-8.684772450162376"><ele>76.0</ele><time>2026-04-16T16:56:55Z</time></trkpt><trkpt lat="42.75897386457012" lon="-8.684978613914119"><ele>76.0</ele><time>2026-04-16T16:56:56Z</time></trkpt><trkpt lat="42.759083383094605" lon="-8.685183506094798"><ele>76.0</ele><time>2026-04-16T16:56:57Z</time></trkpt><trkpt lat="42.759189852302434" lon="-8.685390390201258"><ele>76.0</ele><time>2026-04-16T16:56:58Z</time></trkpt><trkpt lat="42.75928748658875" lon="-8.685588153593864"><ele>73.33333333333333</ele><time>2026-04-16T16:56:59Z</time></trkpt><trkpt lat="42.75938444347441" lon="-8.685779959829137"><ele>70.66666666666667</ele><time>2026-04-16T16:57:00Z</time></trkpt><trkpt lat="42.75948759759494" lon="-8.685961167374009"><ele>68.0</ele><time>2026-04-16T16:57:01Z</time></trkpt><trkpt lat="42.759588025046725" lon="-8.686135120876346"><ele>66.0</ele><time>2026-04-16T16:57:02Z</time></trkpt><trkpt lat="42.7596858673969" lon="-8.686307474439467"><ele>64.0</ele><time>2026-04-16T16:57:03Z</time></trkpt><trkpt lat="42.75977537183484" lon="-8.68648038272724"><ele>62.0</ele><time>2026-04-16T16:57:04Z</time></trkpt><trkpt lat="42.759861383282875" lon="-8.686654576064594"><ele>62.0</ele><time>2026-04-16T16:57:05Z</time></trkpt><trkpt lat="42.75994696146191" lon="-8.686830427957293"><ele>62.0</ele><time>2026-04-16T16:57:06Z</time></trkpt><trkpt lat="42.76001423977829" lon="-8.687012134687473"><ele>62.0</ele><time>2026-04-16T16:57:07Z</time></trkpt><trkpt lat="42.760057091965" lon="-8.687199093415764"><ele>62.0</ele><time>2026-04-16T16:57:08Z</time></trkpt><trkpt lat="42.76009310673298" lon="-8.687390091690588"><ele>62.25</ele><time>2026-04-16T16:57:09Z</time></trkpt><trkpt lat="42.76014331116644" lon="-8.68756944241786"><ele>62.5</ele><time>2026-04-16T16:57:10Z</time></trkpt><trkpt lat="42.7601932918871" lon="-8.687748093856559"><ele>62.75</ele><time>2026-04-16T16:57:11Z</time></trkpt><trkpt lat="42.76025094656209" lon="-8.687908831351022"><ele>63.0</ele><time>2026-04-16T16:57:12Z</time></trkpt><trkpt lat="42.7603108334918" lon="-8.688052638375877"><ele>63.0</ele><time>2026-04-16T16:57:12.999Z</time></trkpt><trkpt lat="42.760358504252444" lon="-8.688214520445264"><ele>63.0</ele><time>2026-04-16T16:57:13.999Z</time></trkpt><trkpt lat="42.76038992777945" lon="-8.688392553775069"><ele>63.0</ele><time>2026-04-16T16:57:14.999Z</time></trkpt><trkpt lat="42.76041239737965" lon="-8.6885771649272"><ele>63.0</ele><time>2026-04-16T16:57:15.999Z</time></trkpt><trkpt lat="42.760435334037865" lon="-8.68876148212522"><ele>63.25</ele><time>2026-04-16T16:57:16.999Z</time></trkpt><trkpt lat="42.760465926845406" lon="-8.688943782940482"><ele>63.5</ele><time>2026-04-16T16:57:17.999Z</time></trkpt><trkpt lat="42.760501168725035" lon="-8.689113736924845"><ele>63.75</ele><time>2026-04-16T16:57:18.999Z</time></trkpt><trkpt lat="42.76054013876152" lon="-8.68927374243079"><ele>64.0</ele><time>2026-04-16T16:57:19.999Z</time></trkpt><trkpt lat="42.76058241671146" lon="-8.689437540900373"><ele>64.5</ele><time>2026-04-16T16:57:20.999Z</time></trkpt><trkpt lat="42.76062941029689" lon="-8.689606291871183"><ele>65.0</ele><time>2026-04-16T16:57:21.999Z</time></trkpt><trkpt lat="42.76067982008707" lon="-8.689778213181897"><ele>65.5</ele><time>2026-04-16T16:57:22.999Z</time></trkpt><trkpt lat="42.760734557414615" lon="-8.689942562106388"><ele>66.0</ele><time>2026-04-16T16:57:23.999Z</time></trkpt><trkpt lat="42.76080262847567" lon="-8.690092280911394"><ele>66.0</ele><time>2026-04-16T16:57:24.999Z</time></trkpt><trkpt lat="42.76088870620544" lon="-8.690229016620933"><ele>66.0</ele><time>2026-04-16T16:57:25.999Z</time></trkpt><trkpt lat="42.76098874576318" lon="-8.690350197071234"><ele>66.0</ele><time>2026-04-16T16:57:26.999Z</time></trkpt><trkpt lat="42.76109140719267" lon="-8.690472916000472"><ele>66.0</ele><time>2026-04-16T16:57:27.999Z</time></trkpt><trkpt lat="42.76118963770401" lon="-8.690609107369966"><ele>66.5</ele><time>2026-04-16T16:57:28.999Z</time></trkpt><trkpt lat="42.76129231946026" lon="-8.690745702307762"><ele>67.0</ele><time>2026-04-16T16:57:29.999Z</time></trkpt><trkpt lat="42.76140041711291" lon="-8.690877656695267"><ele>67.5</ele><time>2026-04-16T16:57:30.999Z</time></trkpt><trkpt lat="42.761504242694514" lon="-8.691012759372144"><ele>68.0</ele><time>2026-04-16T16:57:31.999Z</time></trkpt><trkpt lat="42.76159423068582" lon="-8.691141667973687"><ele>68.0</ele><time>2026-04-16T16:57:32.999Z</time></trkpt><trkpt lat="42.761676835438415" lon="-8.691260716270703"><ele>68.0</ele><time>2026-04-16T16:57:33.999Z</time></trkpt><trkpt lat="42.761754339093756" lon="-8.691373922182013"><ele>68.0</ele><time>2026-04-16T16:57:34.999Z</time></trkpt><trkpt lat="42.76182039513554" lon="-8.69148370642173"><ele>68.0</ele><time>2026-04-16T16:57:35.999Z</time></trkpt><trkpt lat="42.761871914546205" lon="-8.691572656673442"><ele>68.0</ele><time>2026-04-16T16:57:36.999Z</time></trkpt><trkpt lat="42.761931742494404" lon="-8.691637843799398"><ele>67.33333333333334</ele><time>2026-04-16T16:57:37.999Z</time></trkpt><trkpt lat="42.76200182177164" lon="-8.691671799071434"><ele>66.66666666666667</ele><time>2026-04-16T16:57:38.999Z</time></trkpt><trkpt lat="42.762075129476784" lon="-8.691674991115306"><ele>66.0</ele><time>2026-04-16T16:57:39.999Z</time></trkpt><trkpt lat="42.76216274317404" lon="-8.69166991998024"><ele>65.33333333333333</ele><time>2026-04-16T16:57:40.999Z</time></trkpt><trkpt lat="42.76226476735661" lon="-8.6916629510542"><ele>64.66666666666666</ele><time>2026-04-16T16:57:41.999Z</time></trkpt><trkpt lat="42.76237649131239" lon="-8.691656370457357"><ele>64.0</ele><time>2026-04-16T16:57:42.999Z</time></trkpt><trkpt lat="42.76247471448545" lon="-8.691654247999393"><ele>64.0</ele><time>2026-04-16T16:57:43.999Z</time></trkpt><trkpt lat="42.76257429190319" lon="-8.69164636196381"><ele>64.0</ele><time>2026-04-16T16:57:44.999Z</time></trkpt><trkpt lat="42.7626872773051" lon="-8.691642051279153"><ele>64.0</ele><time>2026-04-16T16:57:45.999Z</time></trkpt><trkpt lat="42.76281577924804" lon="-8.691640085003652"><ele>64.0</ele><time>2026-04-16T16:57:46.999Z</time></trkpt><trkpt lat="42.76294804085772" lon="-8.691639695847387"><ele>63.75</ele><time>2026-04-16T16:57:47.999Z</time></trkpt><trkpt lat="42.76306940149943" lon="-8.691637950617512"><ele>63.5</ele><time>2026-04-16T16:57:48.999Z</time></trkpt><trkpt lat="42.76318385777549" lon="-8.691617701113163"><ele>63.25</ele><time>2026-04-16T16:57:49.999Z</time></trkpt><trkpt lat="42.76329690205527" lon="-8.691573979842278"><ele>63.0</ele><time>2026-04-16T16:57:50.999Z</time></trkpt><trkpt lat="42.76341258593362" lon="-8.691494359660357"><ele>61.66666666666667</ele><time>2026-04-16T16:57:51.999Z</time></trkpt><trkpt lat="42.763541834665006" lon="-8.691405382535459"><ele>60.333333333333336</ele><time>2026-04-16T16:57:52.999Z</time></trkpt><trkpt lat="42.76369333244188" lon="-8.691331817021497"><ele>59.0</ele><time>2026-04-16T16:57:53.999Z</time></trkpt><trkpt lat="42.763865023135416" lon="-8.691283015122112"><ele>59.0</ele><time>2026-04-16T16:57:54.999Z</time></trkpt><trkpt lat="42.76403647833311" lon="-8.691249105195652"><ele>59.0</ele><time>2026-04-16T16:57:55.999Z</time></trkpt><trkpt lat="42.76420250721602" lon="-8.691212627117737"><ele>59.0</ele><time>2026-04-16T16:57:56.999Z</time></trkpt><trkpt lat="42.76436101167071" lon="-8.691166743071069"><ele>59.333333333333336</ele><time>2026-04-16T16:57:57.999Z</time></trkpt><trkpt lat="42.76451401259501" lon="-8.691109824843075"><ele>59.66666666666667</ele><time>2026-04-16T16:57:58.999Z</time></trkpt><trkpt lat="42.76466162612835" lon="-8.691055010010759"><ele>60.0</ele><time>2026-04-16T16:57:59.999Z</time></trkpt><trkpt lat="42.76480914581224" lon="-8.691033203473795"><ele>60.0</ele><time>2026-04-16T16:58:00.999Z</time></trkpt><trkpt lat="42.76495332057868" lon="-8.691045567266992"><ele>60.0</ele><time>2026-04-16T16:58:01.999Z</time></trkpt><trkpt lat="42.76509646219128" lon="-8.691091824555597"><ele>60.0</ele><time>2026-04-16T16:58:02.999Z</time></trkpt><trkpt lat="42.76523744911518" lon="-8.691148206040099"><ele>60.0</ele><time>2026-04-16T16:58:03.999Z</time></trkpt><trkpt lat="42.7653776715746" lon="-8.691169517290241"><ele>58.33333333333333</ele><time>2026-04-16T16:58:04.999Z</time></trkpt><trkpt lat="42.76551959168745" lon="-8.691138911303693"><ele>56.666666666666664</ele><time>2026-04-16T16:58:05.999Z</time></trkpt><trkpt lat="42.76566763323369" lon="-8.691085637987987"><ele>55.0</ele><time>2026-04-16T16:58:06.999Z</time></trkpt><trkpt lat="42.765829638692" lon="-8.691037058727494"><ele>55.0</ele><time>2026-04-16T16:58:07.999Z</time></trkpt><trkpt lat="42.765993999139866" lon="-8.690990532273794"><ele>55.0</ele><time>2026-04-16T16:58:08.999Z</time></trkpt><trkpt lat="42.766151169682956" lon="-8.690946772571706"><ele>55.0</ele><time>2026-04-16T16:58:09.999Z</time></trkpt><trkpt lat="42.76630505184568" lon="-8.690902236621625"><ele>53.666666666666664</ele><time>2026-04-16T16:58:10.999Z</time></trkpt><trkpt lat="42.766455630716436" lon="-8.690854322870587"><ele>52.33333333333333</ele><time>2026-04-16T16:58:11.999Z</time></trkpt><trkpt lat="42.76660313790322" lon="-8.69080844191851"><ele>51.0</ele><time>2026-04-16T16:58:12.999Z</time></trkpt><trkpt lat="42.766746388066245" lon="-8.690759447025965"><ele>50.0</ele><time>2026-04-16T16:58:13.999Z</time></trkpt><trkpt lat="42.7668865950047" lon="-8.690704005823823"><ele>49.0</ele><time>2026-04-16T16:58:14.998Z</time></trkpt><trkpt lat="42.76702279721879" lon="-8.690646226593211"><ele>48.0</ele><time>2026-04-16T16:58:15.998Z</time></trkpt><trkpt lat="42.767153637226734" lon="-8.690571979521902"><ele>47.0</ele><time>2026-04-16T16:58:16.998Z</time></trkpt><trkpt lat="42.7672780195812" lon="-8.690489723689376"><ele>47.0</ele><time>2026-04-16T16:58:17.998Z</time></trkpt><trkpt lat="42.76739937278946" lon="-8.69040556011064"><ele>47.0</ele><time>2026-04-16T16:58:18.998Z</time></trkpt><trkpt lat="42.76751692931877" lon="-8.690310915742206"><ele>47.0</ele><time>2026-04-16T16:58:19.998Z</time></trkpt><trkpt lat="42.76763184148714" lon="-8.690198798988202"><ele>47.0</ele><time>2026-04-16T16:58:20.998Z</time></trkpt><trkpt lat="42.76775352128028" lon="-8.690084372893747"><ele>47.33333333333333</ele><time>2026-04-16T16:58:21.998Z</time></trkpt><trkpt lat="42.767881907207915" lon="-8.689966731287086"><ele>47.666666666666664</ele><time>2026-04-16T16:58:22.998Z</time></trkpt><trkpt lat="42.76801328411731" lon="-8.689852808841422"><ele>48.0</ele><time>2026-04-16T16:58:23.998Z</time></trkpt><trkpt lat="42.76813550953688" lon="-8.689744483144382"><ele>48.0</ele><time>2026-04-16T16:58:24.998Z</time></trkpt><trkpt lat="42.7682440222083" lon="-8.689645015479314"><ele>48.0</ele><time>2026-04-16T16:58:25.998Z</time></trkpt><trkpt lat="42.76833877149561" lon="-8.689548935703366"><ele>48.0</ele><time>2026-04-16T16:58:26.998Z</time></trkpt><trkpt lat="42.76842191128426" lon="-8.689458496669376"><ele>48.0</ele><time>2026-04-16T16:58:27.998Z</time></trkpt><trkpt lat="42.76849265213785" lon="-8.68936903679416"><ele>47.5</ele><time>2026-04-16T16:58:28.998Z</time></trkpt><trkpt lat="42.768533226227106" lon="-8.689263872487748"><ele>47.0</ele><time>2026-04-16T16:58:29.998Z</time></trkpt><trkpt lat="42.768524502850696" lon="-8.689142168264313"><ele>46.5</ele><time>2026-04-16T16:58:30.998Z</time></trkpt><trkpt lat="42.768557219730305" lon="-8.689041426178816"><ele>46.0</ele><time>2026-04-16T16:58:31.998Z</time></trkpt><trkpt lat="42.76856644120063" lon="-8.688944448598454"><ele>45.5</ele><time>2026-04-16T16:58:32.998Z</time></trkpt><trkpt lat="42.76857720574572" lon="-8.688858582447175"><ele>45.0</ele><time>2026-04-16T16:58:33.998Z</time></trkpt><trkpt lat="42.76855771685515" lon="-8.688707708471794"><ele>44.833333333333336</ele><time>2026-04-16T16:58:35.998Z</time></trkpt><trkpt lat="42.76854319527363" lon="-8.68856621002917"><ele>44.666666666666664</ele><time>2026-04-16T16:58:37.998Z</time></trkpt><trkpt lat="42.76851627964004" lon="-8.688483532150025"><ele>44.5</ele><time>2026-04-16T16:58:38.998Z</time></trkpt><trkpt lat="42.76845532321262" lon="-8.688421947245017"><ele>44.33333333333333</ele><time>2026-04-16T16:58:39.998Z</time></trkpt><trkpt lat="42.76840552067113" lon="-8.688356251997751"><ele>44.166666666666664</ele><time>2026-04-16T16:58:40.998Z</time></trkpt><trkpt lat="42.768305182076766" lon="-8.688260224458233"><ele>44.0</ele><time>2026-04-16T16:58:42.998Z</time></trkpt><trkpt lat="42.76824380389019" lon="-8.68820680881809"><ele>44.0</ele><time>2026-04-16T16:58:43.998Z</time></trkpt><trkpt lat="42.76816950595475" lon="-8.688143210982497"><ele>44.0</ele><time>2026-04-16T16:58:44.998Z</time></trkpt><trkpt lat="42.768095598639185" lon="-8.688064207834262"><ele>44.0</ele><time>2026-04-16T16:58:45.998Z</time></trkpt><trkpt lat="42.768002511071415" lon="-8.688003507242167"><ele>44.0</ele><time>2026-04-16T16:58:46.998Z</time></trkpt><trkpt lat="42.76790985624198" lon="-8.687941272832209"><ele>44.0</ele><time>2026-04-16T16:58:47.998Z</time></trkpt><trkpt lat="42.76781717746163" lon="-8.687869767800219"><ele>44.0</ele><time>2026-04-16T16:58:48.998Z</time></trkpt><trkpt lat="42.7677245530643" lon="-8.687796684498625"><ele>44.0</ele><time>2026-04-16T16:58:49.998Z</time></trkpt><trkpt lat="42.76763122239829" lon="-8.68773233468403"><ele>44.0</ele><time>2026-04-16T16:58:50.998Z</time></trkpt><trkpt lat="42.76754204105284" lon="-8.687658146680185"><ele>44.0</ele><time>2026-04-16T16:58:51.998Z</time></trkpt><trkpt lat="42.76744710466476" lon="-8.687592074488377"><ele>44.0</ele><time>2026-04-16T16:58:52.998Z</time></trkpt><trkpt lat="42.76735334843887" lon="-8.687521207050487"><ele>43.83333333333333</ele><time>2026-04-16T16:58:53.998Z</time></trkpt><trkpt lat="42.76727047007989" lon="-8.687453139495087"><ele>43.666666666666664</ele><time>2026-04-16T16:58:54.998Z</time></trkpt><trkpt lat="42.76719557406633" lon="-8.687395103304976"><ele>43.5</ele><time>2026-04-16T16:58:56Z</time></trkpt><trkpt lat="42.76712634652254" lon="-8.68732847263274"><ele>43.333333333333336</ele><time>2026-04-16T16:58:57Z</time></trkpt><trkpt lat="42.767067376404796" lon="-8.687246391306479"><ele>43.16666666666667</ele><time>2026-04-16T16:58:58Z</time></trkpt><trkpt lat="42.76702602031855" lon="-8.687138915953238"><ele>43.0</ele><time>2026-04-16T16:58:59Z</time></trkpt><trkpt lat="42.76700171616931" lon="-8.687016766133528"><ele>42.4</ele><time>2026-04-16T16:59:00Z</time></trkpt><trkpt lat="42.766989889632086" lon="-8.686872949912528"><ele>41.8</ele><time>2026-04-16T16:59:01Z</time></trkpt><trkpt lat="42.766981222932095" lon="-8.686732802005347"><ele>41.2</ele><time>2026-04-16T16:59:02Z</time></trkpt><trkpt lat="42.76697141745843" lon="-8.686604205957687"><ele>40.6</ele><time>2026-04-16T16:59:03Z</time></trkpt><trkpt lat="42.76694548200535" lon="-8.68647336348573"><ele>40.0</ele><time>2026-04-16T16:59:03.999Z</time></trkpt><trkpt lat="42.76693937369517" lon="-8.686339469939147"><ele>40.0</ele><time>2026-04-16T16:59:05Z</time></trkpt><trkpt lat="42.76692753620764" lon="-8.686184741822814"><ele>40.0</ele><time>2026-04-16T16:59:06Z</time></trkpt><trkpt lat="42.7669131072879" lon="-8.686024573478717"><ele>40.0</ele><time>2026-04-16T16:59:07Z</time></trkpt><trkpt lat="42.766900101721525" lon="-8.685878786744516"><ele>40.0</ele><time>2026-04-16T16:59:08Z</time></trkpt><trkpt lat="42.76688918949171" lon="-8.685739553016953"><ele>40.0</ele><time>2026-04-16T16:59:09Z</time></trkpt><trkpt lat="42.76687800271318" lon="-8.685610239010709"><ele>40.0</ele><time>2026-04-16T16:59:10Z</time></trkpt><trkpt lat="42.7668687686489" lon="-8.685489370862252"><ele>40.0</ele><time>2026-04-16T16:59:11Z</time></trkpt><trkpt lat="42.76686246502327" lon="-8.68539349339667"><ele>40.0</ele><time>2026-04-16T16:59:11.999Z</time></trkpt><trkpt lat="42.766845134842754" lon="-8.685295957987073"><ele>40.0</ele><time>2026-04-16T16:59:13.999Z</time></trkpt><trkpt lat="42.766739481644606" lon="-8.685336814086021"><ele>40.0</ele><time>2026-04-16T16:59:17.999Z</time></trkpt><trkpt lat="42.76666119686094" lon="-8.68547146195318"><ele>39.66666666666667</ele><time>2026-04-16T16:59:19.999Z</time></trkpt><trkpt lat="42.76661031932481" lon="-8.68555200325034"><ele>39.333333333333336</ele><time>2026-04-16T16:59:20.999Z</time></trkpt><trkpt lat="42.766555985571685" lon="-8.685643339820414"><ele>39.0</ele><time>2026-04-16T16:59:21.999Z</time></trkpt><trkpt lat="42.7665012824077" lon="-8.685729706422663"><ele>38.666666666666664</ele><time>2026-04-16T16:59:22.999Z</time></trkpt><trkpt lat="42.766439397587064" lon="-8.685823964046772"><ele>38.33333333333333</ele><time>2026-04-16T16:59:23.999Z</time></trkpt><trkpt lat="42.76637171448962" lon="-8.68592602971729"><ele>38.0</ele><time>2026-04-16T16:59:24.999Z</time></trkpt><trkpt lat="42.76629988628827" lon="-8.686035953475836"><ele>38.5</ele><time>2026-04-16T16:59:25.999Z</time></trkpt><trkpt lat="42.7662198271636" lon="-8.686158163052607"><ele>39.0</ele><time>2026-04-16T16:59:26.999Z</time></trkpt><trkpt lat="42.76613979954682" lon="-8.686276994622984"><ele>39.5</ele><time>2026-04-16T16:59:27.999Z</time></trkpt><trkpt lat="42.766047064116314" lon="-8.686414128747105"><ele>40.0</ele><time>2026-04-16T16:59:28.999Z</time></trkpt><trkpt lat="42.76594656029614" lon="-8.68655687943404"><ele>40.66666666666667</ele><time>2026-04-16T16:59:29.999Z</time></trkpt><trkpt lat="42.76583265332524" lon="-8.686713430223515"><ele>41.333333333333336</ele><time>2026-04-16T16:59:30.999Z</time></trkpt><trkpt lat="42.76571379922004" lon="-8.686879339038144"><ele>42.0</ele><time>2026-04-16T16:59:31.999Z</time></trkpt><trkpt lat="42.765608091410016" lon="-8.687025591257125"><ele>42.400000000000006</ele><time>2026-04-16T16:59:32.999Z</time></trkpt><trkpt lat="42.7655111019873" lon="-8.687159289000444"><ele>42.800000000000004</ele><time>2026-04-16T16:59:33.999Z</time></trkpt><trkpt lat="42.76542530582558" lon="-8.687279370081551"><ele>43.2</ele><time>2026-04-16T16:59:34.999Z</time></trkpt><trkpt lat="42.76535460290737" lon="-8.687376062653632"><ele>43.6</ele><time>2026-04-16T16:59:35.999Z</time></trkpt><trkpt lat="42.765297811396564" lon="-8.687452587050231"><ele>44.0</ele><time>2026-04-16T16:59:36.999Z</time></trkpt><trkpt lat="42.765236238963986" lon="-8.687540937097356"><ele>44.800000000000004</ele><time>2026-04-16T16:59:38.999Z</time></trkpt><trkpt lat="42.76530019555038" lon="-8.687778161314748"><ele>45.6</ele><time>2026-04-16T17:00:37.998Z</time></trkpt><trkpt lat="42.76534443955828" lon="-8.687865906684394"><ele>46.4</ele><time>2026-04-16T17:00:41.998Z</time></trkpt><trkpt lat="42.765386951671765" lon="-8.687936607069783"><ele>47.2</ele><time>2026-04-16T17:01:03Z</time></trkpt><trkpt lat="42.76542939583097" lon="-8.6880287030194"><ele>48.0</ele><time>2026-04-16T17:01:47.999Z</time></trkpt><trkpt lat="42.765379214195306" lon="-8.687934872193273"><ele>48.0</ele><time>2026-04-16T17:03:01.998Z</time></trkpt><trkpt lat="42.765449078389594" lon="-8.688065053800733"><ele>48.0</ele><time>2026-04-16T17:03:30Z</time></trkpt><trkpt lat="42.7653946846235" lon="-8.688010803725637"><ele>48.0</ele><time>2026-04-16T17:03:52.999Z</time></trkpt><trkpt lat="42.76545159913863" lon="-8.688058483660036"><ele>48.0</ele><time>2026-04-16T17:05:18Z</time></trkpt><trkpt lat="42.765267519822785" lon="-8.688080046006597"><ele>48.0</ele><time>2026-04-16T17:05:30.066Z</time></trkpt><trkpt lat="42.765483787594334" lon="-8.68795200835992"><ele>48.0</ele><time>2026-04-16T17:05:42.648Z</time></trkpt><trkpt lat="42.76552092424184" lon="-8.687860624570707"><ele>48.0</ele><time>2026-04-16T17:05:43.278Z</time></trkpt><trkpt lat="42.76541330505143" lon="-8.687777652662135"><ele>48.0</ele><time>2026-04-16T17:07:52.651Z</time></trkpt><trkpt lat="42.76532811108543" lon="-8.687900762818426"><ele>48.0</ele><time>2026-04-16T17:08:01.012Z</time></trkpt><trkpt lat="42.765409237099576" lon="-8.68788800980621"><ele>48.0</ele><time>2026-04-16T17:08:08.997Z</time></trkpt><trkpt lat="42.765472432237004" lon="-8.687944418331405"><ele>48.0</ele><time>2026-04-16T17:08:19Z</time></trkpt><trkpt lat="42.765472346828666" lon="-8.688037505274197"><ele>48.0</ele><time>2026-04-16T17:08:29Z</time></trkpt><trkpt lat="42.76548949487881" lon="-8.687948441319381"><ele>48.0</ele><time>2026-04-16T17:10:04.998Z</time></trkpt></trkseg></trk></gpx>